<?xml version="1.0" encoding="UTF-8" standalone="no" ?>
<gpx xmlns="http://www.topografix.com/GPX/1/1" xmlns:xsi="http://www.w3.org/2001/XMLSchema-instance" xsi:schemaLocation="http://www.topografix.com/GPX/1/1 http://www.topografix.com/GPX/1/1/gpx.xsd" version="1.1" creator="VisuGPX - https://www.visugpx.com">
  <metadata>
    <name>Peillon et Blausasc Singles</name>
    <desc><![CDATA[Boucle entre Blausasc et Peillon avec braucoup des singles]]></desc>
  </metadata>
  <trk>
    <name><![CDATA[Aktueller Track: 26 JUL 2014 09:38]]></name>
    <trkseg>
      <trkpt lat="43.71411" lon="7.2969">
        <ele>98.67</ele>
        <time>2014-07-26T07:38:04Z</time>
      </trkpt>
      <trkpt lat="43.71409" lon="7.2969">
        <ele>92.42</ele>
        <time>2014-07-26T07:38:29Z</time>
      </trkpt>
      <trkpt lat="43.71408" lon="7.29691">
        <ele>91.94</ele>
        <time>2014-07-26T07:38:47Z</time>
      </trkpt>
      <trkpt lat="43.71424" lon="7.29663">
        <ele>75.12</ele>
        <time>2014-07-26T07:39:18Z</time>
      </trkpt>
      <trkpt lat="43.71408" lon="7.29682">
        <ele>95.79</ele>
        <time>2014-07-26T07:39:39Z</time>
      </trkpt>
      <trkpt lat="43.71413" lon="7.29689">
        <ele>95.79</ele>
        <time>2014-07-26T07:39:54Z</time>
      </trkpt>
      <trkpt lat="43.71418" lon="7.29684">
        <ele>94.83</ele>
        <time>2014-07-26T07:40:12Z</time>
      </trkpt>
      <trkpt lat="43.7142" lon="7.2968">
        <ele>93.39</ele>
        <time>2014-07-26T07:40:29Z</time>
      </trkpt>
      <trkpt lat="43.71422" lon="7.29668">
        <ele>94.35</ele>
        <time>2014-07-26T07:40:50Z</time>
      </trkpt>
      <trkpt lat="43.71419" lon="7.29665">
        <ele>95.79</ele>
        <time>2014-07-26T07:41:07Z</time>
      </trkpt>
      <trkpt lat="43.71417" lon="7.29664">
        <ele>97.23</ele>
        <time>2014-07-26T07:41:21Z</time>
      </trkpt>
      <trkpt lat="43.71393" lon="7.29654">
        <ele>92.9</ele>
        <time>2014-07-26T07:41:31Z</time>
      </trkpt>
      <trkpt lat="43.71328" lon="7.29629">
        <ele>92.42</ele>
        <time>2014-07-26T07:41:42Z</time>
      </trkpt>
      <trkpt lat="43.71293" lon="7.29604">
        <ele>92.42</ele>
        <time>2014-07-26T07:41:49Z</time>
      </trkpt>
      <trkpt lat="43.71291" lon="7.29598">
        <ele>92.42</ele>
        <time>2014-07-26T07:41:50Z</time>
      </trkpt>
      <trkpt lat="43.71304" lon="7.29585">
        <ele>90.98</ele>
        <time>2014-07-26T07:41:54Z</time>
      </trkpt>
      <trkpt lat="43.7131" lon="7.29585">
        <ele>90.98</ele>
        <time>2014-07-26T07:41:55Z</time>
      </trkpt>
      <trkpt lat="43.71343" lon="7.29581">
        <ele>89.54</ele>
        <time>2014-07-26T07:42:01Z</time>
      </trkpt>
      <trkpt lat="43.71348" lon="7.2958">
        <ele>89.06</ele>
        <time>2014-07-26T07:42:02Z</time>
      </trkpt>
      <trkpt lat="43.71352" lon="7.29578">
        <ele>89.06</ele>
        <time>2014-07-26T07:42:03Z</time>
      </trkpt>
      <trkpt lat="43.71356" lon="7.29575">
        <ele>88.1</ele>
        <time>2014-07-26T07:42:04Z</time>
      </trkpt>
      <trkpt lat="43.71359" lon="7.29572">
        <ele>87.14</ele>
        <time>2014-07-26T07:42:05Z</time>
      </trkpt>
      <trkpt lat="43.71361" lon="7.29568">
        <ele>87.14</ele>
        <time>2014-07-26T07:42:06Z</time>
      </trkpt>
      <trkpt lat="43.71362" lon="7.29564">
        <ele>87.14</ele>
        <time>2014-07-26T07:42:07Z</time>
      </trkpt>
      <trkpt lat="43.71362" lon="7.2956">
        <ele>87.14</ele>
        <time>2014-07-26T07:42:08Z</time>
      </trkpt>
      <trkpt lat="43.71361" lon="7.29557">
        <ele>87.14</ele>
        <time>2014-07-26T07:42:09Z</time>
      </trkpt>
      <trkpt lat="43.71358" lon="7.29554">
        <ele>86.66</ele>
        <time>2014-07-26T07:42:10Z</time>
      </trkpt>
      <trkpt lat="43.71354" lon="7.29554">
        <ele>86.18</ele>
        <time>2014-07-26T07:42:11Z</time>
      </trkpt>
      <trkpt lat="43.7135" lon="7.29553">
        <ele>86.18</ele>
        <time>2014-07-26T07:42:12Z</time>
      </trkpt>
      <trkpt lat="43.71346" lon="7.29552">
        <ele>85.69</ele>
        <time>2014-07-26T07:42:13Z</time>
      </trkpt>
      <trkpt lat="43.71341" lon="7.29551">
        <ele>85.21</ele>
        <time>2014-07-26T07:42:14Z</time>
      </trkpt>
      <trkpt lat="43.71335" lon="7.29551">
        <ele>85.21</ele>
        <time>2014-07-26T07:42:15Z</time>
      </trkpt>
      <trkpt lat="43.71306" lon="7.29543">
        <ele>84.73</ele>
        <time>2014-07-26T07:42:21Z</time>
      </trkpt>
      <trkpt lat="43.71307" lon="7.29538">
        <ele>84.25</ele>
        <time>2014-07-26T07:42:22Z</time>
      </trkpt>
      <trkpt lat="43.71312" lon="7.29536">
        <ele>83.77</ele>
        <time>2014-07-26T07:42:23Z</time>
      </trkpt>
      <trkpt lat="43.71315" lon="7.29533">
        <ele>83.29</ele>
        <time>2014-07-26T07:42:24Z</time>
      </trkpt>
      <trkpt lat="43.7132" lon="7.29533">
        <ele>82.81</ele>
        <time>2014-07-26T07:42:25Z</time>
      </trkpt>
      <trkpt lat="43.71325" lon="7.29534">
        <ele>82.81</ele>
        <time>2014-07-26T07:42:26Z</time>
      </trkpt>
      <trkpt lat="43.71329" lon="7.29534">
        <ele>82.33</ele>
        <time>2014-07-26T07:42:27Z</time>
      </trkpt>
      <trkpt lat="43.71364" lon="7.29535">
        <ele>80.89</ele>
        <time>2014-07-26T07:42:34Z</time>
      </trkpt>
      <trkpt lat="43.71367" lon="7.29535">
        <ele>80.89</ele>
        <time>2014-07-26T07:42:35Z</time>
      </trkpt>
      <trkpt lat="43.71371" lon="7.29533">
        <ele>80.89</ele>
        <time>2014-07-26T07:42:36Z</time>
      </trkpt>
      <trkpt lat="43.71373" lon="7.2953">
        <ele>80.89</ele>
        <time>2014-07-26T07:42:37Z</time>
      </trkpt>
      <trkpt lat="43.71374" lon="7.29524">
        <ele>80.89</ele>
        <time>2014-07-26T07:42:38Z</time>
      </trkpt>
      <trkpt lat="43.71375" lon="7.29519">
        <ele>80.89</ele>
        <time>2014-07-26T07:42:39Z</time>
      </trkpt>
      <trkpt lat="43.71374" lon="7.29513">
        <ele>80.41</ele>
        <time>2014-07-26T07:42:40Z</time>
      </trkpt>
      <trkpt lat="43.71371" lon="7.29509">
        <ele>80.41</ele>
        <time>2014-07-26T07:42:41Z</time>
      </trkpt>
      <trkpt lat="43.71367" lon="7.29504">
        <ele>80.41</ele>
        <time>2014-07-26T07:42:42Z</time>
      </trkpt>
      <trkpt lat="43.71363" lon="7.295">
        <ele>80.41</ele>
        <time>2014-07-26T07:42:43Z</time>
      </trkpt>
      <trkpt lat="43.71358" lon="7.29496">
        <ele>80.41</ele>
        <time>2014-07-26T07:42:44Z</time>
      </trkpt>
      <trkpt lat="43.71348" lon="7.2949">
        <ele>80.41</ele>
        <time>2014-07-26T07:42:46Z</time>
      </trkpt>
      <trkpt lat="43.71343" lon="7.29487">
        <ele>80.41</ele>
        <time>2014-07-26T07:42:47Z</time>
      </trkpt>
      <trkpt lat="43.71336" lon="7.29485">
        <ele>80.41</ele>
        <time>2014-07-26T07:42:48Z</time>
      </trkpt>
      <trkpt lat="43.7133" lon="7.29484">
        <ele>80.41</ele>
        <time>2014-07-26T07:42:49Z</time>
      </trkpt>
      <trkpt lat="43.71324" lon="7.29484">
        <ele>80.41</ele>
        <time>2014-07-26T07:42:50Z</time>
      </trkpt>
      <trkpt lat="43.71319" lon="7.29483">
        <ele>80.89</ele>
        <time>2014-07-26T07:42:51Z</time>
      </trkpt>
      <trkpt lat="43.71313" lon="7.29481">
        <ele>80.89</ele>
        <time>2014-07-26T07:42:52Z</time>
      </trkpt>
      <trkpt lat="43.7131" lon="7.29479">
        <ele>80.89</ele>
        <time>2014-07-26T07:42:53Z</time>
      </trkpt>
      <trkpt lat="43.71306" lon="7.29476">
        <ele>80.41</ele>
        <time>2014-07-26T07:42:55Z</time>
      </trkpt>
      <trkpt lat="43.71306" lon="7.29471">
        <ele>79.93</ele>
        <time>2014-07-26T07:42:56Z</time>
      </trkpt>
      <trkpt lat="43.71339" lon="7.29456">
        <ele>75.12</ele>
        <time>2014-07-26T07:43:07Z</time>
      </trkpt>
      <trkpt lat="43.71372" lon="7.29444">
        <ele>64.07</ele>
        <time>2014-07-26T07:43:18Z</time>
      </trkpt>
      <trkpt lat="43.71377" lon="7.29444">
        <ele>63.58</ele>
        <time>2014-07-26T07:43:19Z</time>
      </trkpt>
      <trkpt lat="43.71421" lon="7.29456">
        <ele>58.3</ele>
        <time>2014-07-26T07:43:29Z</time>
      </trkpt>
      <trkpt lat="43.7143" lon="7.29459">
        <ele>57.82</ele>
        <time>2014-07-26T07:43:31Z</time>
      </trkpt>
      <trkpt lat="43.71495" lon="7.29461">
        <ele>50.61</ele>
        <time>2014-07-26T07:43:46Z</time>
      </trkpt>
      <trkpt lat="43.71571" lon="7.29444">
        <ele>48.68</ele>
        <time>2014-07-26T07:44:03Z</time>
      </trkpt>
      <trkpt lat="43.71631" lon="7.29439">
        <ele>45.32</ele>
        <time>2014-07-26T07:44:18Z</time>
      </trkpt>
      <trkpt lat="43.71694" lon="7.29433">
        <ele>50.13</ele>
        <time>2014-07-26T07:44:35Z</time>
      </trkpt>
      <trkpt lat="43.71766" lon="7.2943">
        <ele>51.57</ele>
        <time>2014-07-26T07:44:50Z</time>
      </trkpt>
      <trkpt lat="43.7183" lon="7.29437">
        <ele>50.13</ele>
        <time>2014-07-26T07:45:03Z</time>
      </trkpt>
      <trkpt lat="43.71834" lon="7.29437">
        <ele>50.13</ele>
        <time>2014-07-26T07:45:04Z</time>
      </trkpt>
      <trkpt lat="43.71872" lon="7.29443">
        <ele>49.65</ele>
        <time>2014-07-26T07:45:11Z</time>
      </trkpt>
      <trkpt lat="43.71882" lon="7.29441">
        <ele>50.13</ele>
        <time>2014-07-26T07:45:13Z</time>
      </trkpt>
      <trkpt lat="43.71934" lon="7.29409">
        <ele>51.09</ele>
        <time>2014-07-26T07:45:26Z</time>
      </trkpt>
      <trkpt lat="43.71939" lon="7.29408">
        <ele>51.09</ele>
        <time>2014-07-26T07:45:27Z</time>
      </trkpt>
      <trkpt lat="43.71953" lon="7.29405">
        <ele>52.05</ele>
        <time>2014-07-26T07:45:30Z</time>
      </trkpt>
      <trkpt lat="43.7204" lon="7.2939">
        <ele>44.36</ele>
        <time>2014-07-26T07:45:48Z</time>
      </trkpt>
      <trkpt lat="43.72045" lon="7.29389">
        <ele>44.36</ele>
        <time>2014-07-26T07:45:49Z</time>
      </trkpt>
      <trkpt lat="43.72049" lon="7.29387">
        <ele>44.36</ele>
        <time>2014-07-26T07:45:50Z</time>
      </trkpt>
      <trkpt lat="43.72124" lon="7.29347">
        <ele>42.44</ele>
        <time>2014-07-26T07:46:07Z</time>
      </trkpt>
      <trkpt lat="43.72178" lon="7.29318">
        <ele>41.95</ele>
        <time>2014-07-26T07:46:20Z</time>
      </trkpt>
      <trkpt lat="43.72182" lon="7.29316">
        <ele>42.44</ele>
        <time>2014-07-26T07:46:21Z</time>
      </trkpt>
      <trkpt lat="43.72252" lon="7.29265">
        <ele>49.16</ele>
        <time>2014-07-26T07:46:40Z</time>
      </trkpt>
      <trkpt lat="43.72255" lon="7.2926">
        <ele>49.65</ele>
        <time>2014-07-26T07:46:41Z</time>
      </trkpt>
      <trkpt lat="43.72268" lon="7.29217">
        <ele>50.61</ele>
        <time>2014-07-26T07:46:53Z</time>
      </trkpt>
      <trkpt lat="43.72266" lon="7.29215">
        <ele>47.72</ele>
        <time>2014-07-26T07:47:10Z</time>
      </trkpt>
      <trkpt lat="43.72263" lon="7.29213">
        <ele>50.13</ele>
        <time>2014-07-26T07:47:31Z</time>
      </trkpt>
      <trkpt lat="43.72264" lon="7.29211">
        <ele>50.61</ele>
        <time>2014-07-26T07:47:32Z</time>
      </trkpt>
      <trkpt lat="43.72272" lon="7.29166">
        <ele>50.13</ele>
        <time>2014-07-26T07:47:41Z</time>
      </trkpt>
      <trkpt lat="43.72288" lon="7.2904">
        <ele>47.72</ele>
        <time>2014-07-26T07:47:58Z</time>
      </trkpt>
      <trkpt lat="43.72303" lon="7.28911">
        <ele>44.84</ele>
        <time>2014-07-26T07:48:15Z</time>
      </trkpt>
      <trkpt lat="43.72312" lon="7.28815">
        <ele>44.36</ele>
        <time>2014-07-26T07:48:30Z</time>
      </trkpt>
      <trkpt lat="43.7232" lon="7.28736">
        <ele>44.36</ele>
        <time>2014-07-26T07:48:43Z</time>
      </trkpt>
      <trkpt lat="43.72322" lon="7.28733">
        <ele>43.88</ele>
        <time>2014-07-26T07:48:44Z</time>
      </trkpt>
      <trkpt lat="43.72325" lon="7.28732">
        <ele>43.88</ele>
        <time>2014-07-26T07:48:45Z</time>
      </trkpt>
      <trkpt lat="43.72382" lon="7.28713">
        <ele>45.32</ele>
        <time>2014-07-26T07:48:57Z</time>
      </trkpt>
      <trkpt lat="43.72444" lon="7.28672">
        <ele>46.76</ele>
        <time>2014-07-26T07:49:11Z</time>
      </trkpt>
      <trkpt lat="43.72507" lon="7.28595">
        <ele>46.28</ele>
        <time>2014-07-26T07:49:28Z</time>
      </trkpt>
      <trkpt lat="43.72519" lon="7.28573">
        <ele>46.28</ele>
        <time>2014-07-26T07:49:32Z</time>
      </trkpt>
      <trkpt lat="43.72535" lon="7.28546">
        <ele>45.8</ele>
        <time>2014-07-26T07:49:37Z</time>
      </trkpt>
      <trkpt lat="43.72587" lon="7.2845">
        <ele>45.32</ele>
        <time>2014-07-26T07:49:55Z</time>
      </trkpt>
      <trkpt lat="43.72615" lon="7.28391">
        <ele>45.32</ele>
        <time>2014-07-26T07:50:08Z</time>
      </trkpt>
      <trkpt lat="43.72671" lon="7.28314">
        <ele>46.28</ele>
        <time>2014-07-26T07:50:24Z</time>
      </trkpt>
      <trkpt lat="43.72743" lon="7.28234">
        <ele>47.72</ele>
        <time>2014-07-26T07:50:44Z</time>
      </trkpt>
      <trkpt lat="43.72824" lon="7.28207">
        <ele>50.61</ele>
        <time>2014-07-26T07:51:00Z</time>
      </trkpt>
      <trkpt lat="43.72916" lon="7.28197">
        <ele>53.49</ele>
        <time>2014-07-26T07:51:18Z</time>
      </trkpt>
      <trkpt lat="43.72996" lon="7.28215">
        <ele>55.89</ele>
        <time>2014-07-26T07:51:34Z</time>
      </trkpt>
      <trkpt lat="43.7302" lon="7.28228">
        <ele>56.86</ele>
        <time>2014-07-26T07:51:39Z</time>
      </trkpt>
      <trkpt lat="43.73029" lon="7.28232">
        <ele>57.34</ele>
        <time>2014-07-26T07:51:41Z</time>
      </trkpt>
      <trkpt lat="43.7309" lon="7.28314">
        <ele>55.41</ele>
        <time>2014-07-26T07:51:57Z</time>
      </trkpt>
      <trkpt lat="43.73153" lon="7.28421">
        <ele>59.26</ele>
        <time>2014-07-26T07:52:16Z</time>
      </trkpt>
      <trkpt lat="43.73221" lon="7.28482">
        <ele>57.34</ele>
        <time>2014-07-26T07:52:33Z</time>
      </trkpt>
      <trkpt lat="43.73222" lon="7.28485">
        <ele>57.34</ele>
        <time>2014-07-26T07:52:34Z</time>
      </trkpt>
      <trkpt lat="43.73223" lon="7.2849">
        <ele>57.34</ele>
        <time>2014-07-26T07:52:35Z</time>
      </trkpt>
      <trkpt lat="43.73227" lon="7.28504">
        <ele>56.86</ele>
        <time>2014-07-26T07:52:39Z</time>
      </trkpt>
      <trkpt lat="43.73229" lon="7.28506">
        <ele>56.37</ele>
        <time>2014-07-26T07:52:40Z</time>
      </trkpt>
      <trkpt lat="43.73231" lon="7.28507">
        <ele>56.37</ele>
        <time>2014-07-26T07:52:41Z</time>
      </trkpt>
      <trkpt lat="43.73235" lon="7.2851">
        <ele>56.86</ele>
        <time>2014-07-26T07:52:43Z</time>
      </trkpt>
      <trkpt lat="43.73236" lon="7.28512">
        <ele>56.86</ele>
        <time>2014-07-26T07:52:44Z</time>
      </trkpt>
      <trkpt lat="43.73237" lon="7.28515">
        <ele>56.86</ele>
        <time>2014-07-26T07:52:45Z</time>
      </trkpt>
      <trkpt lat="43.73237" lon="7.28518">
        <ele>57.34</ele>
        <time>2014-07-26T07:52:46Z</time>
      </trkpt>
      <trkpt lat="43.73238" lon="7.28522">
        <ele>57.34</ele>
        <time>2014-07-26T07:52:47Z</time>
      </trkpt>
      <trkpt lat="43.73239" lon="7.28527">
        <ele>57.34</ele>
        <time>2014-07-26T07:52:48Z</time>
      </trkpt>
      <trkpt lat="43.73239" lon="7.28532">
        <ele>56.86</ele>
        <time>2014-07-26T07:52:49Z</time>
      </trkpt>
      <trkpt lat="43.73244" lon="7.28546">
        <ele>55.89</ele>
        <time>2014-07-26T07:52:59Z</time>
      </trkpt>
      <trkpt lat="43.73245" lon="7.28546">
        <ele>55.41</ele>
        <time>2014-07-26T07:53:01Z</time>
      </trkpt>
      <trkpt lat="43.73245" lon="7.28549">
        <ele>55.41</ele>
        <time>2014-07-26T07:53:02Z</time>
      </trkpt>
      <trkpt lat="43.73246" lon="7.28552">
        <ele>55.41</ele>
        <time>2014-07-26T07:53:03Z</time>
      </trkpt>
      <trkpt lat="43.73248" lon="7.28587">
        <ele>55.41</ele>
        <time>2014-07-26T07:53:11Z</time>
      </trkpt>
      <trkpt lat="43.73246" lon="7.28591">
        <ele>55.41</ele>
        <time>2014-07-26T07:53:12Z</time>
      </trkpt>
      <trkpt lat="43.73242" lon="7.28596">
        <ele>54.93</ele>
        <time>2014-07-26T07:53:13Z</time>
      </trkpt>
      <trkpt lat="43.73237" lon="7.28603">
        <ele>54.93</ele>
        <time>2014-07-26T07:53:15Z</time>
      </trkpt>
      <trkpt lat="43.73236" lon="7.28608">
        <ele>54.93</ele>
        <time>2014-07-26T07:53:16Z</time>
      </trkpt>
      <trkpt lat="43.73238" lon="7.28654">
        <ele>56.37</ele>
        <time>2014-07-26T07:53:24Z</time>
      </trkpt>
      <trkpt lat="43.73242" lon="7.2867">
        <ele>56.37</ele>
        <time>2014-07-26T07:53:26Z</time>
      </trkpt>
      <trkpt lat="43.73294" lon="7.28788">
        <ele>57.82</ele>
        <time>2014-07-26T07:53:44Z</time>
      </trkpt>
      <trkpt lat="43.73332" lon="7.28878">
        <ele>60.22</ele>
        <time>2014-07-26T07:53:59Z</time>
      </trkpt>
      <trkpt lat="43.73374" lon="7.29005">
        <ele>61.66</ele>
        <time>2014-07-26T07:54:19Z</time>
      </trkpt>
      <trkpt lat="43.73409" lon="7.2911">
        <ele>63.58</ele>
        <time>2014-07-26T07:54:36Z</time>
      </trkpt>
      <trkpt lat="43.73429" lon="7.29212">
        <ele>66.47</ele>
        <time>2014-07-26T07:54:51Z</time>
      </trkpt>
      <trkpt lat="43.73443" lon="7.29343">
        <ele>69.83</ele>
        <time>2014-07-26T07:55:09Z</time>
      </trkpt>
      <trkpt lat="43.73458" lon="7.29473">
        <ele>71.76</ele>
        <time>2014-07-26T07:55:28Z</time>
      </trkpt>
      <trkpt lat="43.73476" lon="7.29611">
        <ele>73.2</ele>
        <time>2014-07-26T07:55:48Z</time>
      </trkpt>
      <trkpt lat="43.73486" lon="7.29747">
        <ele>77.04</ele>
        <time>2014-07-26T07:56:08Z</time>
      </trkpt>
      <trkpt lat="43.73502" lon="7.29839">
        <ele>81.85</ele>
        <time>2014-07-26T07:56:23Z</time>
      </trkpt>
      <trkpt lat="43.73516" lon="7.29947">
        <ele>87.14</ele>
        <time>2014-07-26T07:56:39Z</time>
      </trkpt>
      <trkpt lat="43.73533" lon="7.30061">
        <ele>86.18</ele>
        <time>2014-07-26T07:56:58Z</time>
      </trkpt>
      <trkpt lat="43.7354" lon="7.30143">
        <ele>79.45</ele>
        <time>2014-07-26T07:57:10Z</time>
      </trkpt>
      <trkpt lat="43.73543" lon="7.30169">
        <ele>80.89</ele>
        <time>2014-07-26T07:57:14Z</time>
      </trkpt>
      <trkpt lat="43.73544" lon="7.30175">
        <ele>80.89</ele>
        <time>2014-07-26T07:57:15Z</time>
      </trkpt>
      <trkpt lat="43.73547" lon="7.30188">
        <ele>81.85</ele>
        <time>2014-07-26T07:57:17Z</time>
      </trkpt>
      <trkpt lat="43.73553" lon="7.30228">
        <ele>83.77</ele>
        <time>2014-07-26T07:57:23Z</time>
      </trkpt>
      <trkpt lat="43.73582" lon="7.30369">
        <ele>87.14</ele>
        <time>2014-07-26T07:57:44Z</time>
      </trkpt>
      <trkpt lat="43.73617" lon="7.30492">
        <ele>86.66</ele>
        <time>2014-07-26T07:58:03Z</time>
      </trkpt>
      <trkpt lat="43.73667" lon="7.30589">
        <ele>84.73</ele>
        <time>2014-07-26T07:58:22Z</time>
      </trkpt>
      <trkpt lat="43.73743" lon="7.30675">
        <ele>87.14</ele>
        <time>2014-07-26T07:58:42Z</time>
      </trkpt>
      <trkpt lat="43.73828" lon="7.30744">
        <ele>85.69</ele>
        <time>2014-07-26T07:59:02Z</time>
      </trkpt>
      <trkpt lat="43.73919" lon="7.30792">
        <ele>83.77</ele>
        <time>2014-07-26T07:59:21Z</time>
      </trkpt>
      <trkpt lat="43.73992" lon="7.30836">
        <ele>80.89</ele>
        <time>2014-07-26T07:59:37Z</time>
      </trkpt>
      <trkpt lat="43.7403" lon="7.30858">
        <ele>79.93</ele>
        <time>2014-07-26T07:59:46Z</time>
      </trkpt>
      <trkpt lat="43.74076" lon="7.30873">
        <ele>83.77</ele>
        <time>2014-07-26T08:00:00Z</time>
      </trkpt>
      <trkpt lat="43.74101" lon="7.30898">
        <ele>85.21</ele>
        <time>2014-07-26T08:00:10Z</time>
      </trkpt>
      <trkpt lat="43.74106" lon="7.30916">
        <ele>84.73</ele>
        <time>2014-07-26T08:00:13Z</time>
      </trkpt>
      <trkpt lat="43.74107" lon="7.30923">
        <ele>84.73</ele>
        <time>2014-07-26T08:00:14Z</time>
      </trkpt>
      <trkpt lat="43.7411" lon="7.31047">
        <ele>87.14</ele>
        <time>2014-07-26T08:00:32Z</time>
      </trkpt>
      <trkpt lat="43.7411" lon="7.31107">
        <ele>88.1</ele>
        <time>2014-07-26T08:00:43Z</time>
      </trkpt>
      <trkpt lat="43.74111" lon="7.31113">
        <ele>88.1</ele>
        <time>2014-07-26T08:00:44Z</time>
      </trkpt>
      <trkpt lat="43.74112" lon="7.31117">
        <ele>88.1</ele>
        <time>2014-07-26T08:00:45Z</time>
      </trkpt>
      <trkpt lat="43.74115" lon="7.31121">
        <ele>88.1</ele>
        <time>2014-07-26T08:00:46Z</time>
      </trkpt>
      <trkpt lat="43.74117" lon="7.31124">
        <ele>87.14</ele>
        <time>2014-07-26T08:00:47Z</time>
      </trkpt>
      <trkpt lat="43.7412" lon="7.31126">
        <ele>86.18</ele>
        <time>2014-07-26T08:00:48Z</time>
      </trkpt>
      <trkpt lat="43.74124" lon="7.31127">
        <ele>85.69</ele>
        <time>2014-07-26T08:00:49Z</time>
      </trkpt>
      <trkpt lat="43.74128" lon="7.31127">
        <ele>84.73</ele>
        <time>2014-07-26T08:00:50Z</time>
      </trkpt>
      <trkpt lat="43.74133" lon="7.31126">
        <ele>84.25</ele>
        <time>2014-07-26T08:00:51Z</time>
      </trkpt>
      <trkpt lat="43.74143" lon="7.31126">
        <ele>83.29</ele>
        <time>2014-07-26T08:00:53Z</time>
      </trkpt>
      <trkpt lat="43.74148" lon="7.31127">
        <ele>83.29</ele>
        <time>2014-07-26T08:00:54Z</time>
      </trkpt>
      <trkpt lat="43.74153" lon="7.31129">
        <ele>82.81</ele>
        <time>2014-07-26T08:00:55Z</time>
      </trkpt>
      <trkpt lat="43.74157" lon="7.31132">
        <ele>82.81</ele>
        <time>2014-07-26T08:00:56Z</time>
      </trkpt>
      <trkpt lat="43.74162" lon="7.31136">
        <ele>82.33</ele>
        <time>2014-07-26T08:00:57Z</time>
      </trkpt>
      <trkpt lat="43.74201" lon="7.31166">
        <ele>80.41</ele>
        <time>2014-07-26T08:01:09Z</time>
      </trkpt>
      <trkpt lat="43.742" lon="7.31166">
        <ele>80.41</ele>
        <time>2014-07-26T08:01:12Z</time>
      </trkpt>
      <trkpt lat="43.74201" lon="7.31168">
        <ele>79.93</ele>
        <time>2014-07-26T08:01:13Z</time>
      </trkpt>
      <trkpt lat="43.74203" lon="7.3117">
        <ele>79.93</ele>
        <time>2014-07-26T08:01:14Z</time>
      </trkpt>
      <trkpt lat="43.74242" lon="7.31213">
        <ele>79.45</ele>
        <time>2014-07-26T08:01:24Z</time>
      </trkpt>
      <trkpt lat="43.74295" lon="7.31289">
        <ele>81.85</ele>
        <time>2014-07-26T08:01:39Z</time>
      </trkpt>
      <trkpt lat="43.74333" lon="7.31333">
        <ele>82.81</ele>
        <time>2014-07-26T08:01:52Z</time>
      </trkpt>
      <trkpt lat="43.74379" lon="7.3139">
        <ele>86.18</ele>
        <time>2014-07-26T08:02:08Z</time>
      </trkpt>
      <trkpt lat="43.74394" lon="7.31405">
        <ele>87.14</ele>
        <time>2014-07-26T08:02:21Z</time>
      </trkpt>
      <trkpt lat="43.7441" lon="7.31426">
        <ele>89.06</ele>
        <time>2014-07-26T08:02:30Z</time>
      </trkpt>
      <trkpt lat="43.74445" lon="7.31459">
        <ele>91.94</ele>
        <time>2014-07-26T08:02:41Z</time>
      </trkpt>
      <trkpt lat="43.74449" lon="7.31462">
        <ele>92.9</ele>
        <time>2014-07-26T08:02:42Z</time>
      </trkpt>
      <trkpt lat="43.74454" lon="7.31464">
        <ele>92.9</ele>
        <time>2014-07-26T08:02:43Z</time>
      </trkpt>
      <trkpt lat="43.74459" lon="7.31467">
        <ele>92.9</ele>
        <time>2014-07-26T08:02:44Z</time>
      </trkpt>
      <trkpt lat="43.74462" lon="7.31469">
        <ele>93.87</ele>
        <time>2014-07-26T08:02:45Z</time>
      </trkpt>
      <trkpt lat="43.74466" lon="7.31473">
        <ele>94.35</ele>
        <time>2014-07-26T08:02:46Z</time>
      </trkpt>
      <trkpt lat="43.7452" lon="7.31533">
        <ele>99.15</ele>
        <time>2014-07-26T08:03:04Z</time>
      </trkpt>
      <trkpt lat="43.74547" lon="7.31582">
        <ele>101.56</ele>
        <time>2014-07-26T08:03:15Z</time>
      </trkpt>
      <trkpt lat="43.74548" lon="7.3159">
        <ele>101.08</ele>
        <time>2014-07-26T08:03:16Z</time>
      </trkpt>
      <trkpt lat="43.74549" lon="7.31597">
        <ele>101.08</ele>
        <time>2014-07-26T08:03:17Z</time>
      </trkpt>
      <trkpt lat="43.74556" lon="7.3172">
        <ele>101.08</ele>
        <time>2014-07-26T08:03:36Z</time>
      </trkpt>
      <trkpt lat="43.74563" lon="7.31757">
        <ele>101.08</ele>
        <time>2014-07-26T08:03:42Z</time>
      </trkpt>
      <trkpt lat="43.74564" lon="7.31762">
        <ele>101.08</ele>
        <time>2014-07-26T08:03:43Z</time>
      </trkpt>
      <trkpt lat="43.74566" lon="7.31768">
        <ele>101.08</ele>
        <time>2014-07-26T08:03:44Z</time>
      </trkpt>
      <trkpt lat="43.74568" lon="7.31773">
        <ele>101.08</ele>
        <time>2014-07-26T08:03:45Z</time>
      </trkpt>
      <trkpt lat="43.7457" lon="7.31777">
        <ele>100.6</ele>
        <time>2014-07-26T08:03:46Z</time>
      </trkpt>
      <trkpt lat="43.74573" lon="7.31782">
        <ele>100.6</ele>
        <time>2014-07-26T08:03:47Z</time>
      </trkpt>
      <trkpt lat="43.74587" lon="7.31808">
        <ele>100.11</ele>
        <time>2014-07-26T08:03:52Z</time>
      </trkpt>
      <trkpt lat="43.74588" lon="7.31815">
        <ele>99.63</ele>
        <time>2014-07-26T08:03:53Z</time>
      </trkpt>
      <trkpt lat="43.74595" lon="7.31921">
        <ele>98.19</ele>
        <time>2014-07-26T08:04:08Z</time>
      </trkpt>
      <trkpt lat="43.74597" lon="7.31927">
        <ele>98.19</ele>
        <time>2014-07-26T08:04:09Z</time>
      </trkpt>
      <trkpt lat="43.746" lon="7.31933">
        <ele>98.19</ele>
        <time>2014-07-26T08:04:10Z</time>
      </trkpt>
      <trkpt lat="43.74603" lon="7.31938">
        <ele>98.19</ele>
        <time>2014-07-26T08:04:11Z</time>
      </trkpt>
      <trkpt lat="43.74605" lon="7.31944">
        <ele>97.71</ele>
        <time>2014-07-26T08:04:12Z</time>
      </trkpt>
      <trkpt lat="43.74642" lon="7.31989">
        <ele>96.75</ele>
        <time>2014-07-26T08:04:22Z</time>
      </trkpt>
      <trkpt lat="43.7472" lon="7.32034">
        <ele>96.27</ele>
        <time>2014-07-26T08:04:38Z</time>
      </trkpt>
      <trkpt lat="43.74729" lon="7.32041">
        <ele>96.27</ele>
        <time>2014-07-26T08:04:40Z</time>
      </trkpt>
      <trkpt lat="43.74733" lon="7.32046">
        <ele>96.27</ele>
        <time>2014-07-26T08:04:41Z</time>
      </trkpt>
      <trkpt lat="43.74797" lon="7.3211">
        <ele>97.71</ele>
        <time>2014-07-26T08:04:56Z</time>
      </trkpt>
      <trkpt lat="43.74802" lon="7.32112">
        <ele>97.71</ele>
        <time>2014-07-26T08:04:57Z</time>
      </trkpt>
      <trkpt lat="43.74808" lon="7.32113">
        <ele>97.71</ele>
        <time>2014-07-26T08:04:58Z</time>
      </trkpt>
      <trkpt lat="43.74813" lon="7.32112">
        <ele>98.19</ele>
        <time>2014-07-26T08:04:59Z</time>
      </trkpt>
      <trkpt lat="43.74819" lon="7.32111">
        <ele>98.19</ele>
        <time>2014-07-26T08:05:00Z</time>
      </trkpt>
      <trkpt lat="43.74824" lon="7.32109">
        <ele>98.19</ele>
        <time>2014-07-26T08:05:01Z</time>
      </trkpt>
      <trkpt lat="43.7483" lon="7.32107">
        <ele>98.19</ele>
        <time>2014-07-26T08:05:02Z</time>
      </trkpt>
      <trkpt lat="43.74835" lon="7.32104">
        <ele>97.71</ele>
        <time>2014-07-26T08:05:03Z</time>
      </trkpt>
      <trkpt lat="43.74911" lon="7.32044">
        <ele>98.19</ele>
        <time>2014-07-26T08:05:18Z</time>
      </trkpt>
      <trkpt lat="43.75025" lon="7.31986">
        <ele>95.79</ele>
        <time>2014-07-26T08:05:39Z</time>
      </trkpt>
      <trkpt lat="43.7503" lon="7.31985">
        <ele>95.79</ele>
        <time>2014-07-26T08:05:40Z</time>
      </trkpt>
      <trkpt lat="43.75101" lon="7.3199">
        <ele>96.27</ele>
        <time>2014-07-26T08:05:52Z</time>
      </trkpt>
      <trkpt lat="43.75106" lon="7.31993">
        <ele>96.75</ele>
        <time>2014-07-26T08:05:53Z</time>
      </trkpt>
      <trkpt lat="43.75112" lon="7.31997">
        <ele>96.75</ele>
        <time>2014-07-26T08:05:54Z</time>
      </trkpt>
      <trkpt lat="43.75209" lon="7.32064">
        <ele>97.71</ele>
        <time>2014-07-26T08:06:12Z</time>
      </trkpt>
      <trkpt lat="43.75292" lon="7.32092">
        <ele>99.15</ele>
        <time>2014-07-26T08:06:27Z</time>
      </trkpt>
      <trkpt lat="43.75321" lon="7.3209">
        <ele>99.63</ele>
        <time>2014-07-26T08:06:32Z</time>
      </trkpt>
      <trkpt lat="43.75327" lon="7.32088">
        <ele>99.63</ele>
        <time>2014-07-26T08:06:33Z</time>
      </trkpt>
      <trkpt lat="43.75416" lon="7.32037">
        <ele>102.04</ele>
        <time>2014-07-26T08:06:50Z</time>
      </trkpt>
      <trkpt lat="43.75421" lon="7.32035">
        <ele>102.04</ele>
        <time>2014-07-26T08:06:51Z</time>
      </trkpt>
      <trkpt lat="43.75426" lon="7.32032">
        <ele>102.04</ele>
        <time>2014-07-26T08:06:52Z</time>
      </trkpt>
      <trkpt lat="43.75431" lon="7.3203">
        <ele>102.04</ele>
        <time>2014-07-26T08:06:53Z</time>
      </trkpt>
      <trkpt lat="43.75477" lon="7.32029">
        <ele>103</ele>
        <time>2014-07-26T08:07:01Z</time>
      </trkpt>
      <trkpt lat="43.75483" lon="7.3203">
        <ele>103</ele>
        <time>2014-07-26T08:07:02Z</time>
      </trkpt>
      <trkpt lat="43.75489" lon="7.32032">
        <ele>103</ele>
        <time>2014-07-26T08:07:03Z</time>
      </trkpt>
      <trkpt lat="43.75601" lon="7.32046">
        <ele>104.92</ele>
        <time>2014-07-26T08:07:22Z</time>
      </trkpt>
      <trkpt lat="43.75703" lon="7.32057">
        <ele>109.25</ele>
        <time>2014-07-26T08:07:41Z</time>
      </trkpt>
      <trkpt lat="43.7579" lon="7.32051">
        <ele>111.65</ele>
        <time>2014-07-26T08:07:57Z</time>
      </trkpt>
      <trkpt lat="43.75795" lon="7.3205">
        <ele>112.13</ele>
        <time>2014-07-26T08:07:58Z</time>
      </trkpt>
      <trkpt lat="43.7589" lon="7.32027">
        <ele>115.98</ele>
        <time>2014-07-26T08:08:17Z</time>
      </trkpt>
      <trkpt lat="43.75988" lon="7.3198">
        <ele>117.42</ele>
        <time>2014-07-26T08:08:37Z</time>
      </trkpt>
      <trkpt lat="43.76056" lon="7.31967">
        <ele>119.82</ele>
        <time>2014-07-26T08:08:51Z</time>
      </trkpt>
      <trkpt lat="43.7606" lon="7.3197">
        <ele>120.3</ele>
        <time>2014-07-26T08:08:52Z</time>
      </trkpt>
      <trkpt lat="43.76064" lon="7.31974">
        <ele>120.78</ele>
        <time>2014-07-26T08:08:53Z</time>
      </trkpt>
      <trkpt lat="43.7614" lon="7.32042">
        <ele>126.07</ele>
        <time>2014-07-26T08:09:10Z</time>
      </trkpt>
      <trkpt lat="43.7621" lon="7.32108">
        <ele>131.36</ele>
        <time>2014-07-26T08:09:27Z</time>
      </trkpt>
      <trkpt lat="43.76291" lon="7.32162">
        <ele>134.72</ele>
        <time>2014-07-26T08:09:46Z</time>
      </trkpt>
      <trkpt lat="43.76367" lon="7.32193">
        <ele>135.68</ele>
        <time>2014-07-26T08:10:02Z</time>
      </trkpt>
      <trkpt lat="43.76454" lon="7.32244">
        <ele>133.28</ele>
        <time>2014-07-26T08:10:19Z</time>
      </trkpt>
      <trkpt lat="43.76467" lon="7.32263">
        <ele>128.95</ele>
        <time>2014-07-26T08:10:22Z</time>
      </trkpt>
      <trkpt lat="43.76471" lon="7.32273">
        <ele>127.03</ele>
        <time>2014-07-26T08:10:23Z</time>
      </trkpt>
      <trkpt lat="43.76475" lon="7.32281">
        <ele>125.59</ele>
        <time>2014-07-26T08:10:24Z</time>
      </trkpt>
      <trkpt lat="43.76478" lon="7.3229">
        <ele>124.15</ele>
        <time>2014-07-26T08:10:25Z</time>
      </trkpt>
      <trkpt lat="43.7648" lon="7.32298">
        <ele>122.71</ele>
        <time>2014-07-26T08:10:26Z</time>
      </trkpt>
      <trkpt lat="43.76504" lon="7.32408">
        <ele>117.9</ele>
        <time>2014-07-26T08:10:43Z</time>
      </trkpt>
      <trkpt lat="43.76507" lon="7.32485">
        <ele>115.98</ele>
        <time>2014-07-26T08:10:57Z</time>
      </trkpt>
      <trkpt lat="43.76506" lon="7.32585">
        <ele>115.5</ele>
        <time>2014-07-26T08:11:13Z</time>
      </trkpt>
      <trkpt lat="43.7648" lon="7.32751">
        <ele>109.73</ele>
        <time>2014-07-26T08:11:33Z</time>
      </trkpt>
      <trkpt lat="43.76505" lon="7.3288">
        <ele>111.17</ele>
        <time>2014-07-26T08:11:52Z</time>
      </trkpt>
      <trkpt lat="43.76509" lon="7.32891">
        <ele>111.65</ele>
        <time>2014-07-26T08:11:54Z</time>
      </trkpt>
      <trkpt lat="43.76512" lon="7.32896">
        <ele>111.65</ele>
        <time>2014-07-26T08:11:55Z</time>
      </trkpt>
      <trkpt lat="43.76515" lon="7.329">
        <ele>111.65</ele>
        <time>2014-07-26T08:11:56Z</time>
      </trkpt>
      <trkpt lat="43.76519" lon="7.32904">
        <ele>111.65</ele>
        <time>2014-07-26T08:11:57Z</time>
      </trkpt>
      <trkpt lat="43.76523" lon="7.32908">
        <ele>111.65</ele>
        <time>2014-07-26T08:11:58Z</time>
      </trkpt>
      <trkpt lat="43.76583" lon="7.32964">
        <ele>113.09</ele>
        <time>2014-07-26T08:12:14Z</time>
      </trkpt>
      <trkpt lat="43.76641" lon="7.33006">
        <ele>116.46</ele>
        <time>2014-07-26T08:12:31Z</time>
      </trkpt>
      <trkpt lat="43.76696" lon="7.33048">
        <ele>121.26</ele>
        <time>2014-07-26T08:12:47Z</time>
      </trkpt>
      <trkpt lat="43.76771" lon="7.33107">
        <ele>122.71</ele>
        <time>2014-07-26T08:13:04Z</time>
      </trkpt>
      <trkpt lat="43.76826" lon="7.33147">
        <ele>121.74</ele>
        <time>2014-07-26T08:13:13Z</time>
      </trkpt>
      <trkpt lat="43.76832" lon="7.33153">
        <ele>121.26</ele>
        <time>2014-07-26T08:13:14Z</time>
      </trkpt>
      <trkpt lat="43.76838" lon="7.33158">
        <ele>121.26</ele>
        <time>2014-07-26T08:13:15Z</time>
      </trkpt>
      <trkpt lat="43.76843" lon="7.33163">
        <ele>121.26</ele>
        <time>2014-07-26T08:13:16Z</time>
      </trkpt>
      <trkpt lat="43.76849" lon="7.33167">
        <ele>120.78</ele>
        <time>2014-07-26T08:13:17Z</time>
      </trkpt>
      <trkpt lat="43.76854" lon="7.3317">
        <ele>120.78</ele>
        <time>2014-07-26T08:13:18Z</time>
      </trkpt>
      <trkpt lat="43.7693" lon="7.33233">
        <ele>119.34</ele>
        <time>2014-07-26T08:13:34Z</time>
      </trkpt>
      <trkpt lat="43.77014" lon="7.33272">
        <ele>116.94</ele>
        <time>2014-07-26T08:13:51Z</time>
      </trkpt>
      <trkpt lat="43.77107" lon="7.33316">
        <ele>115.5</ele>
        <time>2014-07-26T08:14:11Z</time>
      </trkpt>
      <trkpt lat="43.77191" lon="7.33319">
        <ele>114.05</ele>
        <time>2014-07-26T08:14:28Z</time>
      </trkpt>
      <trkpt lat="43.77196" lon="7.33319">
        <ele>114.05</ele>
        <time>2014-07-26T08:14:29Z</time>
      </trkpt>
      <trkpt lat="43.77201" lon="7.3332">
        <ele>114.05</ele>
        <time>2014-07-26T08:14:30Z</time>
      </trkpt>
      <trkpt lat="43.77205" lon="7.3332">
        <ele>113.57</ele>
        <time>2014-07-26T08:14:31Z</time>
      </trkpt>
      <trkpt lat="43.7721" lon="7.33322">
        <ele>113.57</ele>
        <time>2014-07-26T08:14:32Z</time>
      </trkpt>
      <trkpt lat="43.77214" lon="7.33324">
        <ele>113.57</ele>
        <time>2014-07-26T08:14:33Z</time>
      </trkpt>
      <trkpt lat="43.77245" lon="7.33336">
        <ele>113.57</ele>
        <time>2014-07-26T08:14:40Z</time>
      </trkpt>
      <trkpt lat="43.77303" lon="7.3339">
        <ele>116.46</ele>
        <time>2014-07-26T08:14:56Z</time>
      </trkpt>
      <trkpt lat="43.77354" lon="7.33497">
        <ele>118.38</ele>
        <time>2014-07-26T08:15:16Z</time>
      </trkpt>
      <trkpt lat="43.77408" lon="7.33572">
        <ele>120.78</ele>
        <time>2014-07-26T08:15:33Z</time>
      </trkpt>
      <trkpt lat="43.77412" lon="7.33576">
        <ele>121.26</ele>
        <time>2014-07-26T08:15:34Z</time>
      </trkpt>
      <trkpt lat="43.77483" lon="7.33645">
        <ele>125.11</ele>
        <time>2014-07-26T08:15:53Z</time>
      </trkpt>
      <trkpt lat="43.77577" lon="7.33741">
        <ele>129.92</ele>
        <time>2014-07-26T08:16:17Z</time>
      </trkpt>
      <trkpt lat="43.7765" lon="7.3377">
        <ele>131.84</ele>
        <time>2014-07-26T08:16:33Z</time>
      </trkpt>
      <trkpt lat="43.77744" lon="7.33796">
        <ele>137.61</ele>
        <time>2014-07-26T08:16:54Z</time>
      </trkpt>
      <trkpt lat="43.77748" lon="7.33801">
        <ele>136.64</ele>
        <time>2014-07-26T08:16:55Z</time>
      </trkpt>
      <trkpt lat="43.77751" lon="7.33808">
        <ele>135.68</ele>
        <time>2014-07-26T08:16:56Z</time>
      </trkpt>
      <trkpt lat="43.77752" lon="7.33815">
        <ele>135.2</ele>
        <time>2014-07-26T08:16:57Z</time>
      </trkpt>
      <trkpt lat="43.77753" lon="7.33821">
        <ele>134.72</ele>
        <time>2014-07-26T08:16:58Z</time>
      </trkpt>
      <trkpt lat="43.77753" lon="7.33828">
        <ele>134.24</ele>
        <time>2014-07-26T08:16:59Z</time>
      </trkpt>
      <trkpt lat="43.77752" lon="7.33835">
        <ele>134.24</ele>
        <time>2014-07-26T08:17:00Z</time>
      </trkpt>
      <trkpt lat="43.77747" lon="7.33876">
        <ele>132.8</ele>
        <time>2014-07-26T08:17:06Z</time>
      </trkpt>
      <trkpt lat="43.7775" lon="7.33954">
        <ele>132.8</ele>
        <time>2014-07-26T08:17:21Z</time>
      </trkpt>
      <trkpt lat="43.77753" lon="7.34031">
        <ele>132.8</ele>
        <time>2014-07-26T08:17:37Z</time>
      </trkpt>
      <trkpt lat="43.77739" lon="7.34065">
        <ele>136.16</ele>
        <time>2014-07-26T08:17:50Z</time>
      </trkpt>
      <trkpt lat="43.77714" lon="7.34089">
        <ele>136.64</ele>
        <time>2014-07-26T08:18:02Z</time>
      </trkpt>
      <trkpt lat="43.77704" lon="7.34098">
        <ele>137.13</ele>
        <time>2014-07-26T08:18:12Z</time>
      </trkpt>
      <trkpt lat="43.77702" lon="7.34099">
        <ele>136.64</ele>
        <time>2014-07-26T08:18:13Z</time>
      </trkpt>
      <trkpt lat="43.77701" lon="7.34101">
        <ele>136.64</ele>
        <time>2014-07-26T08:18:14Z</time>
      </trkpt>
      <trkpt lat="43.77686" lon="7.34104">
        <ele>140.97</ele>
        <time>2014-07-26T08:18:27Z</time>
      </trkpt>
      <trkpt lat="43.77684" lon="7.34103">
        <ele>141.45</ele>
        <time>2014-07-26T08:18:28Z</time>
      </trkpt>
      <trkpt lat="43.77682" lon="7.34101">
        <ele>141.93</ele>
        <time>2014-07-26T08:18:29Z</time>
      </trkpt>
      <trkpt lat="43.77679" lon="7.34062">
        <ele>153.95</ele>
        <time>2014-07-26T08:18:51Z</time>
      </trkpt>
      <trkpt lat="43.77676" lon="7.34059">
        <ele>154.91</ele>
        <time>2014-07-26T08:18:56Z</time>
      </trkpt>
      <trkpt lat="43.77672" lon="7.34066">
        <ele>152.51</ele>
        <time>2014-07-26T08:19:05Z</time>
      </trkpt>
      <trkpt lat="43.77676" lon="7.34073">
        <ele>151.54</ele>
        <time>2014-07-26T08:19:17Z</time>
      </trkpt>
      <trkpt lat="43.77673" lon="7.34102">
        <ele>151.06</ele>
        <time>2014-07-26T08:19:38Z</time>
      </trkpt>
      <trkpt lat="43.77671" lon="7.34128">
        <ele>149.62</ele>
        <time>2014-07-26T08:19:58Z</time>
      </trkpt>
      <trkpt lat="43.77651" lon="7.34152">
        <ele>152.51</ele>
        <time>2014-07-26T08:20:15Z</time>
      </trkpt>
      <trkpt lat="43.77646" lon="7.34156">
        <ele>152.51</ele>
        <time>2014-07-26T08:20:19Z</time>
      </trkpt>
      <trkpt lat="43.77639" lon="7.34157">
        <ele>153.47</ele>
        <time>2014-07-26T08:20:23Z</time>
      </trkpt>
      <trkpt lat="43.77618" lon="7.34146">
        <ele>157.79</ele>
        <time>2014-07-26T08:20:36Z</time>
      </trkpt>
      <trkpt lat="43.7761" lon="7.34119">
        <ele>165.96</ele>
        <time>2014-07-26T08:20:53Z</time>
      </trkpt>
      <trkpt lat="43.77607" lon="7.34081">
        <ele>171.73</ele>
        <time>2014-07-26T08:21:13Z</time>
      </trkpt>
      <trkpt lat="43.77595" lon="7.34073">
        <ele>175.58</ele>
        <time>2014-07-26T08:21:27Z</time>
      </trkpt>
      <trkpt lat="43.77587" lon="7.34085">
        <ele>183.27</ele>
        <time>2014-07-26T08:21:47Z</time>
      </trkpt>
      <trkpt lat="43.77571" lon="7.34098">
        <ele>188.56</ele>
        <time>2014-07-26T08:22:04Z</time>
      </trkpt>
      <trkpt lat="43.77559" lon="7.341">
        <ele>193.36</ele>
        <time>2014-07-26T08:22:19Z</time>
      </trkpt>
      <trkpt lat="43.77547" lon="7.34095">
        <ele>196.25</ele>
        <time>2014-07-26T08:22:28Z</time>
      </trkpt>
      <trkpt lat="43.77541" lon="7.34076">
        <ele>198.65</ele>
        <time>2014-07-26T08:22:36Z</time>
      </trkpt>
      <trkpt lat="43.77521" lon="7.34048">
        <ele>203.46</ele>
        <time>2014-07-26T08:22:53Z</time>
      </trkpt>
      <trkpt lat="43.77518" lon="7.34048">
        <ele>203.94</ele>
        <time>2014-07-26T08:22:57Z</time>
      </trkpt>
      <trkpt lat="43.77515" lon="7.34053">
        <ele>205.86</ele>
        <time>2014-07-26T08:23:03Z</time>
      </trkpt>
      <trkpt lat="43.77497" lon="7.34067">
        <ele>209.7</ele>
        <time>2014-07-26T08:23:22Z</time>
      </trkpt>
      <trkpt lat="43.77478" lon="7.34075">
        <ele>206.82</ele>
        <time>2014-07-26T08:23:41Z</time>
      </trkpt>
      <trkpt lat="43.77455" lon="7.34084">
        <ele>211.63</ele>
        <time>2014-07-26T08:24:02Z</time>
      </trkpt>
      <trkpt lat="43.77453" lon="7.34085">
        <ele>212.59</ele>
        <time>2014-07-26T08:24:04Z</time>
      </trkpt>
      <trkpt lat="43.77425" lon="7.34106">
        <ele>219.32</ele>
        <time>2014-07-26T08:24:26Z</time>
      </trkpt>
      <trkpt lat="43.77416" lon="7.34114">
        <ele>222.2</ele>
        <time>2014-07-26T08:24:38Z</time>
      </trkpt>
      <trkpt lat="43.77393" lon="7.34126">
        <ele>222.2</ele>
        <time>2014-07-26T08:24:45Z</time>
      </trkpt>
      <trkpt lat="43.77381" lon="7.34116">
        <ele>225.09</ele>
        <time>2014-07-26T08:24:50Z</time>
      </trkpt>
      <trkpt lat="43.77392" lon="7.34051">
        <ele>231.33</ele>
        <time>2014-07-26T08:25:13Z</time>
      </trkpt>
      <trkpt lat="43.77405" lon="7.34012">
        <ele>230.85</ele>
        <time>2014-07-26T08:25:31Z</time>
      </trkpt>
      <trkpt lat="43.77403" lon="7.33975">
        <ele>233.26</ele>
        <time>2014-07-26T08:25:50Z</time>
      </trkpt>
      <trkpt lat="43.77403" lon="7.33973">
        <ele>233.26</ele>
        <time>2014-07-26T08:25:52Z</time>
      </trkpt>
      <trkpt lat="43.77394" lon="7.33964">
        <ele>234.22</ele>
        <time>2014-07-26T08:26:03Z</time>
      </trkpt>
      <trkpt lat="43.77379" lon="7.33946">
        <ele>231.81</ele>
        <time>2014-07-26T08:26:21Z</time>
      </trkpt>
      <trkpt lat="43.77363" lon="7.33931">
        <ele>234.22</ele>
        <time>2014-07-26T08:26:37Z</time>
      </trkpt>
      <trkpt lat="43.77343" lon="7.33914">
        <ele>237.1</ele>
        <time>2014-07-26T08:26:55Z</time>
      </trkpt>
      <trkpt lat="43.77336" lon="7.33903">
        <ele>236.14</ele>
        <time>2014-07-26T08:27:04Z</time>
      </trkpt>
      <trkpt lat="43.77341" lon="7.33897">
        <ele>229.41</ele>
        <time>2014-07-26T08:27:11Z</time>
      </trkpt>
      <trkpt lat="43.77363" lon="7.33919">
        <ele>232.78</ele>
        <time>2014-07-26T08:27:28Z</time>
      </trkpt>
      <trkpt lat="43.77369" lon="7.33957">
        <ele>234.7</ele>
        <time>2014-07-26T08:27:46Z</time>
      </trkpt>
      <trkpt lat="43.77361" lon="7.3398">
        <ele>236.14</ele>
        <time>2014-07-26T08:28:00Z</time>
      </trkpt>
      <trkpt lat="43.7736" lon="7.33982">
        <ele>236.14</ele>
        <time>2014-07-26T08:28:03Z</time>
      </trkpt>
      <trkpt lat="43.77368" lon="7.33988">
        <ele>238.06</ele>
        <time>2014-07-26T08:28:13Z</time>
      </trkpt>
      <trkpt lat="43.77369" lon="7.34008">
        <ele>239.51</ele>
        <time>2014-07-26T08:28:23Z</time>
      </trkpt>
      <trkpt lat="43.77359" lon="7.34042">
        <ele>240.47</ele>
        <time>2014-07-26T08:28:42Z</time>
      </trkpt>
      <trkpt lat="43.77351" lon="7.34067">
        <ele>244.31</ele>
        <time>2014-07-26T08:28:58Z</time>
      </trkpt>
      <trkpt lat="43.77339" lon="7.34093">
        <ele>248.16</ele>
        <time>2014-07-26T08:29:16Z</time>
      </trkpt>
      <trkpt lat="43.77336" lon="7.34122">
        <ele>260.65</ele>
        <time>2014-07-26T08:29:34Z</time>
      </trkpt>
      <trkpt lat="43.77323" lon="7.34149">
        <ele>269.31</ele>
        <time>2014-07-26T08:29:53Z</time>
      </trkpt>
      <trkpt lat="43.77314" lon="7.34175">
        <ele>275.07</ele>
        <time>2014-07-26T08:30:11Z</time>
      </trkpt>
      <trkpt lat="43.77295" lon="7.34206">
        <ele>277.96</ele>
        <time>2014-07-26T08:30:32Z</time>
      </trkpt>
      <trkpt lat="43.77291" lon="7.34207">
        <ele>274.59</ele>
        <time>2014-07-26T08:30:47Z</time>
      </trkpt>
      <trkpt lat="43.77308" lon="7.34221">
        <ele>271.23</ele>
        <time>2014-07-26T08:31:06Z</time>
      </trkpt>
      <trkpt lat="43.7733" lon="7.34228">
        <ele>268.83</ele>
        <time>2014-07-26T08:31:22Z</time>
      </trkpt>
      <trkpt lat="43.77335" lon="7.34255">
        <ele>264.02</ele>
        <time>2014-07-26T08:31:34Z</time>
      </trkpt>
      <trkpt lat="43.77331" lon="7.34277">
        <ele>264.02</ele>
        <time>2014-07-26T08:31:49Z</time>
      </trkpt>
      <trkpt lat="43.77318" lon="7.3431">
        <ele>272.67</ele>
        <time>2014-07-26T08:32:10Z</time>
      </trkpt>
      <trkpt lat="43.77304" lon="7.34344">
        <ele>277.48</ele>
        <time>2014-07-26T08:32:25Z</time>
      </trkpt>
      <trkpt lat="43.77284" lon="7.34386">
        <ele>279.4</ele>
        <time>2014-07-26T08:32:43Z</time>
      </trkpt>
      <trkpt lat="43.77275" lon="7.34419">
        <ele>281.8</ele>
        <time>2014-07-26T08:32:59Z</time>
      </trkpt>
      <trkpt lat="43.7726" lon="7.3447">
        <ele>284.21</ele>
        <time>2014-07-26T08:33:15Z</time>
      </trkpt>
      <trkpt lat="43.77244" lon="7.34511">
        <ele>286.61</ele>
        <time>2014-07-26T08:33:31Z</time>
      </trkpt>
      <trkpt lat="43.77235" lon="7.34553">
        <ele>289.49</ele>
        <time>2014-07-26T08:33:47Z</time>
      </trkpt>
      <trkpt lat="43.77219" lon="7.34586">
        <ele>291.9</ele>
        <time>2014-07-26T08:34:02Z</time>
      </trkpt>
      <trkpt lat="43.77208" lon="7.3462">
        <ele>292.38</ele>
        <time>2014-07-26T08:34:18Z</time>
      </trkpt>
      <trkpt lat="43.77212" lon="7.34649">
        <ele>292.86</ele>
        <time>2014-07-26T08:34:34Z</time>
      </trkpt>
      <trkpt lat="43.77227" lon="7.3467">
        <ele>293.34</ele>
        <time>2014-07-26T08:34:49Z</time>
      </trkpt>
      <trkpt lat="43.77243" lon="7.34704">
        <ele>293.82</ele>
        <time>2014-07-26T08:35:04Z</time>
      </trkpt>
      <trkpt lat="43.77259" lon="7.34729">
        <ele>294.3</ele>
        <time>2014-07-26T08:35:20Z</time>
      </trkpt>
      <trkpt lat="43.77276" lon="7.34767">
        <ele>295.74</ele>
        <time>2014-07-26T08:35:37Z</time>
      </trkpt>
      <trkpt lat="43.77298" lon="7.348">
        <ele>297.18</ele>
        <time>2014-07-26T08:35:55Z</time>
      </trkpt>
      <trkpt lat="43.77317" lon="7.34833">
        <ele>298.63</ele>
        <time>2014-07-26T08:36:13Z</time>
      </trkpt>
      <trkpt lat="43.77339" lon="7.34861">
        <ele>301.03</ele>
        <time>2014-07-26T08:36:32Z</time>
      </trkpt>
      <trkpt lat="43.77363" lon="7.34885">
        <ele>304.88</ele>
        <time>2014-07-26T08:36:50Z</time>
      </trkpt>
      <trkpt lat="43.77391" lon="7.34915">
        <ele>307.76</ele>
        <time>2014-07-26T08:37:07Z</time>
      </trkpt>
      <trkpt lat="43.77427" lon="7.34955">
        <ele>310.16</ele>
        <time>2014-07-26T08:37:27Z</time>
      </trkpt>
      <trkpt lat="43.77462" lon="7.34982">
        <ele>312.09</ele>
        <time>2014-07-26T08:37:43Z</time>
      </trkpt>
      <trkpt lat="43.77485" lon="7.35018">
        <ele>306.8</ele>
        <time>2014-07-26T08:37:56Z</time>
      </trkpt>
      <trkpt lat="43.77486" lon="7.3502">
        <ele>305.84</ele>
        <time>2014-07-26T08:38:17Z</time>
      </trkpt>
      <trkpt lat="43.77485" lon="7.3502">
        <ele>306.32</ele>
        <time>2014-07-26T08:38:33Z</time>
      </trkpt>
      <trkpt lat="43.77485" lon="7.3502">
        <ele>307.28</ele>
        <time>2014-07-26T08:39:08Z</time>
      </trkpt>
      <trkpt lat="43.77485" lon="7.3502">
        <ele>308.24</ele>
        <time>2014-07-26T08:39:25Z</time>
      </trkpt>
      <trkpt lat="43.77486" lon="7.35018">
        <ele>307.28</ele>
        <time>2014-07-26T08:39:38Z</time>
      </trkpt>
      <trkpt lat="43.77486" lon="7.35019">
        <ele>307.28</ele>
        <time>2014-07-26T08:40:01Z</time>
      </trkpt>
      <trkpt lat="43.77486" lon="7.35019">
        <ele>307.28</ele>
        <time>2014-07-26T08:40:28Z</time>
      </trkpt>
      <trkpt lat="43.77486" lon="7.3502">
        <ele>307.28</ele>
        <time>2014-07-26T08:40:55Z</time>
      </trkpt>
      <trkpt lat="43.77487" lon="7.35021">
        <ele>307.28</ele>
        <time>2014-07-26T08:41:09Z</time>
      </trkpt>
      <trkpt lat="43.77488" lon="7.35038">
        <ele>305.84</ele>
        <time>2014-07-26T08:41:17Z</time>
      </trkpt>
      <trkpt lat="43.77461" lon="7.35061">
        <ele>304.39</ele>
        <time>2014-07-26T08:41:36Z</time>
      </trkpt>
      <trkpt lat="43.77436" lon="7.35069">
        <ele>302.47</ele>
        <time>2014-07-26T08:41:50Z</time>
      </trkpt>
      <trkpt lat="43.77427" lon="7.35071">
        <ele>301.03</ele>
        <time>2014-07-26T08:41:58Z</time>
      </trkpt>
      <trkpt lat="43.77393" lon="7.35079">
        <ele>298.15</ele>
        <time>2014-07-26T08:42:15Z</time>
      </trkpt>
      <trkpt lat="43.77368" lon="7.35079">
        <ele>295.26</ele>
        <time>2014-07-26T08:42:31Z</time>
      </trkpt>
      <trkpt lat="43.77328" lon="7.3506">
        <ele>297.18</ele>
        <time>2014-07-26T08:42:44Z</time>
      </trkpt>
      <trkpt lat="43.77264" lon="7.35037">
        <ele>298.63</ele>
        <time>2014-07-26T08:42:58Z</time>
      </trkpt>
      <trkpt lat="43.77205" lon="7.35027">
        <ele>289.01</ele>
        <time>2014-07-26T08:43:10Z</time>
      </trkpt>
      <trkpt lat="43.77148" lon="7.35017">
        <ele>286.61</ele>
        <time>2014-07-26T08:43:23Z</time>
      </trkpt>
      <trkpt lat="43.77089" lon="7.34974">
        <ele>280.36</ele>
        <time>2014-07-26T08:43:39Z</time>
      </trkpt>
      <trkpt lat="43.77081" lon="7.34938">
        <ele>272.19</ele>
        <time>2014-07-26T08:43:53Z</time>
      </trkpt>
      <trkpt lat="43.77086" lon="7.34932">
        <ele>268.83</ele>
        <time>2014-07-26T08:44:06Z</time>
      </trkpt>
      <trkpt lat="43.77098" lon="7.34931">
        <ele>264.5</ele>
        <time>2014-07-26T08:44:23Z</time>
      </trkpt>
      <trkpt lat="43.77097" lon="7.34932">
        <ele>264.5</ele>
        <time>2014-07-26T08:44:24Z</time>
      </trkpt>
      <trkpt lat="43.77107" lon="7.34976">
        <ele>262.1</ele>
        <time>2014-07-26T08:44:38Z</time>
      </trkpt>
      <trkpt lat="43.77136" lon="7.35044">
        <ele>260.65</ele>
        <time>2014-07-26T08:44:55Z</time>
      </trkpt>
      <trkpt lat="43.77157" lon="7.35069">
        <ele>260.65</ele>
        <time>2014-07-26T08:45:13Z</time>
      </trkpt>
      <trkpt lat="43.77186" lon="7.35096">
        <ele>259.69</ele>
        <time>2014-07-26T08:45:31Z</time>
      </trkpt>
      <trkpt lat="43.77214" lon="7.35097">
        <ele>262.1</ele>
        <time>2014-07-26T08:45:47Z</time>
      </trkpt>
      <trkpt lat="43.77251" lon="7.35103">
        <ele>265.94</ele>
        <time>2014-07-26T08:46:04Z</time>
      </trkpt>
      <trkpt lat="43.77269" lon="7.35112">
        <ele>267.38</ele>
        <time>2014-07-26T08:46:14Z</time>
      </trkpt>
      <trkpt lat="43.77259" lon="7.35154">
        <ele>272.67</ele>
        <time>2014-07-26T08:46:33Z</time>
      </trkpt>
      <trkpt lat="43.77255" lon="7.35158">
        <ele>273.63</ele>
        <time>2014-07-26T08:46:49Z</time>
      </trkpt>
      <trkpt lat="43.77253" lon="7.35163">
        <ele>274.11</ele>
        <time>2014-07-26T08:47:16Z</time>
      </trkpt>
      <trkpt lat="43.77247" lon="7.3519">
        <ele>278.44</ele>
        <time>2014-07-26T08:47:34Z</time>
      </trkpt>
      <trkpt lat="43.77246" lon="7.35193">
        <ele>278.92</ele>
        <time>2014-07-26T08:47:37Z</time>
      </trkpt>
      <trkpt lat="43.7726" lon="7.35217">
        <ele>279.88</ele>
        <time>2014-07-26T08:47:55Z</time>
      </trkpt>
      <trkpt lat="43.77267" lon="7.35222">
        <ele>281.32</ele>
        <time>2014-07-26T08:48:14Z</time>
      </trkpt>
      <trkpt lat="43.77267" lon="7.35222">
        <ele>281.32</ele>
        <time>2014-07-26T08:48:17Z</time>
      </trkpt>
      <trkpt lat="43.77268" lon="7.35223">
        <ele>280.84</ele>
        <time>2014-07-26T08:48:19Z</time>
      </trkpt>
      <trkpt lat="43.7729" lon="7.35255">
        <ele>278.44</ele>
        <time>2014-07-26T08:48:39Z</time>
      </trkpt>
      <trkpt lat="43.77309" lon="7.35275">
        <ele>282.77</ele>
        <time>2014-07-26T08:48:58Z</time>
      </trkpt>
      <trkpt lat="43.77333" lon="7.35302">
        <ele>282.77</ele>
        <time>2014-07-26T08:49:18Z</time>
      </trkpt>
      <trkpt lat="43.77353" lon="7.35326">
        <ele>283.73</ele>
        <time>2014-07-26T08:49:35Z</time>
      </trkpt>
      <trkpt lat="43.77376" lon="7.35358">
        <ele>285.65</ele>
        <time>2014-07-26T08:49:53Z</time>
      </trkpt>
      <trkpt lat="43.77375" lon="7.35404">
        <ele>292.38</ele>
        <time>2014-07-26T08:50:10Z</time>
      </trkpt>
      <trkpt lat="43.77381" lon="7.35441">
        <ele>294.3</ele>
        <time>2014-07-26T08:50:22Z</time>
      </trkpt>
      <trkpt lat="43.77402" lon="7.35491">
        <ele>296.22</ele>
        <time>2014-07-26T08:50:37Z</time>
      </trkpt>
      <trkpt lat="43.77425" lon="7.35545">
        <ele>297.18</ele>
        <time>2014-07-26T08:50:51Z</time>
      </trkpt>
      <trkpt lat="43.77432" lon="7.35556">
        <ele>296.22</ele>
        <time>2014-07-26T08:50:54Z</time>
      </trkpt>
      <trkpt lat="43.77451" lon="7.35591">
        <ele>291.9</ele>
        <time>2014-07-26T08:51:14Z</time>
      </trkpt>
      <trkpt lat="43.77458" lon="7.35617">
        <ele>294.3</ele>
        <time>2014-07-26T08:51:33Z</time>
      </trkpt>
      <trkpt lat="43.77474" lon="7.35646">
        <ele>300.55</ele>
        <time>2014-07-26T08:51:53Z</time>
      </trkpt>
      <trkpt lat="43.77474" lon="7.35652">
        <ele>301.51</ele>
        <time>2014-07-26T08:51:56Z</time>
      </trkpt>
      <trkpt lat="43.77471" lon="7.35668">
        <ele>306.32</ele>
        <time>2014-07-26T08:52:15Z</time>
      </trkpt>
      <trkpt lat="43.77462" lon="7.35656">
        <ele>316.89</ele>
        <time>2014-07-26T08:52:36Z</time>
      </trkpt>
      <trkpt lat="43.7745" lon="7.35649">
        <ele>325.54</ele>
        <time>2014-07-26T08:52:49Z</time>
      </trkpt>
      <trkpt lat="43.77421" lon="7.35628">
        <ele>320.74</ele>
        <time>2014-07-26T08:53:07Z</time>
      </trkpt>
      <trkpt lat="43.77405" lon="7.3562">
        <ele>312.57</ele>
        <time>2014-07-26T08:53:18Z</time>
      </trkpt>
      <trkpt lat="43.77416" lon="7.35628">
        <ele>308.24</ele>
        <time>2014-07-26T08:53:36Z</time>
      </trkpt>
      <trkpt lat="43.77426" lon="7.35662">
        <ele>305.36</ele>
        <time>2014-07-26T08:53:54Z</time>
      </trkpt>
      <trkpt lat="43.77439" lon="7.35698">
        <ele>306.32</ele>
        <time>2014-07-26T08:54:13Z</time>
      </trkpt>
      <trkpt lat="43.77449" lon="7.35732">
        <ele>310.16</ele>
        <time>2014-07-26T08:54:31Z</time>
      </trkpt>
      <trkpt lat="43.77474" lon="7.35746">
        <ele>314.01</ele>
        <time>2014-07-26T08:54:48Z</time>
      </trkpt>
      <trkpt lat="43.77495" lon="7.35773">
        <ele>316.89</ele>
        <time>2014-07-26T08:55:07Z</time>
      </trkpt>
      <trkpt lat="43.77511" lon="7.35805">
        <ele>316.41</ele>
        <time>2014-07-26T08:55:26Z</time>
      </trkpt>
      <trkpt lat="43.77515" lon="7.35822">
        <ele>315.93</ele>
        <time>2014-07-26T08:55:35Z</time>
      </trkpt>
      <trkpt lat="43.77516" lon="7.3583">
        <ele>316.41</ele>
        <time>2014-07-26T08:55:39Z</time>
      </trkpt>
      <trkpt lat="43.77524" lon="7.35864">
        <ele>318.81</ele>
        <time>2014-07-26T08:56:00Z</time>
      </trkpt>
      <trkpt lat="43.77525" lon="7.35891">
        <ele>319.78</ele>
        <time>2014-07-26T08:56:17Z</time>
      </trkpt>
      <trkpt lat="43.77527" lon="7.35915">
        <ele>323.14</ele>
        <time>2014-07-26T08:56:32Z</time>
      </trkpt>
      <trkpt lat="43.77537" lon="7.35938">
        <ele>327.95</ele>
        <time>2014-07-26T08:56:50Z</time>
      </trkpt>
      <trkpt lat="43.77538" lon="7.35948">
        <ele>331.31</ele>
        <time>2014-07-26T08:57:00Z</time>
      </trkpt>
      <trkpt lat="43.77535" lon="7.3596">
        <ele>334.2</ele>
        <time>2014-07-26T08:57:07Z</time>
      </trkpt>
      <trkpt lat="43.77532" lon="7.3597">
        <ele>335.16</ele>
        <time>2014-07-26T08:57:13Z</time>
      </trkpt>
      <trkpt lat="43.77514" lon="7.35959">
        <ele>343.33</ele>
        <time>2014-07-26T08:57:34Z</time>
      </trkpt>
      <trkpt lat="43.775" lon="7.35948">
        <ele>344.77</ele>
        <time>2014-07-26T08:57:47Z</time>
      </trkpt>
      <trkpt lat="43.77481" lon="7.35927">
        <ele>345.73</ele>
        <time>2014-07-26T08:58:09Z</time>
      </trkpt>
      <trkpt lat="43.7747" lon="7.35907">
        <ele>347.17</ele>
        <time>2014-07-26T08:58:27Z</time>
      </trkpt>
      <trkpt lat="43.77479" lon="7.35931">
        <ele>350.54</ele>
        <time>2014-07-26T08:58:47Z</time>
      </trkpt>
      <trkpt lat="43.77484" lon="7.35956">
        <ele>351.5</ele>
        <time>2014-07-26T08:59:01Z</time>
      </trkpt>
      <trkpt lat="43.77487" lon="7.35992">
        <ele>350.54</ele>
        <time>2014-07-26T08:59:19Z</time>
      </trkpt>
      <trkpt lat="43.77485" lon="7.36026">
        <ele>351.98</ele>
        <time>2014-07-26T08:59:36Z</time>
      </trkpt>
      <trkpt lat="43.77471" lon="7.36034">
        <ele>353.42</ele>
        <time>2014-07-26T08:59:50Z</time>
      </trkpt>
      <trkpt lat="43.77467" lon="7.36007">
        <ele>357.27</ele>
        <time>2014-07-26T09:00:06Z</time>
      </trkpt>
      <trkpt lat="43.77464" lon="7.36001">
        <ele>358.23</ele>
        <time>2014-07-26T09:00:10Z</time>
      </trkpt>
      <trkpt lat="43.77458" lon="7.35992">
        <ele>359.67</ele>
        <time>2014-07-26T09:00:17Z</time>
      </trkpt>
      <trkpt lat="43.77437" lon="7.35965">
        <ele>362.07</ele>
        <time>2014-07-26T09:00:39Z</time>
      </trkpt>
      <trkpt lat="43.77417" lon="7.35952">
        <ele>364.96</ele>
        <time>2014-07-26T09:00:59Z</time>
      </trkpt>
      <trkpt lat="43.77399" lon="7.35941">
        <ele>369.76</ele>
        <time>2014-07-26T09:01:15Z</time>
      </trkpt>
      <trkpt lat="43.77403" lon="7.35938">
        <ele>369.28</ele>
        <time>2014-07-26T09:01:23Z</time>
      </trkpt>
      <trkpt lat="43.77425" lon="7.35951">
        <ele>373.61</ele>
        <time>2014-07-26T09:01:42Z</time>
      </trkpt>
      <trkpt lat="43.77437" lon="7.35976">
        <ele>377.45</ele>
        <time>2014-07-26T09:01:58Z</time>
      </trkpt>
      <trkpt lat="43.77436" lon="7.36022">
        <ele>378.42</ele>
        <time>2014-07-26T09:02:18Z</time>
      </trkpt>
      <trkpt lat="43.77433" lon="7.36051">
        <ele>378.42</ele>
        <time>2014-07-26T09:02:34Z</time>
      </trkpt>
      <trkpt lat="43.77432" lon="7.36059">
        <ele>378.42</ele>
        <time>2014-07-26T09:02:38Z</time>
      </trkpt>
      <trkpt lat="43.77431" lon="7.36091">
        <ele>381.78</ele>
        <time>2014-07-26T09:02:56Z</time>
      </trkpt>
      <trkpt lat="43.7744" lon="7.36117">
        <ele>384.66</ele>
        <time>2014-07-26T09:03:14Z</time>
      </trkpt>
      <trkpt lat="43.77452" lon="7.36126">
        <ele>388.03</ele>
        <time>2014-07-26T09:03:27Z</time>
      </trkpt>
      <trkpt lat="43.77456" lon="7.36128">
        <ele>388.99</ele>
        <time>2014-07-26T09:03:30Z</time>
      </trkpt>
      <trkpt lat="43.77461" lon="7.36133">
        <ele>389.47</ele>
        <time>2014-07-26T09:03:35Z</time>
      </trkpt>
      <trkpt lat="43.77475" lon="7.36171">
        <ele>393.32</ele>
        <time>2014-07-26T09:03:55Z</time>
      </trkpt>
      <trkpt lat="43.77481" lon="7.36192">
        <ele>397.16</ele>
        <time>2014-07-26T09:04:09Z</time>
      </trkpt>
      <trkpt lat="43.77494" lon="7.36223">
        <ele>403.41</ele>
        <time>2014-07-26T09:04:29Z</time>
      </trkpt>
      <trkpt lat="43.77505" lon="7.36268">
        <ele>403.89</ele>
        <time>2014-07-26T09:04:49Z</time>
      </trkpt>
      <trkpt lat="43.77505" lon="7.36305">
        <ele>401.01</ele>
        <time>2014-07-26T09:05:06Z</time>
      </trkpt>
      <trkpt lat="43.77509" lon="7.3634">
        <ele>401.49</ele>
        <time>2014-07-26T09:05:25Z</time>
      </trkpt>
      <trkpt lat="43.7752" lon="7.3635">
        <ele>404.85</ele>
        <time>2014-07-26T09:05:36Z</time>
      </trkpt>
      <trkpt lat="43.77528" lon="7.36349">
        <ele>406.77</ele>
        <time>2014-07-26T09:05:40Z</time>
      </trkpt>
      <trkpt lat="43.7755" lon="7.36334">
        <ele>410.14</ele>
        <time>2014-07-26T09:05:56Z</time>
      </trkpt>
      <trkpt lat="43.77561" lon="7.3633">
        <ele>411.1</ele>
        <time>2014-07-26T09:06:09Z</time>
      </trkpt>
      <trkpt lat="43.77563" lon="7.36332">
        <ele>409.18</ele>
        <time>2014-07-26T09:06:29Z</time>
      </trkpt>
      <trkpt lat="43.77562" lon="7.36332">
        <ele>409.18</ele>
        <time>2014-07-26T09:06:37Z</time>
      </trkpt>
      <trkpt lat="43.77563" lon="7.36334">
        <ele>409.66</ele>
        <time>2014-07-26T09:07:08Z</time>
      </trkpt>
      <trkpt lat="43.77563" lon="7.36334">
        <ele>407.74</ele>
        <time>2014-07-26T09:07:38Z</time>
      </trkpt>
      <trkpt lat="43.77563" lon="7.36335">
        <ele>408.22</ele>
        <time>2014-07-26T09:08:14Z</time>
      </trkpt>
      <trkpt lat="43.77563" lon="7.36336">
        <ele>407.26</ele>
        <time>2014-07-26T09:08:37Z</time>
      </trkpt>
      <trkpt lat="43.77563" lon="7.36336">
        <ele>407.26</ele>
        <time>2014-07-26T09:09:07Z</time>
      </trkpt>
      <trkpt lat="43.77563" lon="7.36337">
        <ele>407.74</ele>
        <time>2014-07-26T09:09:40Z</time>
      </trkpt>
      <trkpt lat="43.77563" lon="7.36336">
        <ele>407.74</ele>
        <time>2014-07-26T09:10:08Z</time>
      </trkpt>
      <trkpt lat="43.77564" lon="7.36333">
        <ele>408.22</ele>
        <time>2014-07-26T09:10:17Z</time>
      </trkpt>
      <trkpt lat="43.77564" lon="7.36333">
        <ele>407.74</ele>
        <time>2014-07-26T09:10:38Z</time>
      </trkpt>
      <trkpt lat="43.77564" lon="7.36334">
        <ele>407.74</ele>
        <time>2014-07-26T09:10:55Z</time>
      </trkpt>
      <trkpt lat="43.77564" lon="7.36334">
        <ele>407.74</ele>
        <time>2014-07-26T09:11:14Z</time>
      </trkpt>
      <trkpt lat="43.77574" lon="7.36333">
        <ele>407.74</ele>
        <time>2014-07-26T09:11:21Z</time>
      </trkpt>
      <trkpt lat="43.7759" lon="7.36332">
        <ele>407.26</ele>
        <time>2014-07-26T09:11:35Z</time>
      </trkpt>
      <trkpt lat="43.77619" lon="7.36345">
        <ele>404.85</ele>
        <time>2014-07-26T09:11:48Z</time>
      </trkpt>
      <trkpt lat="43.77659" lon="7.36368">
        <ele>402.93</ele>
        <time>2014-07-26T09:12:00Z</time>
      </trkpt>
      <trkpt lat="43.77668" lon="7.36368">
        <ele>402.45</ele>
        <time>2014-07-26T09:12:02Z</time>
      </trkpt>
      <trkpt lat="43.77677" lon="7.36369">
        <ele>401.97</ele>
        <time>2014-07-26T09:12:04Z</time>
      </trkpt>
      <trkpt lat="43.7769" lon="7.36381">
        <ele>400.53</ele>
        <time>2014-07-26T09:12:14Z</time>
      </trkpt>
      <trkpt lat="43.77687" lon="7.36382">
        <ele>400.53</ele>
        <time>2014-07-26T09:12:15Z</time>
      </trkpt>
      <trkpt lat="43.77684" lon="7.36384">
        <ele>400.53</ele>
        <time>2014-07-26T09:12:16Z</time>
      </trkpt>
      <trkpt lat="43.77636" lon="7.36395">
        <ele>397.64</ele>
        <time>2014-07-26T09:12:31Z</time>
      </trkpt>
      <trkpt lat="43.77623" lon="7.36386">
        <ele>397.16</ele>
        <time>2014-07-26T09:12:37Z</time>
      </trkpt>
      <trkpt lat="43.77621" lon="7.3639">
        <ele>395.24</ele>
        <time>2014-07-26T09:12:50Z</time>
      </trkpt>
      <trkpt lat="43.77622" lon="7.36393">
        <ele>394.28</ele>
        <time>2014-07-26T09:13:11Z</time>
      </trkpt>
      <trkpt lat="43.77613" lon="7.36398">
        <ele>393.32</ele>
        <time>2014-07-26T09:13:17Z</time>
      </trkpt>
      <trkpt lat="43.77611" lon="7.36399">
        <ele>393.32</ele>
        <time>2014-07-26T09:13:18Z</time>
      </trkpt>
      <trkpt lat="43.7761" lon="7.36398">
        <ele>393.32</ele>
        <time>2014-07-26T09:13:19Z</time>
      </trkpt>
      <trkpt lat="43.77608" lon="7.36397">
        <ele>392.84</ele>
        <time>2014-07-26T09:13:20Z</time>
      </trkpt>
      <trkpt lat="43.77607" lon="7.36396">
        <ele>392.84</ele>
        <time>2014-07-26T09:13:21Z</time>
      </trkpt>
      <trkpt lat="43.77605" lon="7.36395">
        <ele>392.84</ele>
        <time>2014-07-26T09:13:22Z</time>
      </trkpt>
      <trkpt lat="43.77604" lon="7.36395">
        <ele>392.84</ele>
        <time>2014-07-26T09:13:23Z</time>
      </trkpt>
      <trkpt lat="43.77603" lon="7.36395">
        <ele>392.84</ele>
        <time>2014-07-26T09:13:24Z</time>
      </trkpt>
      <trkpt lat="43.77601" lon="7.36396">
        <ele>392.36</ele>
        <time>2014-07-26T09:13:25Z</time>
      </trkpt>
      <trkpt lat="43.77601" lon="7.36399">
        <ele>392.36</ele>
        <time>2014-07-26T09:13:26Z</time>
      </trkpt>
      <trkpt lat="43.776" lon="7.36402">
        <ele>392.36</ele>
        <time>2014-07-26T09:13:27Z</time>
      </trkpt>
      <trkpt lat="43.77601" lon="7.36409">
        <ele>389.47</ele>
        <time>2014-07-26T09:13:31Z</time>
      </trkpt>
      <trkpt lat="43.77608" lon="7.36445">
        <ele>384.18</ele>
        <time>2014-07-26T09:13:41Z</time>
      </trkpt>
      <trkpt lat="43.77604" lon="7.36467">
        <ele>382.74</ele>
        <time>2014-07-26T09:13:48Z</time>
      </trkpt>
      <trkpt lat="43.77596" lon="7.36479">
        <ele>380.82</ele>
        <time>2014-07-26T09:13:53Z</time>
      </trkpt>
      <trkpt lat="43.77596" lon="7.36483">
        <ele>380.34</ele>
        <time>2014-07-26T09:13:56Z</time>
      </trkpt>
      <trkpt lat="43.77602" lon="7.36496">
        <ele>377.94</ele>
        <time>2014-07-26T09:14:01Z</time>
      </trkpt>
      <trkpt lat="43.77605" lon="7.36496">
        <ele>376.01</ele>
        <time>2014-07-26T09:14:06Z</time>
      </trkpt>
      <trkpt lat="43.77616" lon="7.36461">
        <ele>374.09</ele>
        <time>2014-07-26T09:14:24Z</time>
      </trkpt>
      <trkpt lat="43.77636" lon="7.36448">
        <ele>370.24</ele>
        <time>2014-07-26T09:14:42Z</time>
      </trkpt>
      <trkpt lat="43.77638" lon="7.36449">
        <ele>367.36</ele>
        <time>2014-07-26T09:14:51Z</time>
      </trkpt>
      <trkpt lat="43.77641" lon="7.36457">
        <ele>364.96</ele>
        <time>2014-07-26T09:14:57Z</time>
      </trkpt>
      <trkpt lat="43.7765" lon="7.36483">
        <ele>362.07</ele>
        <time>2014-07-26T09:15:14Z</time>
      </trkpt>
      <trkpt lat="43.77644" lon="7.36481">
        <ele>361.59</ele>
        <time>2014-07-26T09:15:26Z</time>
      </trkpt>
      <trkpt lat="43.77645" lon="7.36478">
        <ele>363.04</ele>
        <time>2014-07-26T09:15:54Z</time>
      </trkpt>
      <trkpt lat="43.77643" lon="7.36477">
        <ele>362.55</ele>
        <time>2014-07-26T09:16:19Z</time>
      </trkpt>
      <trkpt lat="43.77643" lon="7.36477">
        <ele>363.04</ele>
        <time>2014-07-26T09:16:43Z</time>
      </trkpt>
      <trkpt lat="43.77643" lon="7.36477">
        <ele>363.04</ele>
        <time>2014-07-26T09:17:09Z</time>
      </trkpt>
      <trkpt lat="43.77643" lon="7.36478">
        <ele>363.04</ele>
        <time>2014-07-26T09:17:32Z</time>
      </trkpt>
      <trkpt lat="43.77643" lon="7.36478">
        <ele>363.04</ele>
        <time>2014-07-26T09:17:57Z</time>
      </trkpt>
      <trkpt lat="43.77644" lon="7.36479">
        <ele>363.04</ele>
        <time>2014-07-26T09:18:21Z</time>
      </trkpt>
      <trkpt lat="43.77644" lon="7.36481">
        <ele>362.07</ele>
        <time>2014-07-26T09:18:36Z</time>
      </trkpt>
      <trkpt lat="43.77644" lon="7.36479">
        <ele>362.07</ele>
        <time>2014-07-26T09:18:44Z</time>
      </trkpt>
      <trkpt lat="43.77651" lon="7.36476">
        <ele>361.59</ele>
        <time>2014-07-26T09:18:49Z</time>
      </trkpt>
      <trkpt lat="43.77658" lon="7.36529">
        <ele>358.71</ele>
        <time>2014-07-26T09:18:59Z</time>
      </trkpt>
      <trkpt lat="43.77696" lon="7.36584">
        <ele>354.86</ele>
        <time>2014-07-26T09:19:12Z</time>
      </trkpt>
      <trkpt lat="43.77727" lon="7.36606">
        <ele>351.5</ele>
        <time>2014-07-26T09:19:20Z</time>
      </trkpt>
      <trkpt lat="43.77744" lon="7.36638">
        <ele>350.54</ele>
        <time>2014-07-26T09:19:26Z</time>
      </trkpt>
      <trkpt lat="43.77756" lon="7.3667">
        <ele>348.62</ele>
        <time>2014-07-26T09:19:33Z</time>
      </trkpt>
      <trkpt lat="43.77756" lon="7.36682">
        <ele>347.17</ele>
        <time>2014-07-26T09:19:37Z</time>
      </trkpt>
      <trkpt lat="43.77756" lon="7.3672">
        <ele>343.81</ele>
        <time>2014-07-26T09:19:49Z</time>
      </trkpt>
      <trkpt lat="43.77762" lon="7.36712">
        <ele>339.96</ele>
        <time>2014-07-26T09:19:58Z</time>
      </trkpt>
      <trkpt lat="43.77769" lon="7.36759">
        <ele>334.68</ele>
        <time>2014-07-26T09:20:13Z</time>
      </trkpt>
      <trkpt lat="43.77771" lon="7.36773">
        <ele>329.87</ele>
        <time>2014-07-26T09:20:27Z</time>
      </trkpt>
      <trkpt lat="43.77771" lon="7.36779">
        <ele>324.1</ele>
        <time>2014-07-26T09:20:35Z</time>
      </trkpt>
      <trkpt lat="43.77771" lon="7.36782">
        <ele>322.66</ele>
        <time>2014-07-26T09:20:37Z</time>
      </trkpt>
      <trkpt lat="43.77775" lon="7.36805">
        <ele>318.33</ele>
        <time>2014-07-26T09:20:42Z</time>
      </trkpt>
      <trkpt lat="43.77781" lon="7.36866">
        <ele>303.91</ele>
        <time>2014-07-26T09:20:56Z</time>
      </trkpt>
      <trkpt lat="43.77795" lon="7.36906">
        <ele>293.82</ele>
        <time>2014-07-26T09:21:11Z</time>
      </trkpt>
      <trkpt lat="43.77801" lon="7.36922">
        <ele>290.94</ele>
        <time>2014-07-26T09:21:18Z</time>
      </trkpt>
      <trkpt lat="43.778" lon="7.36934">
        <ele>284.69</ele>
        <time>2014-07-26T09:21:32Z</time>
      </trkpt>
      <trkpt lat="43.77799" lon="7.36934">
        <ele>281.32</ele>
        <time>2014-07-26T09:21:45Z</time>
      </trkpt>
      <trkpt lat="43.77799" lon="7.36883">
        <ele>274.59</ele>
        <time>2014-07-26T09:22:02Z</time>
      </trkpt>
      <trkpt lat="43.77812" lon="7.36828">
        <ele>268.83</ele>
        <time>2014-07-26T09:22:17Z</time>
      </trkpt>
      <trkpt lat="43.77822" lon="7.36829">
        <ele>265.94</ele>
        <time>2014-07-26T09:22:21Z</time>
      </trkpt>
      <trkpt lat="43.7782" lon="7.36872">
        <ele>256.81</ele>
        <time>2014-07-26T09:22:34Z</time>
      </trkpt>
      <trkpt lat="43.7782" lon="7.36871">
        <ele>253.93</ele>
        <time>2014-07-26T09:22:50Z</time>
      </trkpt>
      <trkpt lat="43.77821" lon="7.3687">
        <ele>253.93</ele>
        <time>2014-07-26T09:22:52Z</time>
      </trkpt>
      <trkpt lat="43.77826" lon="7.36845">
        <ele>251.04</ele>
        <time>2014-07-26T09:22:59Z</time>
      </trkpt>
      <trkpt lat="43.77834" lon="7.36832">
        <ele>249.12</ele>
        <time>2014-07-26T09:23:04Z</time>
      </trkpt>
      <trkpt lat="43.77843" lon="7.36845">
        <ele>244.79</ele>
        <time>2014-07-26T09:23:11Z</time>
      </trkpt>
      <trkpt lat="43.77845" lon="7.3685">
        <ele>241.43</ele>
        <time>2014-07-26T09:23:21Z</time>
      </trkpt>
      <trkpt lat="43.77851" lon="7.36842">
        <ele>239.99</ele>
        <time>2014-07-26T09:23:24Z</time>
      </trkpt>
      <trkpt lat="43.7787" lon="7.36845">
        <ele>241.43</ele>
        <time>2014-07-26T09:23:31Z</time>
      </trkpt>
      <trkpt lat="43.7791" lon="7.36886">
        <ele>242.39</ele>
        <time>2014-07-26T09:23:47Z</time>
      </trkpt>
      <trkpt lat="43.77929" lon="7.36877">
        <ele>242.39</ele>
        <time>2014-07-26T09:23:52Z</time>
      </trkpt>
      <trkpt lat="43.77947" lon="7.36869">
        <ele>241.91</ele>
        <time>2014-07-26T09:23:57Z</time>
      </trkpt>
      <trkpt lat="43.77965" lon="7.36899">
        <ele>240.47</ele>
        <time>2014-07-26T09:24:07Z</time>
      </trkpt>
      <trkpt lat="43.77971" lon="7.36915">
        <ele>239.02</ele>
        <time>2014-07-26T09:24:18Z</time>
      </trkpt>
      <trkpt lat="43.77969" lon="7.36942">
        <ele>238.54</ele>
        <time>2014-07-26T09:24:35Z</time>
      </trkpt>
      <trkpt lat="43.77973" lon="7.36962">
        <ele>243.35</ele>
        <time>2014-07-26T09:24:52Z</time>
      </trkpt>
      <trkpt lat="43.77978" lon="7.36982">
        <ele>244.31</ele>
        <time>2014-07-26T09:25:07Z</time>
      </trkpt>
      <trkpt lat="43.77987" lon="7.37001">
        <ele>245.27</ele>
        <time>2014-07-26T09:25:22Z</time>
      </trkpt>
      <trkpt lat="43.7799" lon="7.37006">
        <ele>245.75</ele>
        <time>2014-07-26T09:25:26Z</time>
      </trkpt>
      <trkpt lat="43.77992" lon="7.37008">
        <ele>245.75</ele>
        <time>2014-07-26T09:25:28Z</time>
      </trkpt>
      <trkpt lat="43.77997" lon="7.37021">
        <ele>245.27</ele>
        <time>2014-07-26T09:25:45Z</time>
      </trkpt>
      <trkpt lat="43.77999" lon="7.37024">
        <ele>245.27</ele>
        <time>2014-07-26T09:25:48Z</time>
      </trkpt>
      <trkpt lat="43.7803" lon="7.37024">
        <ele>244.79</ele>
        <time>2014-07-26T09:25:58Z</time>
      </trkpt>
      <trkpt lat="43.7804" lon="7.37026">
        <ele>244.79</ele>
        <time>2014-07-26T09:26:03Z</time>
      </trkpt>
      <trkpt lat="43.78036" lon="7.37087">
        <ele>241.43</ele>
        <time>2014-07-26T09:26:15Z</time>
      </trkpt>
      <trkpt lat="43.78037" lon="7.3709">
        <ele>240.95</ele>
        <time>2014-07-26T09:26:16Z</time>
      </trkpt>
      <trkpt lat="43.78041" lon="7.37138">
        <ele>237.58</ele>
        <time>2014-07-26T09:26:28Z</time>
      </trkpt>
      <trkpt lat="43.78051" lon="7.37193">
        <ele>236.14</ele>
        <time>2014-07-26T09:26:41Z</time>
      </trkpt>
      <trkpt lat="43.78072" lon="7.37213">
        <ele>236.14</ele>
        <time>2014-07-26T09:26:51Z</time>
      </trkpt>
      <trkpt lat="43.78112" lon="7.37197">
        <ele>234.22</ele>
        <time>2014-07-26T09:27:04Z</time>
      </trkpt>
      <trkpt lat="43.78104" lon="7.37238">
        <ele>230.37</ele>
        <time>2014-07-26T09:27:19Z</time>
      </trkpt>
      <trkpt lat="43.78087" lon="7.37236">
        <ele>226.53</ele>
        <time>2014-07-26T09:27:37Z</time>
      </trkpt>
      <trkpt lat="43.78088" lon="7.37237">
        <ele>226.05</ele>
        <time>2014-07-26T09:27:45Z</time>
      </trkpt>
      <trkpt lat="43.78099" lon="7.37238">
        <ele>225.57</ele>
        <time>2014-07-26T09:27:57Z</time>
      </trkpt>
      <trkpt lat="43.78108" lon="7.37229">
        <ele>225.57</ele>
        <time>2014-07-26T09:28:04Z</time>
      </trkpt>
      <trkpt lat="43.78107" lon="7.37232">
        <ele>225.57</ele>
        <time>2014-07-26T09:28:06Z</time>
      </trkpt>
      <trkpt lat="43.78108" lon="7.37242">
        <ele>225.09</ele>
        <time>2014-07-26T09:28:27Z</time>
      </trkpt>
      <trkpt lat="43.78103" lon="7.37242">
        <ele>223.64</ele>
        <time>2014-07-26T09:28:51Z</time>
      </trkpt>
      <trkpt lat="43.78092" lon="7.3726">
        <ele>223.16</ele>
        <time>2014-07-26T09:29:07Z</time>
      </trkpt>
      <trkpt lat="43.78036" lon="7.37272">
        <ele>222.68</ele>
        <time>2014-07-26T09:29:20Z</time>
      </trkpt>
      <trkpt lat="43.77935" lon="7.37243">
        <ele>221.72</ele>
        <time>2014-07-26T09:29:32Z</time>
      </trkpt>
      <trkpt lat="43.7789" lon="7.37194">
        <ele>221.24</ele>
        <time>2014-07-26T09:29:46Z</time>
      </trkpt>
      <trkpt lat="43.77818" lon="7.37152">
        <ele>220.76</ele>
        <time>2014-07-26T09:30:01Z</time>
      </trkpt>
      <trkpt lat="43.77737" lon="7.37141">
        <ele>220.28</ele>
        <time>2014-07-26T09:30:18Z</time>
      </trkpt>
      <trkpt lat="43.7768" lon="7.3715">
        <ele>219.8</ele>
        <time>2014-07-26T09:30:35Z</time>
      </trkpt>
      <trkpt lat="43.77639" lon="7.37157">
        <ele>218.84</ele>
        <time>2014-07-26T09:30:51Z</time>
      </trkpt>
      <trkpt lat="43.77591" lon="7.37114">
        <ele>218.36</ele>
        <time>2014-07-26T09:31:09Z</time>
      </trkpt>
      <trkpt lat="43.77528" lon="7.37079">
        <ele>215.95</ele>
        <time>2014-07-26T09:31:20Z</time>
      </trkpt>
      <trkpt lat="43.7753" lon="7.37092">
        <ele>213.07</ele>
        <time>2014-07-26T09:31:34Z</time>
      </trkpt>
      <trkpt lat="43.7754" lon="7.37101">
        <ele>211.63</ele>
        <time>2014-07-26T09:31:49Z</time>
      </trkpt>
      <trkpt lat="43.77543" lon="7.37101">
        <ele>210.67</ele>
        <time>2014-07-26T09:31:57Z</time>
      </trkpt>
      <trkpt lat="43.77534" lon="7.37101">
        <ele>205.86</ele>
        <time>2014-07-26T09:32:07Z</time>
      </trkpt>
      <trkpt lat="43.77542" lon="7.37105">
        <ele>199.61</ele>
        <time>2014-07-26T09:32:37Z</time>
      </trkpt>
      <trkpt lat="43.77542" lon="7.3711">
        <ele>191.92</ele>
        <time>2014-07-26T09:33:04Z</time>
      </trkpt>
      <trkpt lat="43.7754" lon="7.37111">
        <ele>190</ele>
        <time>2014-07-26T09:33:10Z</time>
      </trkpt>
      <trkpt lat="43.77538" lon="7.37114">
        <ele>186.63</ele>
        <time>2014-07-26T09:33:21Z</time>
      </trkpt>
      <trkpt lat="43.77533" lon="7.37107">
        <ele>184.23</ele>
        <time>2014-07-26T09:33:41Z</time>
      </trkpt>
      <trkpt lat="43.77532" lon="7.37104">
        <ele>183.27</ele>
        <time>2014-07-26T09:33:45Z</time>
      </trkpt>
      <trkpt lat="43.7753" lon="7.37095">
        <ele>182.31</ele>
        <time>2014-07-26T09:33:50Z</time>
      </trkpt>
      <trkpt lat="43.77508" lon="7.37083">
        <ele>179.9</ele>
        <time>2014-07-26T09:34:04Z</time>
      </trkpt>
      <trkpt lat="43.77455" lon="7.37119">
        <ele>177.98</ele>
        <time>2014-07-26T09:34:16Z</time>
      </trkpt>
      <trkpt lat="43.77383" lon="7.37192">
        <ele>177.02</ele>
        <time>2014-07-26T09:34:31Z</time>
      </trkpt>
      <trkpt lat="43.77373" lon="7.37204">
        <ele>177.5</ele>
        <time>2014-07-26T09:34:34Z</time>
      </trkpt>
      <trkpt lat="43.77371" lon="7.37209">
        <ele>177.5</ele>
        <time>2014-07-26T09:34:35Z</time>
      </trkpt>
      <trkpt lat="43.77368" lon="7.37214">
        <ele>177.5</ele>
        <time>2014-07-26T09:34:36Z</time>
      </trkpt>
      <trkpt lat="43.7732" lon="7.37276">
        <ele>180.38</ele>
        <time>2014-07-26T09:34:51Z</time>
      </trkpt>
      <trkpt lat="43.77273" lon="7.37316">
        <ele>183.75</ele>
        <time>2014-07-26T09:35:06Z</time>
      </trkpt>
      <trkpt lat="43.77265" lon="7.37351">
        <ele>184.71</ele>
        <time>2014-07-26T09:35:20Z</time>
      </trkpt>
      <trkpt lat="43.77283" lon="7.37375">
        <ele>191.44</ele>
        <time>2014-07-26T09:35:32Z</time>
      </trkpt>
      <trkpt lat="43.77286" lon="7.37376">
        <ele>192.4</ele>
        <time>2014-07-26T09:35:33Z</time>
      </trkpt>
      <trkpt lat="43.77288" lon="7.37377">
        <ele>193.36</ele>
        <time>2014-07-26T09:35:34Z</time>
      </trkpt>
      <trkpt lat="43.7731" lon="7.37409">
        <ele>209.7</ele>
        <time>2014-07-26T09:35:48Z</time>
      </trkpt>
      <trkpt lat="43.77302" lon="7.37455">
        <ele>212.59</ele>
        <time>2014-07-26T09:36:03Z</time>
      </trkpt>
      <trkpt lat="43.77312" lon="7.37494">
        <ele>213.55</ele>
        <time>2014-07-26T09:36:18Z</time>
      </trkpt>
      <trkpt lat="43.77307" lon="7.37551">
        <ele>211.15</ele>
        <time>2014-07-26T09:36:34Z</time>
      </trkpt>
      <trkpt lat="43.77308" lon="7.37579">
        <ele>209.22</ele>
        <time>2014-07-26T09:36:46Z</time>
      </trkpt>
      <trkpt lat="43.77309" lon="7.3758">
        <ele>209.22</ele>
        <time>2014-07-26T09:36:47Z</time>
      </trkpt>
      <trkpt lat="43.77311" lon="7.37581">
        <ele>209.22</ele>
        <time>2014-07-26T09:36:48Z</time>
      </trkpt>
      <trkpt lat="43.77314" lon="7.37582">
        <ele>209.22</ele>
        <time>2014-07-26T09:36:49Z</time>
      </trkpt>
      <trkpt lat="43.77317" lon="7.37582">
        <ele>209.22</ele>
        <time>2014-07-26T09:36:50Z</time>
      </trkpt>
      <trkpt lat="43.7732" lon="7.37581">
        <ele>209.22</ele>
        <time>2014-07-26T09:36:51Z</time>
      </trkpt>
      <trkpt lat="43.77323" lon="7.37581">
        <ele>209.7</ele>
        <time>2014-07-26T09:36:52Z</time>
      </trkpt>
      <trkpt lat="43.77325" lon="7.37581">
        <ele>210.19</ele>
        <time>2014-07-26T09:36:53Z</time>
      </trkpt>
      <trkpt lat="43.77327" lon="7.3758">
        <ele>210.67</ele>
        <time>2014-07-26T09:36:54Z</time>
      </trkpt>
      <trkpt lat="43.7733" lon="7.37579">
        <ele>211.15</ele>
        <time>2014-07-26T09:36:55Z</time>
      </trkpt>
      <trkpt lat="43.77332" lon="7.37578">
        <ele>211.63</ele>
        <time>2014-07-26T09:36:56Z</time>
      </trkpt>
      <trkpt lat="43.77335" lon="7.37578">
        <ele>211.63</ele>
        <time>2014-07-26T09:36:57Z</time>
      </trkpt>
      <trkpt lat="43.77337" lon="7.37577">
        <ele>211.63</ele>
        <time>2014-07-26T09:36:58Z</time>
      </trkpt>
      <trkpt lat="43.77339" lon="7.37577">
        <ele>212.11</ele>
        <time>2014-07-26T09:36:59Z</time>
      </trkpt>
      <trkpt lat="43.77341" lon="7.37577">
        <ele>212.59</ele>
        <time>2014-07-26T09:37:00Z</time>
      </trkpt>
      <trkpt lat="43.77342" lon="7.37576">
        <ele>212.59</ele>
        <time>2014-07-26T09:37:01Z</time>
      </trkpt>
      <trkpt lat="43.77366" lon="7.37565">
        <ele>210.67</ele>
        <time>2014-07-26T09:37:16Z</time>
      </trkpt>
      <trkpt lat="43.77368" lon="7.37535">
        <ele>206.82</ele>
        <time>2014-07-26T09:37:33Z</time>
      </trkpt>
      <trkpt lat="43.77366" lon="7.37533">
        <ele>206.82</ele>
        <time>2014-07-26T09:37:34Z</time>
      </trkpt>
      <trkpt lat="43.77339" lon="7.375">
        <ele>207.3</ele>
        <time>2014-07-26T09:37:51Z</time>
      </trkpt>
      <trkpt lat="43.77344" lon="7.37494">
        <ele>208.26</ele>
        <time>2014-07-26T09:37:59Z</time>
      </trkpt>
      <trkpt lat="43.77391" lon="7.37528">
        <ele>214.99</ele>
        <time>2014-07-26T09:38:18Z</time>
      </trkpt>
      <trkpt lat="43.77406" lon="7.37587">
        <ele>221.24</ele>
        <time>2014-07-26T09:38:38Z</time>
      </trkpt>
      <trkpt lat="43.77427" lon="7.37634">
        <ele>227.97</ele>
        <time>2014-07-26T09:38:58Z</time>
      </trkpt>
      <trkpt lat="43.77423" lon="7.37637">
        <ele>227.97</ele>
        <time>2014-07-26T09:39:13Z</time>
      </trkpt>
      <trkpt lat="43.77412" lon="7.37633">
        <ele>224.12</ele>
        <time>2014-07-26T09:39:37Z</time>
      </trkpt>
      <trkpt lat="43.77414" lon="7.37635">
        <ele>223.64</ele>
        <time>2014-07-26T09:40:03Z</time>
      </trkpt>
      <trkpt lat="43.77428" lon="7.3765">
        <ele>223.64</ele>
        <time>2014-07-26T09:40:19Z</time>
      </trkpt>
      <trkpt lat="43.77457" lon="7.37696">
        <ele>228.93</ele>
        <time>2014-07-26T09:40:38Z</time>
      </trkpt>
      <trkpt lat="43.77489" lon="7.37744">
        <ele>237.58</ele>
        <time>2014-07-26T09:40:58Z</time>
      </trkpt>
      <trkpt lat="43.77505" lon="7.37776">
        <ele>239.99</ele>
        <time>2014-07-26T09:41:15Z</time>
      </trkpt>
      <trkpt lat="43.775" lon="7.37777">
        <ele>236.62</ele>
        <time>2014-07-26T09:41:31Z</time>
      </trkpt>
      <trkpt lat="43.77502" lon="7.37777">
        <ele>235.18</ele>
        <time>2014-07-26T09:42:02Z</time>
      </trkpt>
      <trkpt lat="43.77503" lon="7.37778">
        <ele>230.85</ele>
        <time>2014-07-26T09:42:31Z</time>
      </trkpt>
      <trkpt lat="43.77503" lon="7.37778">
        <ele>232.78</ele>
        <time>2014-07-26T09:43:02Z</time>
      </trkpt>
      <trkpt lat="43.77503" lon="7.37779">
        <ele>233.26</ele>
        <time>2014-07-26T09:43:32Z</time>
      </trkpt>
      <trkpt lat="43.77504" lon="7.3778">
        <ele>233.26</ele>
        <time>2014-07-26T09:44:08Z</time>
      </trkpt>
      <trkpt lat="43.77503" lon="7.3778">
        <ele>234.7</ele>
        <time>2014-07-26T09:44:36Z</time>
      </trkpt>
      <trkpt lat="43.77504" lon="7.3778">
        <ele>234.22</ele>
        <time>2014-07-26T09:45:08Z</time>
      </trkpt>
      <trkpt lat="43.77505" lon="7.3778">
        <ele>233.26</ele>
        <time>2014-07-26T09:45:37Z</time>
      </trkpt>
      <trkpt lat="43.77504" lon="7.37781">
        <ele>233.74</ele>
        <time>2014-07-26T09:46:13Z</time>
      </trkpt>
      <trkpt lat="43.77504" lon="7.37781">
        <ele>232.78</ele>
        <time>2014-07-26T09:46:49Z</time>
      </trkpt>
      <trkpt lat="43.77504" lon="7.37782">
        <ele>232.3</ele>
        <time>2014-07-26T09:47:25Z</time>
      </trkpt>
      <trkpt lat="43.77503" lon="7.37781">
        <ele>232.3</ele>
        <time>2014-07-26T09:48:02Z</time>
      </trkpt>
      <trkpt lat="43.77504" lon="7.37781">
        <ele>232.78</ele>
        <time>2014-07-26T09:48:35Z</time>
      </trkpt>
      <trkpt lat="43.77504" lon="7.37781">
        <ele>231.33</ele>
        <time>2014-07-26T09:49:10Z</time>
      </trkpt>
      <trkpt lat="43.77504" lon="7.37781">
        <ele>231.81</ele>
        <time>2014-07-26T09:49:40Z</time>
      </trkpt>
      <trkpt lat="43.77504" lon="7.37781">
        <ele>231.33</ele>
        <time>2014-07-26T09:50:09Z</time>
      </trkpt>
      <trkpt lat="43.77504" lon="7.37781">
        <ele>231.33</ele>
        <time>2014-07-26T09:50:46Z</time>
      </trkpt>
      <trkpt lat="43.77504" lon="7.3778">
        <ele>230.85</ele>
        <time>2014-07-26T09:51:19Z</time>
      </trkpt>
      <trkpt lat="43.77504" lon="7.3778">
        <ele>230.85</ele>
        <time>2014-07-26T09:51:55Z</time>
      </trkpt>
      <trkpt lat="43.77503" lon="7.37779">
        <ele>231.33</ele>
        <time>2014-07-26T09:52:34Z</time>
      </trkpt>
      <trkpt lat="43.77503" lon="7.37779">
        <ele>231.33</ele>
        <time>2014-07-26T09:53:07Z</time>
      </trkpt>
      <trkpt lat="43.77504" lon="7.37779">
        <ele>231.81</ele>
        <time>2014-07-26T09:53:38Z</time>
      </trkpt>
      <trkpt lat="43.77504" lon="7.37779">
        <ele>231.81</ele>
        <time>2014-07-26T09:54:12Z</time>
      </trkpt>
      <trkpt lat="43.77504" lon="7.3778">
        <ele>231.33</ele>
        <time>2014-07-26T09:54:47Z</time>
      </trkpt>
      <trkpt lat="43.77505" lon="7.37781">
        <ele>231.33</ele>
        <time>2014-07-26T09:55:27Z</time>
      </trkpt>
      <trkpt lat="43.77506" lon="7.37781">
        <ele>231.81</ele>
        <time>2014-07-26T09:56:02Z</time>
      </trkpt>
      <trkpt lat="43.77506" lon="7.37781">
        <ele>231.81</ele>
        <time>2014-07-26T09:56:46Z</time>
      </trkpt>
      <trkpt lat="43.77505" lon="7.37781">
        <ele>231.33</ele>
        <time>2014-07-26T09:57:25Z</time>
      </trkpt>
      <trkpt lat="43.77505" lon="7.37781">
        <ele>231.81</ele>
        <time>2014-07-26T09:57:50Z</time>
      </trkpt>
      <trkpt lat="43.77505" lon="7.37781">
        <ele>230.85</ele>
        <time>2014-07-26T09:58:04Z</time>
      </trkpt>
      <trkpt lat="43.77507" lon="7.3778">
        <ele>230.85</ele>
        <time>2014-07-26T09:58:21Z</time>
      </trkpt>
      <trkpt lat="43.77508" lon="7.3778">
        <ele>230.85</ele>
        <time>2014-07-26T09:58:22Z</time>
      </trkpt>
      <trkpt lat="43.7751" lon="7.3778">
        <ele>230.85</ele>
        <time>2014-07-26T09:58:23Z</time>
      </trkpt>
      <trkpt lat="43.77511" lon="7.3778">
        <ele>230.85</ele>
        <time>2014-07-26T09:58:24Z</time>
      </trkpt>
      <trkpt lat="43.77513" lon="7.37779">
        <ele>230.85</ele>
        <time>2014-07-26T09:58:25Z</time>
      </trkpt>
      <trkpt lat="43.77551" lon="7.37813">
        <ele>233.26</ele>
        <time>2014-07-26T09:58:45Z</time>
      </trkpt>
      <trkpt lat="43.77552" lon="7.37816">
        <ele>233.74</ele>
        <time>2014-07-26T09:58:47Z</time>
      </trkpt>
      <trkpt lat="43.77553" lon="7.37816">
        <ele>233.74</ele>
        <time>2014-07-26T09:58:48Z</time>
      </trkpt>
      <trkpt lat="43.77555" lon="7.37816">
        <ele>233.74</ele>
        <time>2014-07-26T09:58:49Z</time>
      </trkpt>
      <trkpt lat="43.77557" lon="7.37815">
        <ele>234.22</ele>
        <time>2014-07-26T09:58:50Z</time>
      </trkpt>
      <trkpt lat="43.77558" lon="7.37813">
        <ele>234.22</ele>
        <time>2014-07-26T09:58:52Z</time>
      </trkpt>
      <trkpt lat="43.77549" lon="7.37792">
        <ele>233.74</ele>
        <time>2014-07-26T09:59:01Z</time>
      </trkpt>
      <trkpt lat="43.77519" lon="7.37761">
        <ele>236.14</ele>
        <time>2014-07-26T09:59:18Z</time>
      </trkpt>
      <trkpt lat="43.77506" lon="7.37712">
        <ele>238.54</ele>
        <time>2014-07-26T09:59:35Z</time>
      </trkpt>
      <trkpt lat="43.77494" lon="7.37663">
        <ele>242.39</ele>
        <time>2014-07-26T09:59:51Z</time>
      </trkpt>
      <trkpt lat="43.77479" lon="7.37605">
        <ele>244.79</ele>
        <time>2014-07-26T10:00:11Z</time>
      </trkpt>
      <trkpt lat="43.77467" lon="7.37558">
        <ele>245.27</ele>
        <time>2014-07-26T10:00:27Z</time>
      </trkpt>
      <trkpt lat="43.7745" lon="7.37504">
        <ele>247.68</ele>
        <time>2014-07-26T10:00:46Z</time>
      </trkpt>
      <trkpt lat="43.77412" lon="7.37468">
        <ele>248.64</ele>
        <time>2014-07-26T10:01:06Z</time>
      </trkpt>
      <trkpt lat="43.77402" lon="7.37441">
        <ele>248.64</ele>
        <time>2014-07-26T10:01:16Z</time>
      </trkpt>
      <trkpt lat="43.77422" lon="7.37402">
        <ele>251.04</ele>
        <time>2014-07-26T10:01:31Z</time>
      </trkpt>
      <trkpt lat="43.77427" lon="7.37356">
        <ele>252.48</ele>
        <time>2014-07-26T10:01:47Z</time>
      </trkpt>
      <trkpt lat="43.77444" lon="7.37314">
        <ele>253.44</ele>
        <time>2014-07-26T10:02:03Z</time>
      </trkpt>
      <trkpt lat="43.77462" lon="7.37273">
        <ele>257.29</ele>
        <time>2014-07-26T10:02:21Z</time>
      </trkpt>
      <trkpt lat="43.7748" lon="7.37242">
        <ele>260.17</ele>
        <time>2014-07-26T10:02:34Z</time>
      </trkpt>
      <trkpt lat="43.77488" lon="7.37252">
        <ele>260.65</ele>
        <time>2014-07-26T10:02:42Z</time>
      </trkpt>
      <trkpt lat="43.77485" lon="7.37262">
        <ele>260.65</ele>
        <time>2014-07-26T10:02:45Z</time>
      </trkpt>
      <trkpt lat="43.77463" lon="7.37324">
        <ele>263.54</ele>
        <time>2014-07-26T10:03:07Z</time>
      </trkpt>
      <trkpt lat="43.77451" lon="7.37375">
        <ele>265.46</ele>
        <time>2014-07-26T10:03:27Z</time>
      </trkpt>
      <trkpt lat="43.77445" lon="7.37427">
        <ele>267.38</ele>
        <time>2014-07-26T10:03:48Z</time>
      </trkpt>
      <trkpt lat="43.77452" lon="7.3745">
        <ele>268.35</ele>
        <time>2014-07-26T10:04:03Z</time>
      </trkpt>
      <trkpt lat="43.77454" lon="7.37455">
        <ele>272.19</ele>
        <time>2014-07-26T10:04:17Z</time>
      </trkpt>
      <trkpt lat="43.77448" lon="7.37459">
        <ele>277</ele>
        <time>2014-07-26T10:04:34Z</time>
      </trkpt>
      <trkpt lat="43.77448" lon="7.37459">
        <ele>278.44</ele>
        <time>2014-07-26T10:04:58Z</time>
      </trkpt>
      <trkpt lat="43.77445" lon="7.37455">
        <ele>277.48</ele>
        <time>2014-07-26T10:05:14Z</time>
      </trkpt>
      <trkpt lat="43.77446" lon="7.37452">
        <ele>277</ele>
        <time>2014-07-26T10:05:22Z</time>
      </trkpt>
      <trkpt lat="43.77442" lon="7.37409">
        <ele>277</ele>
        <time>2014-07-26T10:05:38Z</time>
      </trkpt>
      <trkpt lat="43.77453" lon="7.37366">
        <ele>277</ele>
        <time>2014-07-26T10:05:54Z</time>
      </trkpt>
      <trkpt lat="43.77471" lon="7.37324">
        <ele>277.96</ele>
        <time>2014-07-26T10:06:11Z</time>
      </trkpt>
      <trkpt lat="43.77483" lon="7.37293">
        <ele>277</ele>
        <time>2014-07-26T10:06:23Z</time>
      </trkpt>
      <trkpt lat="43.77491" lon="7.37292">
        <ele>277.48</ele>
        <time>2014-07-26T10:06:27Z</time>
      </trkpt>
      <trkpt lat="43.77489" lon="7.37332">
        <ele>278.44</ele>
        <time>2014-07-26T10:06:43Z</time>
      </trkpt>
      <trkpt lat="43.77474" lon="7.37397">
        <ele>278.44</ele>
        <time>2014-07-26T10:07:05Z</time>
      </trkpt>
      <trkpt lat="43.77475" lon="7.37447">
        <ele>281.8</ele>
        <time>2014-07-26T10:07:25Z</time>
      </trkpt>
      <trkpt lat="43.77473" lon="7.37429">
        <ele>284.21</ele>
        <time>2014-07-26T10:07:35Z</time>
      </trkpt>
      <trkpt lat="43.77472" lon="7.37382">
        <ele>289.01</ele>
        <time>2014-07-26T10:07:53Z</time>
      </trkpt>
      <trkpt lat="43.77481" lon="7.37343">
        <ele>290.46</ele>
        <time>2014-07-26T10:08:09Z</time>
      </trkpt>
      <trkpt lat="43.77502" lon="7.37326">
        <ele>292.38</ele>
        <time>2014-07-26T10:08:22Z</time>
      </trkpt>
      <trkpt lat="43.7753" lon="7.37375">
        <ele>294.3</ele>
        <time>2014-07-26T10:08:43Z</time>
      </trkpt>
      <trkpt lat="43.77555" lon="7.37416">
        <ele>296.7</ele>
        <time>2014-07-26T10:09:04Z</time>
      </trkpt>
      <trkpt lat="43.77593" lon="7.37457">
        <ele>298.15</ele>
        <time>2014-07-26T10:09:25Z</time>
      </trkpt>
      <trkpt lat="43.7763" lon="7.37487">
        <ele>305.36</ele>
        <time>2014-07-26T10:09:42Z</time>
      </trkpt>
      <trkpt lat="43.77634" lon="7.37505">
        <ele>307.76</ele>
        <time>2014-07-26T10:09:56Z</time>
      </trkpt>
      <trkpt lat="43.7763" lon="7.375">
        <ele>309.2</ele>
        <time>2014-07-26T10:10:00Z</time>
      </trkpt>
      <trkpt lat="43.77579" lon="7.37459">
        <ele>311.12</ele>
        <time>2014-07-26T10:10:20Z</time>
      </trkpt>
      <trkpt lat="43.77542" lon="7.37428">
        <ele>314.01</ele>
        <time>2014-07-26T10:10:42Z</time>
      </trkpt>
      <trkpt lat="43.77506" lon="7.37384">
        <ele>318.81</ele>
        <time>2014-07-26T10:11:00Z</time>
      </trkpt>
      <trkpt lat="43.77506" lon="7.37415">
        <ele>321.7</ele>
        <time>2014-07-26T10:11:16Z</time>
      </trkpt>
      <trkpt lat="43.77518" lon="7.37455">
        <ele>326.99</ele>
        <time>2014-07-26T10:11:32Z</time>
      </trkpt>
      <trkpt lat="43.77547" lon="7.37503">
        <ele>331.31</ele>
        <time>2014-07-26T10:11:52Z</time>
      </trkpt>
      <trkpt lat="43.7757" lon="7.37537">
        <ele>333.23</ele>
        <time>2014-07-26T10:12:10Z</time>
      </trkpt>
      <trkpt lat="43.77598" lon="7.37573">
        <ele>332.75</ele>
        <time>2014-07-26T10:12:30Z</time>
      </trkpt>
      <trkpt lat="43.77624" lon="7.37618">
        <ele>332.75</ele>
        <time>2014-07-26T10:12:49Z</time>
      </trkpt>
      <trkpt lat="43.77651" lon="7.37655">
        <ele>340.92</ele>
        <time>2014-07-26T10:13:10Z</time>
      </trkpt>
      <trkpt lat="43.7767" lon="7.37703">
        <ele>349.58</ele>
        <time>2014-07-26T10:13:31Z</time>
      </trkpt>
      <trkpt lat="43.7769" lon="7.3775">
        <ele>346.69</ele>
        <time>2014-07-26T10:13:48Z</time>
      </trkpt>
      <trkpt lat="43.77719" lon="7.37787">
        <ele>345.73</ele>
        <time>2014-07-26T10:14:08Z</time>
      </trkpt>
      <trkpt lat="43.77745" lon="7.37829">
        <ele>351.98</ele>
        <time>2014-07-26T10:14:28Z</time>
      </trkpt>
      <trkpt lat="43.77766" lon="7.37862">
        <ele>357.75</ele>
        <time>2014-07-26T10:14:43Z</time>
      </trkpt>
      <trkpt lat="43.77788" lon="7.37897">
        <ele>364.96</ele>
        <time>2014-07-26T10:15:00Z</time>
      </trkpt>
      <trkpt lat="43.7782" lon="7.37938">
        <ele>371.21</ele>
        <time>2014-07-26T10:15:20Z</time>
      </trkpt>
      <trkpt lat="43.77846" lon="7.37971">
        <ele>373.61</ele>
        <time>2014-07-26T10:15:36Z</time>
      </trkpt>
      <trkpt lat="43.77875" lon="7.38014">
        <ele>381.78</ele>
        <time>2014-07-26T10:15:56Z</time>
      </trkpt>
      <trkpt lat="43.77882" lon="7.38038">
        <ele>386.59</ele>
        <time>2014-07-26T10:16:08Z</time>
      </trkpt>
      <trkpt lat="43.7788" lon="7.38039">
        <ele>388.03</ele>
        <time>2014-07-26T10:16:21Z</time>
      </trkpt>
      <trkpt lat="43.77881" lon="7.3804">
        <ele>387.07</ele>
        <time>2014-07-26T10:16:34Z</time>
      </trkpt>
      <trkpt lat="43.77881" lon="7.3804">
        <ele>384.66</ele>
        <time>2014-07-26T10:17:04Z</time>
      </trkpt>
      <trkpt lat="43.77882" lon="7.38041">
        <ele>383.7</ele>
        <time>2014-07-26T10:17:23Z</time>
      </trkpt>
      <trkpt lat="43.77882" lon="7.38041">
        <ele>383.7</ele>
        <time>2014-07-26T10:17:26Z</time>
      </trkpt>
      <trkpt lat="43.77883" lon="7.38047">
        <ele>383.7</ele>
        <time>2014-07-26T10:17:30Z</time>
      </trkpt>
      <trkpt lat="43.77901" lon="7.38091">
        <ele>383.7</ele>
        <time>2014-07-26T10:17:47Z</time>
      </trkpt>
      <trkpt lat="43.77874" lon="7.38125">
        <ele>384.66</ele>
        <time>2014-07-26T10:18:01Z</time>
      </trkpt>
      <trkpt lat="43.77865" lon="7.38141">
        <ele>385.63</ele>
        <time>2014-07-26T10:18:07Z</time>
      </trkpt>
      <trkpt lat="43.77861" lon="7.38176">
        <ele>385.63</ele>
        <time>2014-07-26T10:18:22Z</time>
      </trkpt>
      <trkpt lat="43.77836" lon="7.38208">
        <ele>386.59</ele>
        <time>2014-07-26T10:18:36Z</time>
      </trkpt>
      <trkpt lat="43.77821" lon="7.38208">
        <ele>389.95</ele>
        <time>2014-07-26T10:18:49Z</time>
      </trkpt>
      <trkpt lat="43.77818" lon="7.38204">
        <ele>391.87</ele>
        <time>2014-07-26T10:19:15Z</time>
      </trkpt>
      <trkpt lat="43.77818" lon="7.38202">
        <ele>392.84</ele>
        <time>2014-07-26T10:19:33Z</time>
      </trkpt>
      <trkpt lat="43.77823" lon="7.38209">
        <ele>393.8</ele>
        <time>2014-07-26T10:19:48Z</time>
      </trkpt>
      <trkpt lat="43.77825" lon="7.38214">
        <ele>394.28</ele>
        <time>2014-07-26T10:20:10Z</time>
      </trkpt>
      <trkpt lat="43.77826" lon="7.38216">
        <ele>392.84</ele>
        <time>2014-07-26T10:20:41Z</time>
      </trkpt>
      <trkpt lat="43.77824" lon="7.38216">
        <ele>390.43</ele>
        <time>2014-07-26T10:20:59Z</time>
      </trkpt>
      <trkpt lat="43.77824" lon="7.38215">
        <ele>390.91</ele>
        <time>2014-07-26T10:21:22Z</time>
      </trkpt>
      <trkpt lat="43.77821" lon="7.38216">
        <ele>389.95</ele>
        <time>2014-07-26T10:21:40Z</time>
      </trkpt>
      <trkpt lat="43.7782" lon="7.38218">
        <ele>387.55</ele>
        <time>2014-07-26T10:21:52Z</time>
      </trkpt>
      <trkpt lat="43.7782" lon="7.38207">
        <ele>396.2</ele>
        <time>2014-07-26T10:22:08Z</time>
      </trkpt>
      <trkpt lat="43.77823" lon="7.38196">
        <ele>400.53</ele>
        <time>2014-07-26T10:22:22Z</time>
      </trkpt>
      <trkpt lat="43.77819" lon="7.38201">
        <ele>401.97</ele>
        <time>2014-07-26T10:22:36Z</time>
      </trkpt>
      <trkpt lat="43.77822" lon="7.38215">
        <ele>401.97</ele>
        <time>2014-07-26T10:22:57Z</time>
      </trkpt>
      <trkpt lat="43.77804" lon="7.38223">
        <ele>402.45</ele>
        <time>2014-07-26T10:23:12Z</time>
      </trkpt>
      <trkpt lat="43.7778" lon="7.38219">
        <ele>403.41</ele>
        <time>2014-07-26T10:23:28Z</time>
      </trkpt>
      <trkpt lat="43.77775" lon="7.38219">
        <ele>403.41</ele>
        <time>2014-07-26T10:23:42Z</time>
      </trkpt>
      <trkpt lat="43.7778" lon="7.38228">
        <ele>402.45</ele>
        <time>2014-07-26T10:23:59Z</time>
      </trkpt>
      <trkpt lat="43.77778" lon="7.38226">
        <ele>403.89</ele>
        <time>2014-07-26T10:24:01Z</time>
      </trkpt>
      <trkpt lat="43.77778" lon="7.38223">
        <ele>399.08</ele>
        <time>2014-07-26T10:24:12Z</time>
      </trkpt>
      <trkpt lat="43.77778" lon="7.38225">
        <ele>398.12</ele>
        <time>2014-07-26T10:24:27Z</time>
      </trkpt>
      <trkpt lat="43.77772" lon="7.38221">
        <ele>400.05</ele>
        <time>2014-07-26T10:24:42Z</time>
      </trkpt>
      <trkpt lat="43.7777" lon="7.38223">
        <ele>400.05</ele>
        <time>2014-07-26T10:25:00Z</time>
      </trkpt>
      <trkpt lat="43.77769" lon="7.38223">
        <ele>400.05</ele>
        <time>2014-07-26T10:25:01Z</time>
      </trkpt>
      <trkpt lat="43.77767" lon="7.38222">
        <ele>399.57</ele>
        <time>2014-07-26T10:25:14Z</time>
      </trkpt>
      <trkpt lat="43.7777" lon="7.38231">
        <ele>398.6</ele>
        <time>2014-07-26T10:25:25Z</time>
      </trkpt>
      <trkpt lat="43.7777" lon="7.38231">
        <ele>399.08</ele>
        <time>2014-07-26T10:25:33Z</time>
      </trkpt>
      <trkpt lat="43.77779" lon="7.38243">
        <ele>403.41</ele>
        <time>2014-07-26T10:25:46Z</time>
      </trkpt>
      <trkpt lat="43.77776" lon="7.38243">
        <ele>404.37</ele>
        <time>2014-07-26T10:25:49Z</time>
      </trkpt>
      <trkpt lat="43.77769" lon="7.38243">
        <ele>403.41</ele>
        <time>2014-07-26T10:26:04Z</time>
      </trkpt>
      <trkpt lat="43.77766" lon="7.38243">
        <ele>404.37</ele>
        <time>2014-07-26T10:26:16Z</time>
      </trkpt>
      <trkpt lat="43.77766" lon="7.38243">
        <ele>402.93</ele>
        <time>2014-07-26T10:26:31Z</time>
      </trkpt>
      <trkpt lat="43.77768" lon="7.38246">
        <ele>402.93</ele>
        <time>2014-07-26T10:26:46Z</time>
      </trkpt>
      <trkpt lat="43.77765" lon="7.3824">
        <ele>403.89</ele>
        <time>2014-07-26T10:26:59Z</time>
      </trkpt>
      <trkpt lat="43.77768" lon="7.38239">
        <ele>404.85</ele>
        <time>2014-07-26T10:27:05Z</time>
      </trkpt>
      <trkpt lat="43.77772" lon="7.3824">
        <ele>404.85</ele>
        <time>2014-07-26T10:27:09Z</time>
      </trkpt>
      <trkpt lat="43.77776" lon="7.3824">
        <ele>403.89</ele>
        <time>2014-07-26T10:27:15Z</time>
      </trkpt>
      <trkpt lat="43.77776" lon="7.38237">
        <ele>404.37</ele>
        <time>2014-07-26T10:27:18Z</time>
      </trkpt>
      <trkpt lat="43.77769" lon="7.38236">
        <ele>404.37</ele>
        <time>2014-07-26T10:27:29Z</time>
      </trkpt>
      <trkpt lat="43.77767" lon="7.38231">
        <ele>403.41</ele>
        <time>2014-07-26T10:27:42Z</time>
      </trkpt>
      <trkpt lat="43.77767" lon="7.3823">
        <ele>402.45</ele>
        <time>2014-07-26T10:28:09Z</time>
      </trkpt>
      <trkpt lat="43.77766" lon="7.38229">
        <ele>401.49</ele>
        <time>2014-07-26T10:28:41Z</time>
      </trkpt>
      <trkpt lat="43.77767" lon="7.38229">
        <ele>401.49</ele>
        <time>2014-07-26T10:29:13Z</time>
      </trkpt>
      <trkpt lat="43.77767" lon="7.3823">
        <ele>401.01</ele>
        <time>2014-07-26T10:29:35Z</time>
      </trkpt>
      <trkpt lat="43.77767" lon="7.38231">
        <ele>399.57</ele>
        <time>2014-07-26T10:30:02Z</time>
      </trkpt>
      <trkpt lat="43.77766" lon="7.38231">
        <ele>399.57</ele>
        <time>2014-07-26T10:30:37Z</time>
      </trkpt>
      <trkpt lat="43.77767" lon="7.38231">
        <ele>399.57</ele>
        <time>2014-07-26T10:31:10Z</time>
      </trkpt>
      <trkpt lat="43.77767" lon="7.38232">
        <ele>399.57</ele>
        <time>2014-07-26T10:31:38Z</time>
      </trkpt>
      <trkpt lat="43.77767" lon="7.38232">
        <ele>400.05</ele>
        <time>2014-07-26T10:32:07Z</time>
      </trkpt>
      <trkpt lat="43.77768" lon="7.38231">
        <ele>400.05</ele>
        <time>2014-07-26T10:32:44Z</time>
      </trkpt>
      <trkpt lat="43.77768" lon="7.38231">
        <ele>399.57</ele>
        <time>2014-07-26T10:33:12Z</time>
      </trkpt>
      <trkpt lat="43.77767" lon="7.3823">
        <ele>399.08</ele>
        <time>2014-07-26T10:33:41Z</time>
      </trkpt>
      <trkpt lat="43.77762" lon="7.38226">
        <ele>398.6</ele>
        <time>2014-07-26T10:33:51Z</time>
      </trkpt>
      <trkpt lat="43.77764" lon="7.38224">
        <ele>398.6</ele>
        <time>2014-07-26T10:34:06Z</time>
      </trkpt>
      <trkpt lat="43.77764" lon="7.3822">
        <ele>400.05</ele>
        <time>2014-07-26T10:34:29Z</time>
      </trkpt>
      <trkpt lat="43.77765" lon="7.3822">
        <ele>401.49</ele>
        <time>2014-07-26T10:34:48Z</time>
      </trkpt>
      <trkpt lat="43.77765" lon="7.38219">
        <ele>402.45</ele>
        <time>2014-07-26T10:34:59Z</time>
      </trkpt>
      <trkpt lat="43.77767" lon="7.3822">
        <ele>402.93</ele>
        <time>2014-07-26T10:35:01Z</time>
      </trkpt>
      <trkpt lat="43.77772" lon="7.38225">
        <ele>402.93</ele>
        <time>2014-07-26T10:35:06Z</time>
      </trkpt>
      <trkpt lat="43.77775" lon="7.38231">
        <ele>403.89</ele>
        <time>2014-07-26T10:35:19Z</time>
      </trkpt>
      <trkpt lat="43.77774" lon="7.38227">
        <ele>404.85</ele>
        <time>2014-07-26T10:35:33Z</time>
      </trkpt>
      <trkpt lat="43.7777" lon="7.38221">
        <ele>407.26</ele>
        <time>2014-07-26T10:35:45Z</time>
      </trkpt>
      <trkpt lat="43.77772" lon="7.3822">
        <ele>409.18</ele>
        <time>2014-07-26T10:36:03Z</time>
      </trkpt>
      <trkpt lat="43.77771" lon="7.38218">
        <ele>410.62</ele>
        <time>2014-07-26T10:36:22Z</time>
      </trkpt>
      <trkpt lat="43.77779" lon="7.38216">
        <ele>413.98</ele>
        <time>2014-07-26T10:36:36Z</time>
      </trkpt>
      <trkpt lat="43.77782" lon="7.38217">
        <ele>416.39</ele>
        <time>2014-07-26T10:36:53Z</time>
      </trkpt>
      <trkpt lat="43.77784" lon="7.38215">
        <ele>419.27</ele>
        <time>2014-07-26T10:37:13Z</time>
      </trkpt>
      <trkpt lat="43.77786" lon="7.38217">
        <ele>420.23</ele>
        <time>2014-07-26T10:37:40Z</time>
      </trkpt>
      <trkpt lat="43.77792" lon="7.38221">
        <ele>420.71</ele>
        <time>2014-07-26T10:38:02Z</time>
      </trkpt>
      <trkpt lat="43.77801" lon="7.38208">
        <ele>419.27</ele>
        <time>2014-07-26T10:38:12Z</time>
      </trkpt>
      <trkpt lat="43.77808" lon="7.382">
        <ele>417.83</ele>
        <time>2014-07-26T10:38:16Z</time>
      </trkpt>
      <trkpt lat="43.7782" lon="7.38203">
        <ele>400.53</ele>
        <time>2014-07-26T10:38:29Z</time>
      </trkpt>
      <trkpt lat="43.77819" lon="7.38206">
        <ele>395.24</ele>
        <time>2014-07-26T10:38:49Z</time>
      </trkpt>
      <trkpt lat="43.77818" lon="7.38206">
        <ele>394.28</ele>
        <time>2014-07-26T10:39:00Z</time>
      </trkpt>
      <trkpt lat="43.77817" lon="7.38205">
        <ele>391.87</ele>
        <time>2014-07-26T10:39:05Z</time>
      </trkpt>
      <trkpt lat="43.77819" lon="7.38203">
        <ele>389.47</ele>
        <time>2014-07-26T10:39:19Z</time>
      </trkpt>
      <trkpt lat="43.77819" lon="7.38202">
        <ele>391.87</ele>
        <time>2014-07-26T10:39:30Z</time>
      </trkpt>
      <trkpt lat="43.7782" lon="7.38204">
        <ele>393.8</ele>
        <time>2014-07-26T10:39:47Z</time>
      </trkpt>
      <trkpt lat="43.7782" lon="7.38204">
        <ele>394.28</ele>
        <time>2014-07-26T10:40:06Z</time>
      </trkpt>
      <trkpt lat="43.77824" lon="7.38199">
        <ele>395.72</ele>
        <time>2014-07-26T10:40:25Z</time>
      </trkpt>
      <trkpt lat="43.77844" lon="7.38187">
        <ele>396.68</ele>
        <time>2014-07-26T10:40:38Z</time>
      </trkpt>
      <trkpt lat="43.77861" lon="7.38145">
        <ele>399.08</ele>
        <time>2014-07-26T10:40:52Z</time>
      </trkpt>
      <trkpt lat="43.77866" lon="7.38125">
        <ele>400.05</ele>
        <time>2014-07-26T10:40:56Z</time>
      </trkpt>
      <trkpt lat="43.77869" lon="7.38121">
        <ele>400.53</ele>
        <time>2014-07-26T10:40:57Z</time>
      </trkpt>
      <trkpt lat="43.77904" lon="7.38083">
        <ele>398.6</ele>
        <time>2014-07-26T10:41:11Z</time>
      </trkpt>
      <trkpt lat="43.77905" lon="7.38083">
        <ele>398.6</ele>
        <time>2014-07-26T10:41:12Z</time>
      </trkpt>
      <trkpt lat="43.77902" lon="7.38106">
        <ele>397.16</ele>
        <time>2014-07-26T10:41:25Z</time>
      </trkpt>
      <trkpt lat="43.77898" lon="7.38116">
        <ele>396.2</ele>
        <time>2014-07-26T10:41:29Z</time>
      </trkpt>
      <trkpt lat="43.7789" lon="7.38135">
        <ele>392.36</ele>
        <time>2014-07-26T10:41:39Z</time>
      </trkpt>
      <trkpt lat="43.77894" lon="7.38135">
        <ele>390.91</ele>
        <time>2014-07-26T10:41:45Z</time>
      </trkpt>
      <trkpt lat="43.77897" lon="7.38131">
        <ele>390.43</ele>
        <time>2014-07-26T10:41:48Z</time>
      </trkpt>
      <trkpt lat="43.77899" lon="7.3813">
        <ele>389.95</ele>
        <time>2014-07-26T10:41:49Z</time>
      </trkpt>
      <trkpt lat="43.77909" lon="7.38117">
        <ele>387.55</ele>
        <time>2014-07-26T10:42:01Z</time>
      </trkpt>
      <trkpt lat="43.7791" lon="7.38116">
        <ele>387.07</ele>
        <time>2014-07-26T10:42:02Z</time>
      </trkpt>
      <trkpt lat="43.77914" lon="7.38093">
        <ele>381.78</ele>
        <time>2014-07-26T10:42:15Z</time>
      </trkpt>
      <trkpt lat="43.77915" lon="7.38091">
        <ele>381.78</ele>
        <time>2014-07-26T10:42:16Z</time>
      </trkpt>
      <trkpt lat="43.77915" lon="7.38089">
        <ele>381.78</ele>
        <time>2014-07-26T10:42:17Z</time>
      </trkpt>
      <trkpt lat="43.77919" lon="7.38084">
        <ele>381.3</ele>
        <time>2014-07-26T10:42:21Z</time>
      </trkpt>
      <trkpt lat="43.7792" lon="7.38083">
        <ele>381.78</ele>
        <time>2014-07-26T10:42:22Z</time>
      </trkpt>
      <trkpt lat="43.77932" lon="7.38098">
        <ele>381.3</ele>
        <time>2014-07-26T10:42:33Z</time>
      </trkpt>
      <trkpt lat="43.77934" lon="7.38113">
        <ele>380.82</ele>
        <time>2014-07-26T10:42:41Z</time>
      </trkpt>
      <trkpt lat="43.77937" lon="7.38122">
        <ele>381.3</ele>
        <time>2014-07-26T10:42:49Z</time>
      </trkpt>
      <trkpt lat="43.77932" lon="7.38106">
        <ele>383.22</ele>
        <time>2014-07-26T10:43:04Z</time>
      </trkpt>
      <trkpt lat="43.77933" lon="7.38099">
        <ele>382.74</ele>
        <time>2014-07-26T10:43:08Z</time>
      </trkpt>
      <trkpt lat="43.77937" lon="7.38069">
        <ele>385.63</ele>
        <time>2014-07-26T10:43:27Z</time>
      </trkpt>
      <trkpt lat="43.7794" lon="7.38055">
        <ele>388.51</ele>
        <time>2014-07-26T10:43:40Z</time>
      </trkpt>
      <trkpt lat="43.77942" lon="7.38045">
        <ele>392.84</ele>
        <time>2014-07-26T10:43:57Z</time>
      </trkpt>
      <trkpt lat="43.77951" lon="7.38042">
        <ele>398.12</ele>
        <time>2014-07-26T10:44:15Z</time>
      </trkpt>
      <trkpt lat="43.77963" lon="7.38056">
        <ele>400.53</ele>
        <time>2014-07-26T10:44:37Z</time>
      </trkpt>
      <trkpt lat="43.7797" lon="7.38075">
        <ele>400.53</ele>
        <time>2014-07-26T10:44:59Z</time>
      </trkpt>
      <trkpt lat="43.77963" lon="7.3807">
        <ele>402.93</ele>
        <time>2014-07-26T10:45:16Z</time>
      </trkpt>
      <trkpt lat="43.77962" lon="7.38056">
        <ele>404.85</ele>
        <time>2014-07-26T10:45:37Z</time>
      </trkpt>
      <trkpt lat="43.77962" lon="7.38051">
        <ele>409.18</ele>
        <time>2014-07-26T10:45:55Z</time>
      </trkpt>
      <trkpt lat="43.77963" lon="7.38038">
        <ele>412.06</ele>
        <time>2014-07-26T10:46:11Z</time>
      </trkpt>
      <trkpt lat="43.77967" lon="7.38026">
        <ele>412.06</ele>
        <time>2014-07-26T10:46:25Z</time>
      </trkpt>
      <trkpt lat="43.77969" lon="7.38013">
        <ele>414.47</ele>
        <time>2014-07-26T10:46:41Z</time>
      </trkpt>
      <trkpt lat="43.7797" lon="7.38006">
        <ele>415.91</ele>
        <time>2014-07-26T10:46:55Z</time>
      </trkpt>
      <trkpt lat="43.77972" lon="7.37996">
        <ele>417.83</ele>
        <time>2014-07-26T10:47:11Z</time>
      </trkpt>
      <trkpt lat="43.77975" lon="7.37979">
        <ele>421.19</ele>
        <time>2014-07-26T10:47:28Z</time>
      </trkpt>
      <trkpt lat="43.77974" lon="7.37967">
        <ele>423.6</ele>
        <time>2014-07-26T10:47:44Z</time>
      </trkpt>
      <trkpt lat="43.77973" lon="7.37948">
        <ele>422.64</ele>
        <time>2014-07-26T10:47:59Z</time>
      </trkpt>
      <trkpt lat="43.77975" lon="7.37928">
        <ele>426</ele>
        <time>2014-07-26T10:48:13Z</time>
      </trkpt>
      <trkpt lat="43.77973" lon="7.37924">
        <ele>427.44</ele>
        <time>2014-07-26T10:48:17Z</time>
      </trkpt>
      <trkpt lat="43.7797" lon="7.37908">
        <ele>429.37</ele>
        <time>2014-07-26T10:48:31Z</time>
      </trkpt>
      <trkpt lat="43.77969" lon="7.37892">
        <ele>429.85</ele>
        <time>2014-07-26T10:48:45Z</time>
      </trkpt>
      <trkpt lat="43.77969" lon="7.37888">
        <ele>430.81</ele>
        <time>2014-07-26T10:48:48Z</time>
      </trkpt>
      <trkpt lat="43.77971" lon="7.37883">
        <ele>430.81</ele>
        <time>2014-07-26T10:49:04Z</time>
      </trkpt>
      <trkpt lat="43.77975" lon="7.37872">
        <ele>430.81</ele>
        <time>2014-07-26T10:49:16Z</time>
      </trkpt>
      <trkpt lat="43.77977" lon="7.37869">
        <ele>429.85</ele>
        <time>2014-07-26T10:49:35Z</time>
      </trkpt>
      <trkpt lat="43.7798" lon="7.37872">
        <ele>432.73</ele>
        <time>2014-07-26T10:50:03Z</time>
      </trkpt>
      <trkpt lat="43.7798" lon="7.37871">
        <ele>433.21</ele>
        <time>2014-07-26T10:50:37Z</time>
      </trkpt>
      <trkpt lat="43.7798" lon="7.3787">
        <ele>433.21</ele>
        <time>2014-07-26T10:51:03Z</time>
      </trkpt>
      <trkpt lat="43.7798" lon="7.3787">
        <ele>432.73</ele>
        <time>2014-07-26T10:51:35Z</time>
      </trkpt>
      <trkpt lat="43.7798" lon="7.37868">
        <ele>431.77</ele>
        <time>2014-07-26T10:52:10Z</time>
      </trkpt>
      <trkpt lat="43.7798" lon="7.37868">
        <ele>432.73</ele>
        <time>2014-07-26T10:52:41Z</time>
      </trkpt>
      <trkpt lat="43.7798" lon="7.37868">
        <ele>433.69</ele>
        <time>2014-07-26T10:53:16Z</time>
      </trkpt>
      <trkpt lat="43.7798" lon="7.37868">
        <ele>433.21</ele>
        <time>2014-07-26T10:53:55Z</time>
      </trkpt>
      <trkpt lat="43.77981" lon="7.37867">
        <ele>433.69</ele>
        <time>2014-07-26T10:54:30Z</time>
      </trkpt>
      <trkpt lat="43.77981" lon="7.37866">
        <ele>434.17</ele>
        <time>2014-07-26T10:55:06Z</time>
      </trkpt>
      <trkpt lat="43.77981" lon="7.37866">
        <ele>434.65</ele>
        <time>2014-07-26T10:55:44Z</time>
      </trkpt>
      <trkpt lat="43.77981" lon="7.37866">
        <ele>434.17</ele>
        <time>2014-07-26T10:56:16Z</time>
      </trkpt>
      <trkpt lat="43.77981" lon="7.37867">
        <ele>433.69</ele>
        <time>2014-07-26T10:56:48Z</time>
      </trkpt>
      <trkpt lat="43.77981" lon="7.37867">
        <ele>433.69</ele>
        <time>2014-07-26T10:57:17Z</time>
      </trkpt>
      <trkpt lat="43.77981" lon="7.37867">
        <ele>433.69</ele>
        <time>2014-07-26T10:57:48Z</time>
      </trkpt>
      <trkpt lat="43.7798" lon="7.37867">
        <ele>433.69</ele>
        <time>2014-07-26T10:58:20Z</time>
      </trkpt>
      <trkpt lat="43.7798" lon="7.37867">
        <ele>434.17</ele>
        <time>2014-07-26T10:58:53Z</time>
      </trkpt>
      <trkpt lat="43.7798" lon="7.37867">
        <ele>434.65</ele>
        <time>2014-07-26T10:59:30Z</time>
      </trkpt>
      <trkpt lat="43.77981" lon="7.37868">
        <ele>434.17</ele>
        <time>2014-07-26T11:00:05Z</time>
      </trkpt>
      <trkpt lat="43.7798" lon="7.37868">
        <ele>433.69</ele>
        <time>2014-07-26T11:00:36Z</time>
      </trkpt>
      <trkpt lat="43.7798" lon="7.37868">
        <ele>434.17</ele>
        <time>2014-07-26T11:01:10Z</time>
      </trkpt>
      <trkpt lat="43.7798" lon="7.37868">
        <ele>435.13</ele>
        <time>2014-07-26T11:01:45Z</time>
      </trkpt>
      <trkpt lat="43.77981" lon="7.37869">
        <ele>435.13</ele>
        <time>2014-07-26T11:02:10Z</time>
      </trkpt>
      <trkpt lat="43.77982" lon="7.3787">
        <ele>435.13</ele>
        <time>2014-07-26T11:02:32Z</time>
      </trkpt>
      <trkpt lat="43.7798" lon="7.37864">
        <ele>435.13</ele>
        <time>2014-07-26T11:03:20Z</time>
      </trkpt>
      <trkpt lat="43.77986" lon="7.37861">
        <ele>435.13</ele>
        <time>2014-07-26T11:03:43Z</time>
      </trkpt>
      <trkpt lat="43.7799" lon="7.37861">
        <ele>434.65</ele>
        <time>2014-07-26T11:04:09Z</time>
      </trkpt>
      <trkpt lat="43.77988" lon="7.37861">
        <ele>434.65</ele>
        <time>2014-07-26T11:04:32Z</time>
      </trkpt>
      <trkpt lat="43.77984" lon="7.37866">
        <ele>434.65</ele>
        <time>2014-07-26T11:05:00Z</time>
      </trkpt>
      <trkpt lat="43.77983" lon="7.37865">
        <ele>434.17</ele>
        <time>2014-07-26T11:05:22Z</time>
      </trkpt>
      <trkpt lat="43.77982" lon="7.37867">
        <ele>434.17</ele>
        <time>2014-07-26T11:05:51Z</time>
      </trkpt>
      <trkpt lat="43.77981" lon="7.37867">
        <ele>434.17</ele>
        <time>2014-07-26T11:06:16Z</time>
      </trkpt>
      <trkpt lat="43.77979" lon="7.37867">
        <ele>434.17</ele>
        <time>2014-07-26T11:06:40Z</time>
      </trkpt>
      <trkpt lat="43.77979" lon="7.37868">
        <ele>433.21</ele>
        <time>2014-07-26T11:07:05Z</time>
      </trkpt>
      <trkpt lat="43.77982" lon="7.37868">
        <ele>431.29</ele>
        <time>2014-07-26T11:07:33Z</time>
      </trkpt>
      <trkpt lat="43.77981" lon="7.37868">
        <ele>430.33</ele>
        <time>2014-07-26T11:07:58Z</time>
      </trkpt>
      <trkpt lat="43.77982" lon="7.37869">
        <ele>426.96</ele>
        <time>2014-07-26T11:08:18Z</time>
      </trkpt>
      <trkpt lat="43.77982" lon="7.3787">
        <ele>426.48</ele>
        <time>2014-07-26T11:08:37Z</time>
      </trkpt>
      <trkpt lat="43.77982" lon="7.37866">
        <ele>426.96</ele>
        <time>2014-07-26T11:08:51Z</time>
      </trkpt>
      <trkpt lat="43.77993" lon="7.37859">
        <ele>426.48</ele>
        <time>2014-07-26T11:08:55Z</time>
      </trkpt>
      <trkpt lat="43.77997" lon="7.37856">
        <ele>426</ele>
        <time>2014-07-26T11:08:56Z</time>
      </trkpt>
      <trkpt lat="43.78014" lon="7.37848">
        <ele>425.04</ele>
        <time>2014-07-26T11:08:59Z</time>
      </trkpt>
      <trkpt lat="43.78027" lon="7.37846">
        <ele>425.04</ele>
        <time>2014-07-26T11:09:01Z</time>
      </trkpt>
      <trkpt lat="43.7804" lon="7.37848">
        <ele>425.04</ele>
        <time>2014-07-26T11:09:03Z</time>
      </trkpt>
      <trkpt lat="43.78046" lon="7.37849">
        <ele>425.04</ele>
        <time>2014-07-26T11:09:04Z</time>
      </trkpt>
      <trkpt lat="43.78068" lon="7.37858">
        <ele>425.52</ele>
        <time>2014-07-26T11:09:08Z</time>
      </trkpt>
      <trkpt lat="43.78074" lon="7.37859">
        <ele>425.52</ele>
        <time>2014-07-26T11:09:09Z</time>
      </trkpt>
      <trkpt lat="43.7808" lon="7.3786">
        <ele>425.52</ele>
        <time>2014-07-26T11:09:10Z</time>
      </trkpt>
      <trkpt lat="43.78087" lon="7.37859">
        <ele>425.52</ele>
        <time>2014-07-26T11:09:11Z</time>
      </trkpt>
      <trkpt lat="43.78093" lon="7.37857">
        <ele>425.52</ele>
        <time>2014-07-26T11:09:12Z</time>
      </trkpt>
      <trkpt lat="43.78101" lon="7.37855">
        <ele>425.52</ele>
        <time>2014-07-26T11:09:13Z</time>
      </trkpt>
      <trkpt lat="43.78123" lon="7.37848">
        <ele>425.52</ele>
        <time>2014-07-26T11:09:16Z</time>
      </trkpt>
      <trkpt lat="43.78148" lon="7.37848">
        <ele>425.52</ele>
        <time>2014-07-26T11:09:19Z</time>
      </trkpt>
      <trkpt lat="43.78156" lon="7.37851">
        <ele>425.52</ele>
        <time>2014-07-26T11:09:20Z</time>
      </trkpt>
      <trkpt lat="43.78164" lon="7.37856">
        <ele>426</ele>
        <time>2014-07-26T11:09:21Z</time>
      </trkpt>
      <trkpt lat="43.78175" lon="7.37866">
        <ele>426</ele>
        <time>2014-07-26T11:09:23Z</time>
      </trkpt>
      <trkpt lat="43.78179" lon="7.37871">
        <ele>426</ele>
        <time>2014-07-26T11:09:24Z</time>
      </trkpt>
      <trkpt lat="43.78193" lon="7.37891">
        <ele>426</ele>
        <time>2014-07-26T11:09:29Z</time>
      </trkpt>
      <trkpt lat="43.78197" lon="7.37896">
        <ele>426</ele>
        <time>2014-07-26T11:09:30Z</time>
      </trkpt>
      <trkpt lat="43.78201" lon="7.379">
        <ele>426</ele>
        <time>2014-07-26T11:09:31Z</time>
      </trkpt>
      <trkpt lat="43.78207" lon="7.37903">
        <ele>426.48</ele>
        <time>2014-07-26T11:09:32Z</time>
      </trkpt>
      <trkpt lat="43.78213" lon="7.37904">
        <ele>426.48</ele>
        <time>2014-07-26T11:09:33Z</time>
      </trkpt>
      <trkpt lat="43.78221" lon="7.37903">
        <ele>426.48</ele>
        <time>2014-07-26T11:09:34Z</time>
      </trkpt>
      <trkpt lat="43.7823" lon="7.37903">
        <ele>426.48</ele>
        <time>2014-07-26T11:09:35Z</time>
      </trkpt>
      <trkpt lat="43.78247" lon="7.379">
        <ele>426</ele>
        <time>2014-07-26T11:09:37Z</time>
      </trkpt>
      <trkpt lat="43.78256" lon="7.37897">
        <ele>426.48</ele>
        <time>2014-07-26T11:09:38Z</time>
      </trkpt>
      <trkpt lat="43.7833" lon="7.37859">
        <ele>426.96</ele>
        <time>2014-07-26T11:09:49Z</time>
      </trkpt>
      <trkpt lat="43.78373" lon="7.37841">
        <ele>426.96</ele>
        <time>2014-07-26T11:09:54Z</time>
      </trkpt>
      <trkpt lat="43.78425" lon="7.37833">
        <ele>427.44</ele>
        <time>2014-07-26T11:10:00Z</time>
      </trkpt>
      <trkpt lat="43.78432" lon="7.37834">
        <ele>427.44</ele>
        <time>2014-07-26T11:10:01Z</time>
      </trkpt>
      <trkpt lat="43.78452" lon="7.37835">
        <ele>427.92</ele>
        <time>2014-07-26T11:10:09Z</time>
      </trkpt>
      <trkpt lat="43.78455" lon="7.37838">
        <ele>427.44</ele>
        <time>2014-07-26T11:10:12Z</time>
      </trkpt>
      <trkpt lat="43.78461" lon="7.37841">
        <ele>427.92</ele>
        <time>2014-07-26T11:10:17Z</time>
      </trkpt>
      <trkpt lat="43.78462" lon="7.3784">
        <ele>427.92</ele>
        <time>2014-07-26T11:10:18Z</time>
      </trkpt>
      <trkpt lat="43.78464" lon="7.37839">
        <ele>427.92</ele>
        <time>2014-07-26T11:10:19Z</time>
      </trkpt>
      <trkpt lat="43.78486" lon="7.37842">
        <ele>427.92</ele>
        <time>2014-07-26T11:10:24Z</time>
      </trkpt>
      <trkpt lat="43.7849" lon="7.3784">
        <ele>427.92</ele>
        <time>2014-07-26T11:10:25Z</time>
      </trkpt>
      <trkpt lat="43.78498" lon="7.37838">
        <ele>427.92</ele>
        <time>2014-07-26T11:10:26Z</time>
      </trkpt>
      <trkpt lat="43.78506" lon="7.37837">
        <ele>427.92</ele>
        <time>2014-07-26T11:10:27Z</time>
      </trkpt>
      <trkpt lat="43.78513" lon="7.37837">
        <ele>427.44</ele>
        <time>2014-07-26T11:10:28Z</time>
      </trkpt>
      <trkpt lat="43.7852" lon="7.37839">
        <ele>427.44</ele>
        <time>2014-07-26T11:10:29Z</time>
      </trkpt>
      <trkpt lat="43.78526" lon="7.3784">
        <ele>427.44</ele>
        <time>2014-07-26T11:10:30Z</time>
      </trkpt>
      <trkpt lat="43.78532" lon="7.37842">
        <ele>427.44</ele>
        <time>2014-07-26T11:10:31Z</time>
      </trkpt>
      <trkpt lat="43.78537" lon="7.37846">
        <ele>427.44</ele>
        <time>2014-07-26T11:10:32Z</time>
      </trkpt>
      <trkpt lat="43.78541" lon="7.3785">
        <ele>427.44</ele>
        <time>2014-07-26T11:10:33Z</time>
      </trkpt>
      <trkpt lat="43.78545" lon="7.37854">
        <ele>427.44</ele>
        <time>2014-07-26T11:10:34Z</time>
      </trkpt>
      <trkpt lat="43.78548" lon="7.3786">
        <ele>426.96</ele>
        <time>2014-07-26T11:10:35Z</time>
      </trkpt>
      <trkpt lat="43.78551" lon="7.37863">
        <ele>426.96</ele>
        <time>2014-07-26T11:10:36Z</time>
      </trkpt>
      <trkpt lat="43.78555" lon="7.37869">
        <ele>426.96</ele>
        <time>2014-07-26T11:10:37Z</time>
      </trkpt>
      <trkpt lat="43.78558" lon="7.37875">
        <ele>426.48</ele>
        <time>2014-07-26T11:10:38Z</time>
      </trkpt>
      <trkpt lat="43.7856" lon="7.37881">
        <ele>426.48</ele>
        <time>2014-07-26T11:10:39Z</time>
      </trkpt>
      <trkpt lat="43.78574" lon="7.37905">
        <ele>425.04</ele>
        <time>2014-07-26T11:10:48Z</time>
      </trkpt>
      <trkpt lat="43.78569" lon="7.3791">
        <ele>419.75</ele>
        <time>2014-07-26T11:11:08Z</time>
      </trkpt>
      <trkpt lat="43.78564" lon="7.37923">
        <ele>403.89</ele>
        <time>2014-07-26T11:11:34Z</time>
      </trkpt>
      <trkpt lat="43.78562" lon="7.37926">
        <ele>402.45</ele>
        <time>2014-07-26T11:11:50Z</time>
      </trkpt>
      <trkpt lat="43.78564" lon="7.37915">
        <ele>400.53</ele>
        <time>2014-07-26T11:11:54Z</time>
      </trkpt>
      <trkpt lat="43.78567" lon="7.3791">
        <ele>399.08</ele>
        <time>2014-07-26T11:11:55Z</time>
      </trkpt>
      <trkpt lat="43.78571" lon="7.37906">
        <ele>398.12</ele>
        <time>2014-07-26T11:11:56Z</time>
      </trkpt>
      <trkpt lat="43.78575" lon="7.37903">
        <ele>396.68</ele>
        <time>2014-07-26T11:11:57Z</time>
      </trkpt>
      <trkpt lat="43.78595" lon="7.37891">
        <ele>387.55</ele>
        <time>2014-07-26T11:12:06Z</time>
      </trkpt>
      <trkpt lat="43.78595" lon="7.3789">
        <ele>385.15</ele>
        <time>2014-07-26T11:12:08Z</time>
      </trkpt>
      <trkpt lat="43.78595" lon="7.37889">
        <ele>383.7</ele>
        <time>2014-07-26T11:12:09Z</time>
      </trkpt>
      <trkpt lat="43.78597" lon="7.37887">
        <ele>382.74</ele>
        <time>2014-07-26T11:12:10Z</time>
      </trkpt>
      <trkpt lat="43.78625" lon="7.37858">
        <ele>372.17</ele>
        <time>2014-07-26T11:12:23Z</time>
      </trkpt>
      <trkpt lat="43.78636" lon="7.37835">
        <ele>370.73</ele>
        <time>2014-07-26T11:12:29Z</time>
      </trkpt>
      <trkpt lat="43.78631" lon="7.3781">
        <ele>366.88</ele>
        <time>2014-07-26T11:12:39Z</time>
      </trkpt>
      <trkpt lat="43.78629" lon="7.37816">
        <ele>364.48</ele>
        <time>2014-07-26T11:12:44Z</time>
      </trkpt>
      <trkpt lat="43.78628" lon="7.37822">
        <ele>362.07</ele>
        <time>2014-07-26T11:12:49Z</time>
      </trkpt>
      <trkpt lat="43.78629" lon="7.3782">
        <ele>361.11</ele>
        <time>2014-07-26T11:12:51Z</time>
      </trkpt>
      <trkpt lat="43.78634" lon="7.37823">
        <ele>356.79</ele>
        <time>2014-07-26T11:12:59Z</time>
      </trkpt>
      <trkpt lat="43.78632" lon="7.37832">
        <ele>338.04</ele>
        <time>2014-07-26T11:13:15Z</time>
      </trkpt>
      <trkpt lat="43.78619" lon="7.37826">
        <ele>330.35</ele>
        <time>2014-07-26T11:13:23Z</time>
      </trkpt>
      <trkpt lat="43.78616" lon="7.37815">
        <ele>325.06</ele>
        <time>2014-07-26T11:13:28Z</time>
      </trkpt>
      <trkpt lat="43.7862" lon="7.37812">
        <ele>318.33</ele>
        <time>2014-07-26T11:13:38Z</time>
      </trkpt>
      <trkpt lat="43.7862" lon="7.37813">
        <ele>316.41</ele>
        <time>2014-07-26T11:14:02Z</time>
      </trkpt>
      <trkpt lat="43.7862" lon="7.37816">
        <ele>313.53</ele>
        <time>2014-07-26T11:14:29Z</time>
      </trkpt>
      <trkpt lat="43.78622" lon="7.37814">
        <ele>310.16</ele>
        <time>2014-07-26T11:14:52Z</time>
      </trkpt>
      <trkpt lat="43.78622" lon="7.37814">
        <ele>308.24</ele>
        <time>2014-07-26T11:15:17Z</time>
      </trkpt>
      <trkpt lat="43.78623" lon="7.37815">
        <ele>306.8</ele>
        <time>2014-07-26T11:15:41Z</time>
      </trkpt>
      <trkpt lat="43.78623" lon="7.37815">
        <ele>306.32</ele>
        <time>2014-07-26T11:16:12Z</time>
      </trkpt>
      <trkpt lat="43.78622" lon="7.37815">
        <ele>306.32</ele>
        <time>2014-07-26T11:16:37Z</time>
      </trkpt>
      <trkpt lat="43.78622" lon="7.37816">
        <ele>306.8</ele>
        <time>2014-07-26T11:17:00Z</time>
      </trkpt>
      <trkpt lat="43.78623" lon="7.37815">
        <ele>308.72</ele>
        <time>2014-07-26T11:17:30Z</time>
      </trkpt>
      <trkpt lat="43.78623" lon="7.37816">
        <ele>307.76</ele>
        <time>2014-07-26T11:18:01Z</time>
      </trkpt>
      <trkpt lat="43.78622" lon="7.37815">
        <ele>307.28</ele>
        <time>2014-07-26T11:18:13Z</time>
      </trkpt>
      <trkpt lat="43.78627" lon="7.37808">
        <ele>307.28</ele>
        <time>2014-07-26T11:18:32Z</time>
      </trkpt>
      <trkpt lat="43.78629" lon="7.3781">
        <ele>306.32</ele>
        <time>2014-07-26T11:18:45Z</time>
      </trkpt>
      <trkpt lat="43.78631" lon="7.37809">
        <ele>305.36</ele>
        <time>2014-07-26T11:19:04Z</time>
      </trkpt>
      <trkpt lat="43.78635" lon="7.37804">
        <ele>304.88</ele>
        <time>2014-07-26T11:19:08Z</time>
      </trkpt>
      <trkpt lat="43.78626" lon="7.37785">
        <ele>302.95</ele>
        <time>2014-07-26T11:19:16Z</time>
      </trkpt>
      <trkpt lat="43.78626" lon="7.37776">
        <ele>301.51</ele>
        <time>2014-07-26T11:19:19Z</time>
      </trkpt>
      <trkpt lat="43.78637" lon="7.37742">
        <ele>293.82</ele>
        <time>2014-07-26T11:19:35Z</time>
      </trkpt>
      <trkpt lat="43.78638" lon="7.37741">
        <ele>293.34</ele>
        <time>2014-07-26T11:19:36Z</time>
      </trkpt>
      <trkpt lat="43.78638" lon="7.37707">
        <ele>288.05</ele>
        <time>2014-07-26T11:19:52Z</time>
      </trkpt>
      <trkpt lat="43.78633" lon="7.3769">
        <ele>286.61</ele>
        <time>2014-07-26T11:19:57Z</time>
      </trkpt>
      <trkpt lat="43.7864" lon="7.37653">
        <ele>282.77</ele>
        <time>2014-07-26T11:20:06Z</time>
      </trkpt>
      <trkpt lat="43.78684" lon="7.37621">
        <ele>274.59</ele>
        <time>2014-07-26T11:20:18Z</time>
      </trkpt>
      <trkpt lat="43.78697" lon="7.37616">
        <ele>267.86</ele>
        <time>2014-07-26T11:20:25Z</time>
      </trkpt>
      <trkpt lat="43.78669" lon="7.37583">
        <ele>257.77</ele>
        <time>2014-07-26T11:20:39Z</time>
      </trkpt>
      <trkpt lat="43.78668" lon="7.37581">
        <ele>256.81</ele>
        <time>2014-07-26T11:20:40Z</time>
      </trkpt>
      <trkpt lat="43.78702" lon="7.37554">
        <ele>249.6</ele>
        <time>2014-07-26T11:20:51Z</time>
      </trkpt>
      <trkpt lat="43.78723" lon="7.37556">
        <ele>247.2</ele>
        <time>2014-07-26T11:20:56Z</time>
      </trkpt>
      <trkpt lat="43.78736" lon="7.37558">
        <ele>244.79</ele>
        <time>2014-07-26T11:21:03Z</time>
      </trkpt>
      <trkpt lat="43.78736" lon="7.37557">
        <ele>244.79</ele>
        <time>2014-07-26T11:21:04Z</time>
      </trkpt>
      <trkpt lat="43.78736" lon="7.37551">
        <ele>243.83</ele>
        <time>2014-07-26T11:21:08Z</time>
      </trkpt>
      <trkpt lat="43.78744" lon="7.3755">
        <ele>239.51</ele>
        <time>2014-07-26T11:21:14Z</time>
      </trkpt>
      <trkpt lat="43.78771" lon="7.37536">
        <ele>234.22</ele>
        <time>2014-07-26T11:21:26Z</time>
      </trkpt>
      <trkpt lat="43.78793" lon="7.37553">
        <ele>230.37</ele>
        <time>2014-07-26T11:21:38Z</time>
      </trkpt>
      <trkpt lat="43.78796" lon="7.37556">
        <ele>228.93</ele>
        <time>2014-07-26T11:21:42Z</time>
      </trkpt>
      <trkpt lat="43.78775" lon="7.37536">
        <ele>223.64</ele>
        <time>2014-07-26T11:21:55Z</time>
      </trkpt>
      <trkpt lat="43.78755" lon="7.37518">
        <ele>218.84</ele>
        <time>2014-07-26T11:22:08Z</time>
      </trkpt>
      <trkpt lat="43.78755" lon="7.37512">
        <ele>216.43</ele>
        <time>2014-07-26T11:22:27Z</time>
      </trkpt>
      <trkpt lat="43.78762" lon="7.37505">
        <ele>212.59</ele>
        <time>2014-07-26T11:22:44Z</time>
      </trkpt>
      <trkpt lat="43.78765" lon="7.37509">
        <ele>209.7</ele>
        <time>2014-07-26T11:23:04Z</time>
      </trkpt>
      <trkpt lat="43.78767" lon="7.37509">
        <ele>210.67</ele>
        <time>2014-07-26T11:23:21Z</time>
      </trkpt>
      <trkpt lat="43.78766" lon="7.37512">
        <ele>211.15</ele>
        <time>2014-07-26T11:23:51Z</time>
      </trkpt>
      <trkpt lat="43.78767" lon="7.37512">
        <ele>212.11</ele>
        <time>2014-07-26T11:24:17Z</time>
      </trkpt>
      <trkpt lat="43.78767" lon="7.37513">
        <ele>212.59</ele>
        <time>2014-07-26T11:24:41Z</time>
      </trkpt>
      <trkpt lat="43.78766" lon="7.37513">
        <ele>213.07</ele>
        <time>2014-07-26T11:25:10Z</time>
      </trkpt>
      <trkpt lat="43.78766" lon="7.37512">
        <ele>212.11</ele>
        <time>2014-07-26T11:25:39Z</time>
      </trkpt>
      <trkpt lat="43.78766" lon="7.3751">
        <ele>210.67</ele>
        <time>2014-07-26T11:26:09Z</time>
      </trkpt>
      <trkpt lat="43.78769" lon="7.37508">
        <ele>209.22</ele>
        <time>2014-07-26T11:26:43Z</time>
      </trkpt>
      <trkpt lat="43.78769" lon="7.37507">
        <ele>208.74</ele>
        <time>2014-07-26T11:27:11Z</time>
      </trkpt>
      <trkpt lat="43.7877" lon="7.37506">
        <ele>207.3</ele>
        <time>2014-07-26T11:27:40Z</time>
      </trkpt>
      <trkpt lat="43.7877" lon="7.37507">
        <ele>206.82</ele>
        <time>2014-07-26T11:28:05Z</time>
      </trkpt>
      <trkpt lat="43.7877" lon="7.37507">
        <ele>205.86</ele>
        <time>2014-07-26T11:28:32Z</time>
      </trkpt>
      <trkpt lat="43.7877" lon="7.37505">
        <ele>205.38</ele>
        <time>2014-07-26T11:29:06Z</time>
      </trkpt>
      <trkpt lat="43.78771" lon="7.37504">
        <ele>205.38</ele>
        <time>2014-07-26T11:29:35Z</time>
      </trkpt>
      <trkpt lat="43.78771" lon="7.37502">
        <ele>204.42</ele>
        <time>2014-07-26T11:30:06Z</time>
      </trkpt>
      <trkpt lat="43.78771" lon="7.37501">
        <ele>204.9</ele>
        <time>2014-07-26T11:30:40Z</time>
      </trkpt>
      <trkpt lat="43.78771" lon="7.375">
        <ele>204.42</ele>
        <time>2014-07-26T11:31:09Z</time>
      </trkpt>
      <trkpt lat="43.78771" lon="7.375">
        <ele>204.42</ele>
        <time>2014-07-26T11:31:37Z</time>
      </trkpt>
      <trkpt lat="43.78769" lon="7.375">
        <ele>203.46</ele>
        <time>2014-07-26T11:32:12Z</time>
      </trkpt>
      <trkpt lat="43.78769" lon="7.375">
        <ele>203.94</ele>
        <time>2014-07-26T11:32:50Z</time>
      </trkpt>
      <trkpt lat="43.7877" lon="7.375">
        <ele>203.46</ele>
        <time>2014-07-26T11:33:22Z</time>
      </trkpt>
      <trkpt lat="43.7877" lon="7.375">
        <ele>202.49</ele>
        <time>2014-07-26T11:33:53Z</time>
      </trkpt>
      <trkpt lat="43.7877" lon="7.37499">
        <ele>202.01</ele>
        <time>2014-07-26T11:34:25Z</time>
      </trkpt>
      <trkpt lat="43.7877" lon="7.37499">
        <ele>202.49</ele>
        <time>2014-07-26T11:34:56Z</time>
      </trkpt>
      <trkpt lat="43.7877" lon="7.375">
        <ele>202.49</ele>
        <time>2014-07-26T11:35:28Z</time>
      </trkpt>
      <trkpt lat="43.7877" lon="7.37502">
        <ele>202.01</ele>
        <time>2014-07-26T11:35:54Z</time>
      </trkpt>
      <trkpt lat="43.7877" lon="7.37503">
        <ele>201.53</ele>
        <time>2014-07-26T11:36:14Z</time>
      </trkpt>
      <trkpt lat="43.78771" lon="7.37501">
        <ele>201.05</ele>
        <time>2014-07-26T11:36:36Z</time>
      </trkpt>
      <trkpt lat="43.78775" lon="7.37491">
        <ele>201.53</ele>
        <time>2014-07-26T11:36:53Z</time>
      </trkpt>
      <trkpt lat="43.78775" lon="7.3749">
        <ele>201.53</ele>
        <time>2014-07-26T11:37:13Z</time>
      </trkpt>
      <trkpt lat="43.78781" lon="7.37478">
        <ele>198.65</ele>
        <time>2014-07-26T11:37:30Z</time>
      </trkpt>
      <trkpt lat="43.78786" lon="7.37469">
        <ele>196.25</ele>
        <time>2014-07-26T11:37:42Z</time>
      </trkpt>
      <trkpt lat="43.78787" lon="7.37469">
        <ele>195.28</ele>
        <time>2014-07-26T11:37:57Z</time>
      </trkpt>
      <trkpt lat="43.78789" lon="7.37462">
        <ele>195.28</ele>
        <time>2014-07-26T11:38:09Z</time>
      </trkpt>
      <trkpt lat="43.78789" lon="7.37453">
        <ele>194.32</ele>
        <time>2014-07-26T11:38:13Z</time>
      </trkpt>
      <trkpt lat="43.78804" lon="7.37409">
        <ele>193.84</ele>
        <time>2014-07-26T11:38:26Z</time>
      </trkpt>
      <trkpt lat="43.78831" lon="7.37395">
        <ele>194.32</ele>
        <time>2014-07-26T11:38:38Z</time>
      </trkpt>
      <trkpt lat="43.78877" lon="7.37405">
        <ele>195.28</ele>
        <time>2014-07-26T11:38:53Z</time>
      </trkpt>
      <trkpt lat="43.78933" lon="7.37432">
        <ele>197.69</ele>
        <time>2014-07-26T11:39:08Z</time>
      </trkpt>
      <trkpt lat="43.78998" lon="7.37454">
        <ele>201.53</ele>
        <time>2014-07-26T11:39:25Z</time>
      </trkpt>
      <trkpt lat="43.79016" lon="7.37455">
        <ele>202.01</ele>
        <time>2014-07-26T11:39:36Z</time>
      </trkpt>
      <trkpt lat="43.79015" lon="7.3746">
        <ele>205.86</ele>
        <time>2014-07-26T11:39:49Z</time>
      </trkpt>
      <trkpt lat="43.79016" lon="7.37462">
        <ele>205.86</ele>
        <time>2014-07-26T11:39:50Z</time>
      </trkpt>
      <trkpt lat="43.79018" lon="7.37466">
        <ele>205.86</ele>
        <time>2014-07-26T11:39:51Z</time>
      </trkpt>
      <trkpt lat="43.79052" lon="7.37512">
        <ele>201.53</ele>
        <time>2014-07-26T11:40:04Z</time>
      </trkpt>
      <trkpt lat="43.79092" lon="7.37535">
        <ele>200.09</ele>
        <time>2014-07-26T11:40:17Z</time>
      </trkpt>
      <trkpt lat="43.7911" lon="7.37504">
        <ele>201.53</ele>
        <time>2014-07-26T11:40:25Z</time>
      </trkpt>
      <trkpt lat="43.79113" lon="7.37499">
        <ele>201.53</ele>
        <time>2014-07-26T11:40:26Z</time>
      </trkpt>
      <trkpt lat="43.79118" lon="7.37489">
        <ele>201.05</ele>
        <time>2014-07-26T11:40:28Z</time>
      </trkpt>
      <trkpt lat="43.79147" lon="7.37435">
        <ele>200.57</ele>
        <time>2014-07-26T11:40:41Z</time>
      </trkpt>
      <trkpt lat="43.79164" lon="7.37412">
        <ele>202.49</ele>
        <time>2014-07-26T11:40:53Z</time>
      </trkpt>
      <trkpt lat="43.79161" lon="7.37397">
        <ele>204.42</ele>
        <time>2014-07-26T11:41:00Z</time>
      </trkpt>
      <trkpt lat="43.7916" lon="7.37392">
        <ele>204.9</ele>
        <time>2014-07-26T11:41:03Z</time>
      </trkpt>
      <trkpt lat="43.79147" lon="7.37371">
        <ele>206.34</ele>
        <time>2014-07-26T11:41:15Z</time>
      </trkpt>
      <trkpt lat="43.7913" lon="7.37359">
        <ele>207.3</ele>
        <time>2014-07-26T11:41:31Z</time>
      </trkpt>
      <trkpt lat="43.79115" lon="7.37351">
        <ele>207.3</ele>
        <time>2014-07-26T11:41:44Z</time>
      </trkpt>
      <trkpt lat="43.79094" lon="7.3734">
        <ele>207.3</ele>
        <time>2014-07-26T11:41:59Z</time>
      </trkpt>
      <trkpt lat="43.7909" lon="7.37339">
        <ele>207.78</ele>
        <time>2014-07-26T11:42:01Z</time>
      </trkpt>
      <trkpt lat="43.79078" lon="7.37328">
        <ele>208.26</ele>
        <time>2014-07-26T11:42:13Z</time>
      </trkpt>
      <trkpt lat="43.79054" lon="7.37313">
        <ele>207.78</ele>
        <time>2014-07-26T11:42:29Z</time>
      </trkpt>
      <trkpt lat="43.79026" lon="7.37299">
        <ele>202.49</ele>
        <time>2014-07-26T11:42:48Z</time>
      </trkpt>
      <trkpt lat="43.79006" lon="7.37282">
        <ele>202.98</ele>
        <time>2014-07-26T11:43:03Z</time>
      </trkpt>
      <trkpt lat="43.78984" lon="7.37266">
        <ele>208.26</ele>
        <time>2014-07-26T11:43:16Z</time>
      </trkpt>
      <trkpt lat="43.78973" lon="7.37236">
        <ele>225.09</ele>
        <time>2014-07-26T11:43:31Z</time>
      </trkpt>
      <trkpt lat="43.78963" lon="7.37209">
        <ele>228.93</ele>
        <time>2014-07-26T11:43:42Z</time>
      </trkpt>
      <trkpt lat="43.78961" lon="7.37175">
        <ele>231.33</ele>
        <time>2014-07-26T11:43:55Z</time>
      </trkpt>
      <trkpt lat="43.78955" lon="7.37139">
        <ele>234.22</ele>
        <time>2014-07-26T11:44:10Z</time>
      </trkpt>
      <trkpt lat="43.78934" lon="7.37127">
        <ele>234.22</ele>
        <time>2014-07-26T11:44:22Z</time>
      </trkpt>
      <trkpt lat="43.7891" lon="7.37126">
        <ele>233.74</ele>
        <time>2014-07-26T11:44:40Z</time>
      </trkpt>
      <trkpt lat="43.78904" lon="7.37115">
        <ele>233.26</ele>
        <time>2014-07-26T11:44:45Z</time>
      </trkpt>
      <trkpt lat="43.78932" lon="7.37102">
        <ele>236.62</ele>
        <time>2014-07-26T11:44:59Z</time>
      </trkpt>
      <trkpt lat="43.78948" lon="7.37096">
        <ele>238.06</ele>
        <time>2014-07-26T11:45:10Z</time>
      </trkpt>
      <trkpt lat="43.78951" lon="7.37095">
        <ele>238.06</ele>
        <time>2014-07-26T11:45:12Z</time>
      </trkpt>
      <trkpt lat="43.78965" lon="7.37097">
        <ele>238.54</ele>
        <time>2014-07-26T11:45:18Z</time>
      </trkpt>
      <trkpt lat="43.78994" lon="7.37101">
        <ele>239.99</ele>
        <time>2014-07-26T11:45:30Z</time>
      </trkpt>
      <trkpt lat="43.79005" lon="7.37101">
        <ele>240.95</ele>
        <time>2014-07-26T11:45:36Z</time>
      </trkpt>
      <trkpt lat="43.79031" lon="7.37101">
        <ele>242.39</ele>
        <time>2014-07-26T11:45:48Z</time>
      </trkpt>
      <trkpt lat="43.79054" lon="7.37106">
        <ele>245.27</ele>
        <time>2014-07-26T11:45:59Z</time>
      </trkpt>
      <trkpt lat="43.79081" lon="7.37097">
        <ele>248.64</ele>
        <time>2014-07-26T11:46:11Z</time>
      </trkpt>
      <trkpt lat="43.79106" lon="7.37088">
        <ele>251.04</ele>
        <time>2014-07-26T11:46:23Z</time>
      </trkpt>
      <trkpt lat="43.79125" lon="7.3707">
        <ele>252.96</ele>
        <time>2014-07-26T11:46:33Z</time>
      </trkpt>
      <trkpt lat="43.7913" lon="7.37058">
        <ele>253.93</ele>
        <time>2014-07-26T11:46:38Z</time>
      </trkpt>
      <trkpt lat="43.79128" lon="7.37051">
        <ele>253.93</ele>
        <time>2014-07-26T11:46:41Z</time>
      </trkpt>
      <trkpt lat="43.79126" lon="7.37049">
        <ele>254.41</ele>
        <time>2014-07-26T11:46:43Z</time>
      </trkpt>
      <trkpt lat="43.7909" lon="7.37055">
        <ele>255.37</ele>
        <time>2014-07-26T11:47:01Z</time>
      </trkpt>
      <trkpt lat="43.79067" lon="7.37051">
        <ele>256.33</ele>
        <time>2014-07-26T11:47:15Z</time>
      </trkpt>
      <trkpt lat="43.79045" lon="7.37044">
        <ele>256.81</ele>
        <time>2014-07-26T11:47:31Z</time>
      </trkpt>
      <trkpt lat="43.79037" lon="7.37043">
        <ele>257.29</ele>
        <time>2014-07-26T11:47:37Z</time>
      </trkpt>
      <trkpt lat="43.79018" lon="7.37036">
        <ele>258.25</ele>
        <time>2014-07-26T11:47:53Z</time>
      </trkpt>
      <trkpt lat="43.78994" lon="7.37029">
        <ele>259.21</ele>
        <time>2014-07-26T11:48:09Z</time>
      </trkpt>
      <trkpt lat="43.78975" lon="7.37021">
        <ele>260.17</ele>
        <time>2014-07-26T11:48:24Z</time>
      </trkpt>
      <trkpt lat="43.78955" lon="7.37017">
        <ele>262.58</ele>
        <time>2014-07-26T11:48:38Z</time>
      </trkpt>
      <trkpt lat="43.78949" lon="7.37017">
        <ele>263.54</ele>
        <time>2014-07-26T11:48:41Z</time>
      </trkpt>
      <trkpt lat="43.78934" lon="7.37003">
        <ele>273.15</ele>
        <time>2014-07-26T11:48:55Z</time>
      </trkpt>
      <trkpt lat="43.78954" lon="7.36933">
        <ele>280.84</ele>
        <time>2014-07-26T11:49:21Z</time>
      </trkpt>
      <trkpt lat="43.78967" lon="7.36933">
        <ele>281.32</ele>
        <time>2014-07-26T11:49:27Z</time>
      </trkpt>
      <trkpt lat="43.78995" lon="7.36938">
        <ele>282.28</ele>
        <time>2014-07-26T11:49:39Z</time>
      </trkpt>
      <trkpt lat="43.79019" lon="7.36942">
        <ele>284.21</ele>
        <time>2014-07-26T11:49:50Z</time>
      </trkpt>
      <trkpt lat="43.79028" lon="7.36944">
        <ele>284.69</ele>
        <time>2014-07-26T11:49:54Z</time>
      </trkpt>
      <trkpt lat="43.79046" lon="7.36941">
        <ele>285.17</ele>
        <time>2014-07-26T11:50:02Z</time>
      </trkpt>
      <trkpt lat="43.79077" lon="7.36937">
        <ele>286.61</ele>
        <time>2014-07-26T11:50:15Z</time>
      </trkpt>
      <trkpt lat="43.79107" lon="7.36935">
        <ele>288.53</ele>
        <time>2014-07-26T11:50:26Z</time>
      </trkpt>
      <trkpt lat="43.79134" lon="7.36929">
        <ele>289.49</ele>
        <time>2014-07-26T11:50:37Z</time>
      </trkpt>
      <trkpt lat="43.79156" lon="7.36918">
        <ele>290.94</ele>
        <time>2014-07-26T11:50:47Z</time>
      </trkpt>
      <trkpt lat="43.79164" lon="7.36912">
        <ele>291.9</ele>
        <time>2014-07-26T11:50:53Z</time>
      </trkpt>
      <trkpt lat="43.79187" lon="7.369">
        <ele>292.86</ele>
        <time>2014-07-26T11:51:06Z</time>
      </trkpt>
      <trkpt lat="43.79216" lon="7.36903">
        <ele>301.03</ele>
        <time>2014-07-26T11:51:18Z</time>
      </trkpt>
      <trkpt lat="43.79221" lon="7.36902">
        <ele>301.99</ele>
        <time>2014-07-26T11:51:33Z</time>
      </trkpt>
      <trkpt lat="43.79219" lon="7.36898">
        <ele>300.55</ele>
        <time>2014-07-26T11:51:54Z</time>
      </trkpt>
      <trkpt lat="43.79218" lon="7.36898">
        <ele>300.07</ele>
        <time>2014-07-26T11:52:14Z</time>
      </trkpt>
      <trkpt lat="43.79219" lon="7.36896">
        <ele>301.51</ele>
        <time>2014-07-26T11:52:29Z</time>
      </trkpt>
      <trkpt lat="43.79219" lon="7.36895">
        <ele>302.47</ele>
        <time>2014-07-26T11:52:43Z</time>
      </trkpt>
      <trkpt lat="43.79218" lon="7.36895">
        <ele>302.47</ele>
        <time>2014-07-26T11:52:55Z</time>
      </trkpt>
      <trkpt lat="43.79218" lon="7.36896">
        <ele>301.51</ele>
        <time>2014-07-26T11:53:08Z</time>
      </trkpt>
      <trkpt lat="43.79239" lon="7.36906">
        <ele>301.51</ele>
        <time>2014-07-26T11:53:17Z</time>
      </trkpt>
      <trkpt lat="43.79279" lon="7.36929">
        <ele>304.39</ele>
        <time>2014-07-26T11:53:30Z</time>
      </trkpt>
      <trkpt lat="43.79318" lon="7.36941">
        <ele>305.84</ele>
        <time>2014-07-26T11:53:41Z</time>
      </trkpt>
      <trkpt lat="43.79338" lon="7.36951">
        <ele>307.28</ele>
        <time>2014-07-26T11:53:49Z</time>
      </trkpt>
      <trkpt lat="43.79368" lon="7.36967">
        <ele>303.91</ele>
        <time>2014-07-26T11:54:00Z</time>
      </trkpt>
      <trkpt lat="43.79406" lon="7.36998">
        <ele>304.88</ele>
        <time>2014-07-26T11:54:12Z</time>
      </trkpt>
      <trkpt lat="43.79416" lon="7.36988">
        <ele>304.88</ele>
        <time>2014-07-26T11:54:19Z</time>
      </trkpt>
      <trkpt lat="43.79411" lon="7.36979">
        <ele>303.91</ele>
        <time>2014-07-26T11:54:22Z</time>
      </trkpt>
      <trkpt lat="43.79425" lon="7.36927">
        <ele>302.47</ele>
        <time>2014-07-26T11:54:33Z</time>
      </trkpt>
      <trkpt lat="43.79429" lon="7.3688">
        <ele>301.03</ele>
        <time>2014-07-26T11:54:44Z</time>
      </trkpt>
      <trkpt lat="43.7941" lon="7.36862">
        <ele>300.55</ele>
        <time>2014-07-26T11:54:50Z</time>
      </trkpt>
      <trkpt lat="43.79386" lon="7.36851">
        <ele>299.59</ele>
        <time>2014-07-26T11:54:56Z</time>
      </trkpt>
      <trkpt lat="43.79365" lon="7.36844">
        <ele>300.07</ele>
        <time>2014-07-26T11:55:01Z</time>
      </trkpt>
      <trkpt lat="43.79342" lon="7.36831">
        <ele>300.07</ele>
        <time>2014-07-26T11:55:07Z</time>
      </trkpt>
      <trkpt lat="43.79323" lon="7.3681">
        <ele>299.11</ele>
        <time>2014-07-26T11:55:13Z</time>
      </trkpt>
      <trkpt lat="43.79289" lon="7.36769">
        <ele>297.67</ele>
        <time>2014-07-26T11:55:25Z</time>
      </trkpt>
      <trkpt lat="43.79256" lon="7.36737">
        <ele>298.15</ele>
        <time>2014-07-26T11:55:37Z</time>
      </trkpt>
      <trkpt lat="43.79233" lon="7.36713">
        <ele>299.11</ele>
        <time>2014-07-26T11:55:44Z</time>
      </trkpt>
      <trkpt lat="43.79215" lon="7.36711">
        <ele>298.63</ele>
        <time>2014-07-26T11:55:52Z</time>
      </trkpt>
      <trkpt lat="43.79216" lon="7.36711">
        <ele>298.63</ele>
        <time>2014-07-26T11:56:06Z</time>
      </trkpt>
      <trkpt lat="43.79215" lon="7.36712">
        <ele>298.63</ele>
        <time>2014-07-26T11:56:22Z</time>
      </trkpt>
      <trkpt lat="43.79215" lon="7.36714">
        <ele>298.15</ele>
        <time>2014-07-26T11:56:34Z</time>
      </trkpt>
      <trkpt lat="43.79215" lon="7.36713">
        <ele>297.67</ele>
        <time>2014-07-26T11:56:41Z</time>
      </trkpt>
      <trkpt lat="43.7921" lon="7.36706">
        <ele>296.7</ele>
        <time>2014-07-26T11:56:47Z</time>
      </trkpt>
      <trkpt lat="43.79192" lon="7.3669">
        <ele>295.26</ele>
        <time>2014-07-26T11:56:57Z</time>
      </trkpt>
      <trkpt lat="43.79189" lon="7.36686">
        <ele>295.26</ele>
        <time>2014-07-26T11:56:58Z</time>
      </trkpt>
      <trkpt lat="43.79187" lon="7.36682">
        <ele>295.26</ele>
        <time>2014-07-26T11:56:59Z</time>
      </trkpt>
      <trkpt lat="43.79184" lon="7.36677">
        <ele>294.78</ele>
        <time>2014-07-26T11:57:00Z</time>
      </trkpt>
      <trkpt lat="43.79183" lon="7.36675">
        <ele>294.78</ele>
        <time>2014-07-26T11:57:01Z</time>
      </trkpt>
      <trkpt lat="43.79181" lon="7.36673">
        <ele>294.78</ele>
        <time>2014-07-26T11:57:02Z</time>
      </trkpt>
      <trkpt lat="43.7918" lon="7.36673">
        <ele>294.78</ele>
        <time>2014-07-26T11:57:03Z</time>
      </trkpt>
      <trkpt lat="43.79178" lon="7.36673">
        <ele>294.3</ele>
        <time>2014-07-26T11:57:04Z</time>
      </trkpt>
      <trkpt lat="43.79156" lon="7.36685">
        <ele>291.9</ele>
        <time>2014-07-26T11:57:18Z</time>
      </trkpt>
      <trkpt lat="43.79151" lon="7.36682">
        <ele>291.9</ele>
        <time>2014-07-26T11:57:20Z</time>
      </trkpt>
      <trkpt lat="43.79148" lon="7.3668">
        <ele>291.42</ele>
        <time>2014-07-26T11:57:21Z</time>
      </trkpt>
      <trkpt lat="43.79144" lon="7.36678">
        <ele>291.42</ele>
        <time>2014-07-26T11:57:22Z</time>
      </trkpt>
      <trkpt lat="43.79126" lon="7.36674">
        <ele>290.46</ele>
        <time>2014-07-26T11:57:33Z</time>
      </trkpt>
      <trkpt lat="43.79107" lon="7.36685">
        <ele>291.42</ele>
        <time>2014-07-26T11:57:49Z</time>
      </trkpt>
      <trkpt lat="43.79095" lon="7.36685">
        <ele>292.86</ele>
        <time>2014-07-26T11:57:56Z</time>
      </trkpt>
      <trkpt lat="43.79093" lon="7.36683">
        <ele>292.86</ele>
        <time>2014-07-26T11:57:57Z</time>
      </trkpt>
      <trkpt lat="43.7909" lon="7.36682">
        <ele>292.86</ele>
        <time>2014-07-26T11:57:58Z</time>
      </trkpt>
      <trkpt lat="43.79088" lon="7.3668">
        <ele>292.38</ele>
        <time>2014-07-26T11:57:59Z</time>
      </trkpt>
      <trkpt lat="43.79086" lon="7.36678">
        <ele>292.38</ele>
        <time>2014-07-26T11:58:00Z</time>
      </trkpt>
      <trkpt lat="43.79077" lon="7.36669">
        <ele>290.94</ele>
        <time>2014-07-26T11:58:08Z</time>
      </trkpt>
      <trkpt lat="43.79076" lon="7.36668">
        <ele>290.94</ele>
        <time>2014-07-26T11:58:09Z</time>
      </trkpt>
      <trkpt lat="43.79074" lon="7.36666">
        <ele>290.46</ele>
        <time>2014-07-26T11:58:10Z</time>
      </trkpt>
      <trkpt lat="43.79057" lon="7.36663">
        <ele>288.05</ele>
        <time>2014-07-26T11:58:20Z</time>
      </trkpt>
      <trkpt lat="43.79048" lon="7.36654">
        <ele>290.94</ele>
        <time>2014-07-26T11:58:30Z</time>
      </trkpt>
      <trkpt lat="43.79042" lon="7.3665">
        <ele>292.38</ele>
        <time>2014-07-26T11:58:37Z</time>
      </trkpt>
      <trkpt lat="43.79041" lon="7.36647">
        <ele>292.86</ele>
        <time>2014-07-26T11:58:38Z</time>
      </trkpt>
      <trkpt lat="43.7904" lon="7.36646">
        <ele>292.86</ele>
        <time>2014-07-26T11:58:39Z</time>
      </trkpt>
      <trkpt lat="43.79038" lon="7.36646">
        <ele>292.86</ele>
        <time>2014-07-26T11:58:40Z</time>
      </trkpt>
      <trkpt lat="43.79036" lon="7.36645">
        <ele>292.86</ele>
        <time>2014-07-26T11:58:41Z</time>
      </trkpt>
      <trkpt lat="43.79034" lon="7.36643">
        <ele>292.86</ele>
        <time>2014-07-26T11:58:42Z</time>
      </trkpt>
      <trkpt lat="43.79032" lon="7.36641">
        <ele>292.86</ele>
        <time>2014-07-26T11:58:43Z</time>
      </trkpt>
      <trkpt lat="43.7903" lon="7.36639">
        <ele>292.86</ele>
        <time>2014-07-26T11:58:44Z</time>
      </trkpt>
      <trkpt lat="43.79028" lon="7.36635">
        <ele>293.34</ele>
        <time>2014-07-26T11:58:45Z</time>
      </trkpt>
      <trkpt lat="43.79026" lon="7.36632">
        <ele>293.34</ele>
        <time>2014-07-26T11:58:46Z</time>
      </trkpt>
      <trkpt lat="43.79021" lon="7.3662">
        <ele>293.82</ele>
        <time>2014-07-26T11:58:51Z</time>
      </trkpt>
      <trkpt lat="43.79019" lon="7.36605">
        <ele>296.22</ele>
        <time>2014-07-26T11:59:01Z</time>
      </trkpt>
      <trkpt lat="43.7903" lon="7.36585">
        <ele>297.67</ele>
        <time>2014-07-26T11:59:06Z</time>
      </trkpt>
      <trkpt lat="43.79035" lon="7.36574">
        <ele>297.67</ele>
        <time>2014-07-26T11:59:08Z</time>
      </trkpt>
      <trkpt lat="43.79044" lon="7.36541">
        <ele>298.15</ele>
        <time>2014-07-26T11:59:17Z</time>
      </trkpt>
      <trkpt lat="43.79055" lon="7.36509">
        <ele>300.07</ele>
        <time>2014-07-26T11:59:28Z</time>
      </trkpt>
      <trkpt lat="43.79061" lon="7.36482">
        <ele>300.55</ele>
        <time>2014-07-26T11:59:35Z</time>
      </trkpt>
      <trkpt lat="43.79062" lon="7.36454">
        <ele>299.11</ele>
        <time>2014-07-26T11:59:42Z</time>
      </trkpt>
      <trkpt lat="43.79063" lon="7.36456">
        <ele>298.63</ele>
        <time>2014-07-26T11:59:44Z</time>
      </trkpt>
      <trkpt lat="43.79061" lon="7.36463">
        <ele>296.7</ele>
        <time>2014-07-26T11:59:51Z</time>
      </trkpt>
      <trkpt lat="43.79056" lon="7.36464">
        <ele>294.78</ele>
        <time>2014-07-26T11:59:56Z</time>
      </trkpt>
      <trkpt lat="43.79054" lon="7.36472">
        <ele>294.78</ele>
        <time>2014-07-26T12:00:08Z</time>
      </trkpt>
      <trkpt lat="43.79056" lon="7.36474">
        <ele>296.7</ele>
        <time>2014-07-26T12:00:18Z</time>
      </trkpt>
      <trkpt lat="43.79057" lon="7.36474">
        <ele>297.67</ele>
        <time>2014-07-26T12:00:43Z</time>
      </trkpt>
      <trkpt lat="43.79057" lon="7.36474">
        <ele>297.18</ele>
        <time>2014-07-26T12:01:07Z</time>
      </trkpt>
      <trkpt lat="43.79057" lon="7.36474">
        <ele>296.7</ele>
        <time>2014-07-26T12:01:28Z</time>
      </trkpt>
      <trkpt lat="43.79056" lon="7.36474">
        <ele>296.7</ele>
        <time>2014-07-26T12:01:55Z</time>
      </trkpt>
      <trkpt lat="43.79057" lon="7.36475">
        <ele>296.22</ele>
        <time>2014-07-26T12:02:20Z</time>
      </trkpt>
      <trkpt lat="43.79057" lon="7.36475">
        <ele>295.26</ele>
        <time>2014-07-26T12:02:44Z</time>
      </trkpt>
      <trkpt lat="43.79057" lon="7.36475">
        <ele>295.26</ele>
        <time>2014-07-26T12:03:06Z</time>
      </trkpt>
      <trkpt lat="43.79054" lon="7.36477">
        <ele>293.82</ele>
        <time>2014-07-26T12:03:14Z</time>
      </trkpt>
      <trkpt lat="43.79054" lon="7.36478">
        <ele>293.82</ele>
        <time>2014-07-26T12:03:25Z</time>
      </trkpt>
      <trkpt lat="43.79055" lon="7.36477">
        <ele>291.42</ele>
        <time>2014-07-26T12:03:40Z</time>
      </trkpt>
      <trkpt lat="43.79055" lon="7.36476">
        <ele>291.42</ele>
        <time>2014-07-26T12:03:47Z</time>
      </trkpt>
      <trkpt lat="43.79057" lon="7.36462">
        <ele>290.46</ele>
        <time>2014-07-26T12:03:51Z</time>
      </trkpt>
      <trkpt lat="43.79057" lon="7.36427">
        <ele>288.53</ele>
        <time>2014-07-26T12:03:58Z</time>
      </trkpt>
      <trkpt lat="43.79049" lon="7.36411">
        <ele>287.57</ele>
        <time>2014-07-26T12:04:02Z</time>
      </trkpt>
      <trkpt lat="43.7905" lon="7.36391">
        <ele>285.17</ele>
        <time>2014-07-26T12:04:06Z</time>
      </trkpt>
      <trkpt lat="43.79055" lon="7.36371">
        <ele>281.8</ele>
        <time>2014-07-26T12:04:10Z</time>
      </trkpt>
      <trkpt lat="43.79074" lon="7.36338">
        <ele>275.56</ele>
        <time>2014-07-26T12:04:17Z</time>
      </trkpt>
      <trkpt lat="43.79068" lon="7.36306">
        <ele>273.15</ele>
        <time>2014-07-26T12:04:21Z</time>
      </trkpt>
      <trkpt lat="43.79065" lon="7.36286">
        <ele>270.75</ele>
        <time>2014-07-26T12:04:28Z</time>
      </trkpt>
      <trkpt lat="43.79064" lon="7.36292">
        <ele>271.23</ele>
        <time>2014-07-26T12:04:40Z</time>
      </trkpt>
      <trkpt lat="43.79064" lon="7.36292">
        <ele>270.75</ele>
        <time>2014-07-26T12:04:48Z</time>
      </trkpt>
      <trkpt lat="43.79062" lon="7.36294">
        <ele>270.75</ele>
        <time>2014-07-26T12:05:04Z</time>
      </trkpt>
      <trkpt lat="43.79061" lon="7.36293">
        <ele>271.71</ele>
        <time>2014-07-26T12:05:37Z</time>
      </trkpt>
      <trkpt lat="43.79063" lon="7.36294">
        <ele>272.19</ele>
        <time>2014-07-26T12:06:09Z</time>
      </trkpt>
      <trkpt lat="43.79063" lon="7.36295">
        <ele>272.67</ele>
        <time>2014-07-26T12:06:37Z</time>
      </trkpt>
      <trkpt lat="43.79065" lon="7.36294">
        <ele>273.15</ele>
        <time>2014-07-26T12:07:07Z</time>
      </trkpt>
      <trkpt lat="43.79065" lon="7.36294">
        <ele>272.67</ele>
        <time>2014-07-26T12:07:33Z</time>
      </trkpt>
      <trkpt lat="43.79065" lon="7.36294">
        <ele>273.15</ele>
        <time>2014-07-26T12:08:01Z</time>
      </trkpt>
      <trkpt lat="43.79065" lon="7.36294">
        <ele>273.15</ele>
        <time>2014-07-26T12:08:24Z</time>
      </trkpt>
      <trkpt lat="43.79065" lon="7.36295">
        <ele>273.63</ele>
        <time>2014-07-26T12:08:34Z</time>
      </trkpt>
      <trkpt lat="43.79066" lon="7.36293">
        <ele>273.63</ele>
        <time>2014-07-26T12:08:50Z</time>
      </trkpt>
      <trkpt lat="43.79065" lon="7.36294">
        <ele>275.07</ele>
        <time>2014-07-26T12:09:02Z</time>
      </trkpt>
      <trkpt lat="43.79068" lon="7.36284">
        <ele>275.56</ele>
        <time>2014-07-26T12:09:07Z</time>
      </trkpt>
      <trkpt lat="43.79068" lon="7.36264">
        <ele>273.63</ele>
        <time>2014-07-26T12:09:12Z</time>
      </trkpt>
      <trkpt lat="43.79086" lon="7.36228">
        <ele>267.38</ele>
        <time>2014-07-26T12:09:20Z</time>
      </trkpt>
      <trkpt lat="43.79089" lon="7.36193">
        <ele>263.54</ele>
        <time>2014-07-26T12:09:26Z</time>
      </trkpt>
      <trkpt lat="43.79092" lon="7.36172">
        <ele>261.62</ele>
        <time>2014-07-26T12:09:30Z</time>
      </trkpt>
      <trkpt lat="43.79098" lon="7.36146">
        <ele>259.69</ele>
        <time>2014-07-26T12:09:34Z</time>
      </trkpt>
      <trkpt lat="43.79097" lon="7.36121">
        <ele>258.25</ele>
        <time>2014-07-26T12:09:38Z</time>
      </trkpt>
      <trkpt lat="43.79097" lon="7.36103">
        <ele>256.33</ele>
        <time>2014-07-26T12:09:41Z</time>
      </trkpt>
      <trkpt lat="43.7911" lon="7.36071">
        <ele>251.52</ele>
        <time>2014-07-26T12:09:47Z</time>
      </trkpt>
      <trkpt lat="43.79114" lon="7.36056">
        <ele>249.6</ele>
        <time>2014-07-26T12:09:49Z</time>
      </trkpt>
      <trkpt lat="43.79133" lon="7.3601">
        <ele>242.87</ele>
        <time>2014-07-26T12:09:56Z</time>
      </trkpt>
      <trkpt lat="43.79157" lon="7.35982">
        <ele>235.66</ele>
        <time>2014-07-26T12:10:03Z</time>
      </trkpt>
      <trkpt lat="43.79161" lon="7.35977">
        <ele>234.7</ele>
        <time>2014-07-26T12:10:04Z</time>
      </trkpt>
      <trkpt lat="43.7918" lon="7.35936">
        <ele>229.41</ele>
        <time>2014-07-26T12:10:10Z</time>
      </trkpt>
      <trkpt lat="43.79187" lon="7.35925">
        <ele>227.49</ele>
        <time>2014-07-26T12:10:12Z</time>
      </trkpt>
      <trkpt lat="43.79215" lon="7.35878">
        <ele>218.84</ele>
        <time>2014-07-26T12:10:21Z</time>
      </trkpt>
      <trkpt lat="43.79219" lon="7.3586">
        <ele>216.43</ele>
        <time>2014-07-26T12:10:25Z</time>
      </trkpt>
      <trkpt lat="43.79229" lon="7.35842">
        <ele>211.15</ele>
        <time>2014-07-26T12:10:35Z</time>
      </trkpt>
      <trkpt lat="43.79229" lon="7.35841">
        <ele>210.19</ele>
        <time>2014-07-26T12:10:41Z</time>
      </trkpt>
      <trkpt lat="43.79225" lon="7.35848">
        <ele>211.63</ele>
        <time>2014-07-26T12:10:46Z</time>
      </trkpt>
      <trkpt lat="43.79216" lon="7.35862">
        <ele>216.91</ele>
        <time>2014-07-26T12:10:57Z</time>
      </trkpt>
      <trkpt lat="43.79216" lon="7.35865">
        <ele>219.32</ele>
        <time>2014-07-26T12:11:02Z</time>
      </trkpt>
      <trkpt lat="43.79216" lon="7.3587">
        <ele>220.28</ele>
        <time>2014-07-26T12:11:05Z</time>
      </trkpt>
      <trkpt lat="43.7921" lon="7.35887">
        <ele>221.72</ele>
        <time>2014-07-26T12:11:16Z</time>
      </trkpt>
      <trkpt lat="43.79209" lon="7.35889">
        <ele>221.72</ele>
        <time>2014-07-26T12:11:18Z</time>
      </trkpt>
      <trkpt lat="43.79197" lon="7.35908">
        <ele>222.68</ele>
        <time>2014-07-26T12:11:31Z</time>
      </trkpt>
      <trkpt lat="43.79192" lon="7.35915">
        <ele>225.57</ele>
        <time>2014-07-26T12:11:40Z</time>
      </trkpt>
      <trkpt lat="43.79185" lon="7.35932">
        <ele>226.05</ele>
        <time>2014-07-26T12:11:53Z</time>
      </trkpt>
      <trkpt lat="43.79179" lon="7.35941">
        <ele>227.97</ele>
        <time>2014-07-26T12:12:04Z</time>
      </trkpt>
      <trkpt lat="43.79173" lon="7.35952">
        <ele>228.93</ele>
        <time>2014-07-26T12:12:14Z</time>
      </trkpt>
      <trkpt lat="43.79164" lon="7.35965">
        <ele>233.74</ele>
        <time>2014-07-26T12:12:26Z</time>
      </trkpt>
      <trkpt lat="43.7916" lon="7.35974">
        <ele>235.66</ele>
        <time>2014-07-26T12:12:33Z</time>
      </trkpt>
      <trkpt lat="43.79159" lon="7.35978">
        <ele>236.62</ele>
        <time>2014-07-26T12:12:36Z</time>
      </trkpt>
      <trkpt lat="43.79155" lon="7.35992">
        <ele>238.06</ele>
        <time>2014-07-26T12:12:46Z</time>
      </trkpt>
      <trkpt lat="43.79171" lon="7.35989">
        <ele>236.62</ele>
        <time>2014-07-26T12:12:53Z</time>
      </trkpt>
      <trkpt lat="43.79204" lon="7.35995">
        <ele>235.66</ele>
        <time>2014-07-26T12:12:59Z</time>
      </trkpt>
      <trkpt lat="43.79231" lon="7.36002">
        <ele>234.22</ele>
        <time>2014-07-26T12:13:08Z</time>
      </trkpt>
      <trkpt lat="43.79248" lon="7.36017">
        <ele>233.26</ele>
        <time>2014-07-26T12:13:12Z</time>
      </trkpt>
      <trkpt lat="43.79255" lon="7.36027">
        <ele>232.78</ele>
        <time>2014-07-26T12:13:14Z</time>
      </trkpt>
      <trkpt lat="43.79296" lon="7.36046">
        <ele>229.41</ele>
        <time>2014-07-26T12:13:23Z</time>
      </trkpt>
      <trkpt lat="43.79303" lon="7.36067">
        <ele>228.45</ele>
        <time>2014-07-26T12:13:28Z</time>
      </trkpt>
      <trkpt lat="43.79308" lon="7.36096">
        <ele>225.09</ele>
        <time>2014-07-26T12:13:37Z</time>
      </trkpt>
      <trkpt lat="43.79319" lon="7.36095">
        <ele>221.72</ele>
        <time>2014-07-26T12:13:47Z</time>
      </trkpt>
      <trkpt lat="43.79322" lon="7.36093">
        <ele>221.24</ele>
        <time>2014-07-26T12:13:49Z</time>
      </trkpt>
      <trkpt lat="43.7933" lon="7.36095">
        <ele>219.32</ele>
        <time>2014-07-26T12:13:56Z</time>
      </trkpt>
      <trkpt lat="43.79343" lon="7.361">
        <ele>219.8</ele>
        <time>2014-07-26T12:14:06Z</time>
      </trkpt>
      <trkpt lat="43.7935" lon="7.36102">
        <ele>220.28</ele>
        <time>2014-07-26T12:14:14Z</time>
      </trkpt>
      <trkpt lat="43.79365" lon="7.3611">
        <ele>225.09</ele>
        <time>2014-07-26T12:14:26Z</time>
      </trkpt>
      <trkpt lat="43.79372" lon="7.36107">
        <ele>225.09</ele>
        <time>2014-07-26T12:14:32Z</time>
      </trkpt>
      <trkpt lat="43.79381" lon="7.36097">
        <ele>225.57</ele>
        <time>2014-07-26T12:14:39Z</time>
      </trkpt>
      <trkpt lat="43.79388" lon="7.36095">
        <ele>225.57</ele>
        <time>2014-07-26T12:14:44Z</time>
      </trkpt>
      <trkpt lat="43.79402" lon="7.36084">
        <ele>225.57</ele>
        <time>2014-07-26T12:14:53Z</time>
      </trkpt>
      <trkpt lat="43.79403" lon="7.36083">
        <ele>225.57</ele>
        <time>2014-07-26T12:14:54Z</time>
      </trkpt>
      <trkpt lat="43.79407" lon="7.36065">
        <ele>222.68</ele>
        <time>2014-07-26T12:15:00Z</time>
      </trkpt>
      <trkpt lat="43.79417" lon="7.36027">
        <ele>220.28</ele>
        <time>2014-07-26T12:15:06Z</time>
      </trkpt>
      <trkpt lat="43.79423" lon="7.36009">
        <ele>218.84</ele>
        <time>2014-07-26T12:15:14Z</time>
      </trkpt>
      <trkpt lat="43.79427" lon="7.35984">
        <ele>217.4</ele>
        <time>2014-07-26T12:15:20Z</time>
      </trkpt>
      <trkpt lat="43.79427" lon="7.35972">
        <ele>215.95</ele>
        <time>2014-07-26T12:15:24Z</time>
      </trkpt>
      <trkpt lat="43.79451" lon="7.35983">
        <ele>211.15</ele>
        <time>2014-07-26T12:15:33Z</time>
      </trkpt>
      <trkpt lat="43.79459" lon="7.3601">
        <ele>206.82</ele>
        <time>2014-07-26T12:15:43Z</time>
      </trkpt>
      <trkpt lat="43.79459" lon="7.36012">
        <ele>206.34</ele>
        <time>2014-07-26T12:15:53Z</time>
      </trkpt>
      <trkpt lat="43.79461" lon="7.36016">
        <ele>205.86</ele>
        <time>2014-07-26T12:15:55Z</time>
      </trkpt>
      <trkpt lat="43.79469" lon="7.36041">
        <ele>204.9</ele>
        <time>2014-07-26T12:16:03Z</time>
      </trkpt>
      <trkpt lat="43.79477" lon="7.3608">
        <ele>203.94</ele>
        <time>2014-07-26T12:16:14Z</time>
      </trkpt>
      <trkpt lat="43.79489" lon="7.36133">
        <ele>203.46</ele>
        <time>2014-07-26T12:16:26Z</time>
      </trkpt>
      <trkpt lat="43.79507" lon="7.36186">
        <ele>203.94</ele>
        <time>2014-07-26T12:16:36Z</time>
      </trkpt>
      <trkpt lat="43.79509" lon="7.36198">
        <ele>203.46</ele>
        <time>2014-07-26T12:16:38Z</time>
      </trkpt>
      <trkpt lat="43.79507" lon="7.36219">
        <ele>202.49</ele>
        <time>2014-07-26T12:16:42Z</time>
      </trkpt>
      <trkpt lat="43.79526" lon="7.36218">
        <ele>201.05</ele>
        <time>2014-07-26T12:16:52Z</time>
      </trkpt>
      <trkpt lat="43.79535" lon="7.36224">
        <ele>200.57</ele>
        <time>2014-07-26T12:16:56Z</time>
      </trkpt>
      <trkpt lat="43.79545" lon="7.36222">
        <ele>201.05</ele>
        <time>2014-07-26T12:16:59Z</time>
      </trkpt>
      <trkpt lat="43.79549" lon="7.36216">
        <ele>201.05</ele>
        <time>2014-07-26T12:17:03Z</time>
      </trkpt>
      <trkpt lat="43.79547" lon="7.362">
        <ele>200.57</ele>
        <time>2014-07-26T12:17:08Z</time>
      </trkpt>
      <trkpt lat="43.79537" lon="7.36169">
        <ele>202.01</ele>
        <time>2014-07-26T12:17:25Z</time>
      </trkpt>
      <trkpt lat="43.79534" lon="7.36168">
        <ele>202.98</ele>
        <time>2014-07-26T12:17:43Z</time>
      </trkpt>
      <trkpt lat="43.79534" lon="7.36168">
        <ele>203.46</ele>
        <time>2014-07-26T12:17:56Z</time>
      </trkpt>
      <trkpt lat="43.79526" lon="7.36143">
        <ele>202.98</ele>
        <time>2014-07-26T12:18:07Z</time>
      </trkpt>
      <trkpt lat="43.79523" lon="7.36135">
        <ele>202.98</ele>
        <time>2014-07-26T12:18:09Z</time>
      </trkpt>
      <trkpt lat="43.79523" lon="7.36086">
        <ele>202.49</ele>
        <time>2014-07-26T12:18:21Z</time>
      </trkpt>
      <trkpt lat="43.79524" lon="7.36074">
        <ele>202.01</ele>
        <time>2014-07-26T12:18:23Z</time>
      </trkpt>
      <trkpt lat="43.79509" lon="7.36049">
        <ele>202.49</ele>
        <time>2014-07-26T12:18:30Z</time>
      </trkpt>
      <trkpt lat="43.79505" lon="7.3603">
        <ele>202.01</ele>
        <time>2014-07-26T12:18:35Z</time>
      </trkpt>
      <trkpt lat="43.79494" lon="7.35976">
        <ele>199.61</ele>
        <time>2014-07-26T12:18:45Z</time>
      </trkpt>
      <trkpt lat="43.79495" lon="7.35953">
        <ele>199.13</ele>
        <time>2014-07-26T12:18:49Z</time>
      </trkpt>
      <trkpt lat="43.79485" lon="7.35893">
        <ele>197.21</ele>
        <time>2014-07-26T12:19:01Z</time>
      </trkpt>
      <trkpt lat="43.79467" lon="7.35851">
        <ele>196.73</ele>
        <time>2014-07-26T12:19:10Z</time>
      </trkpt>
      <trkpt lat="43.79448" lon="7.35804">
        <ele>200.09</ele>
        <time>2014-07-26T12:19:21Z</time>
      </trkpt>
      <trkpt lat="43.79439" lon="7.3576">
        <ele>201.53</ele>
        <time>2014-07-26T12:19:33Z</time>
      </trkpt>
      <trkpt lat="43.79434" lon="7.35729">
        <ele>201.53</ele>
        <time>2014-07-26T12:19:42Z</time>
      </trkpt>
      <trkpt lat="43.79434" lon="7.35724">
        <ele>202.49</ele>
        <time>2014-07-26T12:19:45Z</time>
      </trkpt>
      <trkpt lat="43.79441" lon="7.35725">
        <ele>202.01</ele>
        <time>2014-07-26T12:19:49Z</time>
      </trkpt>
      <trkpt lat="43.79448" lon="7.35725">
        <ele>201.53</ele>
        <time>2014-07-26T12:20:01Z</time>
      </trkpt>
      <trkpt lat="43.79448" lon="7.35724">
        <ele>201.05</ele>
        <time>2014-07-26T12:20:18Z</time>
      </trkpt>
      <trkpt lat="43.79446" lon="7.35724">
        <ele>200.09</ele>
        <time>2014-07-26T12:20:20Z</time>
      </trkpt>
      <trkpt lat="43.79431" lon="7.35722">
        <ele>200.57</ele>
        <time>2014-07-26T12:20:26Z</time>
      </trkpt>
      <trkpt lat="43.79404" lon="7.35705">
        <ele>204.9</ele>
        <time>2014-07-26T12:20:39Z</time>
      </trkpt>
      <trkpt lat="43.79399" lon="7.35703">
        <ele>204.9</ele>
        <time>2014-07-26T12:20:42Z</time>
      </trkpt>
      <trkpt lat="43.79393" lon="7.35686">
        <ele>205.86</ele>
        <time>2014-07-26T12:20:48Z</time>
      </trkpt>
      <trkpt lat="43.79392" lon="7.35679">
        <ele>206.34</ele>
        <time>2014-07-26T12:20:50Z</time>
      </trkpt>
      <trkpt lat="43.79374" lon="7.35655">
        <ele>209.7</ele>
        <time>2014-07-26T12:21:01Z</time>
      </trkpt>
      <trkpt lat="43.79374" lon="7.35657">
        <ele>210.19</ele>
        <time>2014-07-26T12:21:10Z</time>
      </trkpt>
      <trkpt lat="43.7938" lon="7.35662">
        <ele>208.26</ele>
        <time>2014-07-26T12:21:14Z</time>
      </trkpt>
      <trkpt lat="43.794" lon="7.35696">
        <ele>206.82</ele>
        <time>2014-07-26T12:21:25Z</time>
      </trkpt>
      <trkpt lat="43.79402" lon="7.35701">
        <ele>206.34</ele>
        <time>2014-07-26T12:21:26Z</time>
      </trkpt>
      <trkpt lat="43.79412" lon="7.35716">
        <ele>206.34</ele>
        <time>2014-07-26T12:21:30Z</time>
      </trkpt>
      <trkpt lat="43.7942" lon="7.35716">
        <ele>205.86</ele>
        <time>2014-07-26T12:21:35Z</time>
      </trkpt>
      <trkpt lat="43.79436" lon="7.35703">
        <ele>203.94</ele>
        <time>2014-07-26T12:21:44Z</time>
      </trkpt>
      <trkpt lat="43.79438" lon="7.35674">
        <ele>203.46</ele>
        <time>2014-07-26T12:21:52Z</time>
      </trkpt>
      <trkpt lat="43.79443" lon="7.35654">
        <ele>202.98</ele>
        <time>2014-07-26T12:21:57Z</time>
      </trkpt>
      <trkpt lat="43.79449" lon="7.35634">
        <ele>201.05</ele>
        <time>2014-07-26T12:22:10Z</time>
      </trkpt>
      <trkpt lat="43.79451" lon="7.35627">
        <ele>201.53</ele>
        <time>2014-07-26T12:22:21Z</time>
      </trkpt>
      <trkpt lat="43.7945" lon="7.35623">
        <ele>201.53</ele>
        <time>2014-07-26T12:22:23Z</time>
      </trkpt>
      <trkpt lat="43.79448" lon="7.35615">
        <ele>200.57</ele>
        <time>2014-07-26T12:22:25Z</time>
      </trkpt>
      <trkpt lat="43.79436" lon="7.35592">
        <ele>199.13</ele>
        <time>2014-07-26T12:22:31Z</time>
      </trkpt>
      <trkpt lat="43.79422" lon="7.35551">
        <ele>199.13</ele>
        <time>2014-07-26T12:22:42Z</time>
      </trkpt>
      <trkpt lat="43.79392" lon="7.3547">
        <ele>193.84</ele>
        <time>2014-07-26T12:22:53Z</time>
      </trkpt>
      <trkpt lat="43.79357" lon="7.35364">
        <ele>187.11</ele>
        <time>2014-07-26T12:23:06Z</time>
      </trkpt>
      <trkpt lat="43.79352" lon="7.35338">
        <ele>187.11</ele>
        <time>2014-07-26T12:23:09Z</time>
      </trkpt>
      <trkpt lat="43.79353" lon="7.35331">
        <ele>187.11</ele>
        <time>2014-07-26T12:23:10Z</time>
      </trkpt>
      <trkpt lat="43.79355" lon="7.35325">
        <ele>186.63</ele>
        <time>2014-07-26T12:23:11Z</time>
      </trkpt>
      <trkpt lat="43.79358" lon="7.35321">
        <ele>186.63</ele>
        <time>2014-07-26T12:23:12Z</time>
      </trkpt>
      <trkpt lat="43.79361" lon="7.35318">
        <ele>186.63</ele>
        <time>2014-07-26T12:23:13Z</time>
      </trkpt>
      <trkpt lat="43.79365" lon="7.35317">
        <ele>186.63</ele>
        <time>2014-07-26T12:23:14Z</time>
      </trkpt>
      <trkpt lat="43.79368" lon="7.35316">
        <ele>186.15</ele>
        <time>2014-07-26T12:23:15Z</time>
      </trkpt>
      <trkpt lat="43.79372" lon="7.35316">
        <ele>186.15</ele>
        <time>2014-07-26T12:23:16Z</time>
      </trkpt>
      <trkpt lat="43.79376" lon="7.35317">
        <ele>185.67</ele>
        <time>2014-07-26T12:23:17Z</time>
      </trkpt>
      <trkpt lat="43.79381" lon="7.3532">
        <ele>184.23</ele>
        <time>2014-07-26T12:23:18Z</time>
      </trkpt>
      <trkpt lat="43.79385" lon="7.35323">
        <ele>183.75</ele>
        <time>2014-07-26T12:23:19Z</time>
      </trkpt>
      <trkpt lat="43.79388" lon="7.35326">
        <ele>183.27</ele>
        <time>2014-07-26T12:23:20Z</time>
      </trkpt>
      <trkpt lat="43.79419" lon="7.35339">
        <ele>181.35</ele>
        <time>2014-07-26T12:23:29Z</time>
      </trkpt>
      <trkpt lat="43.79444" lon="7.35339">
        <ele>180.87</ele>
        <time>2014-07-26T12:23:37Z</time>
      </trkpt>
      <trkpt lat="43.79446" lon="7.35337">
        <ele>180.87</ele>
        <time>2014-07-26T12:23:38Z</time>
      </trkpt>
      <trkpt lat="43.79433" lon="7.35321">
        <ele>177.02</ele>
        <time>2014-07-26T12:23:47Z</time>
      </trkpt>
      <trkpt lat="43.79422" lon="7.35299">
        <ele>175.1</ele>
        <time>2014-07-26T12:23:57Z</time>
      </trkpt>
      <trkpt lat="43.79424" lon="7.35284">
        <ele>174.62</ele>
        <time>2014-07-26T12:24:03Z</time>
      </trkpt>
      <trkpt lat="43.79439" lon="7.35262">
        <ele>173.66</ele>
        <time>2014-07-26T12:24:13Z</time>
      </trkpt>
      <trkpt lat="43.79454" lon="7.35243">
        <ele>175.58</ele>
        <time>2014-07-26T12:24:25Z</time>
      </trkpt>
      <trkpt lat="43.79457" lon="7.35242">
        <ele>177.5</ele>
        <time>2014-07-26T12:24:28Z</time>
      </trkpt>
      <trkpt lat="43.79478" lon="7.35234">
        <ele>182.79</ele>
        <time>2014-07-26T12:24:40Z</time>
      </trkpt>
      <trkpt lat="43.79478" lon="7.35233">
        <ele>184.23</ele>
        <time>2014-07-26T12:24:55Z</time>
      </trkpt>
      <trkpt lat="43.79483" lon="7.35232">
        <ele>185.19</ele>
        <time>2014-07-26T12:25:23Z</time>
      </trkpt>
      <trkpt lat="43.7949" lon="7.3523">
        <ele>185.19</ele>
        <time>2014-07-26T12:25:26Z</time>
      </trkpt>
      <trkpt lat="43.79496" lon="7.35228">
        <ele>185.19</ele>
        <time>2014-07-26T12:25:30Z</time>
      </trkpt>
      <trkpt lat="43.79514" lon="7.35229">
        <ele>186.15</ele>
        <time>2014-07-26T12:25:43Z</time>
      </trkpt>
      <trkpt lat="43.7954" lon="7.3522">
        <ele>189.04</ele>
        <time>2014-07-26T12:25:55Z</time>
      </trkpt>
      <trkpt lat="43.79554" lon="7.35214">
        <ele>190</ele>
        <time>2014-07-26T12:26:03Z</time>
      </trkpt>
      <trkpt lat="43.79567" lon="7.35216">
        <ele>192.4</ele>
        <time>2014-07-26T12:26:13Z</time>
      </trkpt>
      <trkpt lat="43.79584" lon="7.3521">
        <ele>196.25</ele>
        <time>2014-07-26T12:26:26Z</time>
      </trkpt>
      <trkpt lat="43.79586" lon="7.35209">
        <ele>196.73</ele>
        <time>2014-07-26T12:26:27Z</time>
      </trkpt>
      <trkpt lat="43.79593" lon="7.35204">
        <ele>199.61</ele>
        <time>2014-07-26T12:26:33Z</time>
      </trkpt>
      <trkpt lat="43.79598" lon="7.35203">
        <ele>200.09</ele>
        <time>2014-07-26T12:26:37Z</time>
      </trkpt>
      <trkpt lat="43.79604" lon="7.35207">
        <ele>203.46</ele>
        <time>2014-07-26T12:26:42Z</time>
      </trkpt>
      <trkpt lat="43.79605" lon="7.35212">
        <ele>203.94</ele>
        <time>2014-07-26T12:26:45Z</time>
      </trkpt>
      <trkpt lat="43.79607" lon="7.35219">
        <ele>205.86</ele>
        <time>2014-07-26T12:26:49Z</time>
      </trkpt>
      <trkpt lat="43.79616" lon="7.35236">
        <ele>209.7</ele>
        <time>2014-07-26T12:27:01Z</time>
      </trkpt>
      <trkpt lat="43.79619" lon="7.35235">
        <ele>210.19</ele>
        <time>2014-07-26T12:27:03Z</time>
      </trkpt>
      <trkpt lat="43.79629" lon="7.35228">
        <ele>212.59</ele>
        <time>2014-07-26T12:27:15Z</time>
      </trkpt>
      <trkpt lat="43.79623" lon="7.35236">
        <ele>214.99</ele>
        <time>2014-07-26T12:27:28Z</time>
      </trkpt>
      <trkpt lat="43.79633" lon="7.3522">
        <ele>214.51</ele>
        <time>2014-07-26T12:27:41Z</time>
      </trkpt>
      <trkpt lat="43.7964" lon="7.35199">
        <ele>214.99</ele>
        <time>2014-07-26T12:27:54Z</time>
      </trkpt>
      <trkpt lat="43.79645" lon="7.3518">
        <ele>217.88</ele>
        <time>2014-07-26T12:28:06Z</time>
      </trkpt>
      <trkpt lat="43.79649" lon="7.3517">
        <ele>218.84</ele>
        <time>2014-07-26T12:28:17Z</time>
      </trkpt>
      <trkpt lat="43.79651" lon="7.35162">
        <ele>220.76</ele>
        <time>2014-07-26T12:28:34Z</time>
      </trkpt>
      <trkpt lat="43.79653" lon="7.35157">
        <ele>220.76</ele>
        <time>2014-07-26T12:28:37Z</time>
      </trkpt>
      <trkpt lat="43.79666" lon="7.3514">
        <ele>221.24</ele>
        <time>2014-07-26T12:28:50Z</time>
      </trkpt>
      <trkpt lat="43.79673" lon="7.35136">
        <ele>221.72</ele>
        <time>2014-07-26T12:28:58Z</time>
      </trkpt>
      <trkpt lat="43.79694" lon="7.35135">
        <ele>222.68</ele>
        <time>2014-07-26T12:29:10Z</time>
      </trkpt>
      <trkpt lat="43.79708" lon="7.3513">
        <ele>223.16</ele>
        <time>2014-07-26T12:29:23Z</time>
      </trkpt>
      <trkpt lat="43.7972" lon="7.35123">
        <ele>225.09</ele>
        <time>2014-07-26T12:29:34Z</time>
      </trkpt>
      <trkpt lat="43.79722" lon="7.35121">
        <ele>226.05</ele>
        <time>2014-07-26T12:29:36Z</time>
      </trkpt>
      <trkpt lat="43.79745" lon="7.35125">
        <ele>233.26</ele>
        <time>2014-07-26T12:29:52Z</time>
      </trkpt>
      <trkpt lat="43.7975" lon="7.35127">
        <ele>233.74</ele>
        <time>2014-07-26T12:29:55Z</time>
      </trkpt>
      <trkpt lat="43.79753" lon="7.35131">
        <ele>235.18</ele>
        <time>2014-07-26T12:29:59Z</time>
      </trkpt>
      <trkpt lat="43.79763" lon="7.35134">
        <ele>235.18</ele>
        <time>2014-07-26T12:30:07Z</time>
      </trkpt>
      <trkpt lat="43.79775" lon="7.35115">
        <ele>236.14</ele>
        <time>2014-07-26T12:30:20Z</time>
      </trkpt>
      <trkpt lat="43.79784" lon="7.35094">
        <ele>239.02</ele>
        <time>2014-07-26T12:30:34Z</time>
      </trkpt>
      <trkpt lat="43.79789" lon="7.35084">
        <ele>240.95</ele>
        <time>2014-07-26T12:30:41Z</time>
      </trkpt>
      <trkpt lat="43.79801" lon="7.35065">
        <ele>245.27</ele>
        <time>2014-07-26T12:30:55Z</time>
      </trkpt>
      <trkpt lat="43.79807" lon="7.35059">
        <ele>246.72</ele>
        <time>2014-07-26T12:30:59Z</time>
      </trkpt>
      <trkpt lat="43.79815" lon="7.35052">
        <ele>248.64</ele>
        <time>2014-07-26T12:31:06Z</time>
      </trkpt>
      <trkpt lat="43.79833" lon="7.35045">
        <ele>251.04</ele>
        <time>2014-07-26T12:31:20Z</time>
      </trkpt>
      <trkpt lat="43.79846" lon="7.35041">
        <ele>252.48</ele>
        <time>2014-07-26T12:31:32Z</time>
      </trkpt>
      <trkpt lat="43.79852" lon="7.35038">
        <ele>252.96</ele>
        <time>2014-07-26T12:31:36Z</time>
      </trkpt>
      <trkpt lat="43.79856" lon="7.35036">
        <ele>253.44</ele>
        <time>2014-07-26T12:31:39Z</time>
      </trkpt>
      <trkpt lat="43.79874" lon="7.35026">
        <ele>256.33</ele>
        <time>2014-07-26T12:31:53Z</time>
      </trkpt>
      <trkpt lat="43.7989" lon="7.35021">
        <ele>261.62</ele>
        <time>2014-07-26T12:32:08Z</time>
      </trkpt>
      <trkpt lat="43.79895" lon="7.35018">
        <ele>263.06</ele>
        <time>2014-07-26T12:32:14Z</time>
      </trkpt>
      <trkpt lat="43.79903" lon="7.35013">
        <ele>265.46</ele>
        <time>2014-07-26T12:32:22Z</time>
      </trkpt>
      <trkpt lat="43.79919" lon="7.3499">
        <ele>268.35</ele>
        <time>2014-07-26T12:32:38Z</time>
      </trkpt>
      <trkpt lat="43.7993" lon="7.34972">
        <ele>270.27</ele>
        <time>2014-07-26T12:32:53Z</time>
      </trkpt>
      <trkpt lat="43.7994" lon="7.34947">
        <ele>272.67</ele>
        <time>2014-07-26T12:33:07Z</time>
      </trkpt>
      <trkpt lat="43.79948" lon="7.34921">
        <ele>274.11</ele>
        <time>2014-07-26T12:33:22Z</time>
      </trkpt>
      <trkpt lat="43.79953" lon="7.34912">
        <ele>274.59</ele>
        <time>2014-07-26T12:33:28Z</time>
      </trkpt>
      <trkpt lat="43.79964" lon="7.34905">
        <ele>276.52</ele>
        <time>2014-07-26T12:33:38Z</time>
      </trkpt>
      <trkpt lat="43.79968" lon="7.34903">
        <ele>277</ele>
        <time>2014-07-26T12:33:42Z</time>
      </trkpt>
      <trkpt lat="43.79971" lon="7.34895">
        <ele>278.44</ele>
        <time>2014-07-26T12:33:47Z</time>
      </trkpt>
      <trkpt lat="43.7997" lon="7.34889">
        <ele>279.4</ele>
        <time>2014-07-26T12:33:51Z</time>
      </trkpt>
      <trkpt lat="43.79965" lon="7.34886">
        <ele>280.84</ele>
        <time>2014-07-26T12:33:56Z</time>
      </trkpt>
      <trkpt lat="43.79957" lon="7.34879">
        <ele>280.84</ele>
        <time>2014-07-26T12:34:03Z</time>
      </trkpt>
      <trkpt lat="43.79946" lon="7.34872">
        <ele>280.36</ele>
        <time>2014-07-26T12:34:14Z</time>
      </trkpt>
      <trkpt lat="43.79941" lon="7.34869">
        <ele>280.84</ele>
        <time>2014-07-26T12:34:18Z</time>
      </trkpt>
      <trkpt lat="43.7993" lon="7.34856">
        <ele>283.73</ele>
        <time>2014-07-26T12:34:29Z</time>
      </trkpt>
      <trkpt lat="43.79927" lon="7.34848">
        <ele>283.73</ele>
        <time>2014-07-26T12:34:34Z</time>
      </trkpt>
      <trkpt lat="43.79927" lon="7.34844">
        <ele>283.73</ele>
        <time>2014-07-26T12:34:37Z</time>
      </trkpt>
      <trkpt lat="43.79935" lon="7.34824">
        <ele>286.61</ele>
        <time>2014-07-26T12:34:51Z</time>
      </trkpt>
      <trkpt lat="43.79937" lon="7.34824">
        <ele>286.61</ele>
        <time>2014-07-26T12:35:02Z</time>
      </trkpt>
      <trkpt lat="43.79937" lon="7.34825">
        <ele>286.61</ele>
        <time>2014-07-26T12:35:10Z</time>
      </trkpt>
      <trkpt lat="43.79943" lon="7.3483">
        <ele>289.01</ele>
        <time>2014-07-26T12:35:15Z</time>
      </trkpt>
      <trkpt lat="43.79945" lon="7.34834">
        <ele>289.97</ele>
        <time>2014-07-26T12:35:18Z</time>
      </trkpt>
      <trkpt lat="43.79961" lon="7.34837">
        <ele>293.82</ele>
        <time>2014-07-26T12:35:32Z</time>
      </trkpt>
      <trkpt lat="43.79965" lon="7.34838">
        <ele>294.3</ele>
        <time>2014-07-26T12:35:34Z</time>
      </trkpt>
      <trkpt lat="43.79973" lon="7.34847">
        <ele>295.74</ele>
        <time>2014-07-26T12:35:41Z</time>
      </trkpt>
      <trkpt lat="43.79975" lon="7.34849">
        <ele>295.74</ele>
        <time>2014-07-26T12:35:43Z</time>
      </trkpt>
      <trkpt lat="43.79987" lon="7.34857">
        <ele>297.67</ele>
        <time>2014-07-26T12:35:54Z</time>
      </trkpt>
      <trkpt lat="43.79994" lon="7.3486">
        <ele>297.67</ele>
        <time>2014-07-26T12:36:00Z</time>
      </trkpt>
      <trkpt lat="43.80001" lon="7.34861">
        <ele>297.67</ele>
        <time>2014-07-26T12:36:07Z</time>
      </trkpt>
      <trkpt lat="43.80008" lon="7.34857">
        <ele>299.11</ele>
        <time>2014-07-26T12:36:13Z</time>
      </trkpt>
      <trkpt lat="43.80021" lon="7.34852">
        <ele>302.47</ele>
        <time>2014-07-26T12:36:27Z</time>
      </trkpt>
      <trkpt lat="43.80021" lon="7.34851">
        <ele>302.47</ele>
        <time>2014-07-26T12:36:36Z</time>
      </trkpt>
      <trkpt lat="43.80025" lon="7.34846">
        <ele>303.43</ele>
        <time>2014-07-26T12:36:41Z</time>
      </trkpt>
      <trkpt lat="43.80035" lon="7.3484">
        <ele>302.95</ele>
        <time>2014-07-26T12:36:51Z</time>
      </trkpt>
      <trkpt lat="43.80044" lon="7.34838">
        <ele>303.43</ele>
        <time>2014-07-26T12:36:58Z</time>
      </trkpt>
      <trkpt lat="43.80046" lon="7.34838">
        <ele>303.91</ele>
        <time>2014-07-26T12:37:00Z</time>
      </trkpt>
      <trkpt lat="43.80053" lon="7.34838">
        <ele>304.88</ele>
        <time>2014-07-26T12:37:05Z</time>
      </trkpt>
      <trkpt lat="43.8006" lon="7.34841">
        <ele>305.84</ele>
        <time>2014-07-26T12:37:11Z</time>
      </trkpt>
      <trkpt lat="43.8007" lon="7.34849">
        <ele>305.84</ele>
        <time>2014-07-26T12:37:21Z</time>
      </trkpt>
      <trkpt lat="43.80086" lon="7.34854">
        <ele>308.24</ele>
        <time>2014-07-26T12:37:34Z</time>
      </trkpt>
      <trkpt lat="43.80092" lon="7.34855">
        <ele>308.72</ele>
        <time>2014-07-26T12:37:37Z</time>
      </trkpt>
      <trkpt lat="43.80097" lon="7.34858">
        <ele>309.68</ele>
        <time>2014-07-26T12:37:41Z</time>
      </trkpt>
      <trkpt lat="43.801" lon="7.34859">
        <ele>310.16</ele>
        <time>2014-07-26T12:37:43Z</time>
      </trkpt>
      <trkpt lat="43.80111" lon="7.34874">
        <ele>312.57</ele>
        <time>2014-07-26T12:37:54Z</time>
      </trkpt>
      <trkpt lat="43.80116" lon="7.34882">
        <ele>313.05</ele>
        <time>2014-07-26T12:38:00Z</time>
      </trkpt>
      <trkpt lat="43.8012" lon="7.34888">
        <ele>314.97</ele>
        <time>2014-07-26T12:38:05Z</time>
      </trkpt>
      <trkpt lat="43.80122" lon="7.34893">
        <ele>316.41</ele>
        <time>2014-07-26T12:38:09Z</time>
      </trkpt>
      <trkpt lat="43.80127" lon="7.34904">
        <ele>318.81</ele>
        <time>2014-07-26T12:38:17Z</time>
      </trkpt>
      <trkpt lat="43.80135" lon="7.34911">
        <ele>319.3</ele>
        <time>2014-07-26T12:38:25Z</time>
      </trkpt>
      <trkpt lat="43.80152" lon="7.34904">
        <ele>323.14</ele>
        <time>2014-07-26T12:38:39Z</time>
      </trkpt>
      <trkpt lat="43.80156" lon="7.34899">
        <ele>323.14</ele>
        <time>2014-07-26T12:38:52Z</time>
      </trkpt>
      <trkpt lat="43.80168" lon="7.34887">
        <ele>325.54</ele>
        <time>2014-07-26T12:39:05Z</time>
      </trkpt>
      <trkpt lat="43.80182" lon="7.3488">
        <ele>326.5</ele>
        <time>2014-07-26T12:39:17Z</time>
      </trkpt>
      <trkpt lat="43.80191" lon="7.34877">
        <ele>326.99</ele>
        <time>2014-07-26T12:39:25Z</time>
      </trkpt>
      <trkpt lat="43.80203" lon="7.34875">
        <ele>328.43</ele>
        <time>2014-07-26T12:39:35Z</time>
      </trkpt>
      <trkpt lat="43.80209" lon="7.34874">
        <ele>328.43</ele>
        <time>2014-07-26T12:39:39Z</time>
      </trkpt>
      <trkpt lat="43.80211" lon="7.34872">
        <ele>328.91</ele>
        <time>2014-07-26T12:39:41Z</time>
      </trkpt>
      <trkpt lat="43.80212" lon="7.34859">
        <ele>330.83</ele>
        <time>2014-07-26T12:39:55Z</time>
      </trkpt>
      <trkpt lat="43.8021" lon="7.34859">
        <ele>331.79</ele>
        <time>2014-07-26T12:40:07Z</time>
      </trkpt>
      <trkpt lat="43.80202" lon="7.34861">
        <ele>332.75</ele>
        <time>2014-07-26T12:40:11Z</time>
      </trkpt>
      <trkpt lat="43.80197" lon="7.34862">
        <ele>333.71</ele>
        <time>2014-07-26T12:40:14Z</time>
      </trkpt>
      <trkpt lat="43.80188" lon="7.34867">
        <ele>336.12</ele>
        <time>2014-07-26T12:40:19Z</time>
      </trkpt>
      <trkpt lat="43.80177" lon="7.34871">
        <ele>338.04</ele>
        <time>2014-07-26T12:40:27Z</time>
      </trkpt>
      <trkpt lat="43.80171" lon="7.34872">
        <ele>339</ele>
        <time>2014-07-26T12:40:31Z</time>
      </trkpt>
      <trkpt lat="43.80159" lon="7.34875">
        <ele>339.48</ele>
        <time>2014-07-26T12:40:40Z</time>
      </trkpt>
      <trkpt lat="43.80145" lon="7.34874">
        <ele>340.44</ele>
        <time>2014-07-26T12:40:49Z</time>
      </trkpt>
      <trkpt lat="43.8014" lon="7.34866">
        <ele>340.44</ele>
        <time>2014-07-26T12:40:55Z</time>
      </trkpt>
      <trkpt lat="43.80138" lon="7.34857">
        <ele>340.44</ele>
        <time>2014-07-26T12:40:59Z</time>
      </trkpt>
      <trkpt lat="43.80136" lon="7.34837">
        <ele>340.44</ele>
        <time>2014-07-26T12:41:10Z</time>
      </trkpt>
      <trkpt lat="43.8013" lon="7.34823">
        <ele>341.89</ele>
        <time>2014-07-26T12:41:17Z</time>
      </trkpt>
      <trkpt lat="43.80125" lon="7.34817">
        <ele>342.85</ele>
        <time>2014-07-26T12:41:22Z</time>
      </trkpt>
      <trkpt lat="43.80117" lon="7.34812">
        <ele>344.29</ele>
        <time>2014-07-26T12:41:29Z</time>
      </trkpt>
      <trkpt lat="43.80105" lon="7.34811">
        <ele>344.29</ele>
        <time>2014-07-26T12:41:37Z</time>
      </trkpt>
      <trkpt lat="43.80095" lon="7.34808">
        <ele>345.25</ele>
        <time>2014-07-26T12:41:44Z</time>
      </trkpt>
      <trkpt lat="43.80092" lon="7.34803">
        <ele>345.25</ele>
        <time>2014-07-26T12:41:47Z</time>
      </trkpt>
      <trkpt lat="43.80088" lon="7.34799">
        <ele>345.73</ele>
        <time>2014-07-26T12:41:50Z</time>
      </trkpt>
      <trkpt lat="43.8008" lon="7.34781">
        <ele>348.13</ele>
        <time>2014-07-26T12:42:02Z</time>
      </trkpt>
      <trkpt lat="43.80073" lon="7.3477">
        <ele>350.54</ele>
        <time>2014-07-26T12:42:10Z</time>
      </trkpt>
      <trkpt lat="43.80064" lon="7.34767">
        <ele>352.46</ele>
        <time>2014-07-26T12:42:16Z</time>
      </trkpt>
      <trkpt lat="43.80052" lon="7.34763">
        <ele>353.9</ele>
        <time>2014-07-26T12:42:26Z</time>
      </trkpt>
      <trkpt lat="43.80047" lon="7.34757">
        <ele>355.34</ele>
        <time>2014-07-26T12:42:39Z</time>
      </trkpt>
      <trkpt lat="43.80047" lon="7.34755">
        <ele>356.79</ele>
        <time>2014-07-26T12:42:47Z</time>
      </trkpt>
      <trkpt lat="43.80045" lon="7.34731">
        <ele>355.34</ele>
        <time>2014-07-26T12:42:59Z</time>
      </trkpt>
      <trkpt lat="43.80045" lon="7.34728">
        <ele>355.34</ele>
        <time>2014-07-26T12:43:01Z</time>
      </trkpt>
      <trkpt lat="43.80046" lon="7.34724">
        <ele>355.34</ele>
        <time>2014-07-26T12:43:04Z</time>
      </trkpt>
      <trkpt lat="43.80045" lon="7.34743">
        <ele>353.9</ele>
        <time>2014-07-26T12:43:11Z</time>
      </trkpt>
      <trkpt lat="43.80045" lon="7.34753">
        <ele>352.94</ele>
        <time>2014-07-26T12:43:24Z</time>
      </trkpt>
      <trkpt lat="43.80045" lon="7.34752">
        <ele>352.94</ele>
        <time>2014-07-26T12:43:45Z</time>
      </trkpt>
      <trkpt lat="43.80045" lon="7.34753">
        <ele>353.42</ele>
        <time>2014-07-26T12:44:12Z</time>
      </trkpt>
      <trkpt lat="43.80045" lon="7.34753">
        <ele>353.9</ele>
        <time>2014-07-26T12:44:35Z</time>
      </trkpt>
      <trkpt lat="43.80046" lon="7.34753">
        <ele>353.9</ele>
        <time>2014-07-26T12:44:57Z</time>
      </trkpt>
      <trkpt lat="43.80045" lon="7.34754">
        <ele>354.38</ele>
        <time>2014-07-26T12:45:21Z</time>
      </trkpt>
      <trkpt lat="43.80045" lon="7.34755">
        <ele>353.9</ele>
        <time>2014-07-26T12:45:46Z</time>
      </trkpt>
      <trkpt lat="43.80044" lon="7.34755">
        <ele>353.42</ele>
        <time>2014-07-26T12:46:04Z</time>
      </trkpt>
      <trkpt lat="43.80023" lon="7.34748">
        <ele>351.5</ele>
        <time>2014-07-26T12:46:11Z</time>
      </trkpt>
      <trkpt lat="43.79995" lon="7.3473">
        <ele>348.13</ele>
        <time>2014-07-26T12:46:19Z</time>
      </trkpt>
      <trkpt lat="43.79989" lon="7.3473">
        <ele>346.21</ele>
        <time>2014-07-26T12:46:23Z</time>
      </trkpt>
      <trkpt lat="43.79981" lon="7.34736">
        <ele>343.81</ele>
        <time>2014-07-26T12:46:28Z</time>
      </trkpt>
      <trkpt lat="43.79974" lon="7.34735">
        <ele>339.48</ele>
        <time>2014-07-26T12:46:35Z</time>
      </trkpt>
      <trkpt lat="43.79962" lon="7.3473">
        <ele>335.64</ele>
        <time>2014-07-26T12:46:41Z</time>
      </trkpt>
      <trkpt lat="43.79951" lon="7.34713">
        <ele>333.71</ele>
        <time>2014-07-26T12:46:50Z</time>
      </trkpt>
      <trkpt lat="43.79948" lon="7.34721">
        <ele>332.27</ele>
        <time>2014-07-26T12:46:54Z</time>
      </trkpt>
      <trkpt lat="43.79953" lon="7.34736">
        <ele>329.87</ele>
        <time>2014-07-26T12:46:58Z</time>
      </trkpt>
      <trkpt lat="43.79954" lon="7.34749">
        <ele>322.66</ele>
        <time>2014-07-26T12:47:08Z</time>
      </trkpt>
      <trkpt lat="43.79957" lon="7.34757">
        <ele>321.22</ele>
        <time>2014-07-26T12:47:14Z</time>
      </trkpt>
      <trkpt lat="43.79947" lon="7.34758">
        <ele>318.33</ele>
        <time>2014-07-26T12:47:19Z</time>
      </trkpt>
      <trkpt lat="43.79931" lon="7.34751">
        <ele>311.6</ele>
        <time>2014-07-26T12:47:33Z</time>
      </trkpt>
      <trkpt lat="43.79929" lon="7.34752">
        <ele>310.64</ele>
        <time>2014-07-26T12:47:40Z</time>
      </trkpt>
      <trkpt lat="43.79918" lon="7.34753">
        <ele>308.72</ele>
        <time>2014-07-26T12:47:44Z</time>
      </trkpt>
      <trkpt lat="43.79908" lon="7.34746">
        <ele>306.8</ele>
        <time>2014-07-26T12:47:57Z</time>
      </trkpt>
      <trkpt lat="43.79905" lon="7.34745">
        <ele>306.32</ele>
        <time>2014-07-26T12:48:17Z</time>
      </trkpt>
      <trkpt lat="43.79895" lon="7.34742">
        <ele>302.95</ele>
        <time>2014-07-26T12:48:29Z</time>
      </trkpt>
      <trkpt lat="43.79888" lon="7.34745">
        <ele>301.99</ele>
        <time>2014-07-26T12:48:42Z</time>
      </trkpt>
      <trkpt lat="43.79888" lon="7.34744">
        <ele>301.03</ele>
        <time>2014-07-26T12:49:00Z</time>
      </trkpt>
      <trkpt lat="43.79887" lon="7.34744">
        <ele>300.55</ele>
        <time>2014-07-26T12:49:32Z</time>
      </trkpt>
      <trkpt lat="43.79888" lon="7.34745">
        <ele>299.59</ele>
        <time>2014-07-26T12:49:47Z</time>
      </trkpt>
      <trkpt lat="43.79889" lon="7.34746">
        <ele>299.11</ele>
        <time>2014-07-26T12:50:05Z</time>
      </trkpt>
      <trkpt lat="43.7989" lon="7.34746">
        <ele>297.67</ele>
        <time>2014-07-26T12:50:32Z</time>
      </trkpt>
      <trkpt lat="43.7989" lon="7.34746">
        <ele>297.67</ele>
        <time>2014-07-26T12:50:34Z</time>
      </trkpt>
      <trkpt lat="43.79872" lon="7.34757">
        <ele>294.78</ele>
        <time>2014-07-26T12:50:44Z</time>
      </trkpt>
      <trkpt lat="43.79862" lon="7.34768">
        <ele>290.46</ele>
        <time>2014-07-26T12:50:50Z</time>
      </trkpt>
      <trkpt lat="43.7984" lon="7.3478">
        <ele>284.69</ele>
        <time>2014-07-26T12:51:00Z</time>
      </trkpt>
      <trkpt lat="43.79836" lon="7.3478">
        <ele>283.25</ele>
        <time>2014-07-26T12:51:02Z</time>
      </trkpt>
      <trkpt lat="43.79827" lon="7.34758">
        <ele>276.04</ele>
        <time>2014-07-26T12:51:13Z</time>
      </trkpt>
      <trkpt lat="43.79828" lon="7.34754">
        <ele>273.63</ele>
        <time>2014-07-26T12:51:24Z</time>
      </trkpt>
      <trkpt lat="43.79834" lon="7.34733">
        <ele>266.42</ele>
        <time>2014-07-26T12:51:35Z</time>
      </trkpt>
      <trkpt lat="43.79842" lon="7.34721">
        <ele>264.5</ele>
        <time>2014-07-26T12:51:42Z</time>
      </trkpt>
      <trkpt lat="43.79847" lon="7.34704">
        <ele>265.94</ele>
        <time>2014-07-26T12:51:54Z</time>
      </trkpt>
      <trkpt lat="43.7984" lon="7.347">
        <ele>266.9</ele>
        <time>2014-07-26T12:52:02Z</time>
      </trkpt>
      <trkpt lat="43.79834" lon="7.34695">
        <ele>267.86</ele>
        <time>2014-07-26T12:52:11Z</time>
      </trkpt>
      <trkpt lat="43.79823" lon="7.34701">
        <ele>266.9</ele>
        <time>2014-07-26T12:52:16Z</time>
      </trkpt>
      <trkpt lat="43.79806" lon="7.34676">
        <ele>266.42</ele>
        <time>2014-07-26T12:52:24Z</time>
      </trkpt>
      <trkpt lat="43.79797" lon="7.34658">
        <ele>265.46</ele>
        <time>2014-07-26T12:52:27Z</time>
      </trkpt>
      <trkpt lat="43.79785" lon="7.34644">
        <ele>264.5</ele>
        <time>2014-07-26T12:52:30Z</time>
      </trkpt>
      <trkpt lat="43.79774" lon="7.34641">
        <ele>261.62</ele>
        <time>2014-07-26T12:52:39Z</time>
      </trkpt>
      <trkpt lat="43.79778" lon="7.34643">
        <ele>260.17</ele>
        <time>2014-07-26T12:52:47Z</time>
      </trkpt>
      <trkpt lat="43.79781" lon="7.34641">
        <ele>261.14</ele>
        <time>2014-07-26T12:52:56Z</time>
      </trkpt>
      <trkpt lat="43.79779" lon="7.34645">
        <ele>261.62</ele>
        <time>2014-07-26T12:53:00Z</time>
      </trkpt>
      <trkpt lat="43.79777" lon="7.34646">
        <ele>263.54</ele>
        <time>2014-07-26T12:53:12Z</time>
      </trkpt>
      <trkpt lat="43.79777" lon="7.34647">
        <ele>264.02</ele>
        <time>2014-07-26T12:53:13Z</time>
      </trkpt>
      <trkpt lat="43.7977" lon="7.34648">
        <ele>264.5</ele>
        <time>2014-07-26T12:53:24Z</time>
      </trkpt>
      <trkpt lat="43.7977" lon="7.34649">
        <ele>264.5</ele>
        <time>2014-07-26T12:53:54Z</time>
      </trkpt>
      <trkpt lat="43.79772" lon="7.34648">
        <ele>264.5</ele>
        <time>2014-07-26T12:54:30Z</time>
      </trkpt>
      <trkpt lat="43.79772" lon="7.34647">
        <ele>264.5</ele>
        <time>2014-07-26T12:55:08Z</time>
      </trkpt>
      <trkpt lat="43.79773" lon="7.34647">
        <ele>264.5</ele>
        <time>2014-07-26T12:55:45Z</time>
      </trkpt>
      <trkpt lat="43.79772" lon="7.34648">
        <ele>264.5</ele>
        <time>2014-07-26T12:56:22Z</time>
      </trkpt>
      <trkpt lat="43.79773" lon="7.34648">
        <ele>264.5</ele>
        <time>2014-07-26T12:57:00Z</time>
      </trkpt>
      <trkpt lat="43.79773" lon="7.34648">
        <ele>264.98</ele>
        <time>2014-07-26T12:57:22Z</time>
      </trkpt>
      <trkpt lat="43.79774" lon="7.3465">
        <ele>265.94</ele>
        <time>2014-07-26T12:57:40Z</time>
      </trkpt>
      <trkpt lat="43.79773" lon="7.34651">
        <ele>266.9</ele>
        <time>2014-07-26T12:57:48Z</time>
      </trkpt>
      <trkpt lat="43.79759" lon="7.34663">
        <ele>266.42</ele>
        <time>2014-07-26T12:57:54Z</time>
      </trkpt>
      <trkpt lat="43.79733" lon="7.34679">
        <ele>264.02</ele>
        <time>2014-07-26T12:58:00Z</time>
      </trkpt>
      <trkpt lat="43.79712" lon="7.3469">
        <ele>262.1</ele>
        <time>2014-07-26T12:58:08Z</time>
      </trkpt>
      <trkpt lat="43.79701" lon="7.34713">
        <ele>263.06</ele>
        <time>2014-07-26T12:58:17Z</time>
      </trkpt>
      <trkpt lat="43.79694" lon="7.34719">
        <ele>263.06</ele>
        <time>2014-07-26T12:58:22Z</time>
      </trkpt>
      <trkpt lat="43.79681" lon="7.34733">
        <ele>260.17</ele>
        <time>2014-07-26T12:58:32Z</time>
      </trkpt>
      <trkpt lat="43.79681" lon="7.34733">
        <ele>260.17</ele>
        <time>2014-07-26T12:58:33Z</time>
      </trkpt>
      <trkpt lat="43.79697" lon="7.34713">
        <ele>257.29</ele>
        <time>2014-07-26T12:58:47Z</time>
      </trkpt>
      <trkpt lat="43.79711" lon="7.34691">
        <ele>257.29</ele>
        <time>2014-07-26T12:58:53Z</time>
      </trkpt>
      <trkpt lat="43.79764" lon="7.34664">
        <ele>257.29</ele>
        <time>2014-07-26T12:59:07Z</time>
      </trkpt>
      <trkpt lat="43.79764" lon="7.34662">
        <ele>256.81</ele>
        <time>2014-07-26T12:59:11Z</time>
      </trkpt>
      <trkpt lat="43.7977" lon="7.34654">
        <ele>256.81</ele>
        <time>2014-07-26T12:59:19Z</time>
      </trkpt>
      <trkpt lat="43.79779" lon="7.34646">
        <ele>259.69</ele>
        <time>2014-07-26T12:59:31Z</time>
      </trkpt>
      <trkpt lat="43.79787" lon="7.34638">
        <ele>260.65</ele>
        <time>2014-07-26T12:59:41Z</time>
      </trkpt>
      <trkpt lat="43.7978" lon="7.34626">
        <ele>263.54</ele>
        <time>2014-07-26T12:59:48Z</time>
      </trkpt>
      <trkpt lat="43.79775" lon="7.34606">
        <ele>263.54</ele>
        <time>2014-07-26T12:59:54Z</time>
      </trkpt>
      <trkpt lat="43.79768" lon="7.34603">
        <ele>264.5</ele>
        <time>2014-07-26T13:00:05Z</time>
      </trkpt>
      <trkpt lat="43.79758" lon="7.34599">
        <ele>264.5</ele>
        <time>2014-07-26T13:00:11Z</time>
      </trkpt>
      <trkpt lat="43.79751" lon="7.34591">
        <ele>264.5</ele>
        <time>2014-07-26T13:00:17Z</time>
      </trkpt>
      <trkpt lat="43.79742" lon="7.34566">
        <ele>264.02</ele>
        <time>2014-07-26T13:00:26Z</time>
      </trkpt>
      <trkpt lat="43.7973" lon="7.34558">
        <ele>263.06</ele>
        <time>2014-07-26T13:00:29Z</time>
      </trkpt>
      <trkpt lat="43.79722" lon="7.34545">
        <ele>261.14</ele>
        <time>2014-07-26T13:00:37Z</time>
      </trkpt>
      <trkpt lat="43.79704" lon="7.34518">
        <ele>258.25</ele>
        <time>2014-07-26T13:00:45Z</time>
      </trkpt>
      <trkpt lat="43.79698" lon="7.34513">
        <ele>257.77</ele>
        <time>2014-07-26T13:00:47Z</time>
      </trkpt>
      <trkpt lat="43.79691" lon="7.34509">
        <ele>256.81</ele>
        <time>2014-07-26T13:00:50Z</time>
      </trkpt>
      <trkpt lat="43.79678" lon="7.34491">
        <ele>257.29</ele>
        <time>2014-07-26T13:00:58Z</time>
      </trkpt>
      <trkpt lat="43.79679" lon="7.3449">
        <ele>257.29</ele>
        <time>2014-07-26T13:01:01Z</time>
      </trkpt>
      <trkpt lat="43.79683" lon="7.34485">
        <ele>256.33</ele>
        <time>2014-07-26T13:01:04Z</time>
      </trkpt>
      <trkpt lat="43.79693" lon="7.34454">
        <ele>254.41</ele>
        <time>2014-07-26T13:01:09Z</time>
      </trkpt>
      <trkpt lat="43.79694" lon="7.34433">
        <ele>253.44</ele>
        <time>2014-07-26T13:01:13Z</time>
      </trkpt>
      <trkpt lat="43.79708" lon="7.34416">
        <ele>252.48</ele>
        <time>2014-07-26T13:01:17Z</time>
      </trkpt>
      <trkpt lat="43.79718" lon="7.34399">
        <ele>251.04</ele>
        <time>2014-07-26T13:01:20Z</time>
      </trkpt>
      <trkpt lat="43.79729" lon="7.34363">
        <ele>247.68</ele>
        <time>2014-07-26T13:01:27Z</time>
      </trkpt>
      <trkpt lat="43.79733" lon="7.34357">
        <ele>247.2</ele>
        <time>2014-07-26T13:01:29Z</time>
      </trkpt>
      <trkpt lat="43.79757" lon="7.34331">
        <ele>241.43</ele>
        <time>2014-07-26T13:01:38Z</time>
      </trkpt>
      <trkpt lat="43.79758" lon="7.34316">
        <ele>240.95</ele>
        <time>2014-07-26T13:01:41Z</time>
      </trkpt>
      <trkpt lat="43.79757" lon="7.34309">
        <ele>240.95</ele>
        <time>2014-07-26T13:01:42Z</time>
      </trkpt>
      <trkpt lat="43.79757" lon="7.34301">
        <ele>240.95</ele>
        <time>2014-07-26T13:01:43Z</time>
      </trkpt>
      <trkpt lat="43.79756" lon="7.34293">
        <ele>240.95</ele>
        <time>2014-07-26T13:01:44Z</time>
      </trkpt>
      <trkpt lat="43.79755" lon="7.34277">
        <ele>240.95</ele>
        <time>2014-07-26T13:01:46Z</time>
      </trkpt>
      <trkpt lat="43.79756" lon="7.34271">
        <ele>240.95</ele>
        <time>2014-07-26T13:01:47Z</time>
      </trkpt>
      <trkpt lat="43.79765" lon="7.34243">
        <ele>240.95</ele>
        <time>2014-07-26T13:01:52Z</time>
      </trkpt>
      <trkpt lat="43.79767" lon="7.34238">
        <ele>240.95</ele>
        <time>2014-07-26T13:01:53Z</time>
      </trkpt>
      <trkpt lat="43.79768" lon="7.34233">
        <ele>240.95</ele>
        <time>2014-07-26T13:01:54Z</time>
      </trkpt>
      <trkpt lat="43.79769" lon="7.34229">
        <ele>240.95</ele>
        <time>2014-07-26T13:01:55Z</time>
      </trkpt>
      <trkpt lat="43.79769" lon="7.34225">
        <ele>240.95</ele>
        <time>2014-07-26T13:01:56Z</time>
      </trkpt>
      <trkpt lat="43.79769" lon="7.34221">
        <ele>240.47</ele>
        <time>2014-07-26T13:01:57Z</time>
      </trkpt>
      <trkpt lat="43.7977" lon="7.34217">
        <ele>240.47</ele>
        <time>2014-07-26T13:01:58Z</time>
      </trkpt>
      <trkpt lat="43.79771" lon="7.34212">
        <ele>240.47</ele>
        <time>2014-07-26T13:01:59Z</time>
      </trkpt>
      <trkpt lat="43.79784" lon="7.34184">
        <ele>240.95</ele>
        <time>2014-07-26T13:02:06Z</time>
      </trkpt>
      <trkpt lat="43.79787" lon="7.34182">
        <ele>240.95</ele>
        <time>2014-07-26T13:02:07Z</time>
      </trkpt>
      <trkpt lat="43.7979" lon="7.34181">
        <ele>240.95</ele>
        <time>2014-07-26T13:02:08Z</time>
      </trkpt>
      <trkpt lat="43.79792" lon="7.3418">
        <ele>240.95</ele>
        <time>2014-07-26T13:02:09Z</time>
      </trkpt>
      <trkpt lat="43.79795" lon="7.34181">
        <ele>239.99</ele>
        <time>2014-07-26T13:02:11Z</time>
      </trkpt>
      <trkpt lat="43.79799" lon="7.34171">
        <ele>239.99</ele>
        <time>2014-07-26T13:02:24Z</time>
      </trkpt>
      <trkpt lat="43.79803" lon="7.3417">
        <ele>239.99</ele>
        <time>2014-07-26T13:02:34Z</time>
      </trkpt>
      <trkpt lat="43.79811" lon="7.34142">
        <ele>240.47</ele>
        <time>2014-07-26T13:02:45Z</time>
      </trkpt>
      <trkpt lat="43.79812" lon="7.34141">
        <ele>239.99</ele>
        <time>2014-07-26T13:03:00Z</time>
      </trkpt>
      <trkpt lat="43.79812" lon="7.34138">
        <ele>239.99</ele>
        <time>2014-07-26T13:03:04Z</time>
      </trkpt>
      <trkpt lat="43.79811" lon="7.34127">
        <ele>239.99</ele>
        <time>2014-07-26T13:03:10Z</time>
      </trkpt>
      <trkpt lat="43.79811" lon="7.34122">
        <ele>239.99</ele>
        <time>2014-07-26T13:03:12Z</time>
      </trkpt>
      <trkpt lat="43.79809" lon="7.34094">
        <ele>240.95</ele>
        <time>2014-07-26T13:03:25Z</time>
      </trkpt>
      <trkpt lat="43.79806" lon="7.34071">
        <ele>241.43</ele>
        <time>2014-07-26T13:03:36Z</time>
      </trkpt>
      <trkpt lat="43.79792" lon="7.34042">
        <ele>241.43</ele>
        <time>2014-07-26T13:03:50Z</time>
      </trkpt>
      <trkpt lat="43.79784" lon="7.34033">
        <ele>241.43</ele>
        <time>2014-07-26T13:03:56Z</time>
      </trkpt>
      <trkpt lat="43.7977" lon="7.34004">
        <ele>238.06</ele>
        <time>2014-07-26T13:04:11Z</time>
      </trkpt>
      <trkpt lat="43.7977" lon="7.34002">
        <ele>237.58</ele>
        <time>2014-07-26T13:04:25Z</time>
      </trkpt>
      <trkpt lat="43.79771" lon="7.34002">
        <ele>239.02</ele>
        <time>2014-07-26T13:04:55Z</time>
      </trkpt>
      <trkpt lat="43.79771" lon="7.34002">
        <ele>239.99</ele>
        <time>2014-07-26T13:05:24Z</time>
      </trkpt>
      <trkpt lat="43.79771" lon="7.34001">
        <ele>239.99</ele>
        <time>2014-07-26T13:05:35Z</time>
      </trkpt>
      <trkpt lat="43.79773" lon="7.3399">
        <ele>239.51</ele>
        <time>2014-07-26T13:05:40Z</time>
      </trkpt>
      <trkpt lat="43.7981" lon="7.33945">
        <ele>235.18</ele>
        <time>2014-07-26T13:05:51Z</time>
      </trkpt>
      <trkpt lat="43.79824" lon="7.33935">
        <ele>234.7</ele>
        <time>2014-07-26T13:05:54Z</time>
      </trkpt>
      <trkpt lat="43.7983" lon="7.33933">
        <ele>234.22</ele>
        <time>2014-07-26T13:05:55Z</time>
      </trkpt>
      <trkpt lat="43.79919" lon="7.3392">
        <ele>227.49</ele>
        <time>2014-07-26T13:06:10Z</time>
      </trkpt>
      <trkpt lat="43.79925" lon="7.3392">
        <ele>227.01</ele>
        <time>2014-07-26T13:06:11Z</time>
      </trkpt>
      <trkpt lat="43.7993" lon="7.33921">
        <ele>226.05</ele>
        <time>2014-07-26T13:06:12Z</time>
      </trkpt>
      <trkpt lat="43.79935" lon="7.33923">
        <ele>225.57</ele>
        <time>2014-07-26T13:06:13Z</time>
      </trkpt>
      <trkpt lat="43.79939" lon="7.33925">
        <ele>225.57</ele>
        <time>2014-07-26T13:06:14Z</time>
      </trkpt>
      <trkpt lat="43.79943" lon="7.33926">
        <ele>225.57</ele>
        <time>2014-07-26T13:06:15Z</time>
      </trkpt>
      <trkpt lat="43.79945" lon="7.33927">
        <ele>225.09</ele>
        <time>2014-07-26T13:06:16Z</time>
      </trkpt>
      <trkpt lat="43.79947" lon="7.33926">
        <ele>225.09</ele>
        <time>2014-07-26T13:06:17Z</time>
      </trkpt>
      <trkpt lat="43.79949" lon="7.33925">
        <ele>225.09</ele>
        <time>2014-07-26T13:06:18Z</time>
      </trkpt>
      <trkpt lat="43.79951" lon="7.33924">
        <ele>225.09</ele>
        <time>2014-07-26T13:06:19Z</time>
      </trkpt>
      <trkpt lat="43.7995" lon="7.33922">
        <ele>224.61</ele>
        <time>2014-07-26T13:06:30Z</time>
      </trkpt>
      <trkpt lat="43.79952" lon="7.33921">
        <ele>224.61</ele>
        <time>2014-07-26T13:06:38Z</time>
      </trkpt>
      <trkpt lat="43.79959" lon="7.33917">
        <ele>224.61</ele>
        <time>2014-07-26T13:06:48Z</time>
      </trkpt>
      <trkpt lat="43.79972" lon="7.33914">
        <ele>224.12</ele>
        <time>2014-07-26T13:06:58Z</time>
      </trkpt>
      <trkpt lat="43.79984" lon="7.33911">
        <ele>224.12</ele>
        <time>2014-07-26T13:07:10Z</time>
      </trkpt>
      <trkpt lat="43.79987" lon="7.33905">
        <ele>223.64</ele>
        <time>2014-07-26T13:07:27Z</time>
      </trkpt>
      <trkpt lat="43.79985" lon="7.33903">
        <ele>223.64</ele>
        <time>2014-07-26T13:07:31Z</time>
      </trkpt>
      <trkpt lat="43.79981" lon="7.33902">
        <ele>223.64</ele>
        <time>2014-07-26T13:07:33Z</time>
      </trkpt>
      <trkpt lat="43.7998" lon="7.339">
        <ele>223.64</ele>
        <time>2014-07-26T13:07:34Z</time>
      </trkpt>
      <trkpt lat="43.79968" lon="7.33868">
        <ele>223.16</ele>
        <time>2014-07-26T13:07:44Z</time>
      </trkpt>
      <trkpt lat="43.79964" lon="7.33849">
        <ele>223.16</ele>
        <time>2014-07-26T13:07:54Z</time>
      </trkpt>
      <trkpt lat="43.79965" lon="7.33841">
        <ele>222.68</ele>
        <time>2014-07-26T13:07:59Z</time>
      </trkpt>
      <trkpt lat="43.79964" lon="7.33838">
        <ele>222.68</ele>
        <time>2014-07-26T13:08:01Z</time>
      </trkpt>
      <trkpt lat="43.79962" lon="7.33835">
        <ele>222.68</ele>
        <time>2014-07-26T13:08:03Z</time>
      </trkpt>
      <trkpt lat="43.79959" lon="7.33828">
        <ele>222.68</ele>
        <time>2014-07-26T13:08:09Z</time>
      </trkpt>
      <trkpt lat="43.79957" lon="7.33819">
        <ele>222.68</ele>
        <time>2014-07-26T13:08:19Z</time>
      </trkpt>
      <trkpt lat="43.79953" lon="7.33799">
        <ele>225.57</ele>
        <time>2014-07-26T13:08:33Z</time>
      </trkpt>
      <trkpt lat="43.79948" lon="7.33795">
        <ele>227.49</ele>
        <time>2014-07-26T13:08:38Z</time>
      </trkpt>
      <trkpt lat="43.79941" lon="7.33779">
        <ele>229.41</ele>
        <time>2014-07-26T13:08:55Z</time>
      </trkpt>
      <trkpt lat="43.79934" lon="7.33771">
        <ele>227.97</ele>
        <time>2014-07-26T13:09:09Z</time>
      </trkpt>
      <trkpt lat="43.79929" lon="7.33762">
        <ele>225.09</ele>
        <time>2014-07-26T13:09:20Z</time>
      </trkpt>
      <trkpt lat="43.79923" lon="7.33749">
        <ele>221.72</ele>
        <time>2014-07-26T13:09:34Z</time>
      </trkpt>
      <trkpt lat="43.7992" lon="7.33737">
        <ele>220.76</ele>
        <time>2014-07-26T13:09:47Z</time>
      </trkpt>
      <trkpt lat="43.7992" lon="7.33734">
        <ele>218.36</ele>
        <time>2014-07-26T13:10:01Z</time>
      </trkpt>
      <trkpt lat="43.79916" lon="7.33733">
        <ele>216.91</ele>
        <time>2014-07-26T13:10:28Z</time>
      </trkpt>
      <trkpt lat="43.79918" lon="7.33733">
        <ele>220.76</ele>
        <time>2014-07-26T13:10:45Z</time>
      </trkpt>
      <trkpt lat="43.79924" lon="7.33719">
        <ele>223.64</ele>
        <time>2014-07-26T13:10:58Z</time>
      </trkpt>
      <trkpt lat="43.79925" lon="7.33709">
        <ele>227.49</ele>
        <time>2014-07-26T13:11:12Z</time>
      </trkpt>
      <trkpt lat="43.79925" lon="7.33695">
        <ele>229.41</ele>
        <time>2014-07-26T13:11:24Z</time>
      </trkpt>
      <trkpt lat="43.79933" lon="7.33684">
        <ele>234.7</ele>
        <time>2014-07-26T13:11:38Z</time>
      </trkpt>
      <trkpt lat="43.79944" lon="7.33674">
        <ele>235.66</ele>
        <time>2014-07-26T13:11:50Z</time>
      </trkpt>
      <trkpt lat="43.79949" lon="7.33653">
        <ele>234.22</ele>
        <time>2014-07-26T13:12:02Z</time>
      </trkpt>
      <trkpt lat="43.79947" lon="7.33646">
        <ele>232.78</ele>
        <time>2014-07-26T13:12:08Z</time>
      </trkpt>
      <trkpt lat="43.79946" lon="7.33638">
        <ele>233.26</ele>
        <time>2014-07-26T13:12:22Z</time>
      </trkpt>
      <trkpt lat="43.79945" lon="7.33637">
        <ele>233.26</ele>
        <time>2014-07-26T13:12:37Z</time>
      </trkpt>
      <trkpt lat="43.79946" lon="7.33635">
        <ele>233.26</ele>
        <time>2014-07-26T13:12:40Z</time>
      </trkpt>
      <trkpt lat="43.79952" lon="7.33622">
        <ele>234.22</ele>
        <time>2014-07-26T13:12:52Z</time>
      </trkpt>
      <trkpt lat="43.79962" lon="7.33613">
        <ele>236.62</ele>
        <time>2014-07-26T13:13:03Z</time>
      </trkpt>
      <trkpt lat="43.79967" lon="7.33608">
        <ele>238.54</ele>
        <time>2014-07-26T13:13:17Z</time>
      </trkpt>
      <trkpt lat="43.79972" lon="7.33606">
        <ele>240.47</ele>
        <time>2014-07-26T13:13:27Z</time>
      </trkpt>
      <trkpt lat="43.79975" lon="7.33608">
        <ele>240.47</ele>
        <time>2014-07-26T13:13:29Z</time>
      </trkpt>
      <trkpt lat="43.79976" lon="7.33609">
        <ele>240.47</ele>
        <time>2014-07-26T13:13:30Z</time>
      </trkpt>
      <trkpt lat="43.79983" lon="7.33612">
        <ele>239.51</ele>
        <time>2014-07-26T13:13:36Z</time>
      </trkpt>
      <trkpt lat="43.79984" lon="7.33614">
        <ele>239.51</ele>
        <time>2014-07-26T13:13:37Z</time>
      </trkpt>
      <trkpt lat="43.7999" lon="7.3361">
        <ele>240.95</ele>
        <time>2014-07-26T13:13:47Z</time>
      </trkpt>
      <trkpt lat="43.79991" lon="7.33601">
        <ele>239.99</ele>
        <time>2014-07-26T13:14:07Z</time>
      </trkpt>
      <trkpt lat="43.7999" lon="7.33599">
        <ele>239.51</ele>
        <time>2014-07-26T13:14:08Z</time>
      </trkpt>
      <trkpt lat="43.79989" lon="7.33589">
        <ele>239.99</ele>
        <time>2014-07-26T13:14:17Z</time>
      </trkpt>
      <trkpt lat="43.79989" lon="7.33575">
        <ele>242.87</ele>
        <time>2014-07-26T13:14:30Z</time>
      </trkpt>
      <trkpt lat="43.79992" lon="7.33573">
        <ele>243.83</ele>
        <time>2014-07-26T13:14:33Z</time>
      </trkpt>
      <trkpt lat="43.79995" lon="7.33565">
        <ele>244.79</ele>
        <time>2014-07-26T13:14:45Z</time>
      </trkpt>
      <trkpt lat="43.79998" lon="7.33562">
        <ele>245.27</ele>
        <time>2014-07-26T13:14:58Z</time>
      </trkpt>
      <trkpt lat="43.8" lon="7.33554">
        <ele>246.23</ele>
        <time>2014-07-26T13:15:12Z</time>
      </trkpt>
      <trkpt lat="43.80002" lon="7.33545">
        <ele>249.12</ele>
        <time>2014-07-26T13:15:26Z</time>
      </trkpt>
      <trkpt lat="43.80007" lon="7.3354">
        <ele>250.56</ele>
        <time>2014-07-26T13:15:40Z</time>
      </trkpt>
      <trkpt lat="43.80005" lon="7.33538">
        <ele>250.56</ele>
        <time>2014-07-26T13:15:43Z</time>
      </trkpt>
      <trkpt lat="43.79997" lon="7.33533">
        <ele>251.52</ele>
        <time>2014-07-26T13:15:53Z</time>
      </trkpt>
      <trkpt lat="43.79995" lon="7.33533">
        <ele>252</ele>
        <time>2014-07-26T13:15:54Z</time>
      </trkpt>
      <trkpt lat="43.79994" lon="7.33533">
        <ele>252</ele>
        <time>2014-07-26T13:15:55Z</time>
      </trkpt>
      <trkpt lat="43.7999" lon="7.33535">
        <ele>252.48</ele>
        <time>2014-07-26T13:15:58Z</time>
      </trkpt>
      <trkpt lat="43.79989" lon="7.33535">
        <ele>252.96</ele>
        <time>2014-07-26T13:15:59Z</time>
      </trkpt>
      <trkpt lat="43.79987" lon="7.33536">
        <ele>253.44</ele>
        <time>2014-07-26T13:16:00Z</time>
      </trkpt>
      <trkpt lat="43.79987" lon="7.33536">
        <ele>253.44</ele>
        <time>2014-07-26T13:16:01Z</time>
      </trkpt>
      <trkpt lat="43.79985" lon="7.33537">
        <ele>253.93</ele>
        <time>2014-07-26T13:16:02Z</time>
      </trkpt>
      <trkpt lat="43.79977" lon="7.3354">
        <ele>256.81</ele>
        <time>2014-07-26T13:16:13Z</time>
      </trkpt>
      <trkpt lat="43.79973" lon="7.33534">
        <ele>259.21</ele>
        <time>2014-07-26T13:16:25Z</time>
      </trkpt>
      <trkpt lat="43.79968" lon="7.33532">
        <ele>259.69</ele>
        <time>2014-07-26T13:16:29Z</time>
      </trkpt>
      <trkpt lat="43.79966" lon="7.33531">
        <ele>260.17</ele>
        <time>2014-07-26T13:16:30Z</time>
      </trkpt>
      <trkpt lat="43.79964" lon="7.3353">
        <ele>260.17</ele>
        <time>2014-07-26T13:16:31Z</time>
      </trkpt>
      <trkpt lat="43.79959" lon="7.33529">
        <ele>261.14</ele>
        <time>2014-07-26T13:16:34Z</time>
      </trkpt>
      <trkpt lat="43.79957" lon="7.33528">
        <ele>261.62</ele>
        <time>2014-07-26T13:16:35Z</time>
      </trkpt>
      <trkpt lat="43.79948" lon="7.33524">
        <ele>262.1</ele>
        <time>2014-07-26T13:16:46Z</time>
      </trkpt>
      <trkpt lat="43.7994" lon="7.33526">
        <ele>263.06</ele>
        <time>2014-07-26T13:16:54Z</time>
      </trkpt>
      <trkpt lat="43.79935" lon="7.33527">
        <ele>264.5</ele>
        <time>2014-07-26T13:16:59Z</time>
      </trkpt>
      <trkpt lat="43.79926" lon="7.33527">
        <ele>266.42</ele>
        <time>2014-07-26T13:17:07Z</time>
      </trkpt>
      <trkpt lat="43.79924" lon="7.33527">
        <ele>266.42</ele>
        <time>2014-07-26T13:17:08Z</time>
      </trkpt>
      <trkpt lat="43.79922" lon="7.33527">
        <ele>266.42</ele>
        <time>2014-07-26T13:17:09Z</time>
      </trkpt>
      <trkpt lat="43.7992" lon="7.33528">
        <ele>266.42</ele>
        <time>2014-07-26T13:17:10Z</time>
      </trkpt>
      <trkpt lat="43.79918" lon="7.3353">
        <ele>266.42</ele>
        <time>2014-07-26T13:17:11Z</time>
      </trkpt>
      <trkpt lat="43.79918" lon="7.33531">
        <ele>266.42</ele>
        <time>2014-07-26T13:17:12Z</time>
      </trkpt>
      <trkpt lat="43.79917" lon="7.33536">
        <ele>265.46</ele>
        <time>2014-07-26T13:17:14Z</time>
      </trkpt>
      <trkpt lat="43.79916" lon="7.33538">
        <ele>265.46</ele>
        <time>2014-07-26T13:17:15Z</time>
      </trkpt>
      <trkpt lat="43.79915" lon="7.3354">
        <ele>265.46</ele>
        <time>2014-07-26T13:17:16Z</time>
      </trkpt>
      <trkpt lat="43.79914" lon="7.33543">
        <ele>264.98</ele>
        <time>2014-07-26T13:17:17Z</time>
      </trkpt>
      <trkpt lat="43.79913" lon="7.33545">
        <ele>264.98</ele>
        <time>2014-07-26T13:17:18Z</time>
      </trkpt>
      <trkpt lat="43.79898" lon="7.33565">
        <ele>263.54</ele>
        <time>2014-07-26T13:17:27Z</time>
      </trkpt>
      <trkpt lat="43.79875" lon="7.33571">
        <ele>262.58</ele>
        <time>2014-07-26T13:17:37Z</time>
      </trkpt>
      <trkpt lat="43.79857" lon="7.3356">
        <ele>262.1</ele>
        <time>2014-07-26T13:17:43Z</time>
      </trkpt>
      <trkpt lat="43.79836" lon="7.33544">
        <ele>261.62</ele>
        <time>2014-07-26T13:17:52Z</time>
      </trkpt>
      <trkpt lat="43.79834" lon="7.33544">
        <ele>261.62</ele>
        <time>2014-07-26T13:17:53Z</time>
      </trkpt>
      <trkpt lat="43.79832" lon="7.33544">
        <ele>261.14</ele>
        <time>2014-07-26T13:17:54Z</time>
      </trkpt>
      <trkpt lat="43.79826" lon="7.33546">
        <ele>261.14</ele>
        <time>2014-07-26T13:17:59Z</time>
      </trkpt>
      <trkpt lat="43.79812" lon="7.33557">
        <ele>260.65</ele>
        <time>2014-07-26T13:18:12Z</time>
      </trkpt>
      <trkpt lat="43.7981" lon="7.33557">
        <ele>260.65</ele>
        <time>2014-07-26T13:18:13Z</time>
      </trkpt>
      <trkpt lat="43.79806" lon="7.33558">
        <ele>260.65</ele>
        <time>2014-07-26T13:18:14Z</time>
      </trkpt>
      <trkpt lat="43.79803" lon="7.33558">
        <ele>260.65</ele>
        <time>2014-07-26T13:18:15Z</time>
      </trkpt>
      <trkpt lat="43.798" lon="7.33559">
        <ele>260.65</ele>
        <time>2014-07-26T13:18:16Z</time>
      </trkpt>
      <trkpt lat="43.79773" lon="7.33563">
        <ele>259.69</ele>
        <time>2014-07-26T13:18:27Z</time>
      </trkpt>
      <trkpt lat="43.79751" lon="7.33567">
        <ele>258.25</ele>
        <time>2014-07-26T13:18:34Z</time>
      </trkpt>
      <trkpt lat="43.79738" lon="7.33571">
        <ele>257.77</ele>
        <time>2014-07-26T13:18:40Z</time>
      </trkpt>
      <trkpt lat="43.79722" lon="7.33568">
        <ele>257.29</ele>
        <time>2014-07-26T13:18:47Z</time>
      </trkpt>
      <trkpt lat="43.7972" lon="7.33567">
        <ele>257.29</ele>
        <time>2014-07-26T13:18:48Z</time>
      </trkpt>
      <trkpt lat="43.79719" lon="7.33567">
        <ele>257.29</ele>
        <time>2014-07-26T13:18:49Z</time>
      </trkpt>
      <trkpt lat="43.79687" lon="7.33571">
        <ele>258.25</ele>
        <time>2014-07-26T13:19:03Z</time>
      </trkpt>
      <trkpt lat="43.79675" lon="7.33574">
        <ele>257.77</ele>
        <time>2014-07-26T13:19:16Z</time>
      </trkpt>
      <trkpt lat="43.7967" lon="7.33573">
        <ele>258.73</ele>
        <time>2014-07-26T13:19:34Z</time>
      </trkpt>
      <trkpt lat="43.79666" lon="7.33574">
        <ele>259.21</ele>
        <time>2014-07-26T13:19:36Z</time>
      </trkpt>
      <trkpt lat="43.79644" lon="7.33574">
        <ele>260.65</ele>
        <time>2014-07-26T13:19:49Z</time>
      </trkpt>
      <trkpt lat="43.79619" lon="7.33566">
        <ele>264.98</ele>
        <time>2014-07-26T13:20:02Z</time>
      </trkpt>
      <trkpt lat="43.79614" lon="7.33567">
        <ele>265.94</ele>
        <time>2014-07-26T13:20:05Z</time>
      </trkpt>
      <trkpt lat="43.79612" lon="7.33569">
        <ele>266.9</ele>
        <time>2014-07-26T13:20:06Z</time>
      </trkpt>
      <trkpt lat="43.79595" lon="7.33584">
        <ele>269.31</ele>
        <time>2014-07-26T13:20:17Z</time>
      </trkpt>
      <trkpt lat="43.79577" lon="7.33586">
        <ele>272.19</ele>
        <time>2014-07-26T13:20:31Z</time>
      </trkpt>
      <trkpt lat="43.79569" lon="7.33588">
        <ele>273.15</ele>
        <time>2014-07-26T13:20:37Z</time>
      </trkpt>
      <trkpt lat="43.79561" lon="7.33591">
        <ele>274.59</ele>
        <time>2014-07-26T13:20:43Z</time>
      </trkpt>
      <trkpt lat="43.79542" lon="7.33587">
        <ele>276.04</ele>
        <time>2014-07-26T13:20:58Z</time>
      </trkpt>
      <trkpt lat="43.79524" lon="7.33578">
        <ele>281.32</ele>
        <time>2014-07-26T13:21:14Z</time>
      </trkpt>
      <trkpt lat="43.7951" lon="7.33575">
        <ele>283.25</ele>
        <time>2014-07-26T13:21:27Z</time>
      </trkpt>
      <trkpt lat="43.79491" lon="7.33577">
        <ele>286.13</ele>
        <time>2014-07-26T13:21:38Z</time>
      </trkpt>
      <trkpt lat="43.79489" lon="7.33577">
        <ele>286.61</ele>
        <time>2014-07-26T13:21:40Z</time>
      </trkpt>
      <trkpt lat="43.79472" lon="7.33577">
        <ele>289.97</ele>
        <time>2014-07-26T13:21:50Z</time>
      </trkpt>
      <trkpt lat="43.79471" lon="7.33579">
        <ele>289.97</ele>
        <time>2014-07-26T13:21:51Z</time>
      </trkpt>
      <trkpt lat="43.7947" lon="7.3358">
        <ele>289.97</ele>
        <time>2014-07-26T13:21:52Z</time>
      </trkpt>
      <trkpt lat="43.79462" lon="7.33586">
        <ele>289.49</ele>
        <time>2014-07-26T13:21:57Z</time>
      </trkpt>
      <trkpt lat="43.7946" lon="7.33588">
        <ele>289.01</ele>
        <time>2014-07-26T13:21:58Z</time>
      </trkpt>
      <trkpt lat="43.79458" lon="7.33589">
        <ele>289.01</ele>
        <time>2014-07-26T13:21:59Z</time>
      </trkpt>
      <trkpt lat="43.79456" lon="7.3359">
        <ele>289.01</ele>
        <time>2014-07-26T13:22:00Z</time>
      </trkpt>
      <trkpt lat="43.79454" lon="7.33591">
        <ele>289.01</ele>
        <time>2014-07-26T13:22:01Z</time>
      </trkpt>
      <trkpt lat="43.79426" lon="7.33604">
        <ele>289.01</ele>
        <time>2014-07-26T13:22:15Z</time>
      </trkpt>
      <trkpt lat="43.79423" lon="7.33607">
        <ele>288.53</ele>
        <time>2014-07-26T13:22:18Z</time>
      </trkpt>
      <trkpt lat="43.79407" lon="7.33618">
        <ele>287.57</ele>
        <time>2014-07-26T13:22:28Z</time>
      </trkpt>
      <trkpt lat="43.79383" lon="7.33621">
        <ele>289.97</ele>
        <time>2014-07-26T13:22:40Z</time>
      </trkpt>
      <trkpt lat="43.79381" lon="7.33621">
        <ele>290.46</ele>
        <time>2014-07-26T13:22:41Z</time>
      </trkpt>
      <trkpt lat="43.79378" lon="7.33621">
        <ele>290.46</ele>
        <time>2014-07-26T13:22:42Z</time>
      </trkpt>
      <trkpt lat="43.79336" lon="7.33626">
        <ele>290.46</ele>
        <time>2014-07-26T13:22:54Z</time>
      </trkpt>
      <trkpt lat="43.79308" lon="7.33628">
        <ele>289.97</ele>
        <time>2014-07-26T13:23:02Z</time>
      </trkpt>
      <trkpt lat="43.79294" lon="7.33643">
        <ele>289.49</ele>
        <time>2014-07-26T13:23:08Z</time>
      </trkpt>
      <trkpt lat="43.79291" lon="7.33645">
        <ele>289.49</ele>
        <time>2014-07-26T13:23:09Z</time>
      </trkpt>
      <trkpt lat="43.79288" lon="7.33647">
        <ele>289.49</ele>
        <time>2014-07-26T13:23:10Z</time>
      </trkpt>
      <trkpt lat="43.79265" lon="7.33653">
        <ele>289.01</ele>
        <time>2014-07-26T13:23:20Z</time>
      </trkpt>
      <trkpt lat="43.79264" lon="7.33653">
        <ele>288.53</ele>
        <time>2014-07-26T13:23:42Z</time>
      </trkpt>
      <trkpt lat="43.79252" lon="7.33654">
        <ele>286.61</ele>
        <time>2014-07-26T13:23:51Z</time>
      </trkpt>
      <trkpt lat="43.79249" lon="7.33654">
        <ele>286.13</ele>
        <time>2014-07-26T13:24:10Z</time>
      </trkpt>
      <trkpt lat="43.79243" lon="7.33653">
        <ele>285.65</ele>
        <time>2014-07-26T13:24:20Z</time>
      </trkpt>
      <trkpt lat="43.79241" lon="7.33654">
        <ele>285.17</ele>
        <time>2014-07-26T13:24:21Z</time>
      </trkpt>
      <trkpt lat="43.79238" lon="7.33654">
        <ele>285.17</ele>
        <time>2014-07-26T13:24:22Z</time>
      </trkpt>
      <trkpt lat="43.79207" lon="7.33658">
        <ele>284.21</ele>
        <time>2014-07-26T13:24:35Z</time>
      </trkpt>
      <trkpt lat="43.79197" lon="7.3366">
        <ele>284.21</ele>
        <time>2014-07-26T13:24:38Z</time>
      </trkpt>
      <trkpt lat="43.79192" lon="7.33661">
        <ele>284.21</ele>
        <time>2014-07-26T13:24:39Z</time>
      </trkpt>
      <trkpt lat="43.79186" lon="7.33666">
        <ele>284.69</ele>
        <time>2014-07-26T13:24:40Z</time>
      </trkpt>
      <trkpt lat="43.79183" lon="7.3367">
        <ele>284.69</ele>
        <time>2014-07-26T13:24:41Z</time>
      </trkpt>
      <trkpt lat="43.79182" lon="7.33674">
        <ele>284.69</ele>
        <time>2014-07-26T13:24:42Z</time>
      </trkpt>
      <trkpt lat="43.7918" lon="7.33676">
        <ele>282.77</ele>
        <time>2014-07-26T13:24:43Z</time>
      </trkpt>
      <trkpt lat="43.79179" lon="7.33679">
        <ele>280.84</ele>
        <time>2014-07-26T13:24:44Z</time>
      </trkpt>
      <trkpt lat="43.79175" lon="7.33689">
        <ele>277</ele>
        <time>2014-07-26T13:24:50Z</time>
      </trkpt>
      <trkpt lat="43.79159" lon="7.337">
        <ele>273.63</ele>
        <time>2014-07-26T13:25:00Z</time>
      </trkpt>
      <trkpt lat="43.79151" lon="7.337">
        <ele>273.15</ele>
        <time>2014-07-26T13:25:03Z</time>
      </trkpt>
      <trkpt lat="43.7915" lon="7.33701">
        <ele>273.15</ele>
        <time>2014-07-26T13:25:04Z</time>
      </trkpt>
      <trkpt lat="43.79148" lon="7.33704">
        <ele>272.67</ele>
        <time>2014-07-26T13:25:05Z</time>
      </trkpt>
      <trkpt lat="43.79149" lon="7.33711">
        <ele>268.35</ele>
        <time>2014-07-26T13:25:15Z</time>
      </trkpt>
      <trkpt lat="43.79147" lon="7.33715">
        <ele>264.02</ele>
        <time>2014-07-26T13:25:28Z</time>
      </trkpt>
      <trkpt lat="43.79144" lon="7.33718">
        <ele>262.1</ele>
        <time>2014-07-26T13:25:44Z</time>
      </trkpt>
      <trkpt lat="43.79137" lon="7.33718">
        <ele>260.17</ele>
        <time>2014-07-26T13:25:57Z</time>
      </trkpt>
      <trkpt lat="43.79131" lon="7.33721">
        <ele>258.25</ele>
        <time>2014-07-26T13:26:10Z</time>
      </trkpt>
      <trkpt lat="43.79129" lon="7.33726">
        <ele>256.81</ele>
        <time>2014-07-26T13:26:15Z</time>
      </trkpt>
      <trkpt lat="43.79118" lon="7.33735">
        <ele>254.89</ele>
        <time>2014-07-26T13:26:25Z</time>
      </trkpt>
      <trkpt lat="43.79114" lon="7.33737">
        <ele>253.44</ele>
        <time>2014-07-26T13:26:41Z</time>
      </trkpt>
      <trkpt lat="43.79114" lon="7.33737">
        <ele>253.44</ele>
        <time>2014-07-26T13:26:42Z</time>
      </trkpt>
      <trkpt lat="43.79097" lon="7.33741">
        <ele>252.96</ele>
        <time>2014-07-26T13:26:48Z</time>
      </trkpt>
      <trkpt lat="43.79092" lon="7.33745">
        <ele>252.96</ele>
        <time>2014-07-26T13:26:50Z</time>
      </trkpt>
      <trkpt lat="43.79076" lon="7.33749">
        <ele>250.08</ele>
        <time>2014-07-26T13:26:55Z</time>
      </trkpt>
      <trkpt lat="43.79068" lon="7.33748">
        <ele>248.64</ele>
        <time>2014-07-26T13:26:59Z</time>
      </trkpt>
      <trkpt lat="43.79051" lon="7.33744">
        <ele>247.68</ele>
        <time>2014-07-26T13:27:06Z</time>
      </trkpt>
      <trkpt lat="43.79047" lon="7.33743">
        <ele>247.68</ele>
        <time>2014-07-26T13:27:07Z</time>
      </trkpt>
      <trkpt lat="43.79042" lon="7.33743">
        <ele>247.68</ele>
        <time>2014-07-26T13:27:08Z</time>
      </trkpt>
      <trkpt lat="43.79038" lon="7.33743">
        <ele>247.68</ele>
        <time>2014-07-26T13:27:09Z</time>
      </trkpt>
      <trkpt lat="43.79034" lon="7.33743">
        <ele>247.68</ele>
        <time>2014-07-26T13:27:10Z</time>
      </trkpt>
      <trkpt lat="43.7903" lon="7.33744">
        <ele>247.2</ele>
        <time>2014-07-26T13:27:11Z</time>
      </trkpt>
      <trkpt lat="43.79018" lon="7.33742">
        <ele>247.2</ele>
        <time>2014-07-26T13:27:14Z</time>
      </trkpt>
      <trkpt lat="43.79014" lon="7.33741">
        <ele>247.2</ele>
        <time>2014-07-26T13:27:15Z</time>
      </trkpt>
      <trkpt lat="43.79011" lon="7.33739">
        <ele>247.2</ele>
        <time>2014-07-26T13:27:16Z</time>
      </trkpt>
      <trkpt lat="43.79014" lon="7.33736">
        <ele>246.23</ele>
        <time>2014-07-26T13:27:29Z</time>
      </trkpt>
      <trkpt lat="43.79015" lon="7.33737">
        <ele>239.51</ele>
        <time>2014-07-26T13:27:42Z</time>
      </trkpt>
      <trkpt lat="43.79014" lon="7.33736">
        <ele>234.7</ele>
        <time>2014-07-26T13:27:49Z</time>
      </trkpt>
      <trkpt lat="43.79013" lon="7.33733">
        <ele>231.81</ele>
        <time>2014-07-26T13:28:25Z</time>
      </trkpt>
      <trkpt lat="43.79012" lon="7.33732">
        <ele>231.33</ele>
        <time>2014-07-26T13:28:54Z</time>
      </trkpt>
      <trkpt lat="43.7901" lon="7.33732">
        <ele>230.85</ele>
        <time>2014-07-26T13:29:29Z</time>
      </trkpt>
      <trkpt lat="43.7901" lon="7.33732">
        <ele>230.85</ele>
        <time>2014-07-26T13:29:45Z</time>
      </trkpt>
      <trkpt lat="43.79011" lon="7.33732">
        <ele>229.41</ele>
        <time>2014-07-26T13:29:55Z</time>
      </trkpt>
      <trkpt lat="43.79009" lon="7.33732">
        <ele>224.61</ele>
        <time>2014-07-26T13:30:29Z</time>
      </trkpt>
      <trkpt lat="43.79008" lon="7.33732">
        <ele>223.64</ele>
        <time>2014-07-26T13:30:51Z</time>
      </trkpt>
      <trkpt lat="43.79008" lon="7.33732">
        <ele>224.12</ele>
        <time>2014-07-26T13:31:17Z</time>
      </trkpt>
      <trkpt lat="43.79008" lon="7.33732">
        <ele>222.68</ele>
        <time>2014-07-26T13:31:36Z</time>
      </trkpt>
      <trkpt lat="43.79008" lon="7.33731">
        <ele>222.68</ele>
        <time>2014-07-26T13:31:54Z</time>
      </trkpt>
      <trkpt lat="43.79008" lon="7.33732">
        <ele>221.72</ele>
        <time>2014-07-26T13:32:19Z</time>
      </trkpt>
      <trkpt lat="43.79005" lon="7.33731">
        <ele>218.36</ele>
        <time>2014-07-26T13:32:32Z</time>
      </trkpt>
      <trkpt lat="43.79005" lon="7.33731">
        <ele>217.4</ele>
        <time>2014-07-26T13:32:48Z</time>
      </trkpt>
      <trkpt lat="43.79004" lon="7.33731">
        <ele>215.47</ele>
        <time>2014-07-26T13:33:19Z</time>
      </trkpt>
      <trkpt lat="43.79003" lon="7.33732">
        <ele>216.43</ele>
        <time>2014-07-26T13:33:57Z</time>
      </trkpt>
      <trkpt lat="43.79003" lon="7.33732">
        <ele>216.91</ele>
        <time>2014-07-26T13:34:22Z</time>
      </trkpt>
      <trkpt lat="43.79003" lon="7.33731">
        <ele>216.91</ele>
        <time>2014-07-26T13:34:53Z</time>
      </trkpt>
      <trkpt lat="43.79004" lon="7.33731">
        <ele>216.91</ele>
        <time>2014-07-26T13:35:29Z</time>
      </trkpt>
      <trkpt lat="43.79004" lon="7.33731">
        <ele>217.88</ele>
        <time>2014-07-26T13:36:00Z</time>
      </trkpt>
      <trkpt lat="43.79004" lon="7.33732">
        <ele>217.88</ele>
        <time>2014-07-26T13:36:35Z</time>
      </trkpt>
      <trkpt lat="43.79004" lon="7.33731">
        <ele>217.88</ele>
        <time>2014-07-26T13:37:02Z</time>
      </trkpt>
      <trkpt lat="43.79004" lon="7.33731">
        <ele>216.91</ele>
        <time>2014-07-26T13:37:05Z</time>
      </trkpt>
      <trkpt lat="43.79002" lon="7.33731">
        <ele>215.95</ele>
        <time>2014-07-26T13:37:17Z</time>
      </trkpt>
      <trkpt lat="43.78997" lon="7.33729">
        <ele>215.47</ele>
        <time>2014-07-26T13:37:35Z</time>
      </trkpt>
      <trkpt lat="43.78985" lon="7.33715">
        <ele>214.99</ele>
        <time>2014-07-26T13:37:44Z</time>
      </trkpt>
      <trkpt lat="43.78981" lon="7.33712">
        <ele>214.99</ele>
        <time>2014-07-26T13:37:47Z</time>
      </trkpt>
      <trkpt lat="43.78971" lon="7.33701">
        <ele>213.07</ele>
        <time>2014-07-26T13:37:52Z</time>
      </trkpt>
      <trkpt lat="43.78967" lon="7.33703">
        <ele>212.59</ele>
        <time>2014-07-26T13:37:53Z</time>
      </trkpt>
      <trkpt lat="43.78964" lon="7.33703">
        <ele>212.59</ele>
        <time>2014-07-26T13:37:54Z</time>
      </trkpt>
      <trkpt lat="43.7896" lon="7.33703">
        <ele>212.11</ele>
        <time>2014-07-26T13:37:55Z</time>
      </trkpt>
      <trkpt lat="43.78956" lon="7.33702">
        <ele>211.15</ele>
        <time>2014-07-26T13:37:56Z</time>
      </trkpt>
      <trkpt lat="43.78952" lon="7.33704">
        <ele>210.67</ele>
        <time>2014-07-26T13:37:57Z</time>
      </trkpt>
      <trkpt lat="43.78948" lon="7.33706">
        <ele>210.19</ele>
        <time>2014-07-26T13:37:58Z</time>
      </trkpt>
      <trkpt lat="43.78944" lon="7.33711">
        <ele>209.7</ele>
        <time>2014-07-26T13:37:59Z</time>
      </trkpt>
      <trkpt lat="43.7894" lon="7.33715">
        <ele>209.22</ele>
        <time>2014-07-26T13:38:00Z</time>
      </trkpt>
      <trkpt lat="43.78938" lon="7.33719">
        <ele>208.74</ele>
        <time>2014-07-26T13:38:01Z</time>
      </trkpt>
      <trkpt lat="43.78935" lon="7.33723">
        <ele>207.78</ele>
        <time>2014-07-26T13:38:02Z</time>
      </trkpt>
      <trkpt lat="43.78931" lon="7.33729">
        <ele>205.86</ele>
        <time>2014-07-26T13:38:11Z</time>
      </trkpt>
      <trkpt lat="43.78934" lon="7.33722">
        <ele>202.01</ele>
        <time>2014-07-26T13:38:15Z</time>
      </trkpt>
      <trkpt lat="43.78936" lon="7.3372">
        <ele>200.57</ele>
        <time>2014-07-26T13:38:17Z</time>
      </trkpt>
      <trkpt lat="43.78939" lon="7.33716">
        <ele>198.65</ele>
        <time>2014-07-26T13:38:20Z</time>
      </trkpt>
      <trkpt lat="43.78943" lon="7.33709">
        <ele>196.25</ele>
        <time>2014-07-26T13:38:25Z</time>
      </trkpt>
      <trkpt lat="43.78949" lon="7.33703">
        <ele>196.73</ele>
        <time>2014-07-26T13:38:35Z</time>
      </trkpt>
      <trkpt lat="43.78955" lon="7.33701">
        <ele>197.21</ele>
        <time>2014-07-26T13:38:43Z</time>
      </trkpt>
      <trkpt lat="43.78956" lon="7.33701">
        <ele>197.21</ele>
        <time>2014-07-26T13:38:44Z</time>
      </trkpt>
      <trkpt lat="43.78956" lon="7.33701">
        <ele>197.69</ele>
        <time>2014-07-26T13:38:51Z</time>
      </trkpt>
      <trkpt lat="43.78963" lon="7.33698">
        <ele>198.65</ele>
        <time>2014-07-26T13:39:00Z</time>
      </trkpt>
      <trkpt lat="43.78963" lon="7.33694">
        <ele>199.61</ele>
        <time>2014-07-26T13:39:04Z</time>
      </trkpt>
      <trkpt lat="43.78963" lon="7.33689">
        <ele>199.61</ele>
        <time>2014-07-26T13:39:10Z</time>
      </trkpt>
      <trkpt lat="43.78965" lon="7.33686">
        <ele>199.13</ele>
        <time>2014-07-26T13:39:21Z</time>
      </trkpt>
      <trkpt lat="43.78965" lon="7.33684">
        <ele>199.13</ele>
        <time>2014-07-26T13:39:40Z</time>
      </trkpt>
      <trkpt lat="43.78963" lon="7.33684">
        <ele>200.57</ele>
        <time>2014-07-26T13:39:55Z</time>
      </trkpt>
      <trkpt lat="43.78965" lon="7.33686">
        <ele>201.53</ele>
        <time>2014-07-26T13:40:04Z</time>
      </trkpt>
      <trkpt lat="43.78968" lon="7.33689">
        <ele>200.57</ele>
        <time>2014-07-26T13:40:16Z</time>
      </trkpt>
      <trkpt lat="43.78972" lon="7.33695">
        <ele>200.09</ele>
        <time>2014-07-26T13:40:34Z</time>
      </trkpt>
      <trkpt lat="43.78976" lon="7.33703">
        <ele>201.05</ele>
        <time>2014-07-26T13:40:44Z</time>
      </trkpt>
      <trkpt lat="43.78973" lon="7.33706">
        <ele>204.9</ele>
        <time>2014-07-26T13:40:52Z</time>
      </trkpt>
      <trkpt lat="43.78971" lon="7.33706">
        <ele>204.9</ele>
        <time>2014-07-26T13:40:53Z</time>
      </trkpt>
      <trkpt lat="43.7897" lon="7.33705">
        <ele>205.38</ele>
        <time>2014-07-26T13:40:54Z</time>
      </trkpt>
      <trkpt lat="43.78967" lon="7.33703">
        <ele>204.9</ele>
        <time>2014-07-26T13:40:55Z</time>
      </trkpt>
      <trkpt lat="43.78963" lon="7.33702">
        <ele>205.38</ele>
        <time>2014-07-26T13:40:56Z</time>
      </trkpt>
      <trkpt lat="43.78959" lon="7.33702">
        <ele>205.38</ele>
        <time>2014-07-26T13:40:57Z</time>
      </trkpt>
      <trkpt lat="43.78955" lon="7.33702">
        <ele>204.9</ele>
        <time>2014-07-26T13:40:58Z</time>
      </trkpt>
      <trkpt lat="43.7895" lon="7.33703">
        <ele>204.9</ele>
        <time>2014-07-26T13:40:59Z</time>
      </trkpt>
      <trkpt lat="43.78945" lon="7.33706">
        <ele>204.42</ele>
        <time>2014-07-26T13:41:00Z</time>
      </trkpt>
      <trkpt lat="43.78941" lon="7.3371">
        <ele>203.46</ele>
        <time>2014-07-26T13:41:01Z</time>
      </trkpt>
      <trkpt lat="43.78938" lon="7.33715">
        <ele>202.98</ele>
        <time>2014-07-26T13:41:02Z</time>
      </trkpt>
      <trkpt lat="43.78934" lon="7.3372">
        <ele>202.49</ele>
        <time>2014-07-26T13:41:03Z</time>
      </trkpt>
      <trkpt lat="43.7893" lon="7.33724">
        <ele>201.53</ele>
        <time>2014-07-26T13:41:04Z</time>
      </trkpt>
      <trkpt lat="43.78926" lon="7.33727">
        <ele>201.53</ele>
        <time>2014-07-26T13:41:05Z</time>
      </trkpt>
      <trkpt lat="43.78922" lon="7.33729">
        <ele>201.05</ele>
        <time>2014-07-26T13:41:06Z</time>
      </trkpt>
      <trkpt lat="43.78917" lon="7.33729">
        <ele>200.57</ele>
        <time>2014-07-26T13:41:07Z</time>
      </trkpt>
      <trkpt lat="43.78907" lon="7.33728">
        <ele>200.09</ele>
        <time>2014-07-26T13:41:09Z</time>
      </trkpt>
      <trkpt lat="43.78886" lon="7.33734">
        <ele>199.13</ele>
        <time>2014-07-26T13:41:17Z</time>
      </trkpt>
      <trkpt lat="43.78882" lon="7.33738">
        <ele>199.61</ele>
        <time>2014-07-26T13:41:27Z</time>
      </trkpt>
      <trkpt lat="43.78882" lon="7.33739">
        <ele>198.65</ele>
        <time>2014-07-26T13:41:43Z</time>
      </trkpt>
      <trkpt lat="43.7888" lon="7.33739">
        <ele>198.65</ele>
        <time>2014-07-26T13:41:59Z</time>
      </trkpt>
      <trkpt lat="43.78881" lon="7.33739">
        <ele>199.61</ele>
        <time>2014-07-26T13:42:11Z</time>
      </trkpt>
      <trkpt lat="43.78864" lon="7.33743">
        <ele>198.65</ele>
        <time>2014-07-26T13:42:20Z</time>
      </trkpt>
      <trkpt lat="43.78835" lon="7.3375">
        <ele>196.25</ele>
        <time>2014-07-26T13:42:30Z</time>
      </trkpt>
      <trkpt lat="43.78822" lon="7.33752">
        <ele>195.28</ele>
        <time>2014-07-26T13:42:33Z</time>
      </trkpt>
      <trkpt lat="43.78817" lon="7.33754">
        <ele>195.28</ele>
        <time>2014-07-26T13:42:34Z</time>
      </trkpt>
      <trkpt lat="43.78779" lon="7.3376">
        <ele>193.36</ele>
        <time>2014-07-26T13:42:40Z</time>
      </trkpt>
      <trkpt lat="43.78773" lon="7.3376">
        <ele>193.36</ele>
        <time>2014-07-26T13:42:41Z</time>
      </trkpt>
      <trkpt lat="43.78727" lon="7.3375">
        <ele>190.96</ele>
        <time>2014-07-26T13:42:49Z</time>
      </trkpt>
      <trkpt lat="43.7872" lon="7.3375">
        <ele>190.48</ele>
        <time>2014-07-26T13:42:50Z</time>
      </trkpt>
      <trkpt lat="43.78713" lon="7.33751">
        <ele>190</ele>
        <time>2014-07-26T13:42:51Z</time>
      </trkpt>
      <trkpt lat="43.78692" lon="7.33752">
        <ele>189.04</ele>
        <time>2014-07-26T13:42:54Z</time>
      </trkpt>
      <trkpt lat="43.78685" lon="7.3375">
        <ele>188.56</ele>
        <time>2014-07-26T13:42:55Z</time>
      </trkpt>
      <trkpt lat="43.78678" lon="7.33746">
        <ele>188.08</ele>
        <time>2014-07-26T13:42:56Z</time>
      </trkpt>
      <trkpt lat="43.78672" lon="7.33742">
        <ele>187.59</ele>
        <time>2014-07-26T13:42:57Z</time>
      </trkpt>
      <trkpt lat="43.78665" lon="7.33738">
        <ele>187.11</ele>
        <time>2014-07-26T13:42:58Z</time>
      </trkpt>
      <trkpt lat="43.78658" lon="7.33736">
        <ele>186.63</ele>
        <time>2014-07-26T13:42:59Z</time>
      </trkpt>
      <trkpt lat="43.78652" lon="7.33736">
        <ele>186.15</ele>
        <time>2014-07-26T13:43:00Z</time>
      </trkpt>
      <trkpt lat="43.78647" lon="7.3374">
        <ele>185.19</ele>
        <time>2014-07-26T13:43:01Z</time>
      </trkpt>
      <trkpt lat="43.78642" lon="7.33745">
        <ele>184.71</ele>
        <time>2014-07-26T13:43:02Z</time>
      </trkpt>
      <trkpt lat="43.78637" lon="7.33752">
        <ele>183.75</ele>
        <time>2014-07-26T13:43:03Z</time>
      </trkpt>
      <trkpt lat="43.78629" lon="7.33764">
        <ele>182.31</ele>
        <time>2014-07-26T13:43:05Z</time>
      </trkpt>
      <trkpt lat="43.78621" lon="7.33778">
        <ele>181.35</ele>
        <time>2014-07-26T13:43:07Z</time>
      </trkpt>
      <trkpt lat="43.78616" lon="7.33784">
        <ele>180.38</ele>
        <time>2014-07-26T13:43:08Z</time>
      </trkpt>
      <trkpt lat="43.78606" lon="7.33794">
        <ele>178.94</ele>
        <time>2014-07-26T13:43:10Z</time>
      </trkpt>
      <trkpt lat="43.78581" lon="7.33815">
        <ele>177.5</ele>
        <time>2014-07-26T13:43:19Z</time>
      </trkpt>
      <trkpt lat="43.78578" lon="7.3382">
        <ele>177.98</ele>
        <time>2014-07-26T13:43:27Z</time>
      </trkpt>
      <trkpt lat="43.78578" lon="7.33822">
        <ele>177.98</ele>
        <time>2014-07-26T13:43:28Z</time>
      </trkpt>
      <trkpt lat="43.78572" lon="7.33838">
        <ele>177.02</ele>
        <time>2014-07-26T13:43:32Z</time>
      </trkpt>
      <trkpt lat="43.78571" lon="7.33844">
        <ele>176.54</ele>
        <time>2014-07-26T13:43:33Z</time>
      </trkpt>
      <trkpt lat="43.7857" lon="7.33852">
        <ele>175.58</ele>
        <time>2014-07-26T13:43:34Z</time>
      </trkpt>
      <trkpt lat="43.7857" lon="7.3386">
        <ele>175.1</ele>
        <time>2014-07-26T13:43:35Z</time>
      </trkpt>
      <trkpt lat="43.78571" lon="7.33869">
        <ele>174.14</ele>
        <time>2014-07-26T13:43:36Z</time>
      </trkpt>
      <trkpt lat="43.7857" lon="7.33888">
        <ele>173.17</ele>
        <time>2014-07-26T13:43:38Z</time>
      </trkpt>
      <trkpt lat="43.78568" lon="7.33898">
        <ele>172.69</ele>
        <time>2014-07-26T13:43:39Z</time>
      </trkpt>
      <trkpt lat="43.78566" lon="7.33907">
        <ele>172.21</ele>
        <time>2014-07-26T13:43:40Z</time>
      </trkpt>
      <trkpt lat="43.78562" lon="7.33915">
        <ele>171.73</ele>
        <time>2014-07-26T13:43:41Z</time>
      </trkpt>
      <trkpt lat="43.78559" lon="7.33922">
        <ele>171.25</ele>
        <time>2014-07-26T13:43:42Z</time>
      </trkpt>
      <trkpt lat="43.78555" lon="7.33928">
        <ele>171.25</ele>
        <time>2014-07-26T13:43:43Z</time>
      </trkpt>
      <trkpt lat="43.7855" lon="7.33931">
        <ele>170.77</ele>
        <time>2014-07-26T13:43:44Z</time>
      </trkpt>
      <trkpt lat="43.78544" lon="7.33927">
        <ele>170.29</ele>
        <time>2014-07-26T13:43:45Z</time>
      </trkpt>
      <trkpt lat="43.78539" lon="7.33924">
        <ele>169.81</ele>
        <time>2014-07-26T13:43:46Z</time>
      </trkpt>
      <trkpt lat="43.78507" lon="7.339">
        <ele>167.89</ele>
        <time>2014-07-26T13:43:51Z</time>
      </trkpt>
      <trkpt lat="43.7843" lon="7.33848">
        <ele>164.04</ele>
        <time>2014-07-26T13:44:03Z</time>
      </trkpt>
      <trkpt lat="43.78423" lon="7.33845">
        <ele>163.56</ele>
        <time>2014-07-26T13:44:04Z</time>
      </trkpt>
      <trkpt lat="43.78363" lon="7.33825">
        <ele>159.24</ele>
        <time>2014-07-26T13:44:12Z</time>
      </trkpt>
      <trkpt lat="43.78357" lon="7.33826">
        <ele>159.24</ele>
        <time>2014-07-26T13:44:13Z</time>
      </trkpt>
      <trkpt lat="43.78353" lon="7.3383">
        <ele>158.75</ele>
        <time>2014-07-26T13:44:14Z</time>
      </trkpt>
      <trkpt lat="43.78352" lon="7.33836">
        <ele>158.75</ele>
        <time>2014-07-26T13:44:15Z</time>
      </trkpt>
      <trkpt lat="43.78354" lon="7.33846">
        <ele>158.27</ele>
        <time>2014-07-26T13:44:16Z</time>
      </trkpt>
      <trkpt lat="43.78359" lon="7.33855">
        <ele>156.83</ele>
        <time>2014-07-26T13:44:17Z</time>
      </trkpt>
      <trkpt lat="43.78363" lon="7.33863">
        <ele>155.39</ele>
        <time>2014-07-26T13:44:18Z</time>
      </trkpt>
      <trkpt lat="43.78365" lon="7.33869">
        <ele>154.91</ele>
        <time>2014-07-26T13:44:19Z</time>
      </trkpt>
      <trkpt lat="43.78365" lon="7.33873">
        <ele>153.95</ele>
        <time>2014-07-26T13:44:20Z</time>
      </trkpt>
      <trkpt lat="43.78361" lon="7.33875">
        <ele>152.99</ele>
        <time>2014-07-26T13:44:21Z</time>
      </trkpt>
      <trkpt lat="43.78356" lon="7.33873">
        <ele>152.51</ele>
        <time>2014-07-26T13:44:22Z</time>
      </trkpt>
      <trkpt lat="43.7835" lon="7.33869">
        <ele>151.54</ele>
        <time>2014-07-26T13:44:23Z</time>
      </trkpt>
      <trkpt lat="43.78345" lon="7.33863">
        <ele>151.06</ele>
        <time>2014-07-26T13:44:24Z</time>
      </trkpt>
      <trkpt lat="43.78339" lon="7.33858">
        <ele>150.1</ele>
        <time>2014-07-26T13:44:25Z</time>
      </trkpt>
      <trkpt lat="43.78316" lon="7.33831">
        <ele>144.82</ele>
        <time>2014-07-26T13:44:31Z</time>
      </trkpt>
      <trkpt lat="43.78314" lon="7.33832">
        <ele>144.34</ele>
        <time>2014-07-26T13:44:32Z</time>
      </trkpt>
      <trkpt lat="43.78313" lon="7.33836">
        <ele>143.37</ele>
        <time>2014-07-26T13:44:33Z</time>
      </trkpt>
      <trkpt lat="43.78313" lon="7.33841">
        <ele>142.89</ele>
        <time>2014-07-26T13:44:34Z</time>
      </trkpt>
      <trkpt lat="43.78313" lon="7.33847">
        <ele>141.93</ele>
        <time>2014-07-26T13:44:35Z</time>
      </trkpt>
      <trkpt lat="43.78314" lon="7.33855">
        <ele>141.45</ele>
        <time>2014-07-26T13:44:36Z</time>
      </trkpt>
      <trkpt lat="43.78314" lon="7.33863">
        <ele>140.49</ele>
        <time>2014-07-26T13:44:37Z</time>
      </trkpt>
      <trkpt lat="43.78312" lon="7.33886">
        <ele>138.57</ele>
        <time>2014-07-26T13:44:40Z</time>
      </trkpt>
      <trkpt lat="43.78308" lon="7.33893">
        <ele>137.61</ele>
        <time>2014-07-26T13:44:41Z</time>
      </trkpt>
      <trkpt lat="43.78298" lon="7.33907">
        <ele>135.68</ele>
        <time>2014-07-26T13:44:43Z</time>
      </trkpt>
      <trkpt lat="43.78295" lon="7.33915">
        <ele>135.2</ele>
        <time>2014-07-26T13:44:44Z</time>
      </trkpt>
      <trkpt lat="43.78292" lon="7.33921">
        <ele>134.24</ele>
        <time>2014-07-26T13:44:45Z</time>
      </trkpt>
      <trkpt lat="43.78284" lon="7.3393">
        <ele>132.8</ele>
        <time>2014-07-26T13:44:49Z</time>
      </trkpt>
      <trkpt lat="43.78282" lon="7.3393">
        <ele>132.8</ele>
        <time>2014-07-26T13:44:50Z</time>
      </trkpt>
      <trkpt lat="43.78279" lon="7.33929">
        <ele>132.32</ele>
        <time>2014-07-26T13:44:51Z</time>
      </trkpt>
      <trkpt lat="43.78275" lon="7.33928">
        <ele>132.32</ele>
        <time>2014-07-26T13:44:52Z</time>
      </trkpt>
      <trkpt lat="43.78271" lon="7.33926">
        <ele>132.32</ele>
        <time>2014-07-26T13:44:53Z</time>
      </trkpt>
      <trkpt lat="43.78261" lon="7.33923">
        <ele>131.84</ele>
        <time>2014-07-26T13:44:55Z</time>
      </trkpt>
      <trkpt lat="43.78257" lon="7.33922">
        <ele>131.36</ele>
        <time>2014-07-26T13:44:56Z</time>
      </trkpt>
      <trkpt lat="43.78235" lon="7.33913">
        <ele>130.88</ele>
        <time>2014-07-26T13:45:00Z</time>
      </trkpt>
      <trkpt lat="43.7823" lon="7.33909">
        <ele>130.4</ele>
        <time>2014-07-26T13:45:01Z</time>
      </trkpt>
      <trkpt lat="43.78225" lon="7.33904">
        <ele>129.92</ele>
        <time>2014-07-26T13:45:02Z</time>
      </trkpt>
      <trkpt lat="43.7822" lon="7.33898">
        <ele>129.92</ele>
        <time>2014-07-26T13:45:03Z</time>
      </trkpt>
      <trkpt lat="43.78215" lon="7.33892">
        <ele>129.43</ele>
        <time>2014-07-26T13:45:04Z</time>
      </trkpt>
      <trkpt lat="43.78158" lon="7.33802">
        <ele>124.63</ele>
        <time>2014-07-26T13:45:20Z</time>
      </trkpt>
      <trkpt lat="43.7815" lon="7.33788">
        <ele>124.15</ele>
        <time>2014-07-26T13:45:25Z</time>
      </trkpt>
      <trkpt lat="43.78151" lon="7.33784">
        <ele>124.15</ele>
        <time>2014-07-26T13:45:26Z</time>
      </trkpt>
      <trkpt lat="43.78157" lon="7.33758">
        <ele>124.15</ele>
        <time>2014-07-26T13:45:31Z</time>
      </trkpt>
      <trkpt lat="43.78156" lon="7.33751">
        <ele>124.63</ele>
        <time>2014-07-26T13:45:32Z</time>
      </trkpt>
      <trkpt lat="43.78153" lon="7.33746">
        <ele>124.63</ele>
        <time>2014-07-26T13:45:33Z</time>
      </trkpt>
      <trkpt lat="43.7815" lon="7.33741">
        <ele>124.63</ele>
        <time>2014-07-26T13:45:34Z</time>
      </trkpt>
      <trkpt lat="43.78146" lon="7.33738">
        <ele>124.63</ele>
        <time>2014-07-26T13:45:35Z</time>
      </trkpt>
      <trkpt lat="43.78142" lon="7.33736">
        <ele>124.63</ele>
        <time>2014-07-26T13:45:36Z</time>
      </trkpt>
      <trkpt lat="43.78138" lon="7.33735">
        <ele>125.11</ele>
        <time>2014-07-26T13:45:37Z</time>
      </trkpt>
      <trkpt lat="43.78134" lon="7.33736">
        <ele>125.11</ele>
        <time>2014-07-26T13:45:38Z</time>
      </trkpt>
      <trkpt lat="43.7813" lon="7.33737">
        <ele>125.59</ele>
        <time>2014-07-26T13:45:39Z</time>
      </trkpt>
      <trkpt lat="43.78126" lon="7.3374">
        <ele>126.07</ele>
        <time>2014-07-26T13:45:40Z</time>
      </trkpt>
      <trkpt lat="43.78122" lon="7.33745">
        <ele>126.07</ele>
        <time>2014-07-26T13:45:41Z</time>
      </trkpt>
      <trkpt lat="43.78119" lon="7.33751">
        <ele>126.55</ele>
        <time>2014-07-26T13:45:42Z</time>
      </trkpt>
      <trkpt lat="43.78116" lon="7.33757">
        <ele>126.55</ele>
        <time>2014-07-26T13:45:43Z</time>
      </trkpt>
      <trkpt lat="43.78116" lon="7.33764">
        <ele>126.55</ele>
        <time>2014-07-26T13:45:44Z</time>
      </trkpt>
      <trkpt lat="43.78116" lon="7.33772">
        <ele>127.03</ele>
        <time>2014-07-26T13:45:45Z</time>
      </trkpt>
      <trkpt lat="43.78114" lon="7.33778">
        <ele>127.51</ele>
        <time>2014-07-26T13:45:46Z</time>
      </trkpt>
      <trkpt lat="43.78111" lon="7.33782">
        <ele>127.99</ele>
        <time>2014-07-26T13:45:47Z</time>
      </trkpt>
      <trkpt lat="43.78107" lon="7.33783">
        <ele>127.99</ele>
        <time>2014-07-26T13:45:48Z</time>
      </trkpt>
      <trkpt lat="43.78102" lon="7.33784">
        <ele>127.99</ele>
        <time>2014-07-26T13:45:49Z</time>
      </trkpt>
      <trkpt lat="43.78097" lon="7.33784">
        <ele>128.47</ele>
        <time>2014-07-26T13:45:50Z</time>
      </trkpt>
      <trkpt lat="43.78058" lon="7.33782">
        <ele>129.92</ele>
        <time>2014-07-26T13:45:57Z</time>
      </trkpt>
      <trkpt lat="43.78036" lon="7.33783">
        <ele>129.92</ele>
        <time>2014-07-26T13:46:01Z</time>
      </trkpt>
      <trkpt lat="43.78015" lon="7.33788">
        <ele>129.92</ele>
        <time>2014-07-26T13:46:05Z</time>
      </trkpt>
      <trkpt lat="43.77983" lon="7.33793">
        <ele>130.4</ele>
        <time>2014-07-26T13:46:11Z</time>
      </trkpt>
      <trkpt lat="43.77962" lon="7.33793">
        <ele>130.4</ele>
        <time>2014-07-26T13:46:15Z</time>
      </trkpt>
      <trkpt lat="43.77956" lon="7.33793">
        <ele>130.4</ele>
        <time>2014-07-26T13:46:16Z</time>
      </trkpt>
      <trkpt lat="43.7794" lon="7.33793">
        <ele>129.92</ele>
        <time>2014-07-26T13:46:19Z</time>
      </trkpt>
      <trkpt lat="43.77876" lon="7.33799">
        <ele>128.95</ele>
        <time>2014-07-26T13:46:32Z</time>
      </trkpt>
      <trkpt lat="43.77871" lon="7.33799">
        <ele>128.95</ele>
        <time>2014-07-26T13:46:33Z</time>
      </trkpt>
      <trkpt lat="43.77865" lon="7.338">
        <ele>128.95</ele>
        <time>2014-07-26T13:46:34Z</time>
      </trkpt>
      <trkpt lat="43.7786" lon="7.33801">
        <ele>128.95</ele>
        <time>2014-07-26T13:46:35Z</time>
      </trkpt>
      <trkpt lat="43.77844" lon="7.33801">
        <ele>128.47</ele>
        <time>2014-07-26T13:46:38Z</time>
      </trkpt>
      <trkpt lat="43.77838" lon="7.33802">
        <ele>128.47</ele>
        <time>2014-07-26T13:46:39Z</time>
      </trkpt>
      <trkpt lat="43.77832" lon="7.33802">
        <ele>127.99</ele>
        <time>2014-07-26T13:46:40Z</time>
      </trkpt>
      <trkpt lat="43.77826" lon="7.33803">
        <ele>127.51</ele>
        <time>2014-07-26T13:46:41Z</time>
      </trkpt>
      <trkpt lat="43.77821" lon="7.33804">
        <ele>127.03</ele>
        <time>2014-07-26T13:46:42Z</time>
      </trkpt>
      <trkpt lat="43.77804" lon="7.33805">
        <ele>126.07</ele>
        <time>2014-07-26T13:46:45Z</time>
      </trkpt>
      <trkpt lat="43.77798" lon="7.33805">
        <ele>126.07</ele>
        <time>2014-07-26T13:46:46Z</time>
      </trkpt>
      <trkpt lat="43.77792" lon="7.33804">
        <ele>125.59</ele>
        <time>2014-07-26T13:46:47Z</time>
      </trkpt>
      <trkpt lat="43.77786" lon="7.33804">
        <ele>125.11</ele>
        <time>2014-07-26T13:46:48Z</time>
      </trkpt>
      <trkpt lat="43.7778" lon="7.33803">
        <ele>125.11</ele>
        <time>2014-07-26T13:46:49Z</time>
      </trkpt>
      <trkpt lat="43.77774" lon="7.33802">
        <ele>124.63</ele>
        <time>2014-07-26T13:46:50Z</time>
      </trkpt>
      <trkpt lat="43.77768" lon="7.33801">
        <ele>124.63</ele>
        <time>2014-07-26T13:46:51Z</time>
      </trkpt>
      <trkpt lat="43.77762" lon="7.33799">
        <ele>124.15</ele>
        <time>2014-07-26T13:46:52Z</time>
      </trkpt>
      <trkpt lat="43.77757" lon="7.33797">
        <ele>124.15</ele>
        <time>2014-07-26T13:46:53Z</time>
      </trkpt>
      <trkpt lat="43.77751" lon="7.33796">
        <ele>123.67</ele>
        <time>2014-07-26T13:46:54Z</time>
      </trkpt>
      <trkpt lat="43.77745" lon="7.33795">
        <ele>123.67</ele>
        <time>2014-07-26T13:46:55Z</time>
      </trkpt>
      <trkpt lat="43.7774" lon="7.33793">
        <ele>123.67</ele>
        <time>2014-07-26T13:46:56Z</time>
      </trkpt>
      <trkpt lat="43.77734" lon="7.33791">
        <ele>123.67</ele>
        <time>2014-07-26T13:46:57Z</time>
      </trkpt>
      <trkpt lat="43.77729" lon="7.33789">
        <ele>123.19</ele>
        <time>2014-07-26T13:46:58Z</time>
      </trkpt>
      <trkpt lat="43.77651" lon="7.33764">
        <ele>119.34</ele>
        <time>2014-07-26T13:47:11Z</time>
      </trkpt>
      <trkpt lat="43.77632" lon="7.33757">
        <ele>118.38</ele>
        <time>2014-07-26T13:47:14Z</time>
      </trkpt>
      <trkpt lat="43.77607" lon="7.3375">
        <ele>117.42</ele>
        <time>2014-07-26T13:47:18Z</time>
      </trkpt>
      <trkpt lat="43.7754" lon="7.33705">
        <ele>113.09</ele>
        <time>2014-07-26T13:47:31Z</time>
      </trkpt>
      <trkpt lat="43.77503" lon="7.33668">
        <ele>110.69</ele>
        <time>2014-07-26T13:47:40Z</time>
      </trkpt>
      <trkpt lat="43.77448" lon="7.33613">
        <ele>108.29</ele>
        <time>2014-07-26T13:47:54Z</time>
      </trkpt>
      <trkpt lat="43.77443" lon="7.33609">
        <ele>108.29</ele>
        <time>2014-07-26T13:47:55Z</time>
      </trkpt>
      <trkpt lat="43.77392" lon="7.33552">
        <ele>104.92</ele>
        <time>2014-07-26T13:48:07Z</time>
      </trkpt>
      <trkpt lat="43.77387" lon="7.33548">
        <ele>104.44</ele>
        <time>2014-07-26T13:48:08Z</time>
      </trkpt>
      <trkpt lat="43.77374" lon="7.33534">
        <ele>103.96</ele>
        <time>2014-07-26T13:48:11Z</time>
      </trkpt>
      <trkpt lat="43.77348" lon="7.335">
        <ele>103.48</ele>
        <time>2014-07-26T13:48:18Z</time>
      </trkpt>
      <trkpt lat="43.77344" lon="7.33495">
        <ele>103.48</ele>
        <time>2014-07-26T13:48:19Z</time>
      </trkpt>
      <trkpt lat="43.77306" lon="7.33418">
        <ele>100.6</ele>
        <time>2014-07-26T13:48:33Z</time>
      </trkpt>
      <trkpt lat="43.77303" lon="7.33413">
        <ele>100.6</ele>
        <time>2014-07-26T13:48:34Z</time>
      </trkpt>
      <trkpt lat="43.77301" lon="7.33407">
        <ele>100.11</ele>
        <time>2014-07-26T13:48:35Z</time>
      </trkpt>
      <trkpt lat="43.77296" lon="7.33396">
        <ele>99.63</ele>
        <time>2014-07-26T13:48:37Z</time>
      </trkpt>
      <trkpt lat="43.77294" lon="7.3339">
        <ele>99.63</ele>
        <time>2014-07-26T13:48:38Z</time>
      </trkpt>
      <trkpt lat="43.77284" lon="7.33368">
        <ele>98.67</ele>
        <time>2014-07-26T13:48:42Z</time>
      </trkpt>
      <trkpt lat="43.77245" lon="7.33317">
        <ele>97.71</ele>
        <time>2014-07-26T13:48:53Z</time>
      </trkpt>
      <trkpt lat="43.7724" lon="7.33314">
        <ele>98.19</ele>
        <time>2014-07-26T13:48:54Z</time>
      </trkpt>
      <trkpt lat="43.77235" lon="7.33312">
        <ele>98.19</ele>
        <time>2014-07-26T13:48:55Z</time>
      </trkpt>
      <trkpt lat="43.77229" lon="7.3331">
        <ele>98.19</ele>
        <time>2014-07-26T13:48:56Z</time>
      </trkpt>
      <trkpt lat="43.77224" lon="7.33308">
        <ele>98.67</ele>
        <time>2014-07-26T13:48:57Z</time>
      </trkpt>
      <trkpt lat="43.77191" lon="7.33299">
        <ele>98.19</ele>
        <time>2014-07-26T13:49:03Z</time>
      </trkpt>
      <trkpt lat="43.77186" lon="7.33299">
        <ele>98.19</ele>
        <time>2014-07-26T13:49:04Z</time>
      </trkpt>
      <trkpt lat="43.77181" lon="7.33298">
        <ele>98.19</ele>
        <time>2014-07-26T13:49:05Z</time>
      </trkpt>
      <trkpt lat="43.77175" lon="7.33299">
        <ele>98.19</ele>
        <time>2014-07-26T13:49:06Z</time>
      </trkpt>
      <trkpt lat="43.77169" lon="7.33301">
        <ele>98.19</ele>
        <time>2014-07-26T13:49:07Z</time>
      </trkpt>
      <trkpt lat="43.77162" lon="7.33302">
        <ele>98.19</ele>
        <time>2014-07-26T13:49:08Z</time>
      </trkpt>
      <trkpt lat="43.77143" lon="7.33305">
        <ele>98.19</ele>
        <time>2014-07-26T13:49:11Z</time>
      </trkpt>
      <trkpt lat="43.77136" lon="7.33304">
        <ele>98.19</ele>
        <time>2014-07-26T13:49:12Z</time>
      </trkpt>
      <trkpt lat="43.77094" lon="7.33301">
        <ele>96.75</ele>
        <time>2014-07-26T13:49:19Z</time>
      </trkpt>
      <trkpt lat="43.77088" lon="7.33301">
        <ele>96.75</ele>
        <time>2014-07-26T13:49:20Z</time>
      </trkpt>
      <trkpt lat="43.77083" lon="7.333">
        <ele>96.75</ele>
        <time>2014-07-26T13:49:21Z</time>
      </trkpt>
      <trkpt lat="43.7707" lon="7.33297">
        <ele>96.27</ele>
        <time>2014-07-26T13:49:23Z</time>
      </trkpt>
      <trkpt lat="43.77008" lon="7.33265">
        <ele>94.35</ele>
        <time>2014-07-26T13:49:34Z</time>
      </trkpt>
      <trkpt lat="43.76981" lon="7.33251">
        <ele>93.39</ele>
        <time>2014-07-26T13:49:39Z</time>
      </trkpt>
      <trkpt lat="43.76976" lon="7.33249">
        <ele>92.9</ele>
        <time>2014-07-26T13:49:40Z</time>
      </trkpt>
      <trkpt lat="43.76971" lon="7.33248">
        <ele>92.9</ele>
        <time>2014-07-26T13:49:41Z</time>
      </trkpt>
      <trkpt lat="43.76922" lon="7.3323">
        <ele>90.5</ele>
        <time>2014-07-26T13:49:50Z</time>
      </trkpt>
      <trkpt lat="43.76917" lon="7.33227">
        <ele>90.02</ele>
        <time>2014-07-26T13:49:51Z</time>
      </trkpt>
      <trkpt lat="43.76892" lon="7.33209">
        <ele>88.58</ele>
        <time>2014-07-26T13:49:56Z</time>
      </trkpt>
      <trkpt lat="43.76874" lon="7.33191">
        <ele>87.14</ele>
        <time>2014-07-26T13:50:00Z</time>
      </trkpt>
      <trkpt lat="43.76861" lon="7.33177">
        <ele>86.18</ele>
        <time>2014-07-26T13:50:03Z</time>
      </trkpt>
      <trkpt lat="43.76853" lon="7.33168">
        <ele>85.69</ele>
        <time>2014-07-26T13:50:05Z</time>
      </trkpt>
      <trkpt lat="43.76849" lon="7.33163">
        <ele>85.69</ele>
        <time>2014-07-26T13:50:06Z</time>
      </trkpt>
      <trkpt lat="43.76842" lon="7.33152">
        <ele>86.66</ele>
        <time>2014-07-26T13:50:08Z</time>
      </trkpt>
      <trkpt lat="43.76838" lon="7.33146">
        <ele>87.62</ele>
        <time>2014-07-26T13:50:09Z</time>
      </trkpt>
      <trkpt lat="43.76834" lon="7.33143">
        <ele>89.06</ele>
        <time>2014-07-26T13:50:10Z</time>
      </trkpt>
      <trkpt lat="43.7683" lon="7.3314">
        <ele>90.98</ele>
        <time>2014-07-26T13:50:11Z</time>
      </trkpt>
      <trkpt lat="43.76826" lon="7.33137">
        <ele>93.39</ele>
        <time>2014-07-26T13:50:12Z</time>
      </trkpt>
      <trkpt lat="43.76822" lon="7.33135">
        <ele>94.35</ele>
        <time>2014-07-26T13:50:13Z</time>
      </trkpt>
      <trkpt lat="43.7681" lon="7.33132">
        <ele>96.75</ele>
        <time>2014-07-26T13:50:16Z</time>
      </trkpt>
      <trkpt lat="43.76806" lon="7.3313">
        <ele>98.19</ele>
        <time>2014-07-26T13:50:17Z</time>
      </trkpt>
      <trkpt lat="43.76802" lon="7.33127">
        <ele>99.15</ele>
        <time>2014-07-26T13:50:18Z</time>
      </trkpt>
      <trkpt lat="43.76799" lon="7.33124">
        <ele>100.11</ele>
        <time>2014-07-26T13:50:19Z</time>
      </trkpt>
      <trkpt lat="43.76795" lon="7.33121">
        <ele>100.6</ele>
        <time>2014-07-26T13:50:20Z</time>
      </trkpt>
      <trkpt lat="43.76792" lon="7.33118">
        <ele>101.08</ele>
        <time>2014-07-26T13:50:21Z</time>
      </trkpt>
      <trkpt lat="43.76762" lon="7.33092">
        <ele>103.96</ele>
        <time>2014-07-26T13:50:30Z</time>
      </trkpt>
      <trkpt lat="43.76734" lon="7.3307">
        <ele>107.32</ele>
        <time>2014-07-26T13:50:38Z</time>
      </trkpt>
      <trkpt lat="43.76685" lon="7.3303">
        <ele>110.69</ele>
        <time>2014-07-26T13:50:52Z</time>
      </trkpt>
      <trkpt lat="43.76615" lon="7.32975">
        <ele>110.69</ele>
        <time>2014-07-26T13:51:05Z</time>
      </trkpt>
      <trkpt lat="43.76529" lon="7.32905">
        <ele>109.73</ele>
        <time>2014-07-26T13:51:17Z</time>
      </trkpt>
      <trkpt lat="43.76523" lon="7.32897">
        <ele>109.73</ele>
        <time>2014-07-26T13:51:18Z</time>
      </trkpt>
      <trkpt lat="43.76507" lon="7.3287">
        <ele>109.73</ele>
        <time>2014-07-26T13:51:21Z</time>
      </trkpt>
      <trkpt lat="43.76495" lon="7.32856">
        <ele>109.73</ele>
        <time>2014-07-26T13:51:23Z</time>
      </trkpt>
      <trkpt lat="43.76476" lon="7.32826">
        <ele>109.73</ele>
        <time>2014-07-26T13:51:27Z</time>
      </trkpt>
      <trkpt lat="43.76468" lon="7.32809">
        <ele>109.73</ele>
        <time>2014-07-26T13:51:29Z</time>
      </trkpt>
      <trkpt lat="43.76466" lon="7.328">
        <ele>109.73</ele>
        <time>2014-07-26T13:51:30Z</time>
      </trkpt>
      <trkpt lat="43.76464" lon="7.32792">
        <ele>109.73</ele>
        <time>2014-07-26T13:51:31Z</time>
      </trkpt>
      <trkpt lat="43.76463" lon="7.32783">
        <ele>109.73</ele>
        <time>2014-07-26T13:51:32Z</time>
      </trkpt>
      <trkpt lat="43.76462" lon="7.32774">
        <ele>109.73</ele>
        <time>2014-07-26T13:51:33Z</time>
      </trkpt>
      <trkpt lat="43.76461" lon="7.32756">
        <ele>109.73</ele>
        <time>2014-07-26T13:51:35Z</time>
      </trkpt>
      <trkpt lat="43.7646" lon="7.32749">
        <ele>109.73</ele>
        <time>2014-07-26T13:51:36Z</time>
      </trkpt>
      <trkpt lat="43.76459" lon="7.32741">
        <ele>109.73</ele>
        <time>2014-07-26T13:51:37Z</time>
      </trkpt>
      <trkpt lat="43.76456" lon="7.32719">
        <ele>109.73</ele>
        <time>2014-07-26T13:51:40Z</time>
      </trkpt>
      <trkpt lat="43.76455" lon="7.32711">
        <ele>109.25</ele>
        <time>2014-07-26T13:51:41Z</time>
      </trkpt>
      <trkpt lat="43.76454" lon="7.32704">
        <ele>109.25</ele>
        <time>2014-07-26T13:51:42Z</time>
      </trkpt>
      <trkpt lat="43.76442" lon="7.32638">
        <ele>109.25</ele>
        <time>2014-07-26T13:51:50Z</time>
      </trkpt>
      <trkpt lat="43.76441" lon="7.32629">
        <ele>109.25</ele>
        <time>2014-07-26T13:51:51Z</time>
      </trkpt>
      <trkpt lat="43.7644" lon="7.32621">
        <ele>108.77</ele>
        <time>2014-07-26T13:51:52Z</time>
      </trkpt>
      <trkpt lat="43.76441" lon="7.32593">
        <ele>108.77</ele>
        <time>2014-07-26T13:51:55Z</time>
      </trkpt>
      <trkpt lat="43.76441" lon="7.32584">
        <ele>108.77</ele>
        <time>2014-07-26T13:51:56Z</time>
      </trkpt>
      <trkpt lat="43.76447" lon="7.32523">
        <ele>107.32</ele>
        <time>2014-07-26T13:52:03Z</time>
      </trkpt>
      <trkpt lat="43.76453" lon="7.3249">
        <ele>106.84</ele>
        <time>2014-07-26T13:52:07Z</time>
      </trkpt>
      <trkpt lat="43.76451" lon="7.32452">
        <ele>106.84</ele>
        <time>2014-07-26T13:52:12Z</time>
      </trkpt>
      <trkpt lat="43.76452" lon="7.32444">
        <ele>106.84</ele>
        <time>2014-07-26T13:52:13Z</time>
      </trkpt>
      <trkpt lat="43.76453" lon="7.32405">
        <ele>106.84</ele>
        <time>2014-07-26T13:52:18Z</time>
      </trkpt>
      <trkpt lat="43.76454" lon="7.32383">
        <ele>106.84</ele>
        <time>2014-07-26T13:52:21Z</time>
      </trkpt>
      <trkpt lat="43.76452" lon="7.32353">
        <ele>106.84</ele>
        <time>2014-07-26T13:52:25Z</time>
      </trkpt>
      <trkpt lat="43.76452" lon="7.32346">
        <ele>106.84</ele>
        <time>2014-07-26T13:52:26Z</time>
      </trkpt>
      <trkpt lat="43.76431" lon="7.32253">
        <ele>105.88</ele>
        <time>2014-07-26T13:52:39Z</time>
      </trkpt>
      <trkpt lat="43.76428" lon="7.32246">
        <ele>105.88</ele>
        <time>2014-07-26T13:52:40Z</time>
      </trkpt>
      <trkpt lat="43.76424" lon="7.3224">
        <ele>105.88</ele>
        <time>2014-07-26T13:52:41Z</time>
      </trkpt>
      <trkpt lat="43.7642" lon="7.32234">
        <ele>105.88</ele>
        <time>2014-07-26T13:52:42Z</time>
      </trkpt>
      <trkpt lat="43.76415" lon="7.32229">
        <ele>105.88</ele>
        <time>2014-07-26T13:52:43Z</time>
      </trkpt>
      <trkpt lat="43.76411" lon="7.32224">
        <ele>105.4</ele>
        <time>2014-07-26T13:52:44Z</time>
      </trkpt>
      <trkpt lat="43.76402" lon="7.32215">
        <ele>105.4</ele>
        <time>2014-07-26T13:52:46Z</time>
      </trkpt>
      <trkpt lat="43.76398" lon="7.32212">
        <ele>105.4</ele>
        <time>2014-07-26T13:52:47Z</time>
      </trkpt>
      <trkpt lat="43.76394" lon="7.32209">
        <ele>105.4</ele>
        <time>2014-07-26T13:52:48Z</time>
      </trkpt>
      <trkpt lat="43.76385" lon="7.32205">
        <ele>105.4</ele>
        <time>2014-07-26T13:52:50Z</time>
      </trkpt>
      <trkpt lat="43.76379" lon="7.32203">
        <ele>104.92</ele>
        <time>2014-07-26T13:52:51Z</time>
      </trkpt>
      <trkpt lat="43.76314" lon="7.32189">
        <ele>103.48</ele>
        <time>2014-07-26T13:53:02Z</time>
      </trkpt>
      <trkpt lat="43.76254" lon="7.32159">
        <ele>103</ele>
        <time>2014-07-26T13:53:13Z</time>
      </trkpt>
      <trkpt lat="43.76244" lon="7.32151">
        <ele>103</ele>
        <time>2014-07-26T13:53:15Z</time>
      </trkpt>
      <trkpt lat="43.76181" lon="7.32094">
        <ele>102.52</ele>
        <time>2014-07-26T13:53:28Z</time>
      </trkpt>
      <trkpt lat="43.76143" lon="7.32052">
        <ele>102.04</ele>
        <time>2014-07-26T13:53:37Z</time>
      </trkpt>
      <trkpt lat="43.76138" lon="7.32048">
        <ele>102.04</ele>
        <time>2014-07-26T13:53:38Z</time>
      </trkpt>
      <trkpt lat="43.76133" lon="7.32045">
        <ele>102.04</ele>
        <time>2014-07-26T13:53:39Z</time>
      </trkpt>
      <trkpt lat="43.76128" lon="7.32041">
        <ele>102.04</ele>
        <time>2014-07-26T13:53:40Z</time>
      </trkpt>
      <trkpt lat="43.76123" lon="7.32037">
        <ele>102.04</ele>
        <time>2014-07-26T13:53:41Z</time>
      </trkpt>
      <trkpt lat="43.76094" lon="7.32009">
        <ele>101.56</ele>
        <time>2014-07-26T13:53:47Z</time>
      </trkpt>
      <trkpt lat="43.76088" lon="7.32005">
        <ele>101.56</ele>
        <time>2014-07-26T13:53:48Z</time>
      </trkpt>
      <trkpt lat="43.76084" lon="7.32">
        <ele>101.56</ele>
        <time>2014-07-26T13:53:49Z</time>
      </trkpt>
      <trkpt lat="43.76051" lon="7.31969">
        <ele>101.56</ele>
        <time>2014-07-26T13:53:56Z</time>
      </trkpt>
      <trkpt lat="43.76045" lon="7.31967">
        <ele>101.56</ele>
        <time>2014-07-26T13:53:57Z</time>
      </trkpt>
      <trkpt lat="43.76039" lon="7.31966">
        <ele>101.08</ele>
        <time>2014-07-26T13:53:58Z</time>
      </trkpt>
      <trkpt lat="43.76028" lon="7.31967">
        <ele>100.6</ele>
        <time>2014-07-26T13:54:00Z</time>
      </trkpt>
      <trkpt lat="43.76022" lon="7.31968">
        <ele>100.6</ele>
        <time>2014-07-26T13:54:01Z</time>
      </trkpt>
      <trkpt lat="43.76016" lon="7.3197">
        <ele>100.11</ele>
        <time>2014-07-26T13:54:02Z</time>
      </trkpt>
      <trkpt lat="43.7601" lon="7.31972">
        <ele>100.11</ele>
        <time>2014-07-26T13:54:03Z</time>
      </trkpt>
      <trkpt lat="43.76003" lon="7.31974">
        <ele>99.63</ele>
        <time>2014-07-26T13:54:04Z</time>
      </trkpt>
      <trkpt lat="43.75961" lon="7.31996">
        <ele>98.19</ele>
        <time>2014-07-26T13:54:11Z</time>
      </trkpt>
      <trkpt lat="43.75956" lon="7.31999">
        <ele>98.19</ele>
        <time>2014-07-26T13:54:12Z</time>
      </trkpt>
      <trkpt lat="43.75939" lon="7.32008">
        <ele>97.71</ele>
        <time>2014-07-26T13:54:15Z</time>
      </trkpt>
      <trkpt lat="43.75934" lon="7.3201">
        <ele>97.71</ele>
        <time>2014-07-26T13:54:16Z</time>
      </trkpt>
      <trkpt lat="43.75922" lon="7.32016">
        <ele>97.71</ele>
        <time>2014-07-26T13:54:18Z</time>
      </trkpt>
      <trkpt lat="43.75917" lon="7.32018">
        <ele>97.71</ele>
        <time>2014-07-26T13:54:19Z</time>
      </trkpt>
      <trkpt lat="43.75901" lon="7.32027">
        <ele>98.19</ele>
        <time>2014-07-26T13:54:22Z</time>
      </trkpt>
      <trkpt lat="43.75895" lon="7.3203">
        <ele>98.19</ele>
        <time>2014-07-26T13:54:23Z</time>
      </trkpt>
      <trkpt lat="43.75884" lon="7.32034">
        <ele>98.19</ele>
        <time>2014-07-26T13:54:25Z</time>
      </trkpt>
      <trkpt lat="43.75835" lon="7.32043">
        <ele>97.71</ele>
        <time>2014-07-26T13:54:33Z</time>
      </trkpt>
      <trkpt lat="43.75829" lon="7.32044">
        <ele>97.71</ele>
        <time>2014-07-26T13:54:34Z</time>
      </trkpt>
      <trkpt lat="43.75811" lon="7.32048">
        <ele>97.71</ele>
        <time>2014-07-26T13:54:37Z</time>
      </trkpt>
      <trkpt lat="43.75805" lon="7.32049">
        <ele>97.71</ele>
        <time>2014-07-26T13:54:38Z</time>
      </trkpt>
      <trkpt lat="43.75759" lon="7.32054">
        <ele>96.27</ele>
        <time>2014-07-26T13:54:46Z</time>
      </trkpt>
      <trkpt lat="43.75754" lon="7.32055">
        <ele>96.27</ele>
        <time>2014-07-26T13:54:47Z</time>
      </trkpt>
      <trkpt lat="43.75748" lon="7.32055">
        <ele>95.79</ele>
        <time>2014-07-26T13:54:48Z</time>
      </trkpt>
      <trkpt lat="43.75722" lon="7.32057">
        <ele>95.31</ele>
        <time>2014-07-26T13:54:53Z</time>
      </trkpt>
      <trkpt lat="43.75652" lon="7.32056">
        <ele>93.87</ele>
        <time>2014-07-26T13:55:05Z</time>
      </trkpt>
      <trkpt lat="43.75633" lon="7.32054">
        <ele>93.87</ele>
        <time>2014-07-26T13:55:08Z</time>
      </trkpt>
      <trkpt lat="43.75547" lon="7.32047">
        <ele>90.5</ele>
        <time>2014-07-26T13:55:21Z</time>
      </trkpt>
      <trkpt lat="43.75501" lon="7.32035">
        <ele>89.06</ele>
        <time>2014-07-26T13:55:30Z</time>
      </trkpt>
      <trkpt lat="43.75496" lon="7.32032">
        <ele>89.06</ele>
        <time>2014-07-26T13:55:31Z</time>
      </trkpt>
      <trkpt lat="43.75491" lon="7.3203">
        <ele>88.58</ele>
        <time>2014-07-26T13:55:32Z</time>
      </trkpt>
      <trkpt lat="43.75486" lon="7.32028">
        <ele>88.58</ele>
        <time>2014-07-26T13:55:33Z</time>
      </trkpt>
      <trkpt lat="43.7548" lon="7.32027">
        <ele>88.1</ele>
        <time>2014-07-26T13:55:34Z</time>
      </trkpt>
      <trkpt lat="43.75475" lon="7.32026">
        <ele>88.1</ele>
        <time>2014-07-26T13:55:35Z</time>
      </trkpt>
      <trkpt lat="43.75436" lon="7.3203">
        <ele>86.18</ele>
        <time>2014-07-26T13:55:42Z</time>
      </trkpt>
      <trkpt lat="43.75431" lon="7.32031">
        <ele>85.69</ele>
        <time>2014-07-26T13:55:43Z</time>
      </trkpt>
      <trkpt lat="43.75412" lon="7.32035">
        <ele>84.73</ele>
        <time>2014-07-26T13:55:46Z</time>
      </trkpt>
      <trkpt lat="43.75407" lon="7.32038">
        <ele>84.73</ele>
        <time>2014-07-26T13:55:47Z</time>
      </trkpt>
      <trkpt lat="43.75403" lon="7.32042">
        <ele>84.73</ele>
        <time>2014-07-26T13:55:48Z</time>
      </trkpt>
      <trkpt lat="43.75399" lon="7.32046">
        <ele>84.73</ele>
        <time>2014-07-26T13:55:49Z</time>
      </trkpt>
      <trkpt lat="43.75395" lon="7.32049">
        <ele>85.21</ele>
        <time>2014-07-26T13:55:50Z</time>
      </trkpt>
      <trkpt lat="43.75389" lon="7.32053">
        <ele>85.69</ele>
        <time>2014-07-26T13:55:51Z</time>
      </trkpt>
      <trkpt lat="43.75377" lon="7.32059">
        <ele>86.18</ele>
        <time>2014-07-26T13:55:53Z</time>
      </trkpt>
      <trkpt lat="43.75371" lon="7.32063">
        <ele>86.66</ele>
        <time>2014-07-26T13:55:54Z</time>
      </trkpt>
      <trkpt lat="43.75329" lon="7.3208">
        <ele>87.62</ele>
        <time>2014-07-26T13:56:01Z</time>
      </trkpt>
      <trkpt lat="43.75324" lon="7.32083">
        <ele>88.1</ele>
        <time>2014-07-26T13:56:02Z</time>
      </trkpt>
      <trkpt lat="43.75318" lon="7.32084">
        <ele>88.1</ele>
        <time>2014-07-26T13:56:03Z</time>
      </trkpt>
      <trkpt lat="43.75312" lon="7.32085">
        <ele>88.1</ele>
        <time>2014-07-26T13:56:04Z</time>
      </trkpt>
      <trkpt lat="43.75307" lon="7.32086">
        <ele>88.58</ele>
        <time>2014-07-26T13:56:05Z</time>
      </trkpt>
      <trkpt lat="43.75301" lon="7.32087">
        <ele>88.58</ele>
        <time>2014-07-26T13:56:06Z</time>
      </trkpt>
      <trkpt lat="43.75295" lon="7.32088">
        <ele>89.06</ele>
        <time>2014-07-26T13:56:07Z</time>
      </trkpt>
      <trkpt lat="43.75289" lon="7.32088">
        <ele>89.06</ele>
        <time>2014-07-26T13:56:08Z</time>
      </trkpt>
      <trkpt lat="43.75267" lon="7.32084">
        <ele>90.02</ele>
        <time>2014-07-26T13:56:12Z</time>
      </trkpt>
      <trkpt lat="43.75261" lon="7.32083">
        <ele>90.5</ele>
        <time>2014-07-26T13:56:13Z</time>
      </trkpt>
      <trkpt lat="43.75255" lon="7.32082">
        <ele>90.98</ele>
        <time>2014-07-26T13:56:14Z</time>
      </trkpt>
      <trkpt lat="43.75249" lon="7.3208">
        <ele>90.98</ele>
        <time>2014-07-26T13:56:15Z</time>
      </trkpt>
      <trkpt lat="43.75243" lon="7.32077">
        <ele>90.98</ele>
        <time>2014-07-26T13:56:16Z</time>
      </trkpt>
      <trkpt lat="43.75237" lon="7.32073">
        <ele>90.98</ele>
        <time>2014-07-26T13:56:17Z</time>
      </trkpt>
      <trkpt lat="43.75221" lon="7.32064">
        <ele>90.98</ele>
        <time>2014-07-26T13:56:20Z</time>
      </trkpt>
      <trkpt lat="43.75215" lon="7.32061">
        <ele>90.98</ele>
        <time>2014-07-26T13:56:21Z</time>
      </trkpt>
      <trkpt lat="43.75209" lon="7.32059">
        <ele>90.98</ele>
        <time>2014-07-26T13:56:22Z</time>
      </trkpt>
      <trkpt lat="43.75204" lon="7.32056">
        <ele>90.98</ele>
        <time>2014-07-26T13:56:23Z</time>
      </trkpt>
      <trkpt lat="43.75198" lon="7.32052">
        <ele>90.98</ele>
        <time>2014-07-26T13:56:24Z</time>
      </trkpt>
      <trkpt lat="43.75175" lon="7.3204">
        <ele>90.98</ele>
        <time>2014-07-26T13:56:28Z</time>
      </trkpt>
      <trkpt lat="43.7517" lon="7.32038">
        <ele>90.98</ele>
        <time>2014-07-26T13:56:29Z</time>
      </trkpt>
      <trkpt lat="43.75125" lon="7.32015">
        <ele>92.9</ele>
        <time>2014-07-26T13:56:37Z</time>
      </trkpt>
      <trkpt lat="43.75098" lon="7.31991">
        <ele>92.42</ele>
        <time>2014-07-26T13:56:43Z</time>
      </trkpt>
      <trkpt lat="43.75094" lon="7.31988">
        <ele>91.94</ele>
        <time>2014-07-26T13:56:44Z</time>
      </trkpt>
      <trkpt lat="43.75089" lon="7.31986">
        <ele>91.94</ele>
        <time>2014-07-26T13:56:45Z</time>
      </trkpt>
      <trkpt lat="43.7508" lon="7.31984">
        <ele>91.46</ele>
        <time>2014-07-26T13:56:47Z</time>
      </trkpt>
      <trkpt lat="43.75045" lon="7.3198">
        <ele>90.98</ele>
        <time>2014-07-26T13:56:54Z</time>
      </trkpt>
      <trkpt lat="43.7504" lon="7.31981">
        <ele>90.98</ele>
        <time>2014-07-26T13:56:55Z</time>
      </trkpt>
      <trkpt lat="43.75025" lon="7.31981">
        <ele>90.5</ele>
        <time>2014-07-26T13:56:58Z</time>
      </trkpt>
      <trkpt lat="43.7502" lon="7.31982">
        <ele>90.5</ele>
        <time>2014-07-26T13:56:59Z</time>
      </trkpt>
      <trkpt lat="43.74991" lon="7.3199">
        <ele>90.02</ele>
        <time>2014-07-26T13:57:05Z</time>
      </trkpt>
      <trkpt lat="43.74971" lon="7.32">
        <ele>89.06</ele>
        <time>2014-07-26T13:57:09Z</time>
      </trkpt>
      <trkpt lat="43.74967" lon="7.32003">
        <ele>88.58</ele>
        <time>2014-07-26T13:57:10Z</time>
      </trkpt>
      <trkpt lat="43.74963" lon="7.32006">
        <ele>88.1</ele>
        <time>2014-07-26T13:57:11Z</time>
      </trkpt>
      <trkpt lat="43.74958" lon="7.32008">
        <ele>87.62</ele>
        <time>2014-07-26T13:57:12Z</time>
      </trkpt>
      <trkpt lat="43.74953" lon="7.3201">
        <ele>87.62</ele>
        <time>2014-07-26T13:57:13Z</time>
      </trkpt>
      <trkpt lat="43.74947" lon="7.32013">
        <ele>87.62</ele>
        <time>2014-07-26T13:57:14Z</time>
      </trkpt>
      <trkpt lat="43.74933" lon="7.32021">
        <ele>86.66</ele>
        <time>2014-07-26T13:57:17Z</time>
      </trkpt>
      <trkpt lat="43.74901" lon="7.32037">
        <ele>86.66</ele>
        <time>2014-07-26T13:57:24Z</time>
      </trkpt>
      <trkpt lat="43.74896" lon="7.32039">
        <ele>86.66</ele>
        <time>2014-07-26T13:57:25Z</time>
      </trkpt>
      <trkpt lat="43.74865" lon="7.32059">
        <ele>84.73</ele>
        <time>2014-07-26T13:57:32Z</time>
      </trkpt>
      <trkpt lat="43.74856" lon="7.32067">
        <ele>84.73</ele>
        <time>2014-07-26T13:57:34Z</time>
      </trkpt>
      <trkpt lat="43.74838" lon="7.32081">
        <ele>83.77</ele>
        <time>2014-07-26T13:57:38Z</time>
      </trkpt>
      <trkpt lat="43.74814" lon="7.32095">
        <ele>82.33</ele>
        <time>2014-07-26T13:57:43Z</time>
      </trkpt>
      <trkpt lat="43.7481" lon="7.32096">
        <ele>82.33</ele>
        <time>2014-07-26T13:57:44Z</time>
      </trkpt>
      <trkpt lat="43.74805" lon="7.32097">
        <ele>82.33</ele>
        <time>2014-07-26T13:57:45Z</time>
      </trkpt>
      <trkpt lat="43.748" lon="7.32097">
        <ele>81.85</ele>
        <time>2014-07-26T13:57:46Z</time>
      </trkpt>
      <trkpt lat="43.74795" lon="7.32096">
        <ele>81.85</ele>
        <time>2014-07-26T13:57:47Z</time>
      </trkpt>
      <trkpt lat="43.74786" lon="7.32095">
        <ele>81.37</ele>
        <time>2014-07-26T13:57:49Z</time>
      </trkpt>
      <trkpt lat="43.74781" lon="7.32093">
        <ele>81.37</ele>
        <time>2014-07-26T13:57:50Z</time>
      </trkpt>
      <trkpt lat="43.74772" lon="7.32089">
        <ele>80.89</ele>
        <time>2014-07-26T13:57:52Z</time>
      </trkpt>
      <trkpt lat="43.74768" lon="7.32086">
        <ele>80.89</ele>
        <time>2014-07-26T13:57:53Z</time>
      </trkpt>
      <trkpt lat="43.74743" lon="7.32057">
        <ele>80.41</ele>
        <time>2014-07-26T13:58:00Z</time>
      </trkpt>
      <trkpt lat="43.7474" lon="7.32052">
        <ele>80.41</ele>
        <time>2014-07-26T13:58:01Z</time>
      </trkpt>
      <trkpt lat="43.74726" lon="7.32035">
        <ele>79.93</ele>
        <time>2014-07-26T13:58:05Z</time>
      </trkpt>
      <trkpt lat="43.74718" lon="7.32028">
        <ele>79.93</ele>
        <time>2014-07-26T13:58:07Z</time>
      </trkpt>
      <trkpt lat="43.74714" lon="7.32025">
        <ele>79.93</ele>
        <time>2014-07-26T13:58:08Z</time>
      </trkpt>
      <trkpt lat="43.74709" lon="7.32021">
        <ele>79.93</ele>
        <time>2014-07-26T13:58:09Z</time>
      </trkpt>
      <trkpt lat="43.74649" lon="7.31992">
        <ele>79.45</ele>
        <time>2014-07-26T13:58:21Z</time>
      </trkpt>
      <trkpt lat="43.74645" lon="7.31989">
        <ele>79.45</ele>
        <time>2014-07-26T13:58:22Z</time>
      </trkpt>
      <trkpt lat="43.7464" lon="7.31985">
        <ele>79.45</ele>
        <time>2014-07-26T13:58:23Z</time>
      </trkpt>
      <trkpt lat="43.74635" lon="7.31982">
        <ele>79.45</ele>
        <time>2014-07-26T13:58:24Z</time>
      </trkpt>
      <trkpt lat="43.74631" lon="7.31978">
        <ele>78.97</ele>
        <time>2014-07-26T13:58:25Z</time>
      </trkpt>
      <trkpt lat="43.74627" lon="7.31974">
        <ele>78.97</ele>
        <time>2014-07-26T13:58:26Z</time>
      </trkpt>
      <trkpt lat="43.74623" lon="7.3197">
        <ele>78.97</ele>
        <time>2014-07-26T13:58:27Z</time>
      </trkpt>
      <trkpt lat="43.74619" lon="7.31966">
        <ele>78.97</ele>
        <time>2014-07-26T13:58:28Z</time>
      </trkpt>
      <trkpt lat="43.74601" lon="7.31942">
        <ele>78.48</ele>
        <time>2014-07-26T13:58:33Z</time>
      </trkpt>
      <trkpt lat="43.74598" lon="7.31936">
        <ele>78.48</ele>
        <time>2014-07-26T13:58:34Z</time>
      </trkpt>
      <trkpt lat="43.74589" lon="7.31918">
        <ele>78</ele>
        <time>2014-07-26T13:58:37Z</time>
      </trkpt>
      <trkpt lat="43.74578" lon="7.31865">
        <ele>78</ele>
        <time>2014-07-26T13:58:44Z</time>
      </trkpt>
      <trkpt lat="43.74578" lon="7.3184">
        <ele>78.48</ele>
        <time>2014-07-26T13:58:47Z</time>
      </trkpt>
      <trkpt lat="43.7458" lon="7.31817">
        <ele>78.48</ele>
        <time>2014-07-26T13:58:50Z</time>
      </trkpt>
      <trkpt lat="43.74579" lon="7.3181">
        <ele>78.48</ele>
        <time>2014-07-26T13:58:51Z</time>
      </trkpt>
      <trkpt lat="43.74578" lon="7.31803">
        <ele>78.48</ele>
        <time>2014-07-26T13:58:52Z</time>
      </trkpt>
      <trkpt lat="43.74576" lon="7.31796">
        <ele>78.48</ele>
        <time>2014-07-26T13:58:53Z</time>
      </trkpt>
      <trkpt lat="43.74573" lon="7.3179">
        <ele>78.48</ele>
        <time>2014-07-26T13:58:54Z</time>
      </trkpt>
      <trkpt lat="43.7457" lon="7.31784">
        <ele>78.48</ele>
        <time>2014-07-26T13:58:55Z</time>
      </trkpt>
      <trkpt lat="43.74551" lon="7.31756">
        <ele>78.48</ele>
        <time>2014-07-26T13:59:00Z</time>
      </trkpt>
      <trkpt lat="43.74548" lon="7.3175">
        <ele>78.48</ele>
        <time>2014-07-26T13:59:01Z</time>
      </trkpt>
      <trkpt lat="43.74547" lon="7.31742">
        <ele>78.48</ele>
        <time>2014-07-26T13:59:02Z</time>
      </trkpt>
      <trkpt lat="43.74544" lon="7.31703">
        <ele>79.45</ele>
        <time>2014-07-26T13:59:07Z</time>
      </trkpt>
      <trkpt lat="43.74544" lon="7.31696">
        <ele>79.45</ele>
        <time>2014-07-26T13:59:08Z</time>
      </trkpt>
      <trkpt lat="43.74542" lon="7.31641">
        <ele>78.97</ele>
        <time>2014-07-26T13:59:16Z</time>
      </trkpt>
      <trkpt lat="43.74543" lon="7.31635">
        <ele>78.97</ele>
        <time>2014-07-26T13:59:17Z</time>
      </trkpt>
      <trkpt lat="43.74547" lon="7.31615">
        <ele>78.97</ele>
        <time>2014-07-26T13:59:20Z</time>
      </trkpt>
      <trkpt lat="43.74548" lon="7.31608">
        <ele>78.97</ele>
        <time>2014-07-26T13:59:21Z</time>
      </trkpt>
      <trkpt lat="43.74549" lon="7.31602">
        <ele>78.97</ele>
        <time>2014-07-26T13:59:22Z</time>
      </trkpt>
      <trkpt lat="43.74548" lon="7.31584">
        <ele>78.97</ele>
        <time>2014-07-26T13:59:25Z</time>
      </trkpt>
      <trkpt lat="43.74547" lon="7.31578">
        <ele>79.45</ele>
        <time>2014-07-26T13:59:26Z</time>
      </trkpt>
      <trkpt lat="43.74543" lon="7.3156">
        <ele>79.93</ele>
        <time>2014-07-26T13:59:29Z</time>
      </trkpt>
      <trkpt lat="43.74541" lon="7.31554">
        <ele>79.93</ele>
        <time>2014-07-26T13:59:30Z</time>
      </trkpt>
      <trkpt lat="43.7452" lon="7.31516">
        <ele>79.93</ele>
        <time>2014-07-26T13:59:36Z</time>
      </trkpt>
      <trkpt lat="43.74516" lon="7.31511">
        <ele>79.93</ele>
        <time>2014-07-26T13:59:37Z</time>
      </trkpt>
      <trkpt lat="43.74456" lon="7.31453">
        <ele>79.45</ele>
        <time>2014-07-26T13:59:48Z</time>
      </trkpt>
      <trkpt lat="43.74423" lon="7.31414">
        <ele>79.45</ele>
        <time>2014-07-26T13:59:56Z</time>
      </trkpt>
      <trkpt lat="43.74353" lon="7.31347">
        <ele>78.48</ele>
        <time>2014-07-26T14:00:08Z</time>
      </trkpt>
      <trkpt lat="43.74304" lon="7.31294">
        <ele>78</ele>
        <time>2014-07-26T14:00:17Z</time>
      </trkpt>
      <trkpt lat="43.74228" lon="7.31217">
        <ele>76.56</ele>
        <time>2014-07-26T14:00:31Z</time>
      </trkpt>
      <trkpt lat="43.74178" lon="7.3115">
        <ele>74.64</ele>
        <time>2014-07-26T14:00:43Z</time>
      </trkpt>
      <trkpt lat="43.74174" lon="7.31146">
        <ele>74.64</ele>
        <time>2014-07-26T14:00:44Z</time>
      </trkpt>
      <trkpt lat="43.74164" lon="7.31129">
        <ele>74.64</ele>
        <time>2014-07-26T14:00:47Z</time>
      </trkpt>
      <trkpt lat="43.74139" lon="7.31102">
        <ele>74.16</ele>
        <time>2014-07-26T14:00:54Z</time>
      </trkpt>
      <trkpt lat="43.74136" lon="7.31099">
        <ele>74.16</ele>
        <time>2014-07-26T14:00:55Z</time>
      </trkpt>
      <trkpt lat="43.74133" lon="7.31095">
        <ele>74.16</ele>
        <time>2014-07-26T14:00:56Z</time>
      </trkpt>
      <trkpt lat="43.74129" lon="7.31092">
        <ele>74.16</ele>
        <time>2014-07-26T14:00:57Z</time>
      </trkpt>
      <trkpt lat="43.74126" lon="7.31088">
        <ele>73.68</ele>
        <time>2014-07-26T14:00:58Z</time>
      </trkpt>
      <trkpt lat="43.74122" lon="7.31083">
        <ele>73.68</ele>
        <time>2014-07-26T14:00:59Z</time>
      </trkpt>
      <trkpt lat="43.74119" lon="7.31077">
        <ele>73.68</ele>
        <time>2014-07-26T14:01:00Z</time>
      </trkpt>
      <trkpt lat="43.74117" lon="7.3107">
        <ele>74.16</ele>
        <time>2014-07-26T14:01:01Z</time>
      </trkpt>
      <trkpt lat="43.74114" lon="7.31056">
        <ele>74.16</ele>
        <time>2014-07-26T14:01:03Z</time>
      </trkpt>
      <trkpt lat="43.74113" lon="7.31049">
        <ele>74.16</ele>
        <time>2014-07-26T14:01:04Z</time>
      </trkpt>
      <trkpt lat="43.74112" lon="7.31042">
        <ele>74.64</ele>
        <time>2014-07-26T14:01:05Z</time>
      </trkpt>
      <trkpt lat="43.74112" lon="7.31034">
        <ele>74.64</ele>
        <time>2014-07-26T14:01:06Z</time>
      </trkpt>
      <trkpt lat="43.74112" lon="7.31027">
        <ele>74.64</ele>
        <time>2014-07-26T14:01:07Z</time>
      </trkpt>
      <trkpt lat="43.74108" lon="7.30937">
        <ele>74.16</ele>
        <time>2014-07-26T14:01:19Z</time>
      </trkpt>
      <trkpt lat="43.74107" lon="7.30932">
        <ele>73.68</ele>
        <time>2014-07-26T14:01:31Z</time>
      </trkpt>
      <trkpt lat="43.74106" lon="7.30933">
        <ele>73.68</ele>
        <time>2014-07-26T14:01:32Z</time>
      </trkpt>
      <trkpt lat="43.74105" lon="7.30935">
        <ele>73.68</ele>
        <time>2014-07-26T14:01:33Z</time>
      </trkpt>
      <trkpt lat="43.74104" lon="7.30939">
        <ele>73.68</ele>
        <time>2014-07-26T14:01:34Z</time>
      </trkpt>
      <trkpt lat="43.74104" lon="7.30943">
        <ele>73.68</ele>
        <time>2014-07-26T14:01:35Z</time>
      </trkpt>
      <trkpt lat="43.74105" lon="7.30948">
        <ele>73.68</ele>
        <time>2014-07-26T14:01:36Z</time>
      </trkpt>
      <trkpt lat="43.74105" lon="7.30954">
        <ele>73.68</ele>
        <time>2014-07-26T14:01:37Z</time>
      </trkpt>
      <trkpt lat="43.74107" lon="7.31038">
        <ele>75.12</ele>
        <time>2014-07-26T14:01:49Z</time>
      </trkpt>
      <trkpt lat="43.74113" lon="7.31076">
        <ele>74.64</ele>
        <time>2014-07-26T14:01:55Z</time>
      </trkpt>
      <trkpt lat="43.74112" lon="7.31082">
        <ele>74.64</ele>
        <time>2014-07-26T14:01:56Z</time>
      </trkpt>
      <trkpt lat="43.74108" lon="7.31086">
        <ele>74.16</ele>
        <time>2014-07-26T14:01:57Z</time>
      </trkpt>
      <trkpt lat="43.74104" lon="7.31089">
        <ele>74.16</ele>
        <time>2014-07-26T14:01:58Z</time>
      </trkpt>
      <trkpt lat="43.741" lon="7.31091">
        <ele>73.68</ele>
        <time>2014-07-26T14:01:59Z</time>
      </trkpt>
      <trkpt lat="43.74095" lon="7.31092">
        <ele>73.68</ele>
        <time>2014-07-26T14:02:00Z</time>
      </trkpt>
      <trkpt lat="43.7409" lon="7.31093">
        <ele>73.68</ele>
        <time>2014-07-26T14:02:01Z</time>
      </trkpt>
      <trkpt lat="43.74085" lon="7.31093">
        <ele>73.2</ele>
        <time>2014-07-26T14:02:02Z</time>
      </trkpt>
      <trkpt lat="43.7408" lon="7.31093">
        <ele>72.72</ele>
        <time>2014-07-26T14:02:03Z</time>
      </trkpt>
      <trkpt lat="43.74075" lon="7.31092">
        <ele>72.72</ele>
        <time>2014-07-26T14:02:04Z</time>
      </trkpt>
      <trkpt lat="43.74069" lon="7.31091">
        <ele>72.72</ele>
        <time>2014-07-26T14:02:05Z</time>
      </trkpt>
      <trkpt lat="43.74058" lon="7.31086">
        <ele>72.24</ele>
        <time>2014-07-26T14:02:07Z</time>
      </trkpt>
      <trkpt lat="43.73981" lon="7.31044">
        <ele>69.83</ele>
        <time>2014-07-26T14:02:21Z</time>
      </trkpt>
      <trkpt lat="43.73911" lon="7.31004">
        <ele>68.39</ele>
        <time>2014-07-26T14:02:33Z</time>
      </trkpt>
      <trkpt lat="43.73858" lon="7.30971">
        <ele>66.47</ele>
        <time>2014-07-26T14:02:43Z</time>
      </trkpt>
      <trkpt lat="43.73798" lon="7.30928">
        <ele>63.58</ele>
        <time>2014-07-26T14:02:56Z</time>
      </trkpt>
      <trkpt lat="43.73753" lon="7.30894">
        <ele>62.62</ele>
        <time>2014-07-26T14:03:05Z</time>
      </trkpt>
      <trkpt lat="43.73749" lon="7.3089">
        <ele>62.62</ele>
        <time>2014-07-26T14:03:06Z</time>
      </trkpt>
      <trkpt lat="43.73692" lon="7.30838">
        <ele>61.66</ele>
        <time>2014-07-26T14:03:18Z</time>
      </trkpt>
      <trkpt lat="43.73688" lon="7.30834">
        <ele>61.66</ele>
        <time>2014-07-26T14:03:19Z</time>
      </trkpt>
      <trkpt lat="43.73684" lon="7.30829">
        <ele>61.66</ele>
        <time>2014-07-26T14:03:20Z</time>
      </trkpt>
      <trkpt lat="43.73679" lon="7.30825">
        <ele>61.66</ele>
        <time>2014-07-26T14:03:21Z</time>
      </trkpt>
      <trkpt lat="43.73668" lon="7.3081">
        <ele>62.14</ele>
        <time>2014-07-26T14:03:24Z</time>
      </trkpt>
      <trkpt lat="43.73665" lon="7.30806">
        <ele>62.62</ele>
        <time>2014-07-26T14:03:25Z</time>
      </trkpt>
      <trkpt lat="43.73661" lon="7.30801">
        <ele>62.62</ele>
        <time>2014-07-26T14:03:26Z</time>
      </trkpt>
      <trkpt lat="43.73657" lon="7.30796">
        <ele>63.1</ele>
        <time>2014-07-26T14:03:27Z</time>
      </trkpt>
      <trkpt lat="43.73653" lon="7.30792">
        <ele>63.1</ele>
        <time>2014-07-26T14:03:28Z</time>
      </trkpt>
      <trkpt lat="43.73648" lon="7.30787">
        <ele>63.1</ele>
        <time>2014-07-26T14:03:29Z</time>
      </trkpt>
      <trkpt lat="43.73644" lon="7.30782">
        <ele>63.1</ele>
        <time>2014-07-26T14:03:30Z</time>
      </trkpt>
      <trkpt lat="43.7364" lon="7.30776">
        <ele>63.58</ele>
        <time>2014-07-26T14:03:31Z</time>
      </trkpt>
      <trkpt lat="43.73636" lon="7.3077">
        <ele>63.58</ele>
        <time>2014-07-26T14:03:32Z</time>
      </trkpt>
      <trkpt lat="43.73623" lon="7.30754">
        <ele>64.07</ele>
        <time>2014-07-26T14:03:35Z</time>
      </trkpt>
      <trkpt lat="43.73619" lon="7.3075">
        <ele>64.07</ele>
        <time>2014-07-26T14:03:36Z</time>
      </trkpt>
      <trkpt lat="43.7357" lon="7.30682">
        <ele>63.58</ele>
        <time>2014-07-26T14:03:48Z</time>
      </trkpt>
      <trkpt lat="43.73567" lon="7.30676">
        <ele>63.58</ele>
        <time>2014-07-26T14:03:49Z</time>
      </trkpt>
      <trkpt lat="43.73531" lon="7.30602">
        <ele>63.1</ele>
        <time>2014-07-26T14:04:01Z</time>
      </trkpt>
      <trkpt lat="43.73528" lon="7.30595">
        <ele>63.1</ele>
        <time>2014-07-26T14:04:02Z</time>
      </trkpt>
      <trkpt lat="43.73517" lon="7.3057">
        <ele>63.1</ele>
        <time>2014-07-26T14:04:06Z</time>
      </trkpt>
      <trkpt lat="43.73511" lon="7.30549">
        <ele>62.62</ele>
        <time>2014-07-26T14:04:10Z</time>
      </trkpt>
      <trkpt lat="43.73475" lon="7.30457">
        <ele>60.7</ele>
        <time>2014-07-26T14:04:24Z</time>
      </trkpt>
      <trkpt lat="43.7347" lon="7.30444">
        <ele>60.7</ele>
        <time>2014-07-26T14:04:26Z</time>
      </trkpt>
      <trkpt lat="43.73468" lon="7.30437">
        <ele>60.7</ele>
        <time>2014-07-26T14:04:27Z</time>
      </trkpt>
      <trkpt lat="43.73462" lon="7.30417">
        <ele>61.18</ele>
        <time>2014-07-26T14:04:30Z</time>
      </trkpt>
      <trkpt lat="43.7346" lon="7.30409">
        <ele>61.18</ele>
        <time>2014-07-26T14:04:31Z</time>
      </trkpt>
      <trkpt lat="43.73457" lon="7.30402">
        <ele>61.18</ele>
        <time>2014-07-26T14:04:32Z</time>
      </trkpt>
      <trkpt lat="43.73456" lon="7.30394">
        <ele>61.18</ele>
        <time>2014-07-26T14:04:33Z</time>
      </trkpt>
      <trkpt lat="43.73454" lon="7.30387">
        <ele>61.18</ele>
        <time>2014-07-26T14:04:34Z</time>
      </trkpt>
      <trkpt lat="43.73452" lon="7.3038">
        <ele>61.18</ele>
        <time>2014-07-26T14:04:35Z</time>
      </trkpt>
      <trkpt lat="43.73451" lon="7.30373">
        <ele>61.18</ele>
        <time>2014-07-26T14:04:36Z</time>
      </trkpt>
      <trkpt lat="43.73446" lon="7.30352">
        <ele>61.18</ele>
        <time>2014-07-26T14:04:39Z</time>
      </trkpt>
      <trkpt lat="43.73444" lon="7.30344">
        <ele>61.18</ele>
        <time>2014-07-26T14:04:40Z</time>
      </trkpt>
      <trkpt lat="43.73431" lon="7.30281">
        <ele>61.18</ele>
        <time>2014-07-26T14:04:49Z</time>
      </trkpt>
      <trkpt lat="43.7343" lon="7.30273">
        <ele>61.18</ele>
        <time>2014-07-26T14:04:50Z</time>
      </trkpt>
      <trkpt lat="43.7342" lon="7.30229">
        <ele>60.22</ele>
        <time>2014-07-26T14:04:56Z</time>
      </trkpt>
      <trkpt lat="43.73418" lon="7.30214">
        <ele>60.7</ele>
        <time>2014-07-26T14:04:58Z</time>
      </trkpt>
      <trkpt lat="43.73417" lon="7.30206">
        <ele>60.22</ele>
        <time>2014-07-26T14:04:59Z</time>
      </trkpt>
      <trkpt lat="43.73416" lon="7.30199">
        <ele>60.22</ele>
        <time>2014-07-26T14:05:00Z</time>
      </trkpt>
      <trkpt lat="43.73415" lon="7.30176">
        <ele>59.74</ele>
        <time>2014-07-26T14:05:08Z</time>
      </trkpt>
      <trkpt lat="43.73416" lon="7.30172">
        <ele>62.14</ele>
        <time>2014-07-26T14:05:29Z</time>
      </trkpt>
      <trkpt lat="43.73414" lon="7.3015">
        <ele>61.66</ele>
        <time>2014-07-26T14:05:34Z</time>
      </trkpt>
      <trkpt lat="43.73414" lon="7.30143">
        <ele>61.66</ele>
        <time>2014-07-26T14:05:35Z</time>
      </trkpt>
      <trkpt lat="43.73414" lon="7.30136">
        <ele>61.66</ele>
        <time>2014-07-26T14:05:36Z</time>
      </trkpt>
      <trkpt lat="43.73412" lon="7.30121">
        <ele>61.18</ele>
        <time>2014-07-26T14:05:38Z</time>
      </trkpt>
      <trkpt lat="43.73408" lon="7.30096">
        <ele>60.7</ele>
        <time>2014-07-26T14:05:41Z</time>
      </trkpt>
      <trkpt lat="43.73406" lon="7.30088">
        <ele>60.7</ele>
        <time>2014-07-26T14:05:42Z</time>
      </trkpt>
      <trkpt lat="43.73394" lon="7.30007">
        <ele>61.66</ele>
        <time>2014-07-26T14:05:52Z</time>
      </trkpt>
      <trkpt lat="43.73393" lon="7.29999">
        <ele>61.66</ele>
        <time>2014-07-26T14:05:53Z</time>
      </trkpt>
      <trkpt lat="43.73382" lon="7.29923">
        <ele>62.62</ele>
        <time>2014-07-26T14:06:02Z</time>
      </trkpt>
      <trkpt lat="43.73381" lon="7.29914">
        <ele>62.14</ele>
        <time>2014-07-26T14:06:03Z</time>
      </trkpt>
      <trkpt lat="43.73379" lon="7.29897">
        <ele>61.66</ele>
        <time>2014-07-26T14:06:05Z</time>
      </trkpt>
      <trkpt lat="43.73378" lon="7.29888">
        <ele>61.66</ele>
        <time>2014-07-26T14:06:06Z</time>
      </trkpt>
      <trkpt lat="43.73377" lon="7.2988">
        <ele>61.66</ele>
        <time>2014-07-26T14:06:07Z</time>
      </trkpt>
      <trkpt lat="43.73374" lon="7.29854">
        <ele>61.18</ele>
        <time>2014-07-26T14:06:10Z</time>
      </trkpt>
      <trkpt lat="43.73374" lon="7.29845">
        <ele>61.18</ele>
        <time>2014-07-26T14:06:11Z</time>
      </trkpt>
      <trkpt lat="43.73372" lon="7.29836">
        <ele>61.18</ele>
        <time>2014-07-26T14:06:12Z</time>
      </trkpt>
      <trkpt lat="43.73371" lon="7.29827">
        <ele>61.18</ele>
        <time>2014-07-26T14:06:13Z</time>
      </trkpt>
      <trkpt lat="43.7337" lon="7.29818">
        <ele>61.18</ele>
        <time>2014-07-26T14:06:14Z</time>
      </trkpt>
      <trkpt lat="43.73368" lon="7.29801">
        <ele>61.18</ele>
        <time>2014-07-26T14:06:16Z</time>
      </trkpt>
      <trkpt lat="43.73366" lon="7.29792">
        <ele>61.66</ele>
        <time>2014-07-26T14:06:17Z</time>
      </trkpt>
      <trkpt lat="43.73365" lon="7.29783">
        <ele>61.18</ele>
        <time>2014-07-26T14:06:18Z</time>
      </trkpt>
      <trkpt lat="43.73364" lon="7.29775">
        <ele>61.18</ele>
        <time>2014-07-26T14:06:19Z</time>
      </trkpt>
      <trkpt lat="43.73363" lon="7.29766">
        <ele>61.18</ele>
        <time>2014-07-26T14:06:20Z</time>
      </trkpt>
      <trkpt lat="43.73362" lon="7.29757">
        <ele>61.18</ele>
        <time>2014-07-26T14:06:21Z</time>
      </trkpt>
      <trkpt lat="43.73356" lon="7.29712">
        <ele>60.7</ele>
        <time>2014-07-26T14:06:26Z</time>
      </trkpt>
      <trkpt lat="43.73355" lon="7.29704">
        <ele>60.7</ele>
        <time>2014-07-26T14:06:27Z</time>
      </trkpt>
      <trkpt lat="43.73354" lon="7.29694">
        <ele>60.22</ele>
        <time>2014-07-26T14:06:28Z</time>
      </trkpt>
      <trkpt lat="43.73348" lon="7.29641">
        <ele>59.26</ele>
        <time>2014-07-26T14:06:34Z</time>
      </trkpt>
      <trkpt lat="43.73345" lon="7.29614">
        <ele>58.3</ele>
        <time>2014-07-26T14:06:37Z</time>
      </trkpt>
      <trkpt lat="43.73333" lon="7.29515">
        <ele>58.3</ele>
        <time>2014-07-26T14:06:48Z</time>
      </trkpt>
      <trkpt lat="43.73332" lon="7.29508">
        <ele>57.82</ele>
        <time>2014-07-26T14:06:49Z</time>
      </trkpt>
      <trkpt lat="43.73331" lon="7.29499">
        <ele>58.3</ele>
        <time>2014-07-26T14:06:50Z</time>
      </trkpt>
      <trkpt lat="43.7333" lon="7.29491">
        <ele>57.82</ele>
        <time>2014-07-26T14:06:51Z</time>
      </trkpt>
      <trkpt lat="43.73329" lon="7.29482">
        <ele>58.3</ele>
        <time>2014-07-26T14:06:52Z</time>
      </trkpt>
      <trkpt lat="43.73328" lon="7.29473">
        <ele>58.3</ele>
        <time>2014-07-26T14:06:53Z</time>
      </trkpt>
      <trkpt lat="43.73326" lon="7.29464">
        <ele>58.3</ele>
        <time>2014-07-26T14:06:54Z</time>
      </trkpt>
      <trkpt lat="43.73325" lon="7.29455">
        <ele>58.3</ele>
        <time>2014-07-26T14:06:55Z</time>
      </trkpt>
      <trkpt lat="43.73323" lon="7.29437">
        <ele>58.3</ele>
        <time>2014-07-26T14:06:57Z</time>
      </trkpt>
      <trkpt lat="43.73322" lon="7.29428">
        <ele>58.3</ele>
        <time>2014-07-26T14:06:58Z</time>
      </trkpt>
      <trkpt lat="43.73321" lon="7.29419">
        <ele>58.78</ele>
        <time>2014-07-26T14:06:59Z</time>
      </trkpt>
      <trkpt lat="43.73319" lon="7.29403">
        <ele>59.26</ele>
        <time>2014-07-26T14:07:01Z</time>
      </trkpt>
      <trkpt lat="43.73318" lon="7.29395">
        <ele>59.26</ele>
        <time>2014-07-26T14:07:02Z</time>
      </trkpt>
      <trkpt lat="43.73318" lon="7.29387">
        <ele>59.74</ele>
        <time>2014-07-26T14:07:03Z</time>
      </trkpt>
      <trkpt lat="43.73317" lon="7.29378">
        <ele>60.22</ele>
        <time>2014-07-26T14:07:04Z</time>
      </trkpt>
      <trkpt lat="43.73316" lon="7.29369">
        <ele>60.22</ele>
        <time>2014-07-26T14:07:05Z</time>
      </trkpt>
      <trkpt lat="43.73315" lon="7.2936">
        <ele>60.7</ele>
        <time>2014-07-26T14:07:06Z</time>
      </trkpt>
      <trkpt lat="43.73313" lon="7.2935">
        <ele>60.7</ele>
        <time>2014-07-26T14:07:07Z</time>
      </trkpt>
      <trkpt lat="43.7331" lon="7.29311">
        <ele>61.18</ele>
        <time>2014-07-26T14:07:12Z</time>
      </trkpt>
      <trkpt lat="43.73305" lon="7.29264">
        <ele>60.22</ele>
        <time>2014-07-26T14:07:18Z</time>
      </trkpt>
      <trkpt lat="43.733" lon="7.29217">
        <ele>59.26</ele>
        <time>2014-07-26T14:07:24Z</time>
      </trkpt>
      <trkpt lat="43.73298" lon="7.29209">
        <ele>59.26</ele>
        <time>2014-07-26T14:07:25Z</time>
      </trkpt>
      <trkpt lat="43.73293" lon="7.29193">
        <ele>59.26</ele>
        <time>2014-07-26T14:07:27Z</time>
      </trkpt>
      <trkpt lat="43.73291" lon="7.29186">
        <ele>59.26</ele>
        <time>2014-07-26T14:07:28Z</time>
      </trkpt>
      <trkpt lat="43.73281" lon="7.29158">
        <ele>59.26</ele>
        <time>2014-07-26T14:07:32Z</time>
      </trkpt>
      <trkpt lat="43.73262" lon="7.29124">
        <ele>58.3</ele>
        <time>2014-07-26T14:07:37Z</time>
      </trkpt>
      <trkpt lat="43.73225" lon="7.29061">
        <ele>57.82</ele>
        <time>2014-07-26T14:07:46Z</time>
      </trkpt>
      <trkpt lat="43.73222" lon="7.29054">
        <ele>57.34</ele>
        <time>2014-07-26T14:07:47Z</time>
      </trkpt>
      <trkpt lat="43.73216" lon="7.29047">
        <ele>56.86</ele>
        <time>2014-07-26T14:07:48Z</time>
      </trkpt>
      <trkpt lat="43.73193" lon="7.29002">
        <ele>55.89</ele>
        <time>2014-07-26T14:07:55Z</time>
      </trkpt>
      <trkpt lat="43.73161" lon="7.28947">
        <ele>55.89</ele>
        <time>2014-07-26T14:08:05Z</time>
      </trkpt>
      <trkpt lat="43.73124" lon="7.28879">
        <ele>57.82</ele>
        <time>2014-07-26T14:08:16Z</time>
      </trkpt>
      <trkpt lat="43.73121" lon="7.28873">
        <ele>57.82</ele>
        <time>2014-07-26T14:08:17Z</time>
      </trkpt>
      <trkpt lat="43.73112" lon="7.28853">
        <ele>58.78</ele>
        <time>2014-07-26T14:08:20Z</time>
      </trkpt>
      <trkpt lat="43.7311" lon="7.28845">
        <ele>58.78</ele>
        <time>2014-07-26T14:08:21Z</time>
      </trkpt>
      <trkpt lat="43.73108" lon="7.28838">
        <ele>59.26</ele>
        <time>2014-07-26T14:08:22Z</time>
      </trkpt>
      <trkpt lat="43.73105" lon="7.28831">
        <ele>59.26</ele>
        <time>2014-07-26T14:08:23Z</time>
      </trkpt>
      <trkpt lat="43.73103" lon="7.28825">
        <ele>59.74</ele>
        <time>2014-07-26T14:08:24Z</time>
      </trkpt>
      <trkpt lat="43.731" lon="7.28818">
        <ele>60.22</ele>
        <time>2014-07-26T14:08:25Z</time>
      </trkpt>
      <trkpt lat="43.73096" lon="7.28812">
        <ele>60.7</ele>
        <time>2014-07-26T14:08:26Z</time>
      </trkpt>
      <trkpt lat="43.73093" lon="7.28806">
        <ele>61.18</ele>
        <time>2014-07-26T14:08:27Z</time>
      </trkpt>
      <trkpt lat="43.73076" lon="7.28746">
        <ele>63.1</ele>
        <time>2014-07-26T14:08:35Z</time>
      </trkpt>
      <trkpt lat="43.73075" lon="7.28737">
        <ele>63.1</ele>
        <time>2014-07-26T14:08:36Z</time>
      </trkpt>
      <trkpt lat="43.73075" lon="7.28729">
        <ele>62.62</ele>
        <time>2014-07-26T14:08:37Z</time>
      </trkpt>
      <trkpt lat="43.73076" lon="7.28678">
        <ele>66.95</ele>
        <time>2014-07-26T14:08:46Z</time>
      </trkpt>
      <trkpt lat="43.73073" lon="7.28675">
        <ele>65.99</ele>
        <time>2014-07-26T14:09:07Z</time>
      </trkpt>
      <trkpt lat="43.73074" lon="7.28673">
        <ele>63.1</ele>
        <time>2014-07-26T14:09:26Z</time>
      </trkpt>
      <trkpt lat="43.73074" lon="7.28656">
        <ele>62.14</ele>
        <time>2014-07-26T14:09:29Z</time>
      </trkpt>
      <trkpt lat="43.73071" lon="7.28623">
        <ele>60.22</ele>
        <time>2014-07-26T14:09:34Z</time>
      </trkpt>
      <trkpt lat="43.73068" lon="7.28595">
        <ele>59.74</ele>
        <time>2014-07-26T14:09:38Z</time>
      </trkpt>
      <trkpt lat="43.73064" lon="7.28574">
        <ele>59.26</ele>
        <time>2014-07-26T14:09:41Z</time>
      </trkpt>
      <trkpt lat="43.73062" lon="7.28566">
        <ele>59.26</ele>
        <time>2014-07-26T14:09:42Z</time>
      </trkpt>
      <trkpt lat="43.73062" lon="7.28559">
        <ele>59.26</ele>
        <time>2014-07-26T14:09:43Z</time>
      </trkpt>
      <trkpt lat="43.7306" lon="7.28552">
        <ele>58.78</ele>
        <time>2014-07-26T14:09:44Z</time>
      </trkpt>
      <trkpt lat="43.7306" lon="7.28544">
        <ele>58.78</ele>
        <time>2014-07-26T14:09:45Z</time>
      </trkpt>
      <trkpt lat="43.73059" lon="7.28536">
        <ele>59.26</ele>
        <time>2014-07-26T14:09:46Z</time>
      </trkpt>
      <trkpt lat="43.73058" lon="7.28528">
        <ele>59.26</ele>
        <time>2014-07-26T14:09:47Z</time>
      </trkpt>
      <trkpt lat="43.73057" lon="7.28521">
        <ele>58.78</ele>
        <time>2014-07-26T14:09:48Z</time>
      </trkpt>
      <trkpt lat="43.73057" lon="7.28513">
        <ele>58.78</ele>
        <time>2014-07-26T14:09:49Z</time>
      </trkpt>
      <trkpt lat="43.73056" lon="7.28506">
        <ele>58.3</ele>
        <time>2014-07-26T14:09:50Z</time>
      </trkpt>
      <trkpt lat="43.73054" lon="7.28499">
        <ele>57.34</ele>
        <time>2014-07-26T14:09:51Z</time>
      </trkpt>
      <trkpt lat="43.73054" lon="7.28492">
        <ele>56.86</ele>
        <time>2014-07-26T14:09:52Z</time>
      </trkpt>
      <trkpt lat="43.73053" lon="7.28486">
        <ele>56.37</ele>
        <time>2014-07-26T14:09:53Z</time>
      </trkpt>
      <trkpt lat="43.73052" lon="7.28479">
        <ele>56.37</ele>
        <time>2014-07-26T14:09:54Z</time>
      </trkpt>
      <trkpt lat="43.73051" lon="7.28472">
        <ele>55.89</ele>
        <time>2014-07-26T14:09:55Z</time>
      </trkpt>
      <trkpt lat="43.7305" lon="7.28466">
        <ele>55.41</ele>
        <time>2014-07-26T14:09:56Z</time>
      </trkpt>
      <trkpt lat="43.73049" lon="7.28459">
        <ele>54.93</ele>
        <time>2014-07-26T14:09:57Z</time>
      </trkpt>
      <trkpt lat="43.73047" lon="7.28453">
        <ele>54.45</ele>
        <time>2014-07-26T14:09:58Z</time>
      </trkpt>
      <trkpt lat="43.73045" lon="7.28448">
        <ele>54.45</ele>
        <time>2014-07-26T14:09:59Z</time>
      </trkpt>
      <trkpt lat="43.73039" lon="7.28435">
        <ele>53.97</ele>
        <time>2014-07-26T14:10:01Z</time>
      </trkpt>
      <trkpt lat="43.73036" lon="7.28429">
        <ele>53.97</ele>
        <time>2014-07-26T14:10:02Z</time>
      </trkpt>
      <trkpt lat="43.73027" lon="7.28412">
        <ele>53.49</ele>
        <time>2014-07-26T14:10:05Z</time>
      </trkpt>
      <trkpt lat="43.73011" lon="7.28395">
        <ele>53.49</ele>
        <time>2014-07-26T14:10:09Z</time>
      </trkpt>
      <trkpt lat="43.73006" lon="7.28392">
        <ele>53.01</ele>
        <time>2014-07-26T14:10:10Z</time>
      </trkpt>
      <trkpt lat="43.73001" lon="7.2839">
        <ele>53.01</ele>
        <time>2014-07-26T14:10:11Z</time>
      </trkpt>
      <trkpt lat="43.72956" lon="7.28378">
        <ele>53.01</ele>
        <time>2014-07-26T14:10:21Z</time>
      </trkpt>
      <trkpt lat="43.72952" lon="7.28378">
        <ele>53.01</ele>
        <time>2014-07-26T14:10:22Z</time>
      </trkpt>
      <trkpt lat="43.72947" lon="7.28379">
        <ele>53.01</ele>
        <time>2014-07-26T14:10:23Z</time>
      </trkpt>
      <trkpt lat="43.72941" lon="7.28381">
        <ele>53.01</ele>
        <time>2014-07-26T14:10:24Z</time>
      </trkpt>
      <trkpt lat="43.72935" lon="7.28382">
        <ele>53.49</ele>
        <time>2014-07-26T14:10:25Z</time>
      </trkpt>
      <trkpt lat="43.72898" lon="7.28384">
        <ele>55.41</ele>
        <time>2014-07-26T14:10:31Z</time>
      </trkpt>
      <trkpt lat="43.72892" lon="7.28383">
        <ele>55.41</ele>
        <time>2014-07-26T14:10:32Z</time>
      </trkpt>
      <trkpt lat="43.72862" lon="7.28385">
        <ele>55.41</ele>
        <time>2014-07-26T14:10:38Z</time>
      </trkpt>
      <trkpt lat="43.72858" lon="7.28386">
        <ele>54.93</ele>
        <time>2014-07-26T14:10:39Z</time>
      </trkpt>
      <trkpt lat="43.72853" lon="7.28387">
        <ele>54.93</ele>
        <time>2014-07-26T14:10:40Z</time>
      </trkpt>
      <trkpt lat="43.72847" lon="7.28388">
        <ele>54.93</ele>
        <time>2014-07-26T14:10:41Z</time>
      </trkpt>
      <trkpt lat="43.72842" lon="7.28389">
        <ele>54.93</ele>
        <time>2014-07-26T14:10:42Z</time>
      </trkpt>
      <trkpt lat="43.72825" lon="7.28391">
        <ele>54.45</ele>
        <time>2014-07-26T14:10:45Z</time>
      </trkpt>
      <trkpt lat="43.7282" lon="7.28391">
        <ele>54.45</ele>
        <time>2014-07-26T14:10:46Z</time>
      </trkpt>
      <trkpt lat="43.72814" lon="7.28392">
        <ele>54.45</ele>
        <time>2014-07-26T14:10:47Z</time>
      </trkpt>
      <trkpt lat="43.72789" lon="7.28397">
        <ele>53.01</ele>
        <time>2014-07-26T14:10:52Z</time>
      </trkpt>
      <trkpt lat="43.7278" lon="7.28401">
        <ele>52.53</ele>
        <time>2014-07-26T14:10:54Z</time>
      </trkpt>
      <trkpt lat="43.72775" lon="7.28403">
        <ele>52.05</ele>
        <time>2014-07-26T14:10:55Z</time>
      </trkpt>
      <trkpt lat="43.72761" lon="7.2841">
        <ele>51.57</ele>
        <time>2014-07-26T14:10:58Z</time>
      </trkpt>
      <trkpt lat="43.72757" lon="7.28413">
        <ele>51.09</ele>
        <time>2014-07-26T14:10:59Z</time>
      </trkpt>
      <trkpt lat="43.72753" lon="7.28417">
        <ele>51.09</ele>
        <time>2014-07-26T14:11:00Z</time>
      </trkpt>
      <trkpt lat="43.72749" lon="7.28422">
        <ele>50.61</ele>
        <time>2014-07-26T14:11:01Z</time>
      </trkpt>
      <trkpt lat="43.72745" lon="7.28426">
        <ele>50.61</ele>
        <time>2014-07-26T14:11:02Z</time>
      </trkpt>
      <trkpt lat="43.72742" lon="7.28432">
        <ele>50.13</ele>
        <time>2014-07-26T14:11:03Z</time>
      </trkpt>
      <trkpt lat="43.72738" lon="7.28437">
        <ele>50.13</ele>
        <time>2014-07-26T14:11:04Z</time>
      </trkpt>
      <trkpt lat="43.72735" lon="7.28444">
        <ele>49.65</ele>
        <time>2014-07-26T14:11:05Z</time>
      </trkpt>
      <trkpt lat="43.72731" lon="7.2845">
        <ele>49.65</ele>
        <time>2014-07-26T14:11:06Z</time>
      </trkpt>
      <trkpt lat="43.72728" lon="7.28456">
        <ele>49.16</ele>
        <time>2014-07-26T14:11:07Z</time>
      </trkpt>
      <trkpt lat="43.72723" lon="7.28469">
        <ele>48.68</ele>
        <time>2014-07-26T14:11:09Z</time>
      </trkpt>
      <trkpt lat="43.7272" lon="7.28476">
        <ele>48.2</ele>
        <time>2014-07-26T14:11:10Z</time>
      </trkpt>
      <trkpt lat="43.72712" lon="7.28494">
        <ele>47.72</ele>
        <time>2014-07-26T14:11:13Z</time>
      </trkpt>
      <trkpt lat="43.72709" lon="7.285">
        <ele>47.24</ele>
        <time>2014-07-26T14:11:14Z</time>
      </trkpt>
      <trkpt lat="43.72705" lon="7.28506">
        <ele>46.76</ele>
        <time>2014-07-26T14:11:15Z</time>
      </trkpt>
      <trkpt lat="43.72699" lon="7.28518">
        <ele>46.28</ele>
        <time>2014-07-26T14:11:17Z</time>
      </trkpt>
      <trkpt lat="43.72696" lon="7.28524">
        <ele>46.28</ele>
        <time>2014-07-26T14:11:18Z</time>
      </trkpt>
      <trkpt lat="43.72687" lon="7.2854">
        <ele>45.8</ele>
        <time>2014-07-26T14:11:21Z</time>
      </trkpt>
      <trkpt lat="43.72681" lon="7.28552">
        <ele>45.8</ele>
        <time>2014-07-26T14:11:23Z</time>
      </trkpt>
      <trkpt lat="43.7268" lon="7.28558">
        <ele>45.32</ele>
        <time>2014-07-26T14:11:24Z</time>
      </trkpt>
      <trkpt lat="43.72677" lon="7.28564">
        <ele>45.32</ele>
        <time>2014-07-26T14:11:25Z</time>
      </trkpt>
      <trkpt lat="43.72672" lon="7.28576">
        <ele>44.84</ele>
        <time>2014-07-26T14:11:27Z</time>
      </trkpt>
      <trkpt lat="43.72668" lon="7.28582">
        <ele>44.84</ele>
        <time>2014-07-26T14:11:28Z</time>
      </trkpt>
      <trkpt lat="43.72665" lon="7.28587">
        <ele>44.84</ele>
        <time>2014-07-26T14:11:29Z</time>
      </trkpt>
      <trkpt lat="43.72662" lon="7.28594">
        <ele>44.36</ele>
        <time>2014-07-26T14:11:30Z</time>
      </trkpt>
      <trkpt lat="43.72659" lon="7.28599">
        <ele>44.84</ele>
        <time>2014-07-26T14:11:31Z</time>
      </trkpt>
      <trkpt lat="43.72657" lon="7.28605">
        <ele>44.84</ele>
        <time>2014-07-26T14:11:32Z</time>
      </trkpt>
      <trkpt lat="43.72625" lon="7.28666">
        <ele>44.36</ele>
        <time>2014-07-26T14:11:42Z</time>
      </trkpt>
      <trkpt lat="43.72622" lon="7.28672">
        <ele>43.88</ele>
        <time>2014-07-26T14:11:43Z</time>
      </trkpt>
      <trkpt lat="43.7261" lon="7.2869">
        <ele>42.92</ele>
        <time>2014-07-26T14:11:46Z</time>
      </trkpt>
      <trkpt lat="43.72606" lon="7.28695">
        <ele>42.92</ele>
        <time>2014-07-26T14:11:47Z</time>
      </trkpt>
      <trkpt lat="43.72603" lon="7.287">
        <ele>42.44</ele>
        <time>2014-07-26T14:11:48Z</time>
      </trkpt>
      <trkpt lat="43.72579" lon="7.2875">
        <ele>40.99</ele>
        <time>2014-07-26T14:11:56Z</time>
      </trkpt>
      <trkpt lat="43.72562" lon="7.28782">
        <ele>40.03</ele>
        <time>2014-07-26T14:12:01Z</time>
      </trkpt>
      <trkpt lat="43.7254" lon="7.2882">
        <ele>39.07</ele>
        <time>2014-07-26T14:12:07Z</time>
      </trkpt>
      <trkpt lat="43.72537" lon="7.28827">
        <ele>38.11</ele>
        <time>2014-07-26T14:12:08Z</time>
      </trkpt>
      <trkpt lat="43.72524" lon="7.28852">
        <ele>37.63</ele>
        <time>2014-07-26T14:12:12Z</time>
      </trkpt>
      <trkpt lat="43.72512" lon="7.28867">
        <ele>37.63</ele>
        <time>2014-07-26T14:12:20Z</time>
      </trkpt>
      <trkpt lat="43.72511" lon="7.28865">
        <ele>39.07</ele>
        <time>2014-07-26T14:12:40Z</time>
      </trkpt>
      <trkpt lat="43.7251" lon="7.28867">
        <ele>38.59</ele>
        <time>2014-07-26T14:12:41Z</time>
      </trkpt>
      <trkpt lat="43.72509" lon="7.28871">
        <ele>38.59</ele>
        <time>2014-07-26T14:12:42Z</time>
      </trkpt>
      <trkpt lat="43.72507" lon="7.28876">
        <ele>38.59</ele>
        <time>2014-07-26T14:12:43Z</time>
      </trkpt>
      <trkpt lat="43.72504" lon="7.28881">
        <ele>38.59</ele>
        <time>2014-07-26T14:12:44Z</time>
      </trkpt>
      <trkpt lat="43.72501" lon="7.28885">
        <ele>38.59</ele>
        <time>2014-07-26T14:12:45Z</time>
      </trkpt>
      <trkpt lat="43.72495" lon="7.28896">
        <ele>38.59</ele>
        <time>2014-07-26T14:12:47Z</time>
      </trkpt>
      <trkpt lat="43.72491" lon="7.28901">
        <ele>38.59</ele>
        <time>2014-07-26T14:12:48Z</time>
      </trkpt>
      <trkpt lat="43.72489" lon="7.28907">
        <ele>38.59</ele>
        <time>2014-07-26T14:12:49Z</time>
      </trkpt>
      <trkpt lat="43.72468" lon="7.2895">
        <ele>37.63</ele>
        <time>2014-07-26T14:12:57Z</time>
      </trkpt>
      <trkpt lat="43.72464" lon="7.28955">
        <ele>37.15</ele>
        <time>2014-07-26T14:12:58Z</time>
      </trkpt>
      <trkpt lat="43.7246" lon="7.28959">
        <ele>37.15</ele>
        <time>2014-07-26T14:12:59Z</time>
      </trkpt>
      <trkpt lat="43.72455" lon="7.28963">
        <ele>37.15</ele>
        <time>2014-07-26T14:13:00Z</time>
      </trkpt>
      <trkpt lat="43.7245" lon="7.28967">
        <ele>37.15</ele>
        <time>2014-07-26T14:13:01Z</time>
      </trkpt>
      <trkpt lat="43.72445" lon="7.28971">
        <ele>37.15</ele>
        <time>2014-07-26T14:13:02Z</time>
      </trkpt>
      <trkpt lat="43.7243" lon="7.28982">
        <ele>37.15</ele>
        <time>2014-07-26T14:13:05Z</time>
      </trkpt>
      <trkpt lat="43.72424" lon="7.28985">
        <ele>37.15</ele>
        <time>2014-07-26T14:13:06Z</time>
      </trkpt>
      <trkpt lat="43.72419" lon="7.28987">
        <ele>37.15</ele>
        <time>2014-07-26T14:13:07Z</time>
      </trkpt>
      <trkpt lat="43.72414" lon="7.28988">
        <ele>37.15</ele>
        <time>2014-07-26T14:13:08Z</time>
      </trkpt>
      <trkpt lat="43.72409" lon="7.28989">
        <ele>37.15</ele>
        <time>2014-07-26T14:13:09Z</time>
      </trkpt>
      <trkpt lat="43.72404" lon="7.28992">
        <ele>37.15</ele>
        <time>2014-07-26T14:13:10Z</time>
      </trkpt>
      <trkpt lat="43.7238" lon="7.29003">
        <ele>38.11</ele>
        <time>2014-07-26T14:13:15Z</time>
      </trkpt>
      <trkpt lat="43.72375" lon="7.29007">
        <ele>39.55</ele>
        <time>2014-07-26T14:13:16Z</time>
      </trkpt>
      <trkpt lat="43.72369" lon="7.29009">
        <ele>40.03</ele>
        <time>2014-07-26T14:13:17Z</time>
      </trkpt>
      <trkpt lat="43.72365" lon="7.2901">
        <ele>40.51</ele>
        <time>2014-07-26T14:13:18Z</time>
      </trkpt>
      <trkpt lat="43.7236" lon="7.29012">
        <ele>41.47</ele>
        <time>2014-07-26T14:13:19Z</time>
      </trkpt>
      <trkpt lat="43.72356" lon="7.29014">
        <ele>42.44</ele>
        <time>2014-07-26T14:13:20Z</time>
      </trkpt>
      <trkpt lat="43.72319" lon="7.29019">
        <ele>53.01</ele>
        <time>2014-07-26T14:13:30Z</time>
      </trkpt>
      <trkpt lat="43.72311" lon="7.29014">
        <ele>55.89</ele>
        <time>2014-07-26T14:13:35Z</time>
      </trkpt>
      <trkpt lat="43.7231" lon="7.29012">
        <ele>55.41</ele>
        <time>2014-07-26T14:13:36Z</time>
      </trkpt>
      <trkpt lat="43.72309" lon="7.2901">
        <ele>55.41</ele>
        <time>2014-07-26T14:13:37Z</time>
      </trkpt>
      <trkpt lat="43.72288" lon="7.29005">
        <ele>57.34</ele>
        <time>2014-07-26T14:13:47Z</time>
      </trkpt>
      <trkpt lat="43.72286" lon="7.29006">
        <ele>57.34</ele>
        <time>2014-07-26T14:13:48Z</time>
      </trkpt>
      <trkpt lat="43.72285" lon="7.29007">
        <ele>57.82</ele>
        <time>2014-07-26T14:13:49Z</time>
      </trkpt>
      <trkpt lat="43.72284" lon="7.29008">
        <ele>57.34</ele>
        <time>2014-07-26T14:13:50Z</time>
      </trkpt>
      <trkpt lat="43.72284" lon="7.2901">
        <ele>56.86</ele>
        <time>2014-07-26T14:13:51Z</time>
      </trkpt>
      <trkpt lat="43.72283" lon="7.29013">
        <ele>56.37</ele>
        <time>2014-07-26T14:13:52Z</time>
      </trkpt>
      <trkpt lat="43.72283" lon="7.29026">
        <ele>55.41</ele>
        <time>2014-07-26T14:13:55Z</time>
      </trkpt>
      <trkpt lat="43.72282" lon="7.29031">
        <ele>55.41</ele>
        <time>2014-07-26T14:13:56Z</time>
      </trkpt>
      <trkpt lat="43.72282" lon="7.29037">
        <ele>54.93</ele>
        <time>2014-07-26T14:13:57Z</time>
      </trkpt>
      <trkpt lat="43.72282" lon="7.29043">
        <ele>54.93</ele>
        <time>2014-07-26T14:13:58Z</time>
      </trkpt>
      <trkpt lat="43.72281" lon="7.29049">
        <ele>54.93</ele>
        <time>2014-07-26T14:13:59Z</time>
      </trkpt>
      <trkpt lat="43.7228" lon="7.29054">
        <ele>54.45</ele>
        <time>2014-07-26T14:14:00Z</time>
      </trkpt>
      <trkpt lat="43.7228" lon="7.2906">
        <ele>54.45</ele>
        <time>2014-07-26T14:14:01Z</time>
      </trkpt>
      <trkpt lat="43.72277" lon="7.29099">
        <ele>53.97</ele>
        <time>2014-07-26T14:14:08Z</time>
      </trkpt>
      <trkpt lat="43.72277" lon="7.29105">
        <ele>53.97</ele>
        <time>2014-07-26T14:14:09Z</time>
      </trkpt>
      <trkpt lat="43.72274" lon="7.29158">
        <ele>50.61</ele>
        <time>2014-07-26T14:14:22Z</time>
      </trkpt>
      <trkpt lat="43.72275" lon="7.29161">
        <ele>49.16</ele>
        <time>2014-07-26T14:14:34Z</time>
      </trkpt>
      <trkpt lat="43.72274" lon="7.29162">
        <ele>46.76</ele>
        <time>2014-07-26T14:14:54Z</time>
      </trkpt>
      <trkpt lat="43.72271" lon="7.29191">
        <ele>46.76</ele>
        <time>2014-07-26T14:15:03Z</time>
      </trkpt>
      <trkpt lat="43.72268" lon="7.29219">
        <ele>46.28</ele>
        <time>2014-07-26T14:15:07Z</time>
      </trkpt>
      <trkpt lat="43.72267" lon="7.29226">
        <ele>46.28</ele>
        <time>2014-07-26T14:15:08Z</time>
      </trkpt>
      <trkpt lat="43.72267" lon="7.29233">
        <ele>46.28</ele>
        <time>2014-07-26T14:15:09Z</time>
      </trkpt>
      <trkpt lat="43.72266" lon="7.29239">
        <ele>46.28</ele>
        <time>2014-07-26T14:15:10Z</time>
      </trkpt>
      <trkpt lat="43.72265" lon="7.29246">
        <ele>46.28</ele>
        <time>2014-07-26T14:15:11Z</time>
      </trkpt>
      <trkpt lat="43.72264" lon="7.29253">
        <ele>46.28</ele>
        <time>2014-07-26T14:15:12Z</time>
      </trkpt>
      <trkpt lat="43.72253" lon="7.29284">
        <ele>45.8</ele>
        <time>2014-07-26T14:15:17Z</time>
      </trkpt>
      <trkpt lat="43.7224" lon="7.29299">
        <ele>45.8</ele>
        <time>2014-07-26T14:15:20Z</time>
      </trkpt>
      <trkpt lat="43.72235" lon="7.29303">
        <ele>45.8</ele>
        <time>2014-07-26T14:15:21Z</time>
      </trkpt>
      <trkpt lat="43.7223" lon="7.29305">
        <ele>45.8</ele>
        <time>2014-07-26T14:15:22Z</time>
      </trkpt>
      <trkpt lat="43.72176" lon="7.29331">
        <ele>46.28</ele>
        <time>2014-07-26T14:15:32Z</time>
      </trkpt>
      <trkpt lat="43.72171" lon="7.29333">
        <ele>46.76</ele>
        <time>2014-07-26T14:15:33Z</time>
      </trkpt>
      <trkpt lat="43.72167" lon="7.29334">
        <ele>46.28</ele>
        <time>2014-07-26T14:15:34Z</time>
      </trkpt>
      <trkpt lat="43.72159" lon="7.2934">
        <ele>45.8</ele>
        <time>2014-07-26T14:15:36Z</time>
      </trkpt>
      <trkpt lat="43.7215" lon="7.29347">
        <ele>45.8</ele>
        <time>2014-07-26T14:15:38Z</time>
      </trkpt>
      <trkpt lat="43.72106" lon="7.29374">
        <ele>45.32</ele>
        <time>2014-07-26T14:15:47Z</time>
      </trkpt>
      <trkpt lat="43.72099" lon="7.29374">
        <ele>45.32</ele>
        <time>2014-07-26T14:15:48Z</time>
      </trkpt>
      <trkpt lat="43.72093" lon="7.29375">
        <ele>45.32</ele>
        <time>2014-07-26T14:15:49Z</time>
      </trkpt>
      <trkpt lat="43.72088" lon="7.29376">
        <ele>45.8</ele>
        <time>2014-07-26T14:15:50Z</time>
      </trkpt>
      <trkpt lat="43.72083" lon="7.29379">
        <ele>45.8</ele>
        <time>2014-07-26T14:15:51Z</time>
      </trkpt>
      <trkpt lat="43.72078" lon="7.2938">
        <ele>45.8</ele>
        <time>2014-07-26T14:15:52Z</time>
      </trkpt>
      <trkpt lat="43.72072" lon="7.29381">
        <ele>45.8</ele>
        <time>2014-07-26T14:15:53Z</time>
      </trkpt>
      <trkpt lat="43.72066" lon="7.29382">
        <ele>45.8</ele>
        <time>2014-07-26T14:15:54Z</time>
      </trkpt>
      <trkpt lat="43.72061" lon="7.29384">
        <ele>45.8</ele>
        <time>2014-07-26T14:15:55Z</time>
      </trkpt>
      <trkpt lat="43.72055" lon="7.29384">
        <ele>45.8</ele>
        <time>2014-07-26T14:15:56Z</time>
      </trkpt>
      <trkpt lat="43.7205" lon="7.29387">
        <ele>45.8</ele>
        <time>2014-07-26T14:15:57Z</time>
      </trkpt>
      <trkpt lat="43.72029" lon="7.29392">
        <ele>45.8</ele>
        <time>2014-07-26T14:16:01Z</time>
      </trkpt>
      <trkpt lat="43.72024" lon="7.29392">
        <ele>45.8</ele>
        <time>2014-07-26T14:16:02Z</time>
      </trkpt>
      <trkpt lat="43.71995" lon="7.29393">
        <ele>45.8</ele>
        <time>2014-07-26T14:16:07Z</time>
      </trkpt>
      <trkpt lat="43.71989" lon="7.29394">
        <ele>45.8</ele>
        <time>2014-07-26T14:16:08Z</time>
      </trkpt>
      <trkpt lat="43.71963" lon="7.29397">
        <ele>45.8</ele>
        <time>2014-07-26T14:16:13Z</time>
      </trkpt>
      <trkpt lat="43.71929" lon="7.29405">
        <ele>45.32</ele>
        <time>2014-07-26T14:16:20Z</time>
      </trkpt>
      <trkpt lat="43.71925" lon="7.29407">
        <ele>44.84</ele>
        <time>2014-07-26T14:16:21Z</time>
      </trkpt>
      <trkpt lat="43.71913" lon="7.29416">
        <ele>44.36</ele>
        <time>2014-07-26T14:16:24Z</time>
      </trkpt>
      <trkpt lat="43.71908" lon="7.29418">
        <ele>44.36</ele>
        <time>2014-07-26T14:16:25Z</time>
      </trkpt>
      <trkpt lat="43.71902" lon="7.2942">
        <ele>43.88</ele>
        <time>2014-07-26T14:16:26Z</time>
      </trkpt>
      <trkpt lat="43.7188" lon="7.29426">
        <ele>43.88</ele>
        <time>2014-07-26T14:16:30Z</time>
      </trkpt>
      <trkpt lat="43.7184" lon="7.29433">
        <ele>42.92</ele>
        <time>2014-07-26T14:16:38Z</time>
      </trkpt>
      <trkpt lat="43.7183" lon="7.29436">
        <ele>42.92</ele>
        <time>2014-07-26T14:16:40Z</time>
      </trkpt>
      <trkpt lat="43.71825" lon="7.29438">
        <ele>42.92</ele>
        <time>2014-07-26T14:16:41Z</time>
      </trkpt>
      <trkpt lat="43.71819" lon="7.29439">
        <ele>42.92</ele>
        <time>2014-07-26T14:16:42Z</time>
      </trkpt>
      <trkpt lat="43.71813" lon="7.29441">
        <ele>42.92</ele>
        <time>2014-07-26T14:16:43Z</time>
      </trkpt>
      <trkpt lat="43.71809" lon="7.29442">
        <ele>42.92</ele>
        <time>2014-07-26T14:16:44Z</time>
      </trkpt>
      <trkpt lat="43.71805" lon="7.29442">
        <ele>42.92</ele>
        <time>2014-07-26T14:16:45Z</time>
      </trkpt>
      <trkpt lat="43.718" lon="7.29441">
        <ele>42.92</ele>
        <time>2014-07-26T14:16:46Z</time>
      </trkpt>
      <trkpt lat="43.71796" lon="7.2944">
        <ele>42.92</ele>
        <time>2014-07-26T14:16:47Z</time>
      </trkpt>
      <trkpt lat="43.71751" lon="7.29439">
        <ele>42.92</ele>
        <time>2014-07-26T14:16:57Z</time>
      </trkpt>
      <trkpt lat="43.71742" lon="7.29437">
        <ele>42.44</ele>
        <time>2014-07-26T14:16:59Z</time>
      </trkpt>
      <trkpt lat="43.71737" lon="7.29437">
        <ele>42.92</ele>
        <time>2014-07-26T14:17:00Z</time>
      </trkpt>
      <trkpt lat="43.71727" lon="7.29433">
        <ele>43.4</ele>
        <time>2014-07-26T14:17:02Z</time>
      </trkpt>
      <trkpt lat="43.71706" lon="7.29424">
        <ele>44.84</ele>
        <time>2014-07-26T14:17:07Z</time>
      </trkpt>
      <trkpt lat="43.71695" lon="7.29426">
        <ele>45.8</ele>
        <time>2014-07-26T14:17:09Z</time>
      </trkpt>
      <trkpt lat="43.7168" lon="7.29425">
        <ele>46.76</ele>
        <time>2014-07-26T14:17:12Z</time>
      </trkpt>
      <trkpt lat="43.71672" lon="7.29426">
        <ele>47.24</ele>
        <time>2014-07-26T14:17:14Z</time>
      </trkpt>
      <trkpt lat="43.71668" lon="7.29427">
        <ele>47.72</ele>
        <time>2014-07-26T14:17:15Z</time>
      </trkpt>
      <trkpt lat="43.7166" lon="7.29425">
        <ele>48.2</ele>
        <time>2014-07-26T14:17:17Z</time>
      </trkpt>
      <trkpt lat="43.71655" lon="7.29425">
        <ele>48.2</ele>
        <time>2014-07-26T14:17:18Z</time>
      </trkpt>
      <trkpt lat="43.71649" lon="7.29426">
        <ele>48.2</ele>
        <time>2014-07-26T14:17:19Z</time>
      </trkpt>
      <trkpt lat="43.71644" lon="7.29426">
        <ele>48.2</ele>
        <time>2014-07-26T14:17:20Z</time>
      </trkpt>
      <trkpt lat="43.71638" lon="7.29427">
        <ele>48.2</ele>
        <time>2014-07-26T14:17:21Z</time>
      </trkpt>
      <trkpt lat="43.7157" lon="7.2944">
        <ele>47.24</ele>
        <time>2014-07-26T14:17:32Z</time>
      </trkpt>
      <trkpt lat="43.71565" lon="7.29443">
        <ele>46.76</ele>
        <time>2014-07-26T14:17:33Z</time>
      </trkpt>
      <trkpt lat="43.7156" lon="7.29446">
        <ele>46.76</ele>
        <time>2014-07-26T14:17:34Z</time>
      </trkpt>
      <trkpt lat="43.71515" lon="7.29462">
        <ele>45.8</ele>
        <time>2014-07-26T14:17:43Z</time>
      </trkpt>
      <trkpt lat="43.71511" lon="7.29463">
        <ele>45.8</ele>
        <time>2014-07-26T14:17:44Z</time>
      </trkpt>
      <trkpt lat="43.71507" lon="7.29464">
        <ele>45.8</ele>
        <time>2014-07-26T14:17:45Z</time>
      </trkpt>
      <trkpt lat="43.71502" lon="7.29465">
        <ele>45.32</ele>
        <time>2014-07-26T14:17:46Z</time>
      </trkpt>
      <trkpt lat="43.71496" lon="7.29468">
        <ele>44.84</ele>
        <time>2014-07-26T14:17:47Z</time>
      </trkpt>
      <trkpt lat="43.71484" lon="7.29472">
        <ele>43.88</ele>
        <time>2014-07-26T14:17:49Z</time>
      </trkpt>
      <trkpt lat="43.71478" lon="7.29472">
        <ele>43.4</ele>
        <time>2014-07-26T14:17:50Z</time>
      </trkpt>
      <trkpt lat="43.71473" lon="7.29472">
        <ele>43.4</ele>
        <time>2014-07-26T14:17:51Z</time>
      </trkpt>
      <trkpt lat="43.71468" lon="7.29471">
        <ele>43.4</ele>
        <time>2014-07-26T14:17:52Z</time>
      </trkpt>
      <trkpt lat="43.71462" lon="7.29471">
        <ele>42.92</ele>
        <time>2014-07-26T14:17:53Z</time>
      </trkpt>
      <trkpt lat="43.71439" lon="7.29468">
        <ele>41.47</ele>
        <time>2014-07-26T14:17:58Z</time>
      </trkpt>
      <trkpt lat="43.71433" lon="7.29468">
        <ele>41.47</ele>
        <time>2014-07-26T14:17:59Z</time>
      </trkpt>
      <trkpt lat="43.71428" lon="7.29467">
        <ele>40.99</ele>
        <time>2014-07-26T14:18:00Z</time>
      </trkpt>
      <trkpt lat="43.71424" lon="7.29466">
        <ele>40.99</ele>
        <time>2014-07-26T14:18:01Z</time>
      </trkpt>
      <trkpt lat="43.71418" lon="7.29466">
        <ele>40.99</ele>
        <time>2014-07-26T14:18:02Z</time>
      </trkpt>
      <trkpt lat="43.7138" lon="7.29462">
        <ele>40.51</ele>
        <time>2014-07-26T14:18:09Z</time>
      </trkpt>
      <trkpt lat="43.71339" lon="7.2945">
        <ele>40.51</ele>
        <time>2014-07-26T14:18:18Z</time>
      </trkpt>
      <trkpt lat="43.71335" lon="7.29448">
        <ele>40.51</ele>
        <time>2014-07-26T14:18:19Z</time>
      </trkpt>
      <trkpt lat="43.71331" lon="7.29448">
        <ele>40.51</ele>
        <time>2014-07-26T14:18:20Z</time>
      </trkpt>
      <trkpt lat="43.71326" lon="7.29447">
        <ele>40.51</ele>
        <time>2014-07-26T14:18:21Z</time>
      </trkpt>
      <trkpt lat="43.71322" lon="7.29447">
        <ele>40.03</ele>
        <time>2014-07-26T14:18:22Z</time>
      </trkpt>
      <trkpt lat="43.71287" lon="7.29449">
        <ele>39.55</ele>
        <time>2014-07-26T14:18:29Z</time>
      </trkpt>
      <trkpt lat="43.71282" lon="7.29447">
        <ele>39.55</ele>
        <time>2014-07-26T14:18:30Z</time>
      </trkpt>
      <trkpt lat="43.71226" lon="7.29442">
        <ele>39.07</ele>
        <time>2014-07-26T14:18:42Z</time>
      </trkpt>
      <trkpt lat="43.7122" lon="7.29441">
        <ele>39.07</ele>
        <time>2014-07-26T14:18:43Z</time>
      </trkpt>
      <trkpt lat="43.71204" lon="7.29433">
        <ele>38.59</ele>
        <time>2014-07-26T14:18:46Z</time>
      </trkpt>
      <trkpt lat="43.71159" lon="7.29429">
        <ele>39.55</ele>
        <time>2014-07-26T14:18:57Z</time>
      </trkpt>
      <trkpt lat="43.71132" lon="7.29413">
        <ele>40.03</ele>
        <time>2014-07-26T14:19:04Z</time>
      </trkpt>
      <trkpt lat="43.7113" lon="7.29414">
        <ele>40.03</ele>
        <time>2014-07-26T14:19:05Z</time>
      </trkpt>
      <trkpt lat="43.7113" lon="7.29416">
        <ele>40.03</ele>
        <time>2014-07-26T14:19:06Z</time>
      </trkpt>
      <trkpt lat="43.7113" lon="7.29421">
        <ele>40.03</ele>
        <time>2014-07-26T14:19:09Z</time>
      </trkpt>
      <trkpt lat="43.71131" lon="7.29424">
        <ele>40.03</ele>
        <time>2014-07-26T14:19:10Z</time>
      </trkpt>
      <trkpt lat="43.71133" lon="7.29426">
        <ele>40.03</ele>
        <time>2014-07-26T14:19:11Z</time>
      </trkpt>
      <trkpt lat="43.71134" lon="7.29428">
        <ele>40.51</ele>
        <time>2014-07-26T14:19:12Z</time>
      </trkpt>
      <trkpt lat="43.71135" lon="7.2943">
        <ele>40.51</ele>
        <time>2014-07-26T14:19:13Z</time>
      </trkpt>
      <trkpt lat="43.71137" lon="7.29432">
        <ele>40.51</ele>
        <time>2014-07-26T14:19:14Z</time>
      </trkpt>
      <trkpt lat="43.71153" lon="7.29444">
        <ele>41.95</ele>
        <time>2014-07-26T14:19:25Z</time>
      </trkpt>
      <trkpt lat="43.71176" lon="7.29456">
        <ele>41.95</ele>
        <time>2014-07-26T14:19:35Z</time>
      </trkpt>
      <trkpt lat="43.71205" lon="7.29464">
        <ele>42.92</ele>
        <time>2014-07-26T14:19:47Z</time>
      </trkpt>
      <trkpt lat="43.71228" lon="7.29473">
        <ele>42.44</ele>
        <time>2014-07-26T14:19:54Z</time>
      </trkpt>
      <trkpt lat="43.71258" lon="7.29489">
        <ele>42.44</ele>
        <time>2014-07-26T14:20:07Z</time>
      </trkpt>
      <trkpt lat="43.71273" lon="7.29494">
        <ele>44.36</ele>
        <time>2014-07-26T14:20:18Z</time>
      </trkpt>
      <trkpt lat="43.71268" lon="7.29494">
        <ele>44.84</ele>
        <time>2014-07-26T14:20:21Z</time>
      </trkpt>
      <trkpt lat="43.71244" lon="7.29505">
        <ele>44.84</ele>
        <time>2014-07-26T14:20:34Z</time>
      </trkpt>
      <trkpt lat="43.71214" lon="7.29514">
        <ele>44.36</ele>
        <time>2014-07-26T14:20:46Z</time>
      </trkpt>
      <trkpt lat="43.71186" lon="7.29512">
        <ele>44.36</ele>
        <time>2014-07-26T14:20:59Z</time>
      </trkpt>
      <trkpt lat="43.7116" lon="7.29517">
        <ele>43.88</ele>
        <time>2014-07-26T14:21:11Z</time>
      </trkpt>
      <trkpt lat="43.71155" lon="7.2952">
        <ele>43.4</ele>
        <time>2014-07-26T14:21:15Z</time>
      </trkpt>
      <trkpt lat="43.71146" lon="7.29523">
        <ele>43.4</ele>
        <time>2014-07-26T14:21:21Z</time>
      </trkpt>
      <trkpt lat="43.71144" lon="7.29523">
        <ele>43.4</ele>
        <time>2014-07-26T14:21:22Z</time>
      </trkpt>
      <trkpt lat="43.71142" lon="7.29524">
        <ele>43.4</ele>
        <time>2014-07-26T14:21:23Z</time>
      </trkpt>
      <trkpt lat="43.71139" lon="7.29525">
        <ele>43.4</ele>
        <time>2014-07-26T14:21:24Z</time>
      </trkpt>
      <trkpt lat="43.71136" lon="7.29526">
        <ele>43.4</ele>
        <time>2014-07-26T14:21:25Z</time>
      </trkpt>
      <trkpt lat="43.71105" lon="7.29523">
        <ele>43.4</ele>
        <time>2014-07-26T14:21:36Z</time>
      </trkpt>
      <trkpt lat="43.71098" lon="7.29515">
        <ele>43.88</ele>
        <time>2014-07-26T14:21:39Z</time>
      </trkpt>
      <trkpt lat="43.71082" lon="7.29521">
        <ele>44.84</ele>
        <time>2014-07-26T14:21:54Z</time>
      </trkpt>
      <trkpt lat="43.71088" lon="7.29524">
        <ele>45.8</ele>
        <time>2014-07-26T14:21:58Z</time>
      </trkpt>
      <trkpt lat="43.7109" lon="7.29522">
        <ele>45.8</ele>
        <time>2014-07-26T14:21:59Z</time>
      </trkpt>
      <trkpt lat="43.71101" lon="7.29516">
        <ele>46.76</ele>
        <time>2014-07-26T14:22:05Z</time>
      </trkpt>
      <trkpt lat="43.71104" lon="7.29518">
        <ele>46.76</ele>
        <time>2014-07-26T14:22:06Z</time>
      </trkpt>
      <trkpt lat="43.71107" lon="7.2952">
        <ele>46.76</ele>
        <time>2014-07-26T14:22:07Z</time>
      </trkpt>
      <trkpt lat="43.71109" lon="7.29522">
        <ele>46.76</ele>
        <time>2014-07-26T14:22:08Z</time>
      </trkpt>
      <trkpt lat="43.71111" lon="7.29524">
        <ele>47.24</ele>
        <time>2014-07-26T14:22:09Z</time>
      </trkpt>
      <trkpt lat="43.71114" lon="7.29526">
        <ele>47.24</ele>
        <time>2014-07-26T14:22:10Z</time>
      </trkpt>
      <trkpt lat="43.71116" lon="7.29527">
        <ele>47.24</ele>
        <time>2014-07-26T14:22:11Z</time>
      </trkpt>
      <trkpt lat="43.7113" lon="7.29535">
        <ele>47.72</ele>
        <time>2014-07-26T14:22:19Z</time>
      </trkpt>
      <trkpt lat="43.71136" lon="7.29542">
        <ele>47.72</ele>
        <time>2014-07-26T14:22:22Z</time>
      </trkpt>
      <trkpt lat="43.71159" lon="7.29553">
        <ele>48.2</ele>
        <time>2014-07-26T14:22:35Z</time>
      </trkpt>
      <trkpt lat="43.71175" lon="7.29562">
        <ele>48.68</ele>
        <time>2014-07-26T14:22:41Z</time>
      </trkpt>
      <trkpt lat="43.71178" lon="7.29565">
        <ele>48.68</ele>
        <time>2014-07-26T14:22:42Z</time>
      </trkpt>
      <trkpt lat="43.71181" lon="7.29569">
        <ele>48.68</ele>
        <time>2014-07-26T14:22:43Z</time>
      </trkpt>
      <trkpt lat="43.71184" lon="7.2957">
        <ele>48.68</ele>
        <time>2014-07-26T14:22:44Z</time>
      </trkpt>
      <trkpt lat="43.71185" lon="7.29571">
        <ele>49.16</ele>
        <time>2014-07-26T14:22:45Z</time>
      </trkpt>
      <trkpt lat="43.71188" lon="7.29572">
        <ele>49.16</ele>
        <time>2014-07-26T14:22:46Z</time>
      </trkpt>
      <trkpt lat="43.7119" lon="7.29574">
        <ele>49.16</ele>
        <time>2014-07-26T14:22:47Z</time>
      </trkpt>
      <trkpt lat="43.71192" lon="7.29577">
        <ele>49.16</ele>
        <time>2014-07-26T14:22:48Z</time>
      </trkpt>
      <trkpt lat="43.71197" lon="7.29579">
        <ele>49.16</ele>
        <time>2014-07-26T14:22:49Z</time>
      </trkpt>
      <trkpt lat="43.71199" lon="7.29578">
        <ele>50.13</ele>
        <time>2014-07-26T14:22:50Z</time>
      </trkpt>
      <trkpt lat="43.71202" lon="7.29578">
        <ele>50.61</ele>
        <time>2014-07-26T14:22:51Z</time>
      </trkpt>
      <trkpt lat="43.71204" lon="7.29576">
        <ele>52.05</ele>
        <time>2014-07-26T14:22:52Z</time>
      </trkpt>
      <trkpt lat="43.71207" lon="7.29577">
        <ele>52.05</ele>
        <time>2014-07-26T14:22:53Z</time>
      </trkpt>
      <trkpt lat="43.71231" lon="7.29579">
        <ele>53.01</ele>
        <time>2014-07-26T14:23:03Z</time>
      </trkpt>
      <trkpt lat="43.71248" lon="7.29578">
        <ele>53.49</ele>
        <time>2014-07-26T14:23:16Z</time>
      </trkpt>
      <trkpt lat="43.71276" lon="7.29592">
        <ele>58.3</ele>
        <time>2014-07-26T14:23:27Z</time>
      </trkpt>
      <trkpt lat="43.71305" lon="7.29606">
        <ele>62.14</ele>
        <time>2014-07-26T14:23:38Z</time>
      </trkpt>
      <trkpt lat="43.71315" lon="7.29612">
        <ele>62.62</ele>
        <time>2014-07-26T14:23:43Z</time>
      </trkpt>
      <trkpt lat="43.71317" lon="7.29613">
        <ele>63.1</ele>
        <time>2014-07-26T14:23:44Z</time>
      </trkpt>
      <trkpt lat="43.7132" lon="7.29615">
        <ele>63.1</ele>
        <time>2014-07-26T14:23:45Z</time>
      </trkpt>
      <trkpt lat="43.71322" lon="7.29617">
        <ele>63.1</ele>
        <time>2014-07-26T14:23:46Z</time>
      </trkpt>
      <trkpt lat="43.71324" lon="7.29618">
        <ele>63.1</ele>
        <time>2014-07-26T14:23:47Z</time>
      </trkpt>
      <trkpt lat="43.71327" lon="7.29618">
        <ele>63.58</ele>
        <time>2014-07-26T14:23:48Z</time>
      </trkpt>
      <trkpt lat="43.71329" lon="7.29619">
        <ele>63.58</ele>
        <time>2014-07-26T14:23:49Z</time>
      </trkpt>
      <trkpt lat="43.71331" lon="7.2962">
        <ele>64.07</ele>
        <time>2014-07-26T14:23:50Z</time>
      </trkpt>
      <trkpt lat="43.71334" lon="7.29621">
        <ele>64.07</ele>
        <time>2014-07-26T14:23:51Z</time>
      </trkpt>
      <trkpt lat="43.71336" lon="7.29622">
        <ele>64.55</ele>
        <time>2014-07-26T14:23:52Z</time>
      </trkpt>
      <trkpt lat="43.71359" lon="7.29634">
        <ele>67.43</ele>
        <time>2014-07-26T14:24:02Z</time>
      </trkpt>
      <trkpt lat="43.71377" lon="7.29648">
        <ele>68.39</ele>
        <time>2014-07-26T14:24:11Z</time>
      </trkpt>
      <trkpt lat="43.71379" lon="7.29649">
        <ele>68.87</ele>
        <time>2014-07-26T14:24:12Z</time>
      </trkpt>
      <trkpt lat="43.71382" lon="7.29651">
        <ele>68.87</ele>
        <time>2014-07-26T14:24:13Z</time>
      </trkpt>
      <trkpt lat="43.71384" lon="7.29653">
        <ele>68.87</ele>
        <time>2014-07-26T14:24:14Z</time>
      </trkpt>
      <trkpt lat="43.71387" lon="7.29654">
        <ele>68.87</ele>
        <time>2014-07-26T14:24:15Z</time>
      </trkpt>
      <trkpt lat="43.71389" lon="7.29655">
        <ele>68.87</ele>
        <time>2014-07-26T14:24:16Z</time>
      </trkpt>
      <trkpt lat="43.7141" lon="7.29665">
        <ele>70.79</ele>
        <time>2014-07-26T14:24:25Z</time>
      </trkpt>
      <trkpt lat="43.71421" lon="7.29673">
        <ele>72.72</ele>
        <time>2014-07-26T14:24:34Z</time>
      </trkpt>
      <trkpt lat="43.71422" lon="7.29673">
        <ele>74.16</ele>
        <time>2014-07-26T14:24:50Z</time>
      </trkpt>
      <trkpt lat="43.71424" lon="7.29677">
        <ele>74.64</ele>
        <time>2014-07-26T14:25:12Z</time>
      </trkpt>
      <trkpt lat="43.71424" lon="7.2968">
        <ele>74.64</ele>
        <time>2014-07-26T14:25:31Z</time>
      </trkpt>
      <trkpt lat="43.71423" lon="7.29689">
        <ele>75.12</ele>
        <time>2014-07-26T14:25:46Z</time>
      </trkpt>
      <trkpt lat="43.71422" lon="7.29692">
        <ele>75.12</ele>
        <time>2014-07-26T14:26:01Z</time>
      </trkpt>
      <trkpt lat="43.71418" lon="7.29694">
        <ele>75.12</ele>
        <time>2014-07-26T14:26:15Z</time>
      </trkpt>
      <trkpt lat="43.7141" lon="7.29697">
        <ele>75.6</ele>
        <time>2014-07-26T14:26:33Z</time>
      </trkpt>
      <trkpt lat="43.71409" lon="7.29691">
        <ele>78</ele>
        <time>2014-07-26T14:26:51Z</time>
      </trkpt>
      <trkpt lat="43.71409" lon="7.29692">
        <ele>78.48</ele>
        <time>2014-07-26T14:27:09Z</time>
      </trkpt>
      <trkpt lat="43.71407" lon="7.29694">
        <ele>81.85</ele>
        <time>2014-07-26T14:27:26Z</time>
      </trkpt>
      <trkpt lat="43.71406" lon="7.29694">
        <ele>83.77</ele>
        <time>2014-07-26T14:27:57Z</time>
      </trkpt>
      <trkpt lat="43.71407" lon="7.29694">
        <ele>85.21</ele>
        <time>2014-07-26T14:28:25Z</time>
      </trkpt>
      <trkpt lat="43.71407" lon="7.29694">
        <ele>86.66</ele>
        <time>2014-07-26T14:28:55Z</time>
      </trkpt>
      <trkpt lat="43.71406" lon="7.29693">
        <ele>87.14</ele>
        <time>2014-07-26T14:29:23Z</time>
      </trkpt>
      <trkpt lat="43.71406" lon="7.29694">
        <ele>86.66</ele>
        <time>2014-07-26T14:29:52Z</time>
      </trkpt>
      <trkpt lat="43.71407" lon="7.29695">
        <ele>86.66</ele>
        <time>2014-07-26T14:30:29Z</time>
      </trkpt>
      <trkpt lat="43.71407" lon="7.29696">
        <ele>86.66</ele>
        <time>2014-07-26T14:30:56Z</time>
      </trkpt>
      <trkpt lat="43.71405" lon="7.29698">
        <ele>86.66</ele>
        <time>2014-07-26T14:31:24Z</time>
      </trkpt>
      <trkpt lat="43.71405" lon="7.29698">
        <ele>87.14</ele>
        <time>2014-07-26T14:31:52Z</time>
      </trkpt>
      <trkpt lat="43.71405" lon="7.29698">
        <ele>87.14</ele>
        <time>2014-07-26T14:32:21Z</time>
      </trkpt>
      <trkpt lat="43.71404" lon="7.297">
        <ele>87.62</ele>
        <time>2014-07-26T14:32:45Z</time>
      </trkpt>
      <trkpt lat="43.71408" lon="7.297">
        <ele>88.1</ele>
        <time>2014-07-26T14:33:10Z</time>
      </trkpt>
      <trkpt lat="43.714" lon="7.29695">
        <ele>87.62</ele>
        <time>2014-07-26T14:33:37Z</time>
      </trkpt>
      <trkpt lat="43.71399" lon="7.29697">
        <ele>88.1</ele>
        <time>2014-07-26T14:33:59Z</time>
      </trkpt>
      <trkpt lat="43.71401" lon="7.297">
        <ele>88.58</ele>
        <time>2014-07-26T14:34:23Z</time>
      </trkpt>
      <trkpt lat="43.71406" lon="7.29703">
        <ele>88.58</ele>
        <time>2014-07-26T14:34:52Z</time>
      </trkpt>
      <trkpt lat="43.71409" lon="7.29705">
        <ele>89.06</ele>
        <time>2014-07-26T14:35:14Z</time>
      </trkpt>
      <trkpt lat="43.71409" lon="7.29706">
        <ele>89.54</ele>
        <time>2014-07-26T14:35:43Z</time>
      </trkpt>
      <trkpt lat="43.71407" lon="7.29713">
        <ele>89.54</ele>
        <time>2014-07-26T14:36:11Z</time>
      </trkpt>
      <trkpt lat="43.71405" lon="7.29716">
        <ele>89.54</ele>
        <time>2014-07-26T14:36:39Z</time>
      </trkpt>
      <trkpt lat="43.71403" lon="7.29704">
        <ele>88.1</ele>
        <time>2014-07-26T14:37:11Z</time>
      </trkpt>
      <trkpt lat="43.71415" lon="7.29691">
        <ele>92.9</ele>
        <time>2014-07-26T14:37:37Z</time>
      </trkpt>
      <trkpt lat="43.71406" lon="7.29708">
        <ele>97.23</ele>
        <time>2014-07-26T14:38:07Z</time>
      </trkpt>
      <trkpt lat="43.71407" lon="7.29707">
        <ele>101.56</ele>
        <time>2014-07-26T14:38:37Z</time>
      </trkpt>
      <trkpt lat="43.71402" lon="7.297">
        <ele>103</ele>
        <time>2014-07-26T14:38:54Z</time>
      </trkpt>
      <trkpt lat="43.71388" lon="7.29695">
        <ele>100.6</ele>
        <time>2014-07-26T14:39:19Z</time>
      </trkpt>
      <trkpt lat="43.71372" lon="7.29694">
        <ele>101.08</ele>
        <time>2014-07-26T14:39:42Z</time>
      </trkpt>
      <trkpt lat="43.71374" lon="7.29696">
        <ele>101.08</ele>
        <time>2014-07-26T14:40:08Z</time>
      </trkpt>
      <trkpt lat="43.71375" lon="7.29695">
        <ele>101.08</ele>
        <time>2014-07-26T14:40:31Z</time>
      </trkpt>
      <trkpt lat="43.71363" lon="7.29686">
        <ele>101.08</ele>
        <time>2014-07-26T14:41:00Z</time>
      </trkpt>
      <trkpt lat="43.71383" lon="7.29692">
        <ele>102.04</ele>
        <time>2014-07-26T14:41:24Z</time>
      </trkpt>
      <trkpt lat="43.714" lon="7.29697">
        <ele>102.04</ele>
        <time>2014-07-26T14:41:46Z</time>
      </trkpt>
      <trkpt lat="43.71403" lon="7.29694">
        <ele>102.52</ele>
        <time>2014-07-26T14:42:12Z</time>
      </trkpt>
      <trkpt lat="43.71403" lon="7.29694">
        <ele>102.52</ele>
        <time>2014-07-26T14:42:33Z</time>
      </trkpt>
      <trkpt lat="43.71404" lon="7.29696">
        <ele>103.96</ele>
        <time>2014-07-26T14:43:07Z</time>
      </trkpt>
      <trkpt lat="43.71404" lon="7.29696">
        <ele>104.44</ele>
        <time>2014-07-26T14:43:38Z</time>
      </trkpt>
      <trkpt lat="43.714" lon="7.29696">
        <ele>104.44</ele>
        <time>2014-07-26T14:44:08Z</time>
      </trkpt>
      <trkpt lat="43.71401" lon="7.29696">
        <ele>106.36</ele>
        <time>2014-07-26T14:44:39Z</time>
      </trkpt>
      <trkpt lat="43.71404" lon="7.29696">
        <ele>106.84</ele>
        <time>2014-07-26T14:45:20Z</time>
      </trkpt>
      <trkpt lat="43.71402" lon="7.29693">
        <ele>109.25</ele>
        <time>2014-07-26T14:45:47Z</time>
      </trkpt>
      <trkpt lat="43.71404" lon="7.29695">
        <ele>109.73</ele>
        <time>2014-07-26T14:46:17Z</time>
      </trkpt>
      <trkpt lat="43.71405" lon="7.29696">
        <ele>109.73</ele>
        <time>2014-07-26T14:46:45Z</time>
      </trkpt>
      <trkpt lat="43.71406" lon="7.29696">
        <ele>109.73</ele>
        <time>2014-07-26T14:47:09Z</time>
      </trkpt>
      <trkpt lat="43.71406" lon="7.29697">
        <ele>109.73</ele>
        <time>2014-07-26T14:47:36Z</time>
      </trkpt>
      <trkpt lat="43.71405" lon="7.29699">
        <ele>108.29</ele>
        <time>2014-07-26T14:48:06Z</time>
      </trkpt>
      <trkpt lat="43.71405" lon="7.29699">
        <ele>107.32</ele>
        <time>2014-07-26T14:48:35Z</time>
      </trkpt>
      <trkpt lat="43.71406" lon="7.29701">
        <ele>106.84</ele>
        <time>2014-07-26T14:49:06Z</time>
      </trkpt>
      <trkpt lat="43.71405" lon="7.297">
        <ele>106.36</ele>
        <time>2014-07-26T14:49:39Z</time>
      </trkpt>
      <trkpt lat="43.71405" lon="7.29696">
        <ele>106.84</ele>
        <time>2014-07-26T14:50:15Z</time>
      </trkpt>
      <trkpt lat="43.71405" lon="7.29694">
        <ele>106.84</ele>
        <time>2014-07-26T14:50:54Z</time>
      </trkpt>
      <trkpt lat="43.71405" lon="7.29693">
        <ele>106.36</ele>
        <time>2014-07-26T14:51:27Z</time>
      </trkpt>
      <trkpt lat="43.71405" lon="7.29692">
        <ele>107.32</ele>
        <time>2014-07-26T14:52:01Z</time>
      </trkpt>
      <trkpt lat="43.71405" lon="7.29692">
        <ele>107.32</ele>
        <time>2014-07-26T14:52:30Z</time>
      </trkpt>
      <trkpt lat="43.71404" lon="7.2969">
        <ele>108.29</ele>
        <time>2014-07-26T14:52:53Z</time>
      </trkpt>
      <trkpt lat="43.71403" lon="7.29693">
        <ele>108.77</ele>
        <time>2014-07-26T14:53:20Z</time>
      </trkpt>
      <trkpt lat="43.71403" lon="7.29694">
        <ele>108.29</ele>
        <time>2014-07-26T14:53:50Z</time>
      </trkpt>
      <trkpt lat="43.71403" lon="7.29694">
        <ele>106.84</ele>
        <time>2014-07-26T14:54:19Z</time>
      </trkpt>
      <trkpt lat="43.71404" lon="7.29695">
        <ele>105.88</ele>
        <time>2014-07-26T14:54:47Z</time>
      </trkpt>
      <trkpt lat="43.71405" lon="7.29693">
        <ele>107.81</ele>
        <time>2014-07-26T14:55:21Z</time>
      </trkpt>
      <trkpt lat="43.71406" lon="7.29694">
        <ele>105.4</ele>
        <time>2014-07-26T14:56:01Z</time>
      </trkpt>
      <trkpt lat="43.71407" lon="7.29696">
        <ele>102.04</ele>
        <time>2014-07-26T14:56:41Z</time>
      </trkpt>
      <trkpt lat="43.71407" lon="7.29694">
        <ele>103.48</ele>
        <time>2014-07-26T14:57:23Z</time>
      </trkpt>
      <trkpt lat="43.71407" lon="7.29693">
        <ele>103.48</ele>
        <time>2014-07-26T14:58:02Z</time>
      </trkpt>
      <trkpt lat="43.71407" lon="7.29695">
        <ele>101.56</ele>
        <time>2014-07-26T14:58:45Z</time>
      </trkpt>
      <trkpt lat="43.71407" lon="7.29695">
        <ele>101.08</ele>
        <time>2014-07-26T14:59:25Z</time>
      </trkpt>
      <trkpt lat="43.71406" lon="7.29694">
        <ele>102.04</ele>
        <time>2014-07-26T15:00:01Z</time>
      </trkpt>
      <trkpt lat="43.71407" lon="7.29694">
        <ele>102.52</ele>
        <time>2014-07-26T15:00:38Z</time>
      </trkpt>
      <trkpt lat="43.71407" lon="7.29694">
        <ele>102.04</ele>
        <time>2014-07-26T15:01:13Z</time>
      </trkpt>
      <trkpt lat="43.71406" lon="7.29694">
        <ele>101.56</ele>
        <time>2014-07-26T15:01:54Z</time>
      </trkpt>
      <trkpt lat="43.71406" lon="7.29694">
        <ele>102.04</ele>
        <time>2014-07-26T15:02:29Z</time>
      </trkpt>
      <trkpt lat="43.71406" lon="7.29694">
        <ele>102.52</ele>
        <time>2014-07-26T15:03:00Z</time>
      </trkpt>
      <trkpt lat="43.71403" lon="7.2969">
        <ele>103.48</ele>
        <time>2014-07-26T15:03:21Z</time>
      </trkpt>
      <trkpt lat="43.71403" lon="7.2969">
        <ele>104.92</ele>
        <time>2014-07-26T15:03:42Z</time>
      </trkpt>
      <trkpt lat="43.71409" lon="7.29692">
        <ele>103</ele>
        <time>2014-07-26T15:03:54Z</time>
      </trkpt>
      <trkpt lat="43.71413" lon="7.29694">
        <ele>102.52</ele>
        <time>2014-07-26T15:04:02Z</time>
      </trkpt>
    </trkseg>
  </trk>
</gpx>